<?xml version="1.0" encoding="UTF-8" standalone="no" ?>
<gpx xmlns="http://www.topografix.com/GPX/1/1" xmlns:xsi="http://www.w3.org/2001/XMLSchema-instance" xsi:schemaLocation="http://www.topografix.com/GPX/1/1 http://www.topografix.com/GPX/1/1/gpx.xsd" version="1.1" creator="VisuGPX - https://www.visugpx.com">
  <metadata>
    <name>Raid des Terres Noires VTT 2015</name>
    <desc><![CDATA[Raid des Terres Noires VTT 2015]]></desc>
  </metadata>
  <trk>
    <name><![CDATA[SityTrail - terres noires 2015 b]]></name>
    <trkseg>
      <trkpt lat="44.08388" lon="6.22621">
        <ele>584</ele>
        <time>2015-06-21T06:00:08Z</time>
      </trkpt>
      <trkpt lat="44.08394" lon="6.22626">
        <ele>588</ele>
        <time>2015-06-21T06:00:13Z</time>
      </trkpt>
      <trkpt lat="44.08406" lon="6.22634">
        <ele>588</ele>
        <time>2015-06-21T06:00:16Z</time>
      </trkpt>
      <trkpt lat="44.08423" lon="6.22639">
        <ele>588</ele>
        <time>2015-06-21T06:00:19Z</time>
      </trkpt>
      <trkpt lat="44.0844" lon="6.22641">
        <ele>590</ele>
        <time>2015-06-21T06:00:23Z</time>
      </trkpt>
      <trkpt lat="44.0845" lon="6.22642">
        <ele>590</ele>
        <time>2015-06-21T06:00:26Z</time>
      </trkpt>
      <trkpt lat="44.08465" lon="6.22649">
        <ele>589</ele>
        <time>2015-06-21T06:00:32Z</time>
      </trkpt>
      <trkpt lat="44.08479" lon="6.22658">
        <ele>592</ele>
        <time>2015-06-21T06:00:38Z</time>
      </trkpt>
      <trkpt lat="44.08495" lon="6.22672">
        <ele>590</ele>
        <time>2015-06-21T06:00:43Z</time>
      </trkpt>
      <trkpt lat="44.08513" lon="6.22688">
        <ele>594</ele>
        <time>2015-06-21T06:00:49Z</time>
      </trkpt>
      <trkpt lat="44.08505" lon="6.22701">
        <ele>594</ele>
        <time>2015-06-21T06:00:54Z</time>
      </trkpt>
      <trkpt lat="44.08457" lon="6.22683">
        <ele>598</ele>
        <time>2015-06-21T06:01:02Z</time>
      </trkpt>
      <trkpt lat="44.0843" lon="6.22673">
        <ele>594</ele>
        <time>2015-06-21T06:01:07Z</time>
      </trkpt>
      <trkpt lat="44.08382" lon="6.22656">
        <ele>596</ele>
        <time>2015-06-21T06:01:15Z</time>
      </trkpt>
      <trkpt lat="44.08333" lon="6.22634">
        <ele>595</ele>
        <time>2015-06-21T06:01:23Z</time>
      </trkpt>
      <trkpt lat="44.0831" lon="6.22609">
        <ele>596</ele>
        <time>2015-06-21T06:01:28Z</time>
      </trkpt>
      <trkpt lat="44.08286" lon="6.22569">
        <ele>592</ele>
        <time>2015-06-21T06:01:34Z</time>
      </trkpt>
      <trkpt lat="44.08257" lon="6.22523">
        <ele>591</ele>
        <time>2015-06-21T06:01:42Z</time>
      </trkpt>
      <trkpt lat="44.08242" lon="6.22518">
        <ele>591</ele>
        <time>2015-06-21T06:01:46Z</time>
      </trkpt>
      <trkpt lat="44.08233" lon="6.22526">
        <ele>594</ele>
        <time>2015-06-21T06:01:49Z</time>
      </trkpt>
      <trkpt lat="44.08213" lon="6.22536">
        <ele>594</ele>
        <time>2015-06-21T06:01:54Z</time>
      </trkpt>
      <trkpt lat="44.08196" lon="6.22539">
        <ele>596</ele>
        <time>2015-06-21T06:01:58Z</time>
      </trkpt>
      <trkpt lat="44.08177" lon="6.22554">
        <ele>599</ele>
        <time>2015-06-21T06:02:03Z</time>
      </trkpt>
      <trkpt lat="44.08168" lon="6.22577">
        <ele>601</ele>
        <time>2015-06-21T06:02:07Z</time>
      </trkpt>
      <trkpt lat="44.08154" lon="6.22599">
        <ele>604</ele>
        <time>2015-06-21T06:02:12Z</time>
      </trkpt>
      <trkpt lat="44.08135" lon="6.2262">
        <ele>604</ele>
        <time>2015-06-21T06:02:18Z</time>
      </trkpt>
      <trkpt lat="44.08127" lon="6.22654">
        <ele>611</ele>
        <time>2015-06-21T06:02:25Z</time>
      </trkpt>
      <trkpt lat="44.08123" lon="6.22668">
        <ele>613</ele>
        <time>2015-06-21T06:02:28Z</time>
      </trkpt>
      <trkpt lat="44.08116" lon="6.22691">
        <ele>617</ele>
        <time>2015-06-21T06:02:35Z</time>
      </trkpt>
      <trkpt lat="44.08105" lon="6.22718">
        <ele>619</ele>
        <time>2015-06-21T06:02:44Z</time>
      </trkpt>
      <trkpt lat="44.08101" lon="6.22732">
        <ele>619</ele>
        <time>2015-06-21T06:02:49Z</time>
      </trkpt>
      <trkpt lat="44.08094" lon="6.22751">
        <ele>620</ele>
        <time>2015-06-21T06:02:56Z</time>
      </trkpt>
      <trkpt lat="44.08089" lon="6.22763">
        <ele>620</ele>
        <time>2015-06-21T06:03:01Z</time>
      </trkpt>
      <trkpt lat="44.08077" lon="6.22784">
        <ele>623</ele>
        <time>2015-06-21T06:03:10Z</time>
      </trkpt>
      <trkpt lat="44.08073" lon="6.228">
        <ele>626</ele>
        <time>2015-06-21T06:03:16Z</time>
      </trkpt>
      <trkpt lat="44.08075" lon="6.22822">
        <ele>631</ele>
        <time>2015-06-21T06:03:23Z</time>
      </trkpt>
      <trkpt lat="44.08077" lon="6.22839">
        <ele>631</ele>
        <time>2015-06-21T06:03:28Z</time>
      </trkpt>
      <trkpt lat="44.08083" lon="6.22865">
        <ele>635</ele>
        <time>2015-06-21T06:03:34Z</time>
      </trkpt>
      <trkpt lat="44.08081" lon="6.22888">
        <ele>639</ele>
        <time>2015-06-21T06:03:39Z</time>
      </trkpt>
      <trkpt lat="44.0807" lon="6.22908">
        <ele>643</ele>
        <time>2015-06-21T06:03:45Z</time>
      </trkpt>
      <trkpt lat="44.08062" lon="6.22927">
        <ele>641</ele>
        <time>2015-06-21T06:03:51Z</time>
      </trkpt>
      <trkpt lat="44.0805" lon="6.22943">
        <ele>643</ele>
        <time>2015-06-21T06:03:59Z</time>
      </trkpt>
      <trkpt lat="44.0804" lon="6.22951">
        <ele>645</ele>
        <time>2015-06-21T06:04:05Z</time>
      </trkpt>
      <trkpt lat="44.08028" lon="6.22947">
        <ele>645</ele>
        <time>2015-06-21T06:04:11Z</time>
      </trkpt>
      <trkpt lat="44.08026" lon="6.22933">
        <ele>645</ele>
        <time>2015-06-21T06:04:16Z</time>
      </trkpt>
      <trkpt lat="44.08027" lon="6.22909">
        <ele>645</ele>
        <time>2015-06-21T06:04:25Z</time>
      </trkpt>
      <trkpt lat="44.08023" lon="6.22885">
        <ele>645</ele>
        <time>2015-06-21T06:04:34Z</time>
      </trkpt>
      <trkpt lat="44.08019" lon="6.22864">
        <ele>646</ele>
        <time>2015-06-21T06:04:42Z</time>
      </trkpt>
      <trkpt lat="44.0801" lon="6.22845">
        <ele>649</ele>
        <time>2015-06-21T06:04:50Z</time>
      </trkpt>
      <trkpt lat="44.07999" lon="6.22842">
        <ele>649</ele>
        <time>2015-06-21T06:04:56Z</time>
      </trkpt>
      <trkpt lat="44.07986" lon="6.22852">
        <ele>655</ele>
        <time>2015-06-21T06:05:03Z</time>
      </trkpt>
      <trkpt lat="44.07972" lon="6.22875">
        <ele>655</ele>
        <time>2015-06-21T06:05:12Z</time>
      </trkpt>
      <trkpt lat="44.07967" lon="6.22896">
        <ele>656</ele>
        <time>2015-06-21T06:05:19Z</time>
      </trkpt>
      <trkpt lat="44.07961" lon="6.22916">
        <ele>655</ele>
        <time>2015-06-21T06:05:27Z</time>
      </trkpt>
      <trkpt lat="44.07952" lon="6.22918">
        <ele>662</ele>
        <time>2015-06-21T06:05:32Z</time>
      </trkpt>
      <trkpt lat="44.07941" lon="6.22908">
        <ele>662</ele>
        <time>2015-06-21T06:05:39Z</time>
      </trkpt>
      <trkpt lat="44.07927" lon="6.22889">
        <ele>670</ele>
        <time>2015-06-21T06:05:49Z</time>
      </trkpt>
      <trkpt lat="44.07913" lon="6.22872">
        <ele>671</ele>
        <time>2015-06-21T06:05:59Z</time>
      </trkpt>
      <trkpt lat="44.079" lon="6.22855">
        <ele>677</ele>
        <time>2015-06-21T06:06:08Z</time>
      </trkpt>
      <trkpt lat="44.07894" lon="6.22846">
        <ele>675</ele>
        <time>2015-06-21T06:06:13Z</time>
      </trkpt>
      <trkpt lat="44.07879" lon="6.22832">
        <ele>675</ele>
        <time>2015-06-21T06:06:22Z</time>
      </trkpt>
      <trkpt lat="44.07867" lon="6.22819">
        <ele>682</ele>
        <time>2015-06-21T06:06:30Z</time>
      </trkpt>
      <trkpt lat="44.07855" lon="6.22793">
        <ele>682</ele>
        <time>2015-06-21T06:06:41Z</time>
      </trkpt>
      <trkpt lat="44.07854" lon="6.22764">
        <ele>680</ele>
        <time>2015-06-21T06:06:49Z</time>
      </trkpt>
      <trkpt lat="44.07857" lon="6.22735">
        <ele>681</ele>
        <time>2015-06-21T06:06:58Z</time>
      </trkpt>
      <trkpt lat="44.07852" lon="6.22711">
        <ele>681</ele>
        <time>2015-06-21T06:07:03Z</time>
      </trkpt>
      <trkpt lat="44.07836" lon="6.22674">
        <ele>684</ele>
        <time>2015-06-21T06:07:09Z</time>
      </trkpt>
      <trkpt lat="44.07817" lon="6.2263">
        <ele>686</ele>
        <time>2015-06-21T06:07:15Z</time>
      </trkpt>
      <trkpt lat="44.07806" lon="6.22586">
        <ele>682</ele>
        <time>2015-06-21T06:07:21Z</time>
      </trkpt>
      <trkpt lat="44.0779" lon="6.22555">
        <ele>683</ele>
        <time>2015-06-21T06:07:27Z</time>
      </trkpt>
      <trkpt lat="44.07775" lon="6.22548">
        <ele>683</ele>
        <time>2015-06-21T06:07:31Z</time>
      </trkpt>
      <trkpt lat="44.07765" lon="6.22551">
        <ele>683</ele>
        <time>2015-06-21T06:07:34Z</time>
      </trkpt>
      <trkpt lat="44.07744" lon="6.22568">
        <ele>685</ele>
        <time>2015-06-21T06:07:44Z</time>
      </trkpt>
      <trkpt lat="44.07734" lon="6.22588">
        <ele>684</ele>
        <time>2015-06-21T06:07:52Z</time>
      </trkpt>
      <trkpt lat="44.07736" lon="6.22605">
        <ele>686</ele>
        <time>2015-06-21T06:07:58Z</time>
      </trkpt>
      <trkpt lat="44.07737" lon="6.22623">
        <ele>690</ele>
        <time>2015-06-21T06:08:04Z</time>
      </trkpt>
      <trkpt lat="44.07734" lon="6.22649">
        <ele>688</ele>
        <time>2015-06-21T06:08:13Z</time>
      </trkpt>
      <trkpt lat="44.07732" lon="6.22668">
        <ele>692</ele>
        <time>2015-06-21T06:08:21Z</time>
      </trkpt>
      <trkpt lat="44.07729" lon="6.22686">
        <ele>694</ele>
        <time>2015-06-21T06:08:28Z</time>
      </trkpt>
      <trkpt lat="44.07731" lon="6.22715">
        <ele>700</ele>
        <time>2015-06-21T06:08:39Z</time>
      </trkpt>
      <trkpt lat="44.07737" lon="6.22745">
        <ele>706</ele>
        <time>2015-06-21T06:08:49Z</time>
      </trkpt>
      <trkpt lat="44.07739" lon="6.22769">
        <ele>709</ele>
        <time>2015-06-21T06:08:58Z</time>
      </trkpt>
      <trkpt lat="44.07737" lon="6.22784">
        <ele>709</ele>
        <time>2015-06-21T06:09:05Z</time>
      </trkpt>
      <trkpt lat="44.07736" lon="6.22795">
        <ele>711</ele>
        <time>2015-06-21T06:09:10Z</time>
      </trkpt>
      <trkpt lat="44.0773" lon="6.22816">
        <ele>711</ele>
        <time>2015-06-21T06:09:19Z</time>
      </trkpt>
      <trkpt lat="44.07728" lon="6.22841">
        <ele>713</ele>
        <time>2015-06-21T06:09:28Z</time>
      </trkpt>
      <trkpt lat="44.07733" lon="6.22875">
        <ele>716</ele>
        <time>2015-06-21T06:09:38Z</time>
      </trkpt>
      <trkpt lat="44.07734" lon="6.22898">
        <ele>720</ele>
        <time>2015-06-21T06:09:45Z</time>
      </trkpt>
      <trkpt lat="44.07733" lon="6.22912">
        <ele>721</ele>
        <time>2015-06-21T06:09:50Z</time>
      </trkpt>
      <trkpt lat="44.07729" lon="6.22931">
        <ele>724</ele>
        <time>2015-06-21T06:09:58Z</time>
      </trkpt>
      <trkpt lat="44.07723" lon="6.22957">
        <ele>724</ele>
        <time>2015-06-21T06:10:09Z</time>
      </trkpt>
      <trkpt lat="44.07715" lon="6.22981">
        <ele>726</ele>
        <time>2015-06-21T06:10:18Z</time>
      </trkpt>
      <trkpt lat="44.07712" lon="6.23003">
        <ele>727</ele>
        <time>2015-06-21T06:10:26Z</time>
      </trkpt>
      <trkpt lat="44.07714" lon="6.23029">
        <ele>730</ele>
        <time>2015-06-21T06:10:34Z</time>
      </trkpt>
      <trkpt lat="44.07717" lon="6.23058">
        <ele>730</ele>
        <time>2015-06-21T06:10:40Z</time>
      </trkpt>
      <trkpt lat="44.07713" lon="6.23088">
        <ele>730</ele>
        <time>2015-06-21T06:10:46Z</time>
      </trkpt>
      <trkpt lat="44.07707" lon="6.2312">
        <ele>729</ele>
        <time>2015-06-21T06:10:52Z</time>
      </trkpt>
      <trkpt lat="44.07703" lon="6.23142">
        <ele>730</ele>
        <time>2015-06-21T06:10:56Z</time>
      </trkpt>
      <trkpt lat="44.07694" lon="6.23176">
        <ele>731</ele>
        <time>2015-06-21T06:11:03Z</time>
      </trkpt>
      <trkpt lat="44.07687" lon="6.23213">
        <ele>734</ele>
        <time>2015-06-21T06:11:13Z</time>
      </trkpt>
      <trkpt lat="44.07683" lon="6.23243">
        <ele>737</ele>
        <time>2015-06-21T06:11:21Z</time>
      </trkpt>
      <trkpt lat="44.0768" lon="6.23256">
        <ele>735</ele>
        <time>2015-06-21T06:11:28Z</time>
      </trkpt>
      <trkpt lat="44.07676" lon="6.23273">
        <ele>739</ele>
        <time>2015-06-21T06:11:37Z</time>
      </trkpt>
      <trkpt lat="44.07673" lon="6.23286">
        <ele>739</ele>
        <time>2015-06-21T06:11:44Z</time>
      </trkpt>
      <trkpt lat="44.07671" lon="6.23297">
        <ele>744</ele>
        <time>2015-06-21T06:11:51Z</time>
      </trkpt>
      <trkpt lat="44.07667" lon="6.2331">
        <ele>744</ele>
        <time>2015-06-21T06:12:00Z</time>
      </trkpt>
      <trkpt lat="44.07663" lon="6.2332">
        <ele>751</ele>
        <time>2015-06-21T06:12:06Z</time>
      </trkpt>
      <trkpt lat="44.07656" lon="6.23326">
        <ele>751</ele>
        <time>2015-06-21T06:12:11Z</time>
      </trkpt>
      <trkpt lat="44.07642" lon="6.23334">
        <ele>750</ele>
        <time>2015-06-21T06:12:21Z</time>
      </trkpt>
      <trkpt lat="44.07626" lon="6.23342">
        <ele>750</ele>
        <time>2015-06-21T06:12:31Z</time>
      </trkpt>
      <trkpt lat="44.07608" lon="6.23352">
        <ele>755</ele>
        <time>2015-06-21T06:12:40Z</time>
      </trkpt>
      <trkpt lat="44.07596" lon="6.23362">
        <ele>753</ele>
        <time>2015-06-21T06:12:48Z</time>
      </trkpt>
      <trkpt lat="44.07585" lon="6.23375">
        <ele>753</ele>
        <time>2015-06-21T06:12:57Z</time>
      </trkpt>
      <trkpt lat="44.07581" lon="6.23397">
        <ele>762</ele>
        <time>2015-06-21T06:13:05Z</time>
      </trkpt>
      <trkpt lat="44.07573" lon="6.23423">
        <ele>769</ele>
        <time>2015-06-21T06:13:13Z</time>
      </trkpt>
      <trkpt lat="44.07568" lon="6.23434">
        <ele>770</ele>
        <time>2015-06-21T06:13:19Z</time>
      </trkpt>
      <trkpt lat="44.0757" lon="6.23437">
        <ele>773</ele>
        <time>2015-06-21T06:13:23Z</time>
      </trkpt>
      <trkpt lat="44.07576" lon="6.23433">
        <ele>773</ele>
        <time>2015-06-21T06:13:28Z</time>
      </trkpt>
      <trkpt lat="44.07586" lon="6.23425">
        <ele>769</ele>
        <time>2015-06-21T06:13:37Z</time>
      </trkpt>
      <trkpt lat="44.07593" lon="6.2342">
        <ele>769</ele>
        <time>2015-06-21T06:13:43Z</time>
      </trkpt>
      <trkpt lat="44.07596" lon="6.23427">
        <ele>769</ele>
        <time>2015-06-21T06:13:48Z</time>
      </trkpt>
      <trkpt lat="44.07594" lon="6.23447">
        <ele>773</ele>
        <time>2015-06-21T06:13:58Z</time>
      </trkpt>
      <trkpt lat="44.076" lon="6.23465">
        <ele>778</ele>
        <time>2015-06-21T06:14:09Z</time>
      </trkpt>
      <trkpt lat="44.07605" lon="6.23479">
        <ele>778</ele>
        <time>2015-06-21T06:14:19Z</time>
      </trkpt>
      <trkpt lat="44.07607" lon="6.23491">
        <ele>785</ele>
        <time>2015-06-21T06:14:29Z</time>
      </trkpt>
      <trkpt lat="44.07609" lon="6.23501">
        <ele>785</ele>
        <time>2015-06-21T06:14:37Z</time>
      </trkpt>
      <trkpt lat="44.07608" lon="6.23512">
        <ele>785</ele>
        <time>2015-06-21T06:14:47Z</time>
      </trkpt>
      <trkpt lat="44.07607" lon="6.23524">
        <ele>793</ele>
        <time>2015-06-21T06:14:57Z</time>
      </trkpt>
      <trkpt lat="44.07606" lon="6.2353">
        <ele>793</ele>
        <time>2015-06-21T06:15:03Z</time>
      </trkpt>
      <trkpt lat="44.07604" lon="6.23539">
        <ele>793</ele>
        <time>2015-06-21T06:15:12Z</time>
      </trkpt>
      <trkpt lat="44.07602" lon="6.2355">
        <ele>800</ele>
        <time>2015-06-21T06:15:21Z</time>
      </trkpt>
      <trkpt lat="44.07601" lon="6.23557">
        <ele>800</ele>
        <time>2015-06-21T06:15:28Z</time>
      </trkpt>
      <trkpt lat="44.07599" lon="6.23564">
        <ele>800</ele>
        <time>2015-06-21T06:15:35Z</time>
      </trkpt>
      <trkpt lat="44.07595" lon="6.23571">
        <ele>805</ele>
        <time>2015-06-21T06:15:44Z</time>
      </trkpt>
      <trkpt lat="44.0759" lon="6.23575">
        <ele>805</ele>
        <time>2015-06-21T06:15:52Z</time>
      </trkpt>
      <trkpt lat="44.07584" lon="6.23581">
        <ele>805</ele>
        <time>2015-06-21T06:16:01Z</time>
      </trkpt>
      <trkpt lat="44.07581" lon="6.23584">
        <ele>805</ele>
        <time>2015-06-21T06:16:08Z</time>
      </trkpt>
      <trkpt lat="44.07578" lon="6.2359">
        <ele>805</ele>
        <time>2015-06-21T06:16:16Z</time>
      </trkpt>
      <trkpt lat="44.07574" lon="6.23596">
        <ele>805</ele>
        <time>2015-06-21T06:16:23Z</time>
      </trkpt>
      <trkpt lat="44.07571" lon="6.23604">
        <ele>812</ele>
        <time>2015-06-21T06:16:30Z</time>
      </trkpt>
      <trkpt lat="44.07567" lon="6.23615">
        <ele>808</ele>
        <time>2015-06-21T06:16:39Z</time>
      </trkpt>
      <trkpt lat="44.07564" lon="6.23632">
        <ele>814</ele>
        <time>2015-06-21T06:16:50Z</time>
      </trkpt>
      <trkpt lat="44.07563" lon="6.23649">
        <ele>814</ele>
        <time>2015-06-21T06:17:00Z</time>
      </trkpt>
      <trkpt lat="44.07561" lon="6.23668">
        <ele>819</ele>
        <time>2015-06-21T06:17:11Z</time>
      </trkpt>
      <trkpt lat="44.07559" lon="6.23686">
        <ele>822</ele>
        <time>2015-06-21T06:17:21Z</time>
      </trkpt>
      <trkpt lat="44.07558" lon="6.23701">
        <ele>822</ele>
        <time>2015-06-21T06:17:31Z</time>
      </trkpt>
      <trkpt lat="44.07557" lon="6.23708">
        <ele>822</ele>
        <time>2015-06-21T06:17:39Z</time>
      </trkpt>
      <trkpt lat="44.07559" lon="6.23714">
        <ele>826</ele>
        <time>2015-06-21T06:17:46Z</time>
      </trkpt>
      <trkpt lat="44.07563" lon="6.23725">
        <ele>826</ele>
        <time>2015-06-21T06:17:54Z</time>
      </trkpt>
      <trkpt lat="44.07569" lon="6.23731">
        <ele>826</ele>
        <time>2015-06-21T06:18:01Z</time>
      </trkpt>
      <trkpt lat="44.07574" lon="6.23737">
        <ele>838</ele>
        <time>2015-06-21T06:18:09Z</time>
      </trkpt>
      <trkpt lat="44.07579" lon="6.23741">
        <ele>838</ele>
        <time>2015-06-21T06:18:16Z</time>
      </trkpt>
      <trkpt lat="44.07585" lon="6.23748">
        <ele>838</ele>
        <time>2015-06-21T06:18:25Z</time>
      </trkpt>
      <trkpt lat="44.07591" lon="6.23757">
        <ele>838</ele>
        <time>2015-06-21T06:18:34Z</time>
      </trkpt>
      <trkpt lat="44.07592" lon="6.23763">
        <ele>838</ele>
        <time>2015-06-21T06:18:39Z</time>
      </trkpt>
      <trkpt lat="44.0759" lon="6.23771">
        <ele>846</ele>
        <time>2015-06-21T06:18:45Z</time>
      </trkpt>
      <trkpt lat="44.07583" lon="6.23782">
        <ele>846</ele>
        <time>2015-06-21T06:18:49Z</time>
      </trkpt>
      <trkpt lat="44.07572" lon="6.23788">
        <ele>846</ele>
        <time>2015-06-21T06:18:53Z</time>
      </trkpt>
      <trkpt lat="44.0756" lon="6.23806">
        <ele>850</ele>
        <time>2015-06-21T06:18:59Z</time>
      </trkpt>
      <trkpt lat="44.07547" lon="6.2381">
        <ele>850</ele>
        <time>2015-06-21T06:19:04Z</time>
      </trkpt>
      <trkpt lat="44.07539" lon="6.23813">
        <ele>844</ele>
        <time>2015-06-21T06:19:09Z</time>
      </trkpt>
      <trkpt lat="44.07535" lon="6.23821">
        <ele>857</ele>
        <time>2015-06-21T06:19:16Z</time>
      </trkpt>
      <trkpt lat="44.07534" lon="6.23825">
        <ele>857</ele>
        <time>2015-06-21T06:19:20Z</time>
      </trkpt>
      <trkpt lat="44.07533" lon="6.23832">
        <ele>857</ele>
        <time>2015-06-21T06:19:25Z</time>
      </trkpt>
      <trkpt lat="44.0753" lon="6.23838">
        <ele>857</ele>
        <time>2015-06-21T06:19:33Z</time>
      </trkpt>
      <trkpt lat="44.07524" lon="6.2384">
        <ele>857</ele>
        <time>2015-06-21T06:19:40Z</time>
      </trkpt>
      <trkpt lat="44.07517" lon="6.23841">
        <ele>857</ele>
        <time>2015-06-21T06:19:49Z</time>
      </trkpt>
      <trkpt lat="44.07512" lon="6.23845">
        <ele>851</ele>
        <time>2015-06-21T06:19:57Z</time>
      </trkpt>
      <trkpt lat="44.07508" lon="6.2385">
        <ele>863</ele>
        <time>2015-06-21T06:20:05Z</time>
      </trkpt>
      <trkpt lat="44.07504" lon="6.23856">
        <ele>863</ele>
        <time>2015-06-21T06:20:13Z</time>
      </trkpt>
      <trkpt lat="44.07501" lon="6.23863">
        <ele>863</ele>
        <time>2015-06-21T06:20:22Z</time>
      </trkpt>
      <trkpt lat="44.07496" lon="6.23869">
        <ele>863</ele>
        <time>2015-06-21T06:20:30Z</time>
      </trkpt>
      <trkpt lat="44.07492" lon="6.23872">
        <ele>863</ele>
        <time>2015-06-21T06:20:36Z</time>
      </trkpt>
      <trkpt lat="44.07489" lon="6.23879">
        <ele>874</ele>
        <time>2015-06-21T06:20:44Z</time>
      </trkpt>
      <trkpt lat="44.07489" lon="6.23883">
        <ele>874</ele>
        <time>2015-06-21T06:20:48Z</time>
      </trkpt>
      <trkpt lat="44.07487" lon="6.23891">
        <ele>874</ele>
        <time>2015-06-21T06:20:54Z</time>
      </trkpt>
      <trkpt lat="44.07485" lon="6.23899">
        <ele>870</ele>
        <time>2015-06-21T06:20:59Z</time>
      </trkpt>
      <trkpt lat="44.07484" lon="6.23905">
        <ele>880</ele>
        <time>2015-06-21T06:21:07Z</time>
      </trkpt>
      <trkpt lat="44.0748" lon="6.23911">
        <ele>880</ele>
        <time>2015-06-21T06:21:17Z</time>
      </trkpt>
      <trkpt lat="44.07476" lon="6.23916">
        <ele>880</ele>
        <time>2015-06-21T06:21:25Z</time>
      </trkpt>
      <trkpt lat="44.07473" lon="6.2392">
        <ele>880</ele>
        <time>2015-06-21T06:21:32Z</time>
      </trkpt>
      <trkpt lat="44.07467" lon="6.23926">
        <ele>880</ele>
        <time>2015-06-21T06:21:39Z</time>
      </trkpt>
      <trkpt lat="44.0746" lon="6.23935">
        <ele>890</ele>
        <time>2015-06-21T06:21:48Z</time>
      </trkpt>
      <trkpt lat="44.07454" lon="6.23945">
        <ele>884</ele>
        <time>2015-06-21T06:21:58Z</time>
      </trkpt>
      <trkpt lat="44.07452" lon="6.23949">
        <ele>884</ele>
        <time>2015-06-21T06:22:01Z</time>
      </trkpt>
      <trkpt lat="44.0745" lon="6.23955">
        <ele>884</ele>
        <time>2015-06-21T06:22:05Z</time>
      </trkpt>
      <trkpt lat="44.0745" lon="6.23965">
        <ele>893</ele>
        <time>2015-06-21T06:22:10Z</time>
      </trkpt>
      <trkpt lat="44.07446" lon="6.23974">
        <ele>893</ele>
        <time>2015-06-21T06:22:18Z</time>
      </trkpt>
      <trkpt lat="44.07445" lon="6.23982">
        <ele>893</ele>
        <time>2015-06-21T06:22:25Z</time>
      </trkpt>
      <trkpt lat="44.07446" lon="6.23987">
        <ele>902</ele>
        <time>2015-06-21T06:22:29Z</time>
      </trkpt>
      <trkpt lat="44.07445" lon="6.23994">
        <ele>902</ele>
        <time>2015-06-21T06:22:35Z</time>
      </trkpt>
      <trkpt lat="44.07446" lon="6.23998">
        <ele>902</ele>
        <time>2015-06-21T06:22:38Z</time>
      </trkpt>
      <trkpt lat="44.07441" lon="6.24006">
        <ele>902</ele>
        <time>2015-06-21T06:22:45Z</time>
      </trkpt>
      <trkpt lat="44.07438" lon="6.24012">
        <ele>902</ele>
        <time>2015-06-21T06:22:50Z</time>
      </trkpt>
      <trkpt lat="44.07431" lon="6.2402">
        <ele>911</ele>
        <time>2015-06-21T06:22:57Z</time>
      </trkpt>
      <trkpt lat="44.07416" lon="6.24031">
        <ele>906</ele>
        <time>2015-06-21T06:23:06Z</time>
      </trkpt>
      <trkpt lat="44.07404" lon="6.24042">
        <ele>914</ele>
        <time>2015-06-21T06:23:13Z</time>
      </trkpt>
      <trkpt lat="44.07388" lon="6.24051">
        <ele>912</ele>
        <time>2015-06-21T06:23:21Z</time>
      </trkpt>
      <trkpt lat="44.07378" lon="6.24054">
        <ele>912</ele>
        <time>2015-06-21T06:23:27Z</time>
      </trkpt>
      <trkpt lat="44.07366" lon="6.2406">
        <ele>911</ele>
        <time>2015-06-21T06:23:34Z</time>
      </trkpt>
      <trkpt lat="44.0735" lon="6.24067">
        <ele>911</ele>
        <time>2015-06-21T06:23:42Z</time>
      </trkpt>
      <trkpt lat="44.07347" lon="6.24074">
        <ele>922</ele>
        <time>2015-06-21T06:23:47Z</time>
      </trkpt>
      <trkpt lat="44.07346" lon="6.24079">
        <ele>922</ele>
        <time>2015-06-21T06:23:50Z</time>
      </trkpt>
      <trkpt lat="44.0735" lon="6.24093">
        <ele>920</ele>
        <time>2015-06-21T06:23:57Z</time>
      </trkpt>
      <trkpt lat="44.07353" lon="6.2411">
        <ele>926</ele>
        <time>2015-06-21T06:24:06Z</time>
      </trkpt>
      <trkpt lat="44.0736" lon="6.2412">
        <ele>926</ele>
        <time>2015-06-21T06:24:13Z</time>
      </trkpt>
      <trkpt lat="44.07376" lon="6.24122">
        <ele>923</ele>
        <time>2015-06-21T06:24:21Z</time>
      </trkpt>
      <trkpt lat="44.07396" lon="6.24127">
        <ele>931</ele>
        <time>2015-06-21T06:24:30Z</time>
      </trkpt>
      <trkpt lat="44.07405" lon="6.24128">
        <ele>930</ele>
        <time>2015-06-21T06:24:35Z</time>
      </trkpt>
      <trkpt lat="44.07405" lon="6.24136">
        <ele>930</ele>
        <time>2015-06-21T06:24:39Z</time>
      </trkpt>
      <trkpt lat="44.07377" lon="6.24143">
        <ele>931</ele>
        <time>2015-06-21T06:24:48Z</time>
      </trkpt>
      <trkpt lat="44.07358" lon="6.24143">
        <ele>934</ele>
        <time>2015-06-21T06:24:55Z</time>
      </trkpt>
      <trkpt lat="44.07346" lon="6.24147">
        <ele>939</ele>
        <time>2015-06-21T06:25:01Z</time>
      </trkpt>
      <trkpt lat="44.07334" lon="6.24147">
        <ele>939</ele>
        <time>2015-06-21T06:25:06Z</time>
      </trkpt>
      <trkpt lat="44.07314" lon="6.24146">
        <ele>943</ele>
        <time>2015-06-21T06:25:13Z</time>
      </trkpt>
      <trkpt lat="44.0729" lon="6.24139">
        <ele>951</ele>
        <time>2015-06-21T06:25:21Z</time>
      </trkpt>
      <trkpt lat="44.07277" lon="6.24135">
        <ele>951</ele>
        <time>2015-06-21T06:25:27Z</time>
      </trkpt>
      <trkpt lat="44.07263" lon="6.24128">
        <ele>959</ele>
        <time>2015-06-21T06:25:34Z</time>
      </trkpt>
      <trkpt lat="44.07251" lon="6.24119">
        <ele>950</ele>
        <time>2015-06-21T06:25:40Z</time>
      </trkpt>
      <trkpt lat="44.07239" lon="6.24111">
        <ele>950</ele>
        <time>2015-06-21T06:25:46Z</time>
      </trkpt>
      <trkpt lat="44.07221" lon="6.24102">
        <ele>959</ele>
        <time>2015-06-21T06:25:55Z</time>
      </trkpt>
      <trkpt lat="44.07204" lon="6.24096">
        <ele>958</ele>
        <time>2015-06-21T06:26:02Z</time>
      </trkpt>
      <trkpt lat="44.07196" lon="6.24086">
        <ele>958</ele>
        <time>2015-06-21T06:26:07Z</time>
      </trkpt>
      <trkpt lat="44.07184" lon="6.24071">
        <ele>958</ele>
        <time>2015-06-21T06:26:14Z</time>
      </trkpt>
      <trkpt lat="44.07175" lon="6.24067">
        <ele>950</ele>
        <time>2015-06-21T06:26:19Z</time>
      </trkpt>
      <trkpt lat="44.07158" lon="6.24063">
        <ele>950</ele>
        <time>2015-06-21T06:26:27Z</time>
      </trkpt>
      <trkpt lat="44.07148" lon="6.24065">
        <ele>951</ele>
        <time>2015-06-21T06:26:32Z</time>
      </trkpt>
      <trkpt lat="44.07134" lon="6.24067">
        <ele>951</ele>
        <time>2015-06-21T06:26:40Z</time>
      </trkpt>
      <trkpt lat="44.07115" lon="6.24064">
        <ele>955</ele>
        <time>2015-06-21T06:26:50Z</time>
      </trkpt>
      <trkpt lat="44.07101" lon="6.24062">
        <ele>955</ele>
        <time>2015-06-21T06:26:58Z</time>
      </trkpt>
      <trkpt lat="44.07094" lon="6.24061">
        <ele>961</ele>
        <time>2015-06-21T06:27:02Z</time>
      </trkpt>
      <trkpt lat="44.07092" lon="6.2407">
        <ele>971</ele>
        <time>2015-06-21T06:27:08Z</time>
      </trkpt>
      <trkpt lat="44.07111" lon="6.24078">
        <ele>966</ele>
        <time>2015-06-21T06:27:18Z</time>
      </trkpt>
      <trkpt lat="44.07126" lon="6.24082">
        <ele>964</ele>
        <time>2015-06-21T06:27:26Z</time>
      </trkpt>
      <trkpt lat="44.07138" lon="6.2409">
        <ele>964</ele>
        <time>2015-06-21T06:27:33Z</time>
      </trkpt>
      <trkpt lat="44.0715" lon="6.24108">
        <ele>977</ele>
        <time>2015-06-21T06:27:39Z</time>
      </trkpt>
      <trkpt lat="44.07158" lon="6.24122">
        <ele>976</ele>
        <time>2015-06-21T06:27:45Z</time>
      </trkpt>
      <trkpt lat="44.07167" lon="6.2413">
        <ele>990</ele>
        <time>2015-06-21T06:27:50Z</time>
      </trkpt>
      <trkpt lat="44.07181" lon="6.24139">
        <ele>981</ele>
        <time>2015-06-21T06:27:57Z</time>
      </trkpt>
      <trkpt lat="44.07193" lon="6.2414">
        <ele>981</ele>
        <time>2015-06-21T06:28:03Z</time>
      </trkpt>
      <trkpt lat="44.07208" lon="6.24154">
        <ele>993</ele>
        <time>2015-06-21T06:28:10Z</time>
      </trkpt>
      <trkpt lat="44.07221" lon="6.2417">
        <ele>981</ele>
        <time>2015-06-21T06:28:16Z</time>
      </trkpt>
      <trkpt lat="44.07237" lon="6.24183">
        <ele>981</ele>
        <time>2015-06-21T06:28:23Z</time>
      </trkpt>
      <trkpt lat="44.07254" lon="6.24204">
        <ele>981</ele>
        <time>2015-06-21T06:28:29Z</time>
      </trkpt>
      <trkpt lat="44.07261" lon="6.24217">
        <ele>990</ele>
        <time>2015-06-21T06:28:33Z</time>
      </trkpt>
      <trkpt lat="44.07273" lon="6.24234">
        <ele>977</ele>
        <time>2015-06-21T06:28:38Z</time>
      </trkpt>
      <trkpt lat="44.07286" lon="6.24243">
        <ele>986</ele>
        <time>2015-06-21T06:28:43Z</time>
      </trkpt>
      <trkpt lat="44.07305" lon="6.24257">
        <ele>982</ele>
        <time>2015-06-21T06:28:49Z</time>
      </trkpt>
      <trkpt lat="44.07312" lon="6.24272">
        <ele>988</ele>
        <time>2015-06-21T06:28:53Z</time>
      </trkpt>
      <trkpt lat="44.07318" lon="6.24297">
        <ele>990</ele>
        <time>2015-06-21T06:28:58Z</time>
      </trkpt>
      <trkpt lat="44.07323" lon="6.2432">
        <ele>987</ele>
        <time>2015-06-21T06:29:03Z</time>
      </trkpt>
      <trkpt lat="44.07315" lon="6.24329">
        <ele>988</ele>
        <time>2015-06-21T06:29:07Z</time>
      </trkpt>
      <trkpt lat="44.07291" lon="6.2433">
        <ele>988</ele>
        <time>2015-06-21T06:29:16Z</time>
      </trkpt>
      <trkpt lat="44.07265" lon="6.24312">
        <ele>991</ele>
        <time>2015-06-21T06:29:26Z</time>
      </trkpt>
      <trkpt lat="44.07239" lon="6.24288">
        <ele>996</ele>
        <time>2015-06-21T06:29:36Z</time>
      </trkpt>
      <trkpt lat="44.07225" lon="6.24284">
        <ele>1001</ele>
        <time>2015-06-21T06:29:42Z</time>
      </trkpt>
      <trkpt lat="44.07208" lon="6.24289">
        <ele>1004</ele>
        <time>2015-06-21T06:29:50Z</time>
      </trkpt>
      <trkpt lat="44.07192" lon="6.24292">
        <ele>993</ele>
        <time>2015-06-21T06:29:58Z</time>
      </trkpt>
      <trkpt lat="44.07174" lon="6.24287">
        <ele>1008</ele>
        <time>2015-06-21T06:30:05Z</time>
      </trkpt>
      <trkpt lat="44.07151" lon="6.24275">
        <ele>1007</ele>
        <time>2015-06-21T06:30:15Z</time>
      </trkpt>
      <trkpt lat="44.07136" lon="6.24263">
        <ele>1012</ele>
        <time>2015-06-21T06:30:23Z</time>
      </trkpt>
      <trkpt lat="44.07123" lon="6.24256">
        <ele>1014</ele>
        <time>2015-06-21T06:30:30Z</time>
      </trkpt>
      <trkpt lat="44.07114" lon="6.24263">
        <ele>1014</ele>
        <time>2015-06-21T06:30:35Z</time>
      </trkpt>
      <trkpt lat="44.07106" lon="6.24283">
        <ele>1009</ele>
        <time>2015-06-21T06:30:43Z</time>
      </trkpt>
      <trkpt lat="44.071" lon="6.24297">
        <ele>1004</ele>
        <time>2015-06-21T06:30:49Z</time>
      </trkpt>
      <trkpt lat="44.07087" lon="6.24309">
        <ele>1012</ele>
        <time>2015-06-21T06:30:56Z</time>
      </trkpt>
      <trkpt lat="44.07069" lon="6.24322">
        <ele>1012</ele>
        <time>2015-06-21T06:31:04Z</time>
      </trkpt>
      <trkpt lat="44.07052" lon="6.24336">
        <ele>1012</ele>
        <time>2015-06-21T06:31:12Z</time>
      </trkpt>
      <trkpt lat="44.07037" lon="6.24342">
        <ele>1022</ele>
        <time>2015-06-21T06:31:18Z</time>
      </trkpt>
      <trkpt lat="44.07025" lon="6.2435">
        <ele>1017</ele>
        <time>2015-06-21T06:31:24Z</time>
      </trkpt>
      <trkpt lat="44.07012" lon="6.24363">
        <ele>1029</ele>
        <time>2015-06-21T06:31:31Z</time>
      </trkpt>
      <trkpt lat="44.06996" lon="6.24375">
        <ele>1025</ele>
        <time>2015-06-21T06:31:39Z</time>
      </trkpt>
      <trkpt lat="44.06982" lon="6.2438">
        <ele>1035</ele>
        <time>2015-06-21T06:31:45Z</time>
      </trkpt>
      <trkpt lat="44.06966" lon="6.2439">
        <ele>1035</ele>
        <time>2015-06-21T06:31:52Z</time>
      </trkpt>
      <trkpt lat="44.06956" lon="6.24407">
        <ele>1044</ele>
        <time>2015-06-21T06:31:59Z</time>
      </trkpt>
      <trkpt lat="44.06952" lon="6.24427">
        <ele>1044</ele>
        <time>2015-06-21T06:32:05Z</time>
      </trkpt>
      <trkpt lat="44.06955" lon="6.24444">
        <ele>1043</ele>
        <time>2015-06-21T06:32:11Z</time>
      </trkpt>
      <trkpt lat="44.06962" lon="6.24463">
        <ele>1035</ele>
        <time>2015-06-21T06:32:18Z</time>
      </trkpt>
      <trkpt lat="44.06973" lon="6.24484">
        <ele>1035</ele>
        <time>2015-06-21T06:32:26Z</time>
      </trkpt>
      <trkpt lat="44.06984" lon="6.24504">
        <ele>1040</ele>
        <time>2015-06-21T06:32:34Z</time>
      </trkpt>
      <trkpt lat="44.06993" lon="6.24522">
        <ele>1039</ele>
        <time>2015-06-21T06:32:42Z</time>
      </trkpt>
      <trkpt lat="44.06998" lon="6.24539">
        <ele>1039</ele>
        <time>2015-06-21T06:32:50Z</time>
      </trkpt>
      <trkpt lat="44.06999" lon="6.2456">
        <ele>1048</ele>
        <time>2015-06-21T06:32:59Z</time>
      </trkpt>
      <trkpt lat="44.07005" lon="6.24578">
        <ele>1058</ele>
        <time>2015-06-21T06:33:07Z</time>
      </trkpt>
      <trkpt lat="44.07016" lon="6.24589">
        <ele>1045</ele>
        <time>2015-06-21T06:33:14Z</time>
      </trkpt>
      <trkpt lat="44.07031" lon="6.24596">
        <ele>1045</ele>
        <time>2015-06-21T06:33:22Z</time>
      </trkpt>
      <trkpt lat="44.07048" lon="6.24602">
        <ele>1050</ele>
        <time>2015-06-21T06:33:29Z</time>
      </trkpt>
      <trkpt lat="44.07069" lon="6.24609">
        <ele>1050</ele>
        <time>2015-06-21T06:33:37Z</time>
      </trkpt>
      <trkpt lat="44.07083" lon="6.24618">
        <ele>1047</ele>
        <time>2015-06-21T06:33:43Z</time>
      </trkpt>
      <trkpt lat="44.07093" lon="6.24631">
        <ele>1055</ele>
        <time>2015-06-21T06:33:49Z</time>
      </trkpt>
      <trkpt lat="44.07107" lon="6.24653">
        <ele>1058</ele>
        <time>2015-06-21T06:33:58Z</time>
      </trkpt>
      <trkpt lat="44.07122" lon="6.24674">
        <ele>1058</ele>
        <time>2015-06-21T06:34:07Z</time>
      </trkpt>
      <trkpt lat="44.07135" lon="6.24695">
        <ele>1056</ele>
        <time>2015-06-21T06:34:15Z</time>
      </trkpt>
      <trkpt lat="44.07143" lon="6.24715">
        <ele>1058</ele>
        <time>2015-06-21T06:34:22Z</time>
      </trkpt>
      <trkpt lat="44.07135" lon="6.24717">
        <ele>1058</ele>
        <time>2015-06-21T06:34:27Z</time>
      </trkpt>
      <trkpt lat="44.07106" lon="6.24689">
        <ele>1063</ele>
        <time>2015-06-21T06:34:41Z</time>
      </trkpt>
      <trkpt lat="44.07082" lon="6.24667">
        <ele>1064</ele>
        <time>2015-06-21T06:34:52Z</time>
      </trkpt>
      <trkpt lat="44.07062" lon="6.2466">
        <ele>1070</ele>
        <time>2015-06-21T06:35:00Z</time>
      </trkpt>
      <trkpt lat="44.0704" lon="6.24659">
        <ele>1073</ele>
        <time>2015-06-21T06:35:09Z</time>
      </trkpt>
      <trkpt lat="44.07022" lon="6.24657">
        <ele>1073</ele>
        <time>2015-06-21T06:35:16Z</time>
      </trkpt>
      <trkpt lat="44.07001" lon="6.24651">
        <ele>1071</ele>
        <time>2015-06-21T06:35:24Z</time>
      </trkpt>
      <trkpt lat="44.0698" lon="6.2464">
        <ele>1078</ele>
        <time>2015-06-21T06:35:31Z</time>
      </trkpt>
      <trkpt lat="44.0696" lon="6.24626">
        <ele>1078</ele>
        <time>2015-06-21T06:35:39Z</time>
      </trkpt>
      <trkpt lat="44.0694" lon="6.24604">
        <ele>1079</ele>
        <time>2015-06-21T06:35:49Z</time>
      </trkpt>
      <trkpt lat="44.06924" lon="6.24585">
        <ele>1080</ele>
        <time>2015-06-21T06:35:57Z</time>
      </trkpt>
      <trkpt lat="44.06906" lon="6.24571">
        <ele>1080</ele>
        <time>2015-06-21T06:36:04Z</time>
      </trkpt>
      <trkpt lat="44.06884" lon="6.24566">
        <ele>1081</ele>
        <time>2015-06-21T06:36:11Z</time>
      </trkpt>
      <trkpt lat="44.06852" lon="6.24564">
        <ele>1085</ele>
        <time>2015-06-21T06:36:20Z</time>
      </trkpt>
      <trkpt lat="44.06819" lon="6.24566">
        <ele>1086</ele>
        <time>2015-06-21T06:36:28Z</time>
      </trkpt>
      <trkpt lat="44.06805" lon="6.24565">
        <ele>1086</ele>
        <time>2015-06-21T06:36:31Z</time>
      </trkpt>
      <trkpt lat="44.06792" lon="6.24564">
        <ele>1086</ele>
        <time>2015-06-21T06:36:34Z</time>
      </trkpt>
      <trkpt lat="44.06772" lon="6.2457">
        <ele>1083</ele>
        <time>2015-06-21T06:36:39Z</time>
      </trkpt>
      <trkpt lat="44.06768" lon="6.24581">
        <ele>1083</ele>
        <time>2015-06-21T06:36:42Z</time>
      </trkpt>
      <trkpt lat="44.06773" lon="6.24593">
        <ele>1083</ele>
        <time>2015-06-21T06:36:46Z</time>
      </trkpt>
      <trkpt lat="44.06762" lon="6.24603">
        <ele>1073</ele>
        <time>2015-06-21T06:36:50Z</time>
      </trkpt>
      <trkpt lat="44.0675" lon="6.24608">
        <ele>1073</ele>
        <time>2015-06-21T06:36:54Z</time>
      </trkpt>
      <trkpt lat="44.06751" lon="6.24616">
        <ele>1073</ele>
        <time>2015-06-21T06:36:57Z</time>
      </trkpt>
      <trkpt lat="44.06755" lon="6.24628">
        <ele>1063</ele>
        <time>2015-06-21T06:37:00Z</time>
      </trkpt>
      <trkpt lat="44.06758" lon="6.24638">
        <ele>1063</ele>
        <time>2015-06-21T06:37:05Z</time>
      </trkpt>
      <trkpt lat="44.06743" lon="6.2464">
        <ele>1063</ele>
        <time>2015-06-21T06:37:09Z</time>
      </trkpt>
      <trkpt lat="44.06735" lon="6.24636">
        <ele>1060</ele>
        <time>2015-06-21T06:37:12Z</time>
      </trkpt>
      <trkpt lat="44.06722" lon="6.24624">
        <ele>1071</ele>
        <time>2015-06-21T06:37:18Z</time>
      </trkpt>
      <trkpt lat="44.06683" lon="6.24604">
        <ele>1064</ele>
        <time>2015-06-21T06:37:25Z</time>
      </trkpt>
      <trkpt lat="44.0664" lon="6.24594">
        <ele>1060</ele>
        <time>2015-06-21T06:37:31Z</time>
      </trkpt>
      <trkpt lat="44.06604" lon="6.24585">
        <ele>1055</ele>
        <time>2015-06-21T06:37:36Z</time>
      </trkpt>
      <trkpt lat="44.06592" lon="6.24576">
        <ele>1049</ele>
        <time>2015-06-21T06:37:39Z</time>
      </trkpt>
      <trkpt lat="44.06584" lon="6.24582">
        <ele>1049</ele>
        <time>2015-06-21T06:37:42Z</time>
      </trkpt>
      <trkpt lat="44.06569" lon="6.24589">
        <ele>1038</ele>
        <time>2015-06-21T06:37:46Z</time>
      </trkpt>
      <trkpt lat="44.06569" lon="6.24594">
        <ele>1038</ele>
        <time>2015-06-21T06:37:51Z</time>
      </trkpt>
      <trkpt lat="44.06584" lon="6.24591">
        <ele>1049</ele>
        <time>2015-06-21T06:37:55Z</time>
      </trkpt>
      <trkpt lat="44.06609" lon="6.24613">
        <ele>1048</ele>
        <time>2015-06-21T06:38:01Z</time>
      </trkpt>
      <trkpt lat="44.06631" lon="6.24634">
        <ele>1042</ele>
        <time>2015-06-21T06:38:07Z</time>
      </trkpt>
      <trkpt lat="44.06642" lon="6.24636">
        <ele>1042</ele>
        <time>2015-06-21T06:38:10Z</time>
      </trkpt>
      <trkpt lat="44.06654" lon="6.2465">
        <ele>1046</ele>
        <time>2015-06-21T06:38:13Z</time>
      </trkpt>
      <trkpt lat="44.06667" lon="6.24674">
        <ele>1034</ele>
        <time>2015-06-21T06:38:18Z</time>
      </trkpt>
      <trkpt lat="44.06685" lon="6.24685">
        <ele>1033</ele>
        <time>2015-06-21T06:38:22Z</time>
      </trkpt>
      <trkpt lat="44.06697" lon="6.247">
        <ele>1033</ele>
        <time>2015-06-21T06:38:27Z</time>
      </trkpt>
      <trkpt lat="44.06668" lon="6.247">
        <ele>1026</ele>
        <time>2015-06-21T06:38:33Z</time>
      </trkpt>
      <trkpt lat="44.06677" lon="6.24715">
        <ele>1015</ele>
        <time>2015-06-21T06:38:39Z</time>
      </trkpt>
      <trkpt lat="44.06692" lon="6.24733">
        <ele>1024</ele>
        <time>2015-06-21T06:38:42Z</time>
      </trkpt>
      <trkpt lat="44.06715" lon="6.24761">
        <ele>1018</ele>
        <time>2015-06-21T06:38:47Z</time>
      </trkpt>
      <trkpt lat="44.06721" lon="6.2477">
        <ele>1009</ele>
        <time>2015-06-21T06:38:52Z</time>
      </trkpt>
      <trkpt lat="44.06717" lon="6.2477">
        <ele>1009</ele>
        <time>2015-06-21T06:38:55Z</time>
      </trkpt>
      <trkpt lat="44.06692" lon="6.24766">
        <ele>1002</ele>
        <time>2015-06-21T06:39:01Z</time>
      </trkpt>
      <trkpt lat="44.06673" lon="6.24752">
        <ele>1003</ele>
        <time>2015-06-21T06:39:05Z</time>
      </trkpt>
      <trkpt lat="44.06649" lon="6.24752">
        <ele>994</ele>
        <time>2015-06-21T06:39:11Z</time>
      </trkpt>
      <trkpt lat="44.06666" lon="6.24765">
        <ele>993</ele>
        <time>2015-06-21T06:39:16Z</time>
      </trkpt>
      <trkpt lat="44.06678" lon="6.24785">
        <ele>993</ele>
        <time>2015-06-21T06:39:19Z</time>
      </trkpt>
      <trkpt lat="44.06696" lon="6.24816">
        <ele>995</ele>
        <time>2015-06-21T06:39:23Z</time>
      </trkpt>
      <trkpt lat="44.06708" lon="6.24813">
        <ele>995</ele>
        <time>2015-06-21T06:39:26Z</time>
      </trkpt>
      <trkpt lat="44.06744" lon="6.248">
        <ele>1012</ele>
        <time>2015-06-21T06:39:32Z</time>
      </trkpt>
      <trkpt lat="44.06758" lon="6.24812">
        <ele>1012</ele>
        <time>2015-06-21T06:39:37Z</time>
      </trkpt>
      <trkpt lat="44.06754" lon="6.24839">
        <ele>999</ele>
        <time>2015-06-21T06:39:42Z</time>
      </trkpt>
      <trkpt lat="44.06747" lon="6.24868">
        <ele>984</ele>
        <time>2015-06-21T06:39:47Z</time>
      </trkpt>
      <trkpt lat="44.06751" lon="6.24883">
        <ele>974</ele>
        <time>2015-06-21T06:39:50Z</time>
      </trkpt>
      <trkpt lat="44.06759" lon="6.24902">
        <ele>974</ele>
        <time>2015-06-21T06:39:53Z</time>
      </trkpt>
      <trkpt lat="44.06787" lon="6.24918">
        <ele>977</ele>
        <time>2015-06-21T06:39:59Z</time>
      </trkpt>
      <trkpt lat="44.06792" lon="6.24936">
        <ele>985</ele>
        <time>2015-06-21T06:40:03Z</time>
      </trkpt>
      <trkpt lat="44.06798" lon="6.24959">
        <ele>974</ele>
        <time>2015-06-21T06:40:09Z</time>
      </trkpt>
      <trkpt lat="44.06802" lon="6.24993">
        <ele>967</ele>
        <time>2015-06-21T06:40:14Z</time>
      </trkpt>
      <trkpt lat="44.06805" lon="6.2501">
        <ele>967</ele>
        <time>2015-06-21T06:40:17Z</time>
      </trkpt>
      <trkpt lat="44.06813" lon="6.25029">
        <ele>957</ele>
        <time>2015-06-21T06:40:20Z</time>
      </trkpt>
      <trkpt lat="44.06821" lon="6.25026">
        <ele>964</ele>
        <time>2015-06-21T06:40:24Z</time>
      </trkpt>
      <trkpt lat="44.06835" lon="6.25024">
        <ele>964</ele>
        <time>2015-06-21T06:40:28Z</time>
      </trkpt>
      <trkpt lat="44.06854" lon="6.25016">
        <ele>964</ele>
        <time>2015-06-21T06:40:33Z</time>
      </trkpt>
      <trkpt lat="44.06872" lon="6.25011">
        <ele>977</ele>
        <time>2015-06-21T06:40:37Z</time>
      </trkpt>
      <trkpt lat="44.06895" lon="6.25017">
        <ele>959</ele>
        <time>2015-06-21T06:40:42Z</time>
      </trkpt>
      <trkpt lat="44.0692" lon="6.25023">
        <ele>956</ele>
        <time>2015-06-21T06:40:46Z</time>
      </trkpt>
      <trkpt lat="44.06938" lon="6.25031">
        <ele>957</ele>
        <time>2015-06-21T06:40:49Z</time>
      </trkpt>
      <trkpt lat="44.06959" lon="6.25039">
        <ele>963</ele>
        <time>2015-06-21T06:40:54Z</time>
      </trkpt>
      <trkpt lat="44.06941" lon="6.25038">
        <ele>957</ele>
        <time>2015-06-21T06:41:00Z</time>
      </trkpt>
      <trkpt lat="44.069" lon="6.25039">
        <ele>959</ele>
        <time>2015-06-21T06:41:06Z</time>
      </trkpt>
      <trkpt lat="44.06891" lon="6.25044">
        <ele>948</ele>
        <time>2015-06-21T06:41:10Z</time>
      </trkpt>
      <trkpt lat="44.06906" lon="6.25044">
        <ele>946</ele>
        <time>2015-06-21T06:41:14Z</time>
      </trkpt>
      <trkpt lat="44.06946" lon="6.25059">
        <ele>945</ele>
        <time>2015-06-21T06:41:20Z</time>
      </trkpt>
      <trkpt lat="44.06969" lon="6.25071">
        <ele>935</ele>
        <time>2015-06-21T06:41:25Z</time>
      </trkpt>
      <trkpt lat="44.06981" lon="6.25079">
        <ele>935</ele>
        <time>2015-06-21T06:41:28Z</time>
      </trkpt>
      <trkpt lat="44.06998" lon="6.25099">
        <ele>930</ele>
        <time>2015-06-21T06:41:32Z</time>
      </trkpt>
      <trkpt lat="44.07017" lon="6.25124">
        <ele>936</ele>
        <time>2015-06-21T06:41:36Z</time>
      </trkpt>
      <trkpt lat="44.07039" lon="6.25163">
        <ele>922</ele>
        <time>2015-06-21T06:41:41Z</time>
      </trkpt>
      <trkpt lat="44.07043" lon="6.25214">
        <ele>917</ele>
        <time>2015-06-21T06:41:47Z</time>
      </trkpt>
      <trkpt lat="44.07054" lon="6.25215">
        <ele>917</ele>
        <time>2015-06-21T06:41:51Z</time>
      </trkpt>
      <trkpt lat="44.07071" lon="6.25205">
        <ele>929</ele>
        <time>2015-06-21T06:41:56Z</time>
      </trkpt>
      <trkpt lat="44.07077" lon="6.25241">
        <ele>916</ele>
        <time>2015-06-21T06:42:02Z</time>
      </trkpt>
      <trkpt lat="44.07066" lon="6.25274">
        <ele>904</ele>
        <time>2015-06-21T06:42:06Z</time>
      </trkpt>
      <trkpt lat="44.07074" lon="6.25296">
        <ele>906</ele>
        <time>2015-06-21T06:42:10Z</time>
      </trkpt>
      <trkpt lat="44.07092" lon="6.25337">
        <ele>900</ele>
        <time>2015-06-21T06:42:15Z</time>
      </trkpt>
      <trkpt lat="44.0711" lon="6.25363">
        <ele>902</ele>
        <time>2015-06-21T06:42:19Z</time>
      </trkpt>
      <trkpt lat="44.07128" lon="6.25423">
        <ele>903</ele>
        <time>2015-06-21T06:42:26Z</time>
      </trkpt>
      <trkpt lat="44.07132" lon="6.25456">
        <ele>899</ele>
        <time>2015-06-21T06:42:31Z</time>
      </trkpt>
      <trkpt lat="44.07134" lon="6.25476">
        <ele>895</ele>
        <time>2015-06-21T06:42:34Z</time>
      </trkpt>
      <trkpt lat="44.07143" lon="6.255">
        <ele>892</ele>
        <time>2015-06-21T06:42:38Z</time>
      </trkpt>
      <trkpt lat="44.07151" lon="6.25523">
        <ele>888</ele>
        <time>2015-06-21T06:42:43Z</time>
      </trkpt>
      <trkpt lat="44.07157" lon="6.25544">
        <ele>898</ele>
        <time>2015-06-21T06:42:47Z</time>
      </trkpt>
      <trkpt lat="44.07159" lon="6.25565">
        <ele>898</ele>
        <time>2015-06-21T06:42:50Z</time>
      </trkpt>
      <trkpt lat="44.07171" lon="6.256">
        <ele>886</ele>
        <time>2015-06-21T06:42:55Z</time>
      </trkpt>
      <trkpt lat="44.07186" lon="6.25633">
        <ele>890</ele>
        <time>2015-06-21T06:43:00Z</time>
      </trkpt>
      <trkpt lat="44.07201" lon="6.25667">
        <ele>877</ele>
        <time>2015-06-21T06:43:05Z</time>
      </trkpt>
      <trkpt lat="44.07222" lon="6.25708">
        <ele>879</ele>
        <time>2015-06-21T06:43:11Z</time>
      </trkpt>
      <trkpt lat="44.07236" lon="6.25727">
        <ele>872</ele>
        <time>2015-06-21T06:43:14Z</time>
      </trkpt>
      <trkpt lat="44.07244" lon="6.2575">
        <ele>874</ele>
        <time>2015-06-21T06:43:17Z</time>
      </trkpt>
      <trkpt lat="44.07264" lon="6.25776">
        <ele>880</ele>
        <time>2015-06-21T06:43:23Z</time>
      </trkpt>
      <trkpt lat="44.07283" lon="6.25813">
        <ele>871</ele>
        <time>2015-06-21T06:43:30Z</time>
      </trkpt>
      <trkpt lat="44.07288" lon="6.25832">
        <ele>860</ele>
        <time>2015-06-21T06:43:33Z</time>
      </trkpt>
      <trkpt lat="44.07285" lon="6.25842">
        <ele>860</ele>
        <time>2015-06-21T06:43:37Z</time>
      </trkpt>
      <trkpt lat="44.0728" lon="6.2583">
        <ele>860</ele>
        <time>2015-06-21T06:43:40Z</time>
      </trkpt>
      <trkpt lat="44.07267" lon="6.25815">
        <ele>871</ele>
        <time>2015-06-21T06:43:43Z</time>
      </trkpt>
      <trkpt lat="44.07251" lon="6.25803">
        <ele>860</ele>
        <time>2015-06-21T06:43:46Z</time>
      </trkpt>
      <trkpt lat="44.07223" lon="6.25784">
        <ele>857</ele>
        <time>2015-06-21T06:43:51Z</time>
      </trkpt>
      <trkpt lat="44.07188" lon="6.25753">
        <ele>855</ele>
        <time>2015-06-21T06:43:56Z</time>
      </trkpt>
      <trkpt lat="44.07154" lon="6.2574">
        <ele>843</ele>
        <time>2015-06-21T06:44:01Z</time>
      </trkpt>
      <trkpt lat="44.07135" lon="6.25732">
        <ele>847</ele>
        <time>2015-06-21T06:44:04Z</time>
      </trkpt>
      <trkpt lat="44.07131" lon="6.25745">
        <ele>842</ele>
        <time>2015-06-21T06:44:09Z</time>
      </trkpt>
      <trkpt lat="44.07151" lon="6.25777">
        <ele>840</ele>
        <time>2015-06-21T06:44:14Z</time>
      </trkpt>
      <trkpt lat="44.07174" lon="6.25811">
        <ele>837</ele>
        <time>2015-06-21T06:44:18Z</time>
      </trkpt>
      <trkpt lat="44.07211" lon="6.25867">
        <ele>832</ele>
        <time>2015-06-21T06:44:24Z</time>
      </trkpt>
      <trkpt lat="44.07222" lon="6.25895">
        <ele>829</ele>
        <time>2015-06-21T06:44:27Z</time>
      </trkpt>
      <trkpt lat="44.07235" lon="6.25941">
        <ele>829</ele>
        <time>2015-06-21T06:44:31Z</time>
      </trkpt>
      <trkpt lat="44.07258" lon="6.25993">
        <ele>815</ele>
        <time>2015-06-21T06:44:36Z</time>
      </trkpt>
      <trkpt lat="44.07264" lon="6.26022">
        <ele>812</ele>
        <time>2015-06-21T06:44:40Z</time>
      </trkpt>
      <trkpt lat="44.07279" lon="6.26066">
        <ele>805</ele>
        <time>2015-06-21T06:44:46Z</time>
      </trkpt>
      <trkpt lat="44.07289" lon="6.26097">
        <ele>801</ele>
        <time>2015-06-21T06:44:50Z</time>
      </trkpt>
      <trkpt lat="44.07304" lon="6.26125">
        <ele>798</ele>
        <time>2015-06-21T06:44:55Z</time>
      </trkpt>
      <trkpt lat="44.07318" lon="6.26152">
        <ele>798</ele>
        <time>2015-06-21T06:44:59Z</time>
      </trkpt>
      <trkpt lat="44.07355" lon="6.26186">
        <ele>784</ele>
        <time>2015-06-21T06:45:06Z</time>
      </trkpt>
      <trkpt lat="44.0739" lon="6.26254">
        <ele>773</ele>
        <time>2015-06-21T06:45:13Z</time>
      </trkpt>
      <trkpt lat="44.07404" lon="6.2628">
        <ele>768</ele>
        <time>2015-06-21T06:45:17Z</time>
      </trkpt>
      <trkpt lat="44.07412" lon="6.26294">
        <ele>765</ele>
        <time>2015-06-21T06:45:20Z</time>
      </trkpt>
      <trkpt lat="44.07432" lon="6.26324">
        <ele>756</ele>
        <time>2015-06-21T06:45:26Z</time>
      </trkpt>
      <trkpt lat="44.07447" lon="6.26351">
        <ele>752</ele>
        <time>2015-06-21T06:45:30Z</time>
      </trkpt>
      <trkpt lat="44.07471" lon="6.26379">
        <ele>749</ele>
        <time>2015-06-21T06:45:35Z</time>
      </trkpt>
      <trkpt lat="44.075" lon="6.26418">
        <ele>744</ele>
        <time>2015-06-21T06:45:41Z</time>
      </trkpt>
      <trkpt lat="44.07512" lon="6.26449">
        <ele>744</ele>
        <time>2015-06-21T06:45:47Z</time>
      </trkpt>
      <trkpt lat="44.07527" lon="6.26464">
        <ele>743</ele>
        <time>2015-06-21T06:45:51Z</time>
      </trkpt>
      <trkpt lat="44.07536" lon="6.26467">
        <ele>743</ele>
        <time>2015-06-21T06:45:54Z</time>
      </trkpt>
      <trkpt lat="44.07557" lon="6.2647">
        <ele>735</ele>
        <time>2015-06-21T06:45:59Z</time>
      </trkpt>
      <trkpt lat="44.07568" lon="6.2648">
        <ele>735</ele>
        <time>2015-06-21T06:46:03Z</time>
      </trkpt>
      <trkpt lat="44.0758" lon="6.26497">
        <ele>729</ele>
        <time>2015-06-21T06:46:07Z</time>
      </trkpt>
      <trkpt lat="44.07588" lon="6.2652">
        <ele>727</ele>
        <time>2015-06-21T06:46:11Z</time>
      </trkpt>
      <trkpt lat="44.07592" lon="6.26528">
        <ele>727</ele>
        <time>2015-06-21T06:46:15Z</time>
      </trkpt>
      <trkpt lat="44.07602" lon="6.26538">
        <ele>725</ele>
        <time>2015-06-21T06:46:20Z</time>
      </trkpt>
      <trkpt lat="44.07618" lon="6.26548">
        <ele>718</ele>
        <time>2015-06-21T06:46:26Z</time>
      </trkpt>
      <trkpt lat="44.07636" lon="6.26571">
        <ele>717</ele>
        <time>2015-06-21T06:46:32Z</time>
      </trkpt>
      <trkpt lat="44.07643" lon="6.26582">
        <ele>717</ele>
        <time>2015-06-21T06:46:35Z</time>
      </trkpt>
      <trkpt lat="44.07652" lon="6.26595">
        <ele>717</ele>
        <time>2015-06-21T06:46:38Z</time>
      </trkpt>
      <trkpt lat="44.07658" lon="6.26606">
        <ele>721</ele>
        <time>2015-06-21T06:46:43Z</time>
      </trkpt>
      <trkpt lat="44.0766" lon="6.26609">
        <ele>721</ele>
        <time>2015-06-21T06:46:49Z</time>
      </trkpt>
      <trkpt lat="44.07655" lon="6.26607">
        <ele>721</ele>
        <time>2015-06-21T06:46:54Z</time>
      </trkpt>
      <trkpt lat="44.07651" lon="6.2661">
        <ele>715</ele>
        <time>2015-06-21T06:47:00Z</time>
      </trkpt>
      <trkpt lat="44.07651" lon="6.26616">
        <ele>715</ele>
        <time>2015-06-21T06:47:06Z</time>
      </trkpt>
      <trkpt lat="44.07654" lon="6.26627">
        <ele>716</ele>
        <time>2015-06-21T06:47:15Z</time>
      </trkpt>
      <trkpt lat="44.07656" lon="6.26637">
        <ele>716</ele>
        <time>2015-06-21T06:47:22Z</time>
      </trkpt>
      <trkpt lat="44.07658" lon="6.26644">
        <ele>716</ele>
        <time>2015-06-21T06:47:27Z</time>
      </trkpt>
      <trkpt lat="44.07663" lon="6.26648">
        <ele>716</ele>
        <time>2015-06-21T06:47:32Z</time>
      </trkpt>
      <trkpt lat="44.0767" lon="6.26655">
        <ele>710</ele>
        <time>2015-06-21T06:47:37Z</time>
      </trkpt>
      <trkpt lat="44.07673" lon="6.26674">
        <ele>710</ele>
        <time>2015-06-21T06:47:44Z</time>
      </trkpt>
      <trkpt lat="44.07672" lon="6.26687">
        <ele>703</ele>
        <time>2015-06-21T06:47:48Z</time>
      </trkpt>
      <trkpt lat="44.07678" lon="6.26686">
        <ele>703</ele>
        <time>2015-06-21T06:47:53Z</time>
      </trkpt>
      <trkpt lat="44.07686" lon="6.26699">
        <ele>709</ele>
        <time>2015-06-21T06:48:00Z</time>
      </trkpt>
      <trkpt lat="44.07689" lon="6.26707">
        <ele>709</ele>
        <time>2015-06-21T06:48:06Z</time>
      </trkpt>
      <trkpt lat="44.07696" lon="6.26714">
        <ele>698</ele>
        <time>2015-06-21T06:48:12Z</time>
      </trkpt>
      <trkpt lat="44.07707" lon="6.26725">
        <ele>698</ele>
        <time>2015-06-21T06:48:18Z</time>
      </trkpt>
      <trkpt lat="44.07714" lon="6.2674">
        <ele>695</ele>
        <time>2015-06-21T06:48:22Z</time>
      </trkpt>
      <trkpt lat="44.07714" lon="6.26756">
        <ele>695</ele>
        <time>2015-06-21T06:48:26Z</time>
      </trkpt>
      <trkpt lat="44.07713" lon="6.26771">
        <ele>690</ele>
        <time>2015-06-21T06:48:29Z</time>
      </trkpt>
      <trkpt lat="44.07707" lon="6.26782">
        <ele>685</ele>
        <time>2015-06-21T06:48:35Z</time>
      </trkpt>
      <trkpt lat="44.07704" lon="6.26777">
        <ele>685</ele>
        <time>2015-06-21T06:48:39Z</time>
      </trkpt>
      <trkpt lat="44.07701" lon="6.26783">
        <ele>685</ele>
        <time>2015-06-21T06:48:43Z</time>
      </trkpt>
      <trkpt lat="44.07701" lon="6.26798">
        <ele>682</ele>
        <time>2015-06-21T06:48:47Z</time>
      </trkpt>
      <trkpt lat="44.07704" lon="6.26824">
        <ele>679</ele>
        <time>2015-06-21T06:48:52Z</time>
      </trkpt>
      <trkpt lat="44.07708" lon="6.26849">
        <ele>681</ele>
        <time>2015-06-21T06:48:58Z</time>
      </trkpt>
      <trkpt lat="44.07714" lon="6.26866">
        <ele>677</ele>
        <time>2015-06-21T06:49:02Z</time>
      </trkpt>
      <trkpt lat="44.07724" lon="6.26877">
        <ele>676</ele>
        <time>2015-06-21T06:49:05Z</time>
      </trkpt>
      <trkpt lat="44.07739" lon="6.2689">
        <ele>673</ele>
        <time>2015-06-21T06:49:09Z</time>
      </trkpt>
      <trkpt lat="44.07743" lon="6.26907">
        <ele>671</ele>
        <time>2015-06-21T06:49:14Z</time>
      </trkpt>
      <trkpt lat="44.07747" lon="6.2692">
        <ele>671</ele>
        <time>2015-06-21T06:49:18Z</time>
      </trkpt>
      <trkpt lat="44.07744" lon="6.26925">
        <ele>671</ele>
        <time>2015-06-21T06:49:24Z</time>
      </trkpt>
      <trkpt lat="44.07742" lon="6.26927">
        <ele>671</ele>
        <time>2015-06-21T06:49:27Z</time>
      </trkpt>
      <trkpt lat="44.07744" lon="6.26937">
        <ele>673</ele>
        <time>2015-06-21T06:49:33Z</time>
      </trkpt>
      <trkpt lat="44.07742" lon="6.26946">
        <ele>673</ele>
        <time>2015-06-21T06:49:38Z</time>
      </trkpt>
      <trkpt lat="44.07745" lon="6.26953">
        <ele>673</ele>
        <time>2015-06-21T06:49:42Z</time>
      </trkpt>
      <trkpt lat="44.07756" lon="6.26968">
        <ele>677</ele>
        <time>2015-06-21T06:49:48Z</time>
      </trkpt>
      <trkpt lat="44.07762" lon="6.26984">
        <ele>677</ele>
        <time>2015-06-21T06:49:54Z</time>
      </trkpt>
      <trkpt lat="44.07756" lon="6.27002">
        <ele>685</ele>
        <time>2015-06-21T06:50:03Z</time>
      </trkpt>
      <trkpt lat="44.07749" lon="6.27012">
        <ele>685</ele>
        <time>2015-06-21T06:50:12Z</time>
      </trkpt>
      <trkpt lat="44.07745" lon="6.2702">
        <ele>695</ele>
        <time>2015-06-21T06:50:19Z</time>
      </trkpt>
      <trkpt lat="44.07741" lon="6.27034">
        <ele>695</ele>
        <time>2015-06-21T06:50:29Z</time>
      </trkpt>
      <trkpt lat="44.07739" lon="6.27038">
        <ele>695</ele>
        <time>2015-06-21T06:50:33Z</time>
      </trkpt>
      <trkpt lat="44.07733" lon="6.2704">
        <ele>702</ele>
        <time>2015-06-21T06:50:40Z</time>
      </trkpt>
      <trkpt lat="44.07726" lon="6.27031">
        <ele>702</ele>
        <time>2015-06-21T06:50:46Z</time>
      </trkpt>
      <trkpt lat="44.0772" lon="6.27009">
        <ele>695</ele>
        <time>2015-06-21T06:50:52Z</time>
      </trkpt>
      <trkpt lat="44.07716" lon="6.26979">
        <ele>686</ele>
        <time>2015-06-21T06:50:59Z</time>
      </trkpt>
      <trkpt lat="44.07707" lon="6.2695">
        <ele>693</ele>
        <time>2015-06-21T06:51:06Z</time>
      </trkpt>
      <trkpt lat="44.07693" lon="6.26937">
        <ele>693</ele>
        <time>2015-06-21T06:51:11Z</time>
      </trkpt>
      <trkpt lat="44.07678" lon="6.26913">
        <ele>697</ele>
        <time>2015-06-21T06:51:18Z</time>
      </trkpt>
      <trkpt lat="44.07662" lon="6.26896">
        <ele>691</ele>
        <time>2015-06-21T06:51:24Z</time>
      </trkpt>
      <trkpt lat="44.07639" lon="6.26885">
        <ele>694</ele>
        <time>2015-06-21T06:51:31Z</time>
      </trkpt>
      <trkpt lat="44.07627" lon="6.26889">
        <ele>694</ele>
        <time>2015-06-21T06:51:35Z</time>
      </trkpt>
      <trkpt lat="44.07618" lon="6.26902">
        <ele>693</ele>
        <time>2015-06-21T06:51:39Z</time>
      </trkpt>
      <trkpt lat="44.07614" lon="6.26923">
        <ele>698</ele>
        <time>2015-06-21T06:51:44Z</time>
      </trkpt>
      <trkpt lat="44.07612" lon="6.26933">
        <ele>704</ele>
        <time>2015-06-21T06:51:47Z</time>
      </trkpt>
      <trkpt lat="44.07618" lon="6.26942">
        <ele>704</ele>
        <time>2015-06-21T06:51:54Z</time>
      </trkpt>
      <trkpt lat="44.07624" lon="6.26933">
        <ele>704</ele>
        <time>2015-06-21T06:51:59Z</time>
      </trkpt>
      <trkpt lat="44.07641" lon="6.2692">
        <ele>700</ele>
        <time>2015-06-21T06:52:09Z</time>
      </trkpt>
      <trkpt lat="44.07651" lon="6.26924">
        <ele>700</ele>
        <time>2015-06-21T06:52:15Z</time>
      </trkpt>
      <trkpt lat="44.07659" lon="6.26938">
        <ele>706</ele>
        <time>2015-06-21T06:52:23Z</time>
      </trkpt>
      <trkpt lat="44.07666" lon="6.2696">
        <ele>716</ele>
        <time>2015-06-21T06:52:33Z</time>
      </trkpt>
      <trkpt lat="44.07674" lon="6.26976">
        <ele>716</ele>
        <time>2015-06-21T06:52:42Z</time>
      </trkpt>
      <trkpt lat="44.07681" lon="6.26996">
        <ele>713</ele>
        <time>2015-06-21T06:52:52Z</time>
      </trkpt>
      <trkpt lat="44.07683" lon="6.27016">
        <ele>721</ele>
        <time>2015-06-21T06:53:00Z</time>
      </trkpt>
      <trkpt lat="44.07683" lon="6.2703">
        <ele>721</ele>
        <time>2015-06-21T06:53:06Z</time>
      </trkpt>
      <trkpt lat="44.07685" lon="6.27055">
        <ele>726</ele>
        <time>2015-06-21T06:53:16Z</time>
      </trkpt>
      <trkpt lat="44.07687" lon="6.27075">
        <ele>736</ele>
        <time>2015-06-21T06:53:23Z</time>
      </trkpt>
      <trkpt lat="44.07691" lon="6.27095">
        <ele>736</ele>
        <time>2015-06-21T06:53:31Z</time>
      </trkpt>
      <trkpt lat="44.07698" lon="6.27113">
        <ele>747</ele>
        <time>2015-06-21T06:53:40Z</time>
      </trkpt>
      <trkpt lat="44.07712" lon="6.27134">
        <ele>735</ele>
        <time>2015-06-21T06:53:51Z</time>
      </trkpt>
      <trkpt lat="44.07729" lon="6.27151">
        <ele>735</ele>
        <time>2015-06-21T06:54:01Z</time>
      </trkpt>
      <trkpt lat="44.07745" lon="6.27169">
        <ele>736</ele>
        <time>2015-06-21T06:54:10Z</time>
      </trkpt>
      <trkpt lat="44.07769" lon="6.27189">
        <ele>742</ele>
        <time>2015-06-21T06:54:19Z</time>
      </trkpt>
      <trkpt lat="44.0779" lon="6.27205">
        <ele>742</ele>
        <time>2015-06-21T06:54:26Z</time>
      </trkpt>
      <trkpt lat="44.07818" lon="6.27221">
        <ele>746</ele>
        <time>2015-06-21T06:54:36Z</time>
      </trkpt>
      <trkpt lat="44.07826" lon="6.27226">
        <ele>749</ele>
        <time>2015-06-21T06:54:40Z</time>
      </trkpt>
      <trkpt lat="44.07845" lon="6.27237">
        <ele>746</ele>
        <time>2015-06-21T06:54:48Z</time>
      </trkpt>
      <trkpt lat="44.07864" lon="6.2723">
        <ele>753</ele>
        <time>2015-06-21T06:54:54Z</time>
      </trkpt>
      <trkpt lat="44.07882" lon="6.27215">
        <ele>754</ele>
        <time>2015-06-21T06:55:02Z</time>
      </trkpt>
      <trkpt lat="44.07899" lon="6.27207">
        <ele>759</ele>
        <time>2015-06-21T06:55:08Z</time>
      </trkpt>
      <trkpt lat="44.07927" lon="6.272">
        <ele>757</ele>
        <time>2015-06-21T06:55:16Z</time>
      </trkpt>
      <trkpt lat="44.0795" lon="6.27185">
        <ele>756</ele>
        <time>2015-06-21T06:55:23Z</time>
      </trkpt>
      <trkpt lat="44.07965" lon="6.27182">
        <ele>753</ele>
        <time>2015-06-21T06:55:27Z</time>
      </trkpt>
      <trkpt lat="44.07981" lon="6.27194">
        <ele>753</ele>
        <time>2015-06-21T06:55:31Z</time>
      </trkpt>
      <trkpt lat="44.07996" lon="6.27216">
        <ele>751</ele>
        <time>2015-06-21T06:55:35Z</time>
      </trkpt>
      <trkpt lat="44.07994" lon="6.27238">
        <ele>754</ele>
        <time>2015-06-21T06:55:39Z</time>
      </trkpt>
      <trkpt lat="44.0797" lon="6.2726">
        <ele>754</ele>
        <time>2015-06-21T06:55:46Z</time>
      </trkpt>
      <trkpt lat="44.0797" lon="6.27268">
        <ele>755</ele>
        <time>2015-06-21T06:55:49Z</time>
      </trkpt>
      <trkpt lat="44.07973" lon="6.2729">
        <ele>755</ele>
        <time>2015-06-21T06:55:57Z</time>
      </trkpt>
      <trkpt lat="44.07974" lon="6.27311">
        <ele>759</ele>
        <time>2015-06-21T06:56:04Z</time>
      </trkpt>
      <trkpt lat="44.07971" lon="6.27327">
        <ele>762</ele>
        <time>2015-06-21T06:56:10Z</time>
      </trkpt>
      <trkpt lat="44.07975" lon="6.2735">
        <ele>764</ele>
        <time>2015-06-21T06:56:17Z</time>
      </trkpt>
      <trkpt lat="44.07974" lon="6.27367">
        <ele>764</ele>
        <time>2015-06-21T06:56:23Z</time>
      </trkpt>
      <trkpt lat="44.07971" lon="6.27385">
        <ele>766</ele>
        <time>2015-06-21T06:56:29Z</time>
      </trkpt>
      <trkpt lat="44.07972" lon="6.27404">
        <ele>767</ele>
        <time>2015-06-21T06:56:35Z</time>
      </trkpt>
      <trkpt lat="44.07975" lon="6.27436">
        <ele>767</ele>
        <time>2015-06-21T06:56:43Z</time>
      </trkpt>
      <trkpt lat="44.07972" lon="6.27475">
        <ele>767</ele>
        <time>2015-06-21T06:56:51Z</time>
      </trkpt>
      <trkpt lat="44.07974" lon="6.27502">
        <ele>767</ele>
        <time>2015-06-21T06:56:56Z</time>
      </trkpt>
      <trkpt lat="44.07973" lon="6.27539">
        <ele>766</ele>
        <time>2015-06-21T06:57:02Z</time>
      </trkpt>
      <trkpt lat="44.07976" lon="6.27592">
        <ele>766</ele>
        <time>2015-06-21T06:57:09Z</time>
      </trkpt>
      <trkpt lat="44.07967" lon="6.27628">
        <ele>771</ele>
        <time>2015-06-21T06:57:14Z</time>
      </trkpt>
      <trkpt lat="44.07954" lon="6.27664">
        <ele>771</ele>
        <time>2015-06-21T06:57:21Z</time>
      </trkpt>
      <trkpt lat="44.07954" lon="6.27674">
        <ele>771</ele>
        <time>2015-06-21T06:57:24Z</time>
      </trkpt>
      <trkpt lat="44.07955" lon="6.27692">
        <ele>772</ele>
        <time>2015-06-21T06:57:31Z</time>
      </trkpt>
      <trkpt lat="44.07959" lon="6.27711">
        <ele>776</ele>
        <time>2015-06-21T06:57:40Z</time>
      </trkpt>
      <trkpt lat="44.07961" lon="6.27725">
        <ele>776</ele>
        <time>2015-06-21T06:57:47Z</time>
      </trkpt>
      <trkpt lat="44.07968" lon="6.27742">
        <ele>781</ele>
        <time>2015-06-21T06:57:57Z</time>
      </trkpt>
      <trkpt lat="44.07972" lon="6.27752">
        <ele>781</ele>
        <time>2015-06-21T06:58:04Z</time>
      </trkpt>
      <trkpt lat="44.07973" lon="6.27766">
        <ele>790</ele>
        <time>2015-06-21T06:58:12Z</time>
      </trkpt>
      <trkpt lat="44.07974" lon="6.27775">
        <ele>790</ele>
        <time>2015-06-21T06:58:19Z</time>
      </trkpt>
      <trkpt lat="44.07975" lon="6.27782">
        <ele>790</ele>
        <time>2015-06-21T06:58:27Z</time>
      </trkpt>
      <trkpt lat="44.07975" lon="6.27787">
        <ele>790</ele>
        <time>2015-06-21T06:58:32Z</time>
      </trkpt>
      <trkpt lat="44.07974" lon="6.27793">
        <ele>802</ele>
        <time>2015-06-21T06:58:37Z</time>
      </trkpt>
      <trkpt lat="44.07976" lon="6.27801">
        <ele>802</ele>
        <time>2015-06-21T06:58:43Z</time>
      </trkpt>
      <trkpt lat="44.07982" lon="6.27808">
        <ele>802</ele>
        <time>2015-06-21T06:58:52Z</time>
      </trkpt>
      <trkpt lat="44.07984" lon="6.27814">
        <ele>802</ele>
        <time>2015-06-21T06:59:00Z</time>
      </trkpt>
      <trkpt lat="44.07985" lon="6.2782">
        <ele>813</ele>
        <time>2015-06-21T06:59:08Z</time>
      </trkpt>
      <trkpt lat="44.07985" lon="6.27825">
        <ele>813</ele>
        <time>2015-06-21T06:59:15Z</time>
      </trkpt>
      <trkpt lat="44.07985" lon="6.27831">
        <ele>813</ele>
        <time>2015-06-21T06:59:22Z</time>
      </trkpt>
      <trkpt lat="44.07984" lon="6.27836">
        <ele>813</ele>
        <time>2015-06-21T06:59:30Z</time>
      </trkpt>
      <trkpt lat="44.07985" lon="6.27843">
        <ele>813</ele>
        <time>2015-06-21T06:59:37Z</time>
      </trkpt>
      <trkpt lat="44.07987" lon="6.27851">
        <ele>816</ele>
        <time>2015-06-21T06:59:46Z</time>
      </trkpt>
      <trkpt lat="44.07987" lon="6.27855">
        <ele>816</ele>
        <time>2015-06-21T06:59:50Z</time>
      </trkpt>
      <trkpt lat="44.07988" lon="6.27863">
        <ele>816</ele>
        <time>2015-06-21T06:59:58Z</time>
      </trkpt>
      <trkpt lat="44.0799" lon="6.2787">
        <ele>816</ele>
        <time>2015-06-21T07:00:07Z</time>
      </trkpt>
      <trkpt lat="44.07991" lon="6.27878">
        <ele>823</ele>
        <time>2015-06-21T07:00:15Z</time>
      </trkpt>
      <trkpt lat="44.07994" lon="6.27886">
        <ele>823</ele>
        <time>2015-06-21T07:00:22Z</time>
      </trkpt>
      <trkpt lat="44.07996" lon="6.27892">
        <ele>823</ele>
        <time>2015-06-21T07:00:29Z</time>
      </trkpt>
      <trkpt lat="44.07998" lon="6.27901">
        <ele>823</ele>
        <time>2015-06-21T07:00:38Z</time>
      </trkpt>
      <trkpt lat="44.07998" lon="6.27905">
        <ele>833</ele>
        <time>2015-06-21T07:00:43Z</time>
      </trkpt>
      <trkpt lat="44.08001" lon="6.27912">
        <ele>833</ele>
        <time>2015-06-21T07:00:51Z</time>
      </trkpt>
      <trkpt lat="44.08002" lon="6.27917">
        <ele>833</ele>
        <time>2015-06-21T07:00:57Z</time>
      </trkpt>
      <trkpt lat="44.08002" lon="6.27923">
        <ele>833</ele>
        <time>2015-06-21T07:01:05Z</time>
      </trkpt>
      <trkpt lat="44.08004" lon="6.27929">
        <ele>833</ele>
        <time>2015-06-21T07:01:13Z</time>
      </trkpt>
      <trkpt lat="44.08008" lon="6.27934">
        <ele>842</ele>
        <time>2015-06-21T07:01:23Z</time>
      </trkpt>
      <trkpt lat="44.08011" lon="6.27939">
        <ele>842</ele>
        <time>2015-06-21T07:01:31Z</time>
      </trkpt>
      <trkpt lat="44.08016" lon="6.27944">
        <ele>843</ele>
        <time>2015-06-21T07:01:39Z</time>
      </trkpt>
      <trkpt lat="44.08018" lon="6.27946">
        <ele>843</ele>
        <time>2015-06-21T07:01:43Z</time>
      </trkpt>
      <trkpt lat="44.08023" lon="6.27951">
        <ele>843</ele>
        <time>2015-06-21T07:01:51Z</time>
      </trkpt>
      <trkpt lat="44.0803" lon="6.27953">
        <ele>843</ele>
        <time>2015-06-21T07:02:00Z</time>
      </trkpt>
      <trkpt lat="44.08036" lon="6.27949">
        <ele>843</ele>
        <time>2015-06-21T07:02:08Z</time>
      </trkpt>
      <trkpt lat="44.0804" lon="6.27949">
        <ele>843</ele>
        <time>2015-06-21T07:02:15Z</time>
      </trkpt>
      <trkpt lat="44.08044" lon="6.27951">
        <ele>851</ele>
        <time>2015-06-21T07:02:22Z</time>
      </trkpt>
      <trkpt lat="44.08049" lon="6.27961">
        <ele>852</ele>
        <time>2015-06-21T07:02:29Z</time>
      </trkpt>
      <trkpt lat="44.08053" lon="6.27965">
        <ele>852</ele>
        <time>2015-06-21T07:02:36Z</time>
      </trkpt>
      <trkpt lat="44.08056" lon="6.27969">
        <ele>852</ele>
        <time>2015-06-21T07:02:42Z</time>
      </trkpt>
      <trkpt lat="44.0806" lon="6.2797">
        <ele>852</ele>
        <time>2015-06-21T07:02:46Z</time>
      </trkpt>
      <trkpt lat="44.08071" lon="6.27976">
        <ele>854</ele>
        <time>2015-06-21T07:02:56Z</time>
      </trkpt>
      <trkpt lat="44.08079" lon="6.27981">
        <ele>854</ele>
        <time>2015-06-21T07:03:03Z</time>
      </trkpt>
      <trkpt lat="44.08087" lon="6.27991">
        <ele>855</ele>
        <time>2015-06-21T07:03:13Z</time>
      </trkpt>
      <trkpt lat="44.08092" lon="6.27997">
        <ele>855</ele>
        <time>2015-06-21T07:03:19Z</time>
      </trkpt>
      <trkpt lat="44.08096" lon="6.28002">
        <ele>855</ele>
        <time>2015-06-21T07:03:25Z</time>
      </trkpt>
      <trkpt lat="44.08102" lon="6.2801">
        <ele>855</ele>
        <time>2015-06-21T07:03:31Z</time>
      </trkpt>
      <trkpt lat="44.08107" lon="6.2802">
        <ele>859</ele>
        <time>2015-06-21T07:03:37Z</time>
      </trkpt>
      <trkpt lat="44.08108" lon="6.28026">
        <ele>859</ele>
        <time>2015-06-21T07:03:41Z</time>
      </trkpt>
      <trkpt lat="44.08114" lon="6.28036">
        <ele>859</ele>
        <time>2015-06-21T07:03:49Z</time>
      </trkpt>
      <trkpt lat="44.08117" lon="6.28045">
        <ele>864</ele>
        <time>2015-06-21T07:03:56Z</time>
      </trkpt>
      <trkpt lat="44.08122" lon="6.28055">
        <ele>864</ele>
        <time>2015-06-21T07:04:03Z</time>
      </trkpt>
      <trkpt lat="44.08123" lon="6.28062">
        <ele>864</ele>
        <time>2015-06-21T07:04:10Z</time>
      </trkpt>
      <trkpt lat="44.08124" lon="6.28067">
        <ele>864</ele>
        <time>2015-06-21T07:04:14Z</time>
      </trkpt>
      <trkpt lat="44.08127" lon="6.28075">
        <ele>866</ele>
        <time>2015-06-21T07:04:19Z</time>
      </trkpt>
      <trkpt lat="44.08129" lon="6.28084">
        <ele>866</ele>
        <time>2015-06-21T07:04:24Z</time>
      </trkpt>
      <trkpt lat="44.08129" lon="6.28091">
        <ele>866</ele>
        <time>2015-06-21T07:04:31Z</time>
      </trkpt>
      <trkpt lat="44.08124" lon="6.28105">
        <ele>872</ele>
        <time>2015-06-21T07:04:37Z</time>
      </trkpt>
      <trkpt lat="44.08116" lon="6.28121">
        <ele>872</ele>
        <time>2015-06-21T07:04:43Z</time>
      </trkpt>
      <trkpt lat="44.08107" lon="6.28131">
        <ele>874</ele>
        <time>2015-06-21T07:04:50Z</time>
      </trkpt>
      <trkpt lat="44.08096" lon="6.28136">
        <ele>879</ele>
        <time>2015-06-21T07:04:57Z</time>
      </trkpt>
      <trkpt lat="44.08088" lon="6.28137">
        <ele>879</ele>
        <time>2015-06-21T07:05:01Z</time>
      </trkpt>
      <trkpt lat="44.08084" lon="6.28148">
        <ele>879</ele>
        <time>2015-06-21T07:05:06Z</time>
      </trkpt>
      <trkpt lat="44.08082" lon="6.28164">
        <ele>885</ele>
        <time>2015-06-21T07:05:12Z</time>
      </trkpt>
      <trkpt lat="44.08077" lon="6.28175">
        <ele>885</ele>
        <time>2015-06-21T07:05:18Z</time>
      </trkpt>
      <trkpt lat="44.08066" lon="6.28184">
        <ele>890</ele>
        <time>2015-06-21T07:05:27Z</time>
      </trkpt>
      <trkpt lat="44.08057" lon="6.28185">
        <ele>890</ele>
        <time>2015-06-21T07:05:33Z</time>
      </trkpt>
      <trkpt lat="44.08051" lon="6.28192">
        <ele>890</ele>
        <time>2015-06-21T07:05:38Z</time>
      </trkpt>
      <trkpt lat="44.08043" lon="6.28197">
        <ele>890</ele>
        <time>2015-06-21T07:05:43Z</time>
      </trkpt>
      <trkpt lat="44.0804" lon="6.28199">
        <ele>888</ele>
        <time>2015-06-21T07:05:47Z</time>
      </trkpt>
      <trkpt lat="44.08034" lon="6.28204">
        <ele>888</ele>
        <time>2015-06-21T07:05:53Z</time>
      </trkpt>
      <trkpt lat="44.08038" lon="6.2821">
        <ele>896</ele>
        <time>2015-06-21T07:05:58Z</time>
      </trkpt>
      <trkpt lat="44.08041" lon="6.28211">
        <ele>896</ele>
        <time>2015-06-21T07:06:01Z</time>
      </trkpt>
      <trkpt lat="44.08042" lon="6.28219">
        <ele>900</ele>
        <time>2015-06-21T07:06:08Z</time>
      </trkpt>
      <trkpt lat="44.08036" lon="6.28222">
        <ele>896</ele>
        <time>2015-06-21T07:06:16Z</time>
      </trkpt>
      <trkpt lat="44.0803" lon="6.28225">
        <ele>896</ele>
        <time>2015-06-21T07:06:23Z</time>
      </trkpt>
      <trkpt lat="44.08022" lon="6.28228">
        <ele>896</ele>
        <time>2015-06-21T07:06:31Z</time>
      </trkpt>
      <trkpt lat="44.08011" lon="6.28229">
        <ele>896</ele>
        <time>2015-06-21T07:06:39Z</time>
      </trkpt>
      <trkpt lat="44.08006" lon="6.28229">
        <ele>896</ele>
        <time>2015-06-21T07:06:45Z</time>
      </trkpt>
      <trkpt lat="44.08006" lon="6.28233">
        <ele>896</ele>
        <time>2015-06-21T07:06:53Z</time>
      </trkpt>
      <trkpt lat="44.08008" lon="6.28236">
        <ele>896</ele>
        <time>2015-06-21T07:07:01Z</time>
      </trkpt>
      <trkpt lat="44.08007" lon="6.28237">
        <ele>908</ele>
        <time>2015-06-21T07:07:05Z</time>
      </trkpt>
      <trkpt lat="44.08009" lon="6.28241">
        <ele>908</ele>
        <time>2015-06-21T07:07:11Z</time>
      </trkpt>
      <trkpt lat="44.08012" lon="6.28245">
        <ele>908</ele>
        <time>2015-06-21T07:07:18Z</time>
      </trkpt>
      <trkpt lat="44.08015" lon="6.28249">
        <ele>908</ele>
        <time>2015-06-21T07:07:23Z</time>
      </trkpt>
      <trkpt lat="44.08019" lon="6.28256">
        <ele>908</ele>
        <time>2015-06-21T07:07:33Z</time>
      </trkpt>
      <trkpt lat="44.08021" lon="6.2826">
        <ele>908</ele>
        <time>2015-06-21T07:07:39Z</time>
      </trkpt>
      <trkpt lat="44.08015" lon="6.28265">
        <ele>919</ele>
        <time>2015-06-21T07:07:47Z</time>
      </trkpt>
      <trkpt lat="44.08009" lon="6.28266">
        <ele>918</ele>
        <time>2015-06-21T07:07:54Z</time>
      </trkpt>
      <trkpt lat="44.08006" lon="6.28269">
        <ele>918</ele>
        <time>2015-06-21T07:08:00Z</time>
      </trkpt>
      <trkpt lat="44.08003" lon="6.28273">
        <ele>918</ele>
        <time>2015-06-21T07:08:08Z</time>
      </trkpt>
      <trkpt lat="44.08003" lon="6.28275">
        <ele>918</ele>
        <time>2015-06-21T07:08:11Z</time>
      </trkpt>
      <trkpt lat="44.08001" lon="6.28281">
        <ele>918</ele>
        <time>2015-06-21T07:08:17Z</time>
      </trkpt>
      <trkpt lat="44.07995" lon="6.28287">
        <ele>918</ele>
        <time>2015-06-21T07:08:26Z</time>
      </trkpt>
      <trkpt lat="44.07991" lon="6.2829">
        <ele>918</ele>
        <time>2015-06-21T07:08:32Z</time>
      </trkpt>
      <trkpt lat="44.07988" lon="6.28294">
        <ele>926</ele>
        <time>2015-06-21T07:08:40Z</time>
      </trkpt>
      <trkpt lat="44.07989" lon="6.28296">
        <ele>926</ele>
        <time>2015-06-21T07:08:43Z</time>
      </trkpt>
      <trkpt lat="44.08001" lon="6.28295">
        <ele>926</ele>
        <time>2015-06-21T07:08:52Z</time>
      </trkpt>
      <trkpt lat="44.08003" lon="6.28297">
        <ele>926</ele>
        <time>2015-06-21T07:08:56Z</time>
      </trkpt>
      <trkpt lat="44.08001" lon="6.28299">
        <ele>926</ele>
        <time>2015-06-21T07:08:59Z</time>
      </trkpt>
      <trkpt lat="44.07999" lon="6.28303">
        <ele>926</ele>
        <time>2015-06-21T07:09:03Z</time>
      </trkpt>
      <trkpt lat="44.07995" lon="6.28308">
        <ele>926</ele>
        <time>2015-06-21T07:09:08Z</time>
      </trkpt>
      <trkpt lat="44.0799" lon="6.28313">
        <ele>926</ele>
        <time>2015-06-21T07:09:13Z</time>
      </trkpt>
      <trkpt lat="44.07985" lon="6.28327">
        <ele>936</ele>
        <time>2015-06-21T07:09:20Z</time>
      </trkpt>
      <trkpt lat="44.07979" lon="6.28342">
        <ele>936</ele>
        <time>2015-06-21T07:09:25Z</time>
      </trkpt>
      <trkpt lat="44.07978" lon="6.2836">
        <ele>940</ele>
        <time>2015-06-21T07:09:31Z</time>
      </trkpt>
      <trkpt lat="44.07975" lon="6.28382">
        <ele>940</ele>
        <time>2015-06-21T07:09:38Z</time>
      </trkpt>
      <trkpt lat="44.07973" lon="6.28399">
        <ele>940</ele>
        <time>2015-06-21T07:09:43Z</time>
      </trkpt>
      <trkpt lat="44.07971" lon="6.2843">
        <ele>938</ele>
        <time>2015-06-21T07:09:49Z</time>
      </trkpt>
      <trkpt lat="44.07965" lon="6.28452">
        <ele>936</ele>
        <time>2015-06-21T07:09:54Z</time>
      </trkpt>
      <trkpt lat="44.07961" lon="6.2847">
        <ele>933</ele>
        <time>2015-06-21T07:09:58Z</time>
      </trkpt>
      <trkpt lat="44.07953" lon="6.28482">
        <ele>943</ele>
        <time>2015-06-21T07:10:02Z</time>
      </trkpt>
      <trkpt lat="44.07942" lon="6.28491">
        <ele>938</ele>
        <time>2015-06-21T07:10:06Z</time>
      </trkpt>
      <trkpt lat="44.07913" lon="6.28503">
        <ele>942</ele>
        <time>2015-06-21T07:10:12Z</time>
      </trkpt>
      <trkpt lat="44.07899" lon="6.28508">
        <ele>945</ele>
        <time>2015-06-21T07:10:15Z</time>
      </trkpt>
      <trkpt lat="44.07884" lon="6.28514">
        <ele>937</ele>
        <time>2015-06-21T07:10:19Z</time>
      </trkpt>
      <trkpt lat="44.07867" lon="6.28527">
        <ele>940</ele>
        <time>2015-06-21T07:10:25Z</time>
      </trkpt>
      <trkpt lat="44.07835" lon="6.28542">
        <ele>940</ele>
        <time>2015-06-21T07:10:31Z</time>
      </trkpt>
      <trkpt lat="44.07822" lon="6.28548">
        <ele>940</ele>
        <time>2015-06-21T07:10:34Z</time>
      </trkpt>
      <trkpt lat="44.07815" lon="6.28569">
        <ele>945</ele>
        <time>2015-06-21T07:10:39Z</time>
      </trkpt>
      <trkpt lat="44.07807" lon="6.28603">
        <ele>941</ele>
        <time>2015-06-21T07:10:46Z</time>
      </trkpt>
      <trkpt lat="44.07788" lon="6.28636">
        <ele>946</ele>
        <time>2015-06-21T07:10:53Z</time>
      </trkpt>
      <trkpt lat="44.07775" lon="6.28673">
        <ele>942</ele>
        <time>2015-06-21T07:10:59Z</time>
      </trkpt>
      <trkpt lat="44.07764" lon="6.28696">
        <ele>939</ele>
        <time>2015-06-21T07:11:04Z</time>
      </trkpt>
      <trkpt lat="44.07751" lon="6.287">
        <ele>945</ele>
        <time>2015-06-21T07:11:10Z</time>
      </trkpt>
      <trkpt lat="44.07741" lon="6.28702">
        <ele>945</ele>
        <time>2015-06-21T07:11:16Z</time>
      </trkpt>
      <trkpt lat="44.0773" lon="6.28701">
        <ele>953</ele>
        <time>2015-06-21T07:11:23Z</time>
      </trkpt>
      <trkpt lat="44.07722" lon="6.28698">
        <ele>953</ele>
        <time>2015-06-21T07:11:29Z</time>
      </trkpt>
      <trkpt lat="44.07713" lon="6.28695">
        <ele>953</ele>
        <time>2015-06-21T07:11:36Z</time>
      </trkpt>
      <trkpt lat="44.07709" lon="6.28693">
        <ele>953</ele>
        <time>2015-06-21T07:11:39Z</time>
      </trkpt>
      <trkpt lat="44.07696" lon="6.28694">
        <ele>956</ele>
        <time>2015-06-21T07:11:46Z</time>
      </trkpt>
      <trkpt lat="44.07683" lon="6.28697">
        <ele>956</ele>
        <time>2015-06-21T07:11:51Z</time>
      </trkpt>
      <trkpt lat="44.07673" lon="6.28694">
        <ele>960</ele>
        <time>2015-06-21T07:11:57Z</time>
      </trkpt>
      <trkpt lat="44.07665" lon="6.28691">
        <ele>960</ele>
        <time>2015-06-21T07:12:03Z</time>
      </trkpt>
      <trkpt lat="44.07659" lon="6.2869">
        <ele>960</ele>
        <time>2015-06-21T07:12:08Z</time>
      </trkpt>
      <trkpt lat="44.07657" lon="6.28686">
        <ele>960</ele>
        <time>2015-06-21T07:12:12Z</time>
      </trkpt>
      <trkpt lat="44.0765" lon="6.28679">
        <ele>969</ele>
        <time>2015-06-21T07:12:20Z</time>
      </trkpt>
      <trkpt lat="44.07643" lon="6.28678">
        <ele>969</ele>
        <time>2015-06-21T07:12:27Z</time>
      </trkpt>
      <trkpt lat="44.07632" lon="6.2868">
        <ele>969</ele>
        <time>2015-06-21T07:12:35Z</time>
      </trkpt>
      <trkpt lat="44.07622" lon="6.28681">
        <ele>967</ele>
        <time>2015-06-21T07:12:41Z</time>
      </trkpt>
      <trkpt lat="44.0761" lon="6.28686">
        <ele>967</ele>
        <time>2015-06-21T07:12:46Z</time>
      </trkpt>
      <trkpt lat="44.07602" lon="6.28691">
        <ele>967</ele>
        <time>2015-06-21T07:12:50Z</time>
      </trkpt>
      <trkpt lat="44.07588" lon="6.28698">
        <ele>972</ele>
        <time>2015-06-21T07:12:56Z</time>
      </trkpt>
      <trkpt lat="44.07576" lon="6.28704">
        <ele>972</ele>
        <time>2015-06-21T07:13:01Z</time>
      </trkpt>
      <trkpt lat="44.07564" lon="6.28707">
        <ele>977</ele>
        <time>2015-06-21T07:13:07Z</time>
      </trkpt>
      <trkpt lat="44.07543" lon="6.28725">
        <ele>973</ele>
        <time>2015-06-21T07:13:16Z</time>
      </trkpt>
      <trkpt lat="44.0753" lon="6.28733">
        <ele>976</ele>
        <time>2015-06-21T07:13:20Z</time>
      </trkpt>
      <trkpt lat="44.07516" lon="6.28742">
        <ele>971</ele>
        <time>2015-06-21T07:13:24Z</time>
      </trkpt>
      <trkpt lat="44.07508" lon="6.28761">
        <ele>976</ele>
        <time>2015-06-21T07:13:28Z</time>
      </trkpt>
      <trkpt lat="44.07499" lon="6.28783">
        <ele>972</ele>
        <time>2015-06-21T07:13:32Z</time>
      </trkpt>
      <trkpt lat="44.07487" lon="6.28809">
        <ele>967</ele>
        <time>2015-06-21T07:13:36Z</time>
      </trkpt>
      <trkpt lat="44.0745" lon="6.28837">
        <ele>971</ele>
        <time>2015-06-21T07:13:44Z</time>
      </trkpt>
      <trkpt lat="44.07427" lon="6.28835">
        <ele>973</ele>
        <time>2015-06-21T07:13:49Z</time>
      </trkpt>
      <trkpt lat="44.07412" lon="6.28832">
        <ele>973</ele>
        <time>2015-06-21T07:13:54Z</time>
      </trkpt>
      <trkpt lat="44.07397" lon="6.28829">
        <ele>973</ele>
        <time>2015-06-21T07:13:59Z</time>
      </trkpt>
      <trkpt lat="44.07382" lon="6.28833">
        <ele>973</ele>
        <time>2015-06-21T07:14:04Z</time>
      </trkpt>
      <trkpt lat="44.07367" lon="6.28839">
        <ele>974</ele>
        <time>2015-06-21T07:14:08Z</time>
      </trkpt>
      <trkpt lat="44.07354" lon="6.28845">
        <ele>974</ele>
        <time>2015-06-21T07:14:12Z</time>
      </trkpt>
      <trkpt lat="44.07337" lon="6.28849">
        <ele>970</ele>
        <time>2015-06-21T07:14:16Z</time>
      </trkpt>
      <trkpt lat="44.07326" lon="6.28851">
        <ele>970</ele>
        <time>2015-06-21T07:14:19Z</time>
      </trkpt>
      <trkpt lat="44.07293" lon="6.28861">
        <ele>974</ele>
        <time>2015-06-21T07:14:26Z</time>
      </trkpt>
      <trkpt lat="44.07266" lon="6.28867">
        <ele>977</ele>
        <time>2015-06-21T07:14:32Z</time>
      </trkpt>
      <trkpt lat="44.07245" lon="6.28889">
        <ele>976</ele>
        <time>2015-06-21T07:14:38Z</time>
      </trkpt>
      <trkpt lat="44.07235" lon="6.28898">
        <ele>980</ele>
        <time>2015-06-21T07:14:41Z</time>
      </trkpt>
      <trkpt lat="44.07223" lon="6.28901">
        <ele>980</ele>
        <time>2015-06-21T07:14:45Z</time>
      </trkpt>
      <trkpt lat="44.07207" lon="6.28907">
        <ele>974</ele>
        <time>2015-06-21T07:14:50Z</time>
      </trkpt>
      <trkpt lat="44.07189" lon="6.28903">
        <ele>974</ele>
        <time>2015-06-21T07:14:55Z</time>
      </trkpt>
      <trkpt lat="44.07168" lon="6.28894">
        <ele>984</ele>
        <time>2015-06-21T07:15:02Z</time>
      </trkpt>
      <trkpt lat="44.07152" lon="6.28891">
        <ele>987</ele>
        <time>2015-06-21T07:15:07Z</time>
      </trkpt>
      <trkpt lat="44.07144" lon="6.28901">
        <ele>987</ele>
        <time>2015-06-21T07:15:11Z</time>
      </trkpt>
      <trkpt lat="44.07133" lon="6.28905">
        <ele>980</ele>
        <time>2015-06-21T07:15:16Z</time>
      </trkpt>
      <trkpt lat="44.07125" lon="6.28915">
        <ele>985</ele>
        <time>2015-06-21T07:15:19Z</time>
      </trkpt>
      <trkpt lat="44.07099" lon="6.28973">
        <ele>973</ele>
        <time>2015-06-21T07:15:27Z</time>
      </trkpt>
      <trkpt lat="44.07077" lon="6.29003">
        <ele>974</ele>
        <time>2015-06-21T07:15:32Z</time>
      </trkpt>
      <trkpt lat="44.07059" lon="6.29029">
        <ele>976</ele>
        <time>2015-06-21T07:15:36Z</time>
      </trkpt>
      <trkpt lat="44.07058" lon="6.29051">
        <ele>971</ele>
        <time>2015-06-21T07:15:39Z</time>
      </trkpt>
      <trkpt lat="44.07058" lon="6.29073">
        <ele>967</ele>
        <time>2015-06-21T07:15:43Z</time>
      </trkpt>
      <trkpt lat="44.07055" lon="6.29098">
        <ele>964</ele>
        <time>2015-06-21T07:15:48Z</time>
      </trkpt>
      <trkpt lat="44.07041" lon="6.29113">
        <ele>970</ele>
        <time>2015-06-21T07:15:52Z</time>
      </trkpt>
      <trkpt lat="44.07025" lon="6.29127">
        <ele>965</ele>
        <time>2015-06-21T07:15:56Z</time>
      </trkpt>
      <trkpt lat="44.07017" lon="6.29139">
        <ele>965</ele>
        <time>2015-06-21T07:16:00Z</time>
      </trkpt>
      <trkpt lat="44.07" lon="6.29151">
        <ele>966</ele>
        <time>2015-06-21T07:16:04Z</time>
      </trkpt>
      <trkpt lat="44.06974" lon="6.29167">
        <ele>959</ele>
        <time>2015-06-21T07:16:08Z</time>
      </trkpt>
      <trkpt lat="44.06946" lon="6.29154">
        <ele>961</ele>
        <time>2015-06-21T07:16:12Z</time>
      </trkpt>
      <trkpt lat="44.06934" lon="6.29177">
        <ele>961</ele>
        <time>2015-06-21T07:16:18Z</time>
      </trkpt>
      <trkpt lat="44.06917" lon="6.29196">
        <ele>956</ele>
        <time>2015-06-21T07:16:22Z</time>
      </trkpt>
      <trkpt lat="44.06884" lon="6.29212">
        <ele>950</ele>
        <time>2015-06-21T07:16:28Z</time>
      </trkpt>
      <trkpt lat="44.06869" lon="6.29219">
        <ele>949</ele>
        <time>2015-06-21T07:16:32Z</time>
      </trkpt>
      <trkpt lat="44.0686" lon="6.29226">
        <ele>949</ele>
        <time>2015-06-21T07:16:35Z</time>
      </trkpt>
      <trkpt lat="44.06844" lon="6.29238">
        <ele>945</ele>
        <time>2015-06-21T07:16:40Z</time>
      </trkpt>
      <trkpt lat="44.0683" lon="6.29248">
        <ele>945</ele>
        <time>2015-06-21T07:16:43Z</time>
      </trkpt>
      <trkpt lat="44.06803" lon="6.29251">
        <ele>945</ele>
        <time>2015-06-21T07:16:47Z</time>
      </trkpt>
      <trkpt lat="44.06771" lon="6.29257">
        <ele>945</ele>
        <time>2015-06-21T07:16:53Z</time>
      </trkpt>
      <trkpt lat="44.06753" lon="6.29262">
        <ele>947</ele>
        <time>2015-06-21T07:16:56Z</time>
      </trkpt>
      <trkpt lat="44.06744" lon="6.29269">
        <ele>941</ele>
        <time>2015-06-21T07:16:59Z</time>
      </trkpt>
      <trkpt lat="44.06732" lon="6.29278">
        <ele>943</ele>
        <time>2015-06-21T07:17:02Z</time>
      </trkpt>
      <trkpt lat="44.06716" lon="6.29299">
        <ele>938</ele>
        <time>2015-06-21T07:17:06Z</time>
      </trkpt>
      <trkpt lat="44.06707" lon="6.29311">
        <ele>941</ele>
        <time>2015-06-21T07:17:09Z</time>
      </trkpt>
      <trkpt lat="44.06704" lon="6.29337">
        <ele>937</ele>
        <time>2015-06-21T07:17:15Z</time>
      </trkpt>
      <trkpt lat="44.06707" lon="6.29352">
        <ele>933</ele>
        <time>2015-06-21T07:17:18Z</time>
      </trkpt>
      <trkpt lat="44.06699" lon="6.29374">
        <ele>933</ele>
        <time>2015-06-21T07:17:22Z</time>
      </trkpt>
      <trkpt lat="44.06678" lon="6.29396">
        <ele>927</ele>
        <time>2015-06-21T07:17:26Z</time>
      </trkpt>
      <trkpt lat="44.06657" lon="6.2942">
        <ele>922</ele>
        <time>2015-06-21T07:17:30Z</time>
      </trkpt>
      <trkpt lat="44.0664" lon="6.29451">
        <ele>921</ele>
        <time>2015-06-21T07:17:34Z</time>
      </trkpt>
      <trkpt lat="44.06631" lon="6.29478">
        <ele>920</ele>
        <time>2015-06-21T07:17:37Z</time>
      </trkpt>
      <trkpt lat="44.06627" lon="6.29504">
        <ele>919</ele>
        <time>2015-06-21T07:17:40Z</time>
      </trkpt>
      <trkpt lat="44.06623" lon="6.29516">
        <ele>915</ele>
        <time>2015-06-21T07:17:43Z</time>
      </trkpt>
      <trkpt lat="44.06619" lon="6.29527">
        <ele>915</ele>
        <time>2015-06-21T07:17:46Z</time>
      </trkpt>
      <trkpt lat="44.06616" lon="6.29548">
        <ele>917</ele>
        <time>2015-06-21T07:17:51Z</time>
      </trkpt>
      <trkpt lat="44.06604" lon="6.29566">
        <ele>917</ele>
        <time>2015-06-21T07:17:55Z</time>
      </trkpt>
      <trkpt lat="44.06587" lon="6.29602">
        <ele>920</ele>
        <time>2015-06-21T07:18:02Z</time>
      </trkpt>
      <trkpt lat="44.06573" lon="6.29633">
        <ele>924</ele>
        <time>2015-06-21T07:18:08Z</time>
      </trkpt>
      <trkpt lat="44.06568" lon="6.29648">
        <ele>912</ele>
        <time>2015-06-21T07:18:12Z</time>
      </trkpt>
      <trkpt lat="44.06562" lon="6.29662">
        <ele>917</ele>
        <time>2015-06-21T07:18:16Z</time>
      </trkpt>
      <trkpt lat="44.06554" lon="6.29694">
        <ele>923</ele>
        <time>2015-06-21T07:18:23Z</time>
      </trkpt>
      <trkpt lat="44.06547" lon="6.2971">
        <ele>930</ele>
        <time>2015-06-21T07:18:29Z</time>
      </trkpt>
      <trkpt lat="44.06542" lon="6.29725">
        <ele>930</ele>
        <time>2015-06-21T07:18:35Z</time>
      </trkpt>
      <trkpt lat="44.06534" lon="6.29744">
        <ele>928</ele>
        <time>2015-06-21T07:18:43Z</time>
      </trkpt>
      <trkpt lat="44.06536" lon="6.29755">
        <ele>928</ele>
        <time>2015-06-21T07:18:48Z</time>
      </trkpt>
      <trkpt lat="44.06531" lon="6.29763">
        <ele>928</ele>
        <time>2015-06-21T07:18:55Z</time>
      </trkpt>
      <trkpt lat="44.06521" lon="6.29766">
        <ele>933</ele>
        <time>2015-06-21T07:19:01Z</time>
      </trkpt>
      <trkpt lat="44.06515" lon="6.29778">
        <ele>933</ele>
        <time>2015-06-21T07:19:05Z</time>
      </trkpt>
      <trkpt lat="44.06511" lon="6.29791">
        <ele>920</ele>
        <time>2015-06-21T07:19:10Z</time>
      </trkpt>
      <trkpt lat="44.06507" lon="6.29806">
        <ele>926</ele>
        <time>2015-06-21T07:19:16Z</time>
      </trkpt>
      <trkpt lat="44.06508" lon="6.29817">
        <ele>926</ele>
        <time>2015-06-21T07:19:21Z</time>
      </trkpt>
      <trkpt lat="44.06504" lon="6.29826">
        <ele>932</ele>
        <time>2015-06-21T07:19:26Z</time>
      </trkpt>
      <trkpt lat="44.06501" lon="6.29832">
        <ele>932</ele>
        <time>2015-06-21T07:19:29Z</time>
      </trkpt>
      <trkpt lat="44.06498" lon="6.29847">
        <ele>932</ele>
        <time>2015-06-21T07:19:35Z</time>
      </trkpt>
      <trkpt lat="44.06485" lon="6.2987">
        <ele>929</ele>
        <time>2015-06-21T07:19:46Z</time>
      </trkpt>
      <trkpt lat="44.06483" lon="6.29894">
        <ele>932</ele>
        <time>2015-06-21T07:19:53Z</time>
      </trkpt>
      <trkpt lat="44.06491" lon="6.29916">
        <ele>944</ele>
        <time>2015-06-21T07:20:00Z</time>
      </trkpt>
      <trkpt lat="44.06488" lon="6.29922">
        <ele>944</ele>
        <time>2015-06-21T07:20:03Z</time>
      </trkpt>
      <trkpt lat="44.06489" lon="6.29928">
        <ele>944</ele>
        <time>2015-06-21T07:20:08Z</time>
      </trkpt>
      <trkpt lat="44.0649" lon="6.29935">
        <ele>944</ele>
        <time>2015-06-21T07:20:13Z</time>
      </trkpt>
      <trkpt lat="44.0649" lon="6.2994">
        <ele>944</ele>
        <time>2015-06-21T07:20:16Z</time>
      </trkpt>
      <trkpt lat="44.06485" lon="6.29946">
        <ele>935</ele>
        <time>2015-06-21T07:20:21Z</time>
      </trkpt>
      <trkpt lat="44.06478" lon="6.29958">
        <ele>935</ele>
        <time>2015-06-21T07:20:27Z</time>
      </trkpt>
      <trkpt lat="44.06475" lon="6.29971">
        <ele>937</ele>
        <time>2015-06-21T07:20:30Z</time>
      </trkpt>
      <trkpt lat="44.06481" lon="6.30006">
        <ele>936</ele>
        <time>2015-06-21T07:20:36Z</time>
      </trkpt>
      <trkpt lat="44.06486" lon="6.30018">
        <ele>936</ele>
        <time>2015-06-21T07:20:40Z</time>
      </trkpt>
      <trkpt lat="44.06488" lon="6.30038">
        <ele>943</ele>
        <time>2015-06-21T07:20:46Z</time>
      </trkpt>
      <trkpt lat="44.06495" lon="6.3006">
        <ele>944</ele>
        <time>2015-06-21T07:20:53Z</time>
      </trkpt>
      <trkpt lat="44.06492" lon="6.30069">
        <ele>944</ele>
        <time>2015-06-21T07:20:58Z</time>
      </trkpt>
      <trkpt lat="44.06497" lon="6.30079">
        <ele>946</ele>
        <time>2015-06-21T07:21:07Z</time>
      </trkpt>
      <trkpt lat="44.06495" lon="6.30093">
        <ele>946</ele>
        <time>2015-06-21T07:21:16Z</time>
      </trkpt>
      <trkpt lat="44.06493" lon="6.30104">
        <ele>949</ele>
        <time>2015-06-21T07:21:23Z</time>
      </trkpt>
      <trkpt lat="44.06496" lon="6.30114">
        <ele>949</ele>
        <time>2015-06-21T07:21:28Z</time>
      </trkpt>
      <trkpt lat="44.06492" lon="6.30129">
        <ele>950</ele>
        <time>2015-06-21T07:21:32Z</time>
      </trkpt>
      <trkpt lat="44.06486" lon="6.30143">
        <ele>942</ele>
        <time>2015-06-21T07:21:37Z</time>
      </trkpt>
      <trkpt lat="44.06487" lon="6.30156">
        <ele>949</ele>
        <time>2015-06-21T07:21:43Z</time>
      </trkpt>
      <trkpt lat="44.06479" lon="6.30172">
        <ele>943</ele>
        <time>2015-06-21T07:21:48Z</time>
      </trkpt>
      <trkpt lat="44.0647" lon="6.30208">
        <ele>945</ele>
        <time>2015-06-21T07:21:55Z</time>
      </trkpt>
      <trkpt lat="44.06463" lon="6.30223">
        <ele>948</ele>
        <time>2015-06-21T07:21:59Z</time>
      </trkpt>
      <trkpt lat="44.06452" lon="6.30239">
        <ele>946</ele>
        <time>2015-06-21T07:22:05Z</time>
      </trkpt>
      <trkpt lat="44.06447" lon="6.30253">
        <ele>946</ele>
        <time>2015-06-21T07:22:11Z</time>
      </trkpt>
      <trkpt lat="44.06449" lon="6.30267">
        <ele>947</ele>
        <time>2015-06-21T07:22:16Z</time>
      </trkpt>
      <trkpt lat="44.06456" lon="6.30281">
        <ele>947</ele>
        <time>2015-06-21T07:22:22Z</time>
      </trkpt>
      <trkpt lat="44.06467" lon="6.30287">
        <ele>953</ele>
        <time>2015-06-21T07:22:29Z</time>
      </trkpt>
      <trkpt lat="44.06478" lon="6.30293">
        <ele>953</ele>
        <time>2015-06-21T07:22:35Z</time>
      </trkpt>
      <trkpt lat="44.06481" lon="6.30302">
        <ele>953</ele>
        <time>2015-06-21T07:22:39Z</time>
      </trkpt>
      <trkpt lat="44.06481" lon="6.30308">
        <ele>953</ele>
        <time>2015-06-21T07:22:42Z</time>
      </trkpt>
      <trkpt lat="44.06486" lon="6.30315">
        <ele>953</ele>
        <time>2015-06-21T07:22:47Z</time>
      </trkpt>
      <trkpt lat="44.06489" lon="6.30315">
        <ele>958</ele>
        <time>2015-06-21T07:22:50Z</time>
      </trkpt>
      <trkpt lat="44.065" lon="6.30312">
        <ele>958</ele>
        <time>2015-06-21T07:22:57Z</time>
      </trkpt>
      <trkpt lat="44.06511" lon="6.30314">
        <ele>958</ele>
        <time>2015-06-21T07:23:04Z</time>
      </trkpt>
      <trkpt lat="44.06527" lon="6.30305">
        <ele>961</ele>
        <time>2015-06-21T07:23:14Z</time>
      </trkpt>
      <trkpt lat="44.06539" lon="6.30287">
        <ele>962</ele>
        <time>2015-06-21T07:23:22Z</time>
      </trkpt>
      <trkpt lat="44.06555" lon="6.30281">
        <ele>962</ele>
        <time>2015-06-21T07:23:29Z</time>
      </trkpt>
      <trkpt lat="44.06564" lon="6.30276">
        <ele>962</ele>
        <time>2015-06-21T07:23:34Z</time>
      </trkpt>
      <trkpt lat="44.06568" lon="6.30268">
        <ele>962</ele>
        <time>2015-06-21T07:23:37Z</time>
      </trkpt>
      <trkpt lat="44.06578" lon="6.30277">
        <ele>962</ele>
        <time>2015-06-21T07:23:42Z</time>
      </trkpt>
      <trkpt lat="44.06585" lon="6.30298">
        <ele>960</ele>
        <time>2015-06-21T07:23:45Z</time>
      </trkpt>
      <trkpt lat="44.066" lon="6.30312">
        <ele>961</ele>
        <time>2015-06-21T07:23:49Z</time>
      </trkpt>
      <trkpt lat="44.06626" lon="6.30309">
        <ele>957</ele>
        <time>2015-06-21T07:23:53Z</time>
      </trkpt>
      <trkpt lat="44.06653" lon="6.30301">
        <ele>952</ele>
        <time>2015-06-21T07:23:58Z</time>
      </trkpt>
      <trkpt lat="44.06658" lon="6.30321">
        <ele>952</ele>
        <time>2015-06-21T07:24:02Z</time>
      </trkpt>
      <trkpt lat="44.06661" lon="6.30344">
        <ele>952</ele>
        <time>2015-06-21T07:24:07Z</time>
      </trkpt>
      <trkpt lat="44.06656" lon="6.30351">
        <ele>953</ele>
        <time>2015-06-21T07:24:10Z</time>
      </trkpt>
      <trkpt lat="44.06634" lon="6.30373">
        <ele>958</ele>
        <time>2015-06-21T07:24:19Z</time>
      </trkpt>
      <trkpt lat="44.06615" lon="6.30393">
        <ele>961</ele>
        <time>2015-06-21T07:24:26Z</time>
      </trkpt>
      <trkpt lat="44.06598" lon="6.30421">
        <ele>962</ele>
        <time>2015-06-21T07:24:35Z</time>
      </trkpt>
      <trkpt lat="44.0659" lon="6.30447">
        <ele>963</ele>
        <time>2015-06-21T07:24:42Z</time>
      </trkpt>
      <trkpt lat="44.06592" lon="6.30473">
        <ele>963</ele>
        <time>2015-06-21T07:24:48Z</time>
      </trkpt>
      <trkpt lat="44.066" lon="6.30502">
        <ele>965</ele>
        <time>2015-06-21T07:24:55Z</time>
      </trkpt>
      <trkpt lat="44.066" lon="6.30522">
        <ele>966</ele>
        <time>2015-06-21T07:25:00Z</time>
      </trkpt>
      <trkpt lat="44.06593" lon="6.30543">
        <ele>966</ele>
        <time>2015-06-21T07:25:07Z</time>
      </trkpt>
      <trkpt lat="44.06583" lon="6.30567">
        <ele>966</ele>
        <time>2015-06-21T07:25:15Z</time>
      </trkpt>
      <trkpt lat="44.06569" lon="6.30593">
        <ele>968</ele>
        <time>2015-06-21T07:25:25Z</time>
      </trkpt>
      <trkpt lat="44.06554" lon="6.30616">
        <ele>973</ele>
        <time>2015-06-21T07:25:35Z</time>
      </trkpt>
      <trkpt lat="44.06534" lon="6.30625">
        <ele>976</ele>
        <time>2015-06-21T07:25:44Z</time>
      </trkpt>
      <trkpt lat="44.0652" lon="6.30636">
        <ele>976</ele>
        <time>2015-06-21T07:25:51Z</time>
      </trkpt>
      <trkpt lat="44.06526" lon="6.30649">
        <ele>976</ele>
        <time>2015-06-21T07:25:57Z</time>
      </trkpt>
      <trkpt lat="44.06541" lon="6.30657">
        <ele>984</ele>
        <time>2015-06-21T07:26:04Z</time>
      </trkpt>
      <trkpt lat="44.06562" lon="6.30665">
        <ele>987</ele>
        <time>2015-06-21T07:26:12Z</time>
      </trkpt>
      <trkpt lat="44.06585" lon="6.30676">
        <ele>987</ele>
        <time>2015-06-21T07:26:21Z</time>
      </trkpt>
      <trkpt lat="44.06587" lon="6.30688">
        <ele>992</ele>
        <time>2015-06-21T07:26:25Z</time>
      </trkpt>
      <trkpt lat="44.0658" lon="6.30694">
        <ele>992</ele>
        <time>2015-06-21T07:26:29Z</time>
      </trkpt>
      <trkpt lat="44.06557" lon="6.30689">
        <ele>994</ele>
        <time>2015-06-21T07:26:39Z</time>
      </trkpt>
      <trkpt lat="44.0654" lon="6.3069">
        <ele>993</ele>
        <time>2015-06-21T07:26:47Z</time>
      </trkpt>
      <trkpt lat="44.06522" lon="6.30698">
        <ele>993</ele>
        <time>2015-06-21T07:26:56Z</time>
      </trkpt>
      <trkpt lat="44.06512" lon="6.30713">
        <ele>995</ele>
        <time>2015-06-21T07:27:03Z</time>
      </trkpt>
      <trkpt lat="44.065" lon="6.30736">
        <ele>995</ele>
        <time>2015-06-21T07:27:12Z</time>
      </trkpt>
      <trkpt lat="44.06495" lon="6.30758">
        <ele>1003</ele>
        <time>2015-06-21T07:27:20Z</time>
      </trkpt>
      <trkpt lat="44.06491" lon="6.30776">
        <ele>1014</ele>
        <time>2015-06-21T07:27:27Z</time>
      </trkpt>
      <trkpt lat="44.06481" lon="6.30782">
        <ele>1008</ele>
        <time>2015-06-21T07:27:33Z</time>
      </trkpt>
      <trkpt lat="44.0647" lon="6.30783">
        <ele>1008</ele>
        <time>2015-06-21T07:27:39Z</time>
      </trkpt>
      <trkpt lat="44.06457" lon="6.30789">
        <ele>1003</ele>
        <time>2015-06-21T07:27:46Z</time>
      </trkpt>
      <trkpt lat="44.06443" lon="6.308">
        <ele>1011</ele>
        <time>2015-06-21T07:27:53Z</time>
      </trkpt>
      <trkpt lat="44.06432" lon="6.30819">
        <ele>1011</ele>
        <time>2015-06-21T07:28:01Z</time>
      </trkpt>
      <trkpt lat="44.06425" lon="6.30839">
        <ele>1012</ele>
        <time>2015-06-21T07:28:08Z</time>
      </trkpt>
      <trkpt lat="44.06417" lon="6.30854">
        <ele>1015</ele>
        <time>2015-06-21T07:28:14Z</time>
      </trkpt>
      <trkpt lat="44.0641" lon="6.30875">
        <ele>1015</ele>
        <time>2015-06-21T07:28:21Z</time>
      </trkpt>
      <trkpt lat="44.06416" lon="6.30891">
        <ele>1017</ele>
        <time>2015-06-21T07:28:27Z</time>
      </trkpt>
      <trkpt lat="44.06431" lon="6.30908">
        <ele>1021</ele>
        <time>2015-06-21T07:28:36Z</time>
      </trkpt>
      <trkpt lat="44.06447" lon="6.30923">
        <ele>1021</ele>
        <time>2015-06-21T07:28:45Z</time>
      </trkpt>
      <trkpt lat="44.06463" lon="6.30945">
        <ele>1026</ele>
        <time>2015-06-21T07:28:55Z</time>
      </trkpt>
      <trkpt lat="44.06478" lon="6.30953">
        <ele>1026</ele>
        <time>2015-06-21T07:29:02Z</time>
      </trkpt>
      <trkpt lat="44.06487" lon="6.30955">
        <ele>1032</ele>
        <time>2015-06-21T07:29:06Z</time>
      </trkpt>
      <trkpt lat="44.06509" lon="6.30955">
        <ele>1032</ele>
        <time>2015-06-21T07:29:15Z</time>
      </trkpt>
      <trkpt lat="44.06527" lon="6.30951">
        <ele>1034</ele>
        <time>2015-06-21T07:29:22Z</time>
      </trkpt>
      <trkpt lat="44.06544" lon="6.30949">
        <ele>1036</ele>
        <time>2015-06-21T07:29:28Z</time>
      </trkpt>
      <trkpt lat="44.06564" lon="6.30957">
        <ele>1036</ele>
        <time>2015-06-21T07:29:33Z</time>
      </trkpt>
      <trkpt lat="44.06585" lon="6.30974">
        <ele>1032</ele>
        <time>2015-06-21T07:29:39Z</time>
      </trkpt>
      <trkpt lat="44.06623" lon="6.31012">
        <ele>1026</ele>
        <time>2015-06-21T07:29:47Z</time>
      </trkpt>
      <trkpt lat="44.06662" lon="6.31052">
        <ele>1028</ele>
        <time>2015-06-21T07:29:54Z</time>
      </trkpt>
      <trkpt lat="44.06696" lon="6.31092">
        <ele>1028</ele>
        <time>2015-06-21T07:30:01Z</time>
      </trkpt>
      <trkpt lat="44.06718" lon="6.31121">
        <ele>1026</ele>
        <time>2015-06-21T07:30:05Z</time>
      </trkpt>
      <trkpt lat="44.06731" lon="6.31151">
        <ele>1027</ele>
        <time>2015-06-21T07:30:08Z</time>
      </trkpt>
      <trkpt lat="44.06754" lon="6.3118">
        <ele>1026</ele>
        <time>2015-06-21T07:30:12Z</time>
      </trkpt>
      <trkpt lat="44.06774" lon="6.3118">
        <ele>1027</ele>
        <time>2015-06-21T07:30:15Z</time>
      </trkpt>
      <trkpt lat="44.0679" lon="6.31176">
        <ele>1027</ele>
        <time>2015-06-21T07:30:18Z</time>
      </trkpt>
      <trkpt lat="44.06807" lon="6.31154">
        <ele>1031</ele>
        <time>2015-06-21T07:30:23Z</time>
      </trkpt>
      <trkpt lat="44.06809" lon="6.31137">
        <ele>1027</ele>
        <time>2015-06-21T07:30:26Z</time>
      </trkpt>
      <trkpt lat="44.06813" lon="6.31107">
        <ele>1023</ele>
        <time>2015-06-21T07:30:32Z</time>
      </trkpt>
      <trkpt lat="44.06825" lon="6.31108">
        <ele>1027</ele>
        <time>2015-06-21T07:30:36Z</time>
      </trkpt>
      <trkpt lat="44.06833" lon="6.31119">
        <ele>1027</ele>
        <time>2015-06-21T07:30:39Z</time>
      </trkpt>
      <trkpt lat="44.06848" lon="6.31157">
        <ele>1035</ele>
        <time>2015-06-21T07:30:48Z</time>
      </trkpt>
      <trkpt lat="44.0686" lon="6.3118">
        <ele>1035</ele>
        <time>2015-06-21T07:30:54Z</time>
      </trkpt>
      <trkpt lat="44.0688" lon="6.31196">
        <ele>1041</ele>
        <time>2015-06-21T07:31:01Z</time>
      </trkpt>
      <trkpt lat="44.06906" lon="6.31207">
        <ele>1042</ele>
        <time>2015-06-21T07:31:10Z</time>
      </trkpt>
      <trkpt lat="44.06939" lon="6.3121">
        <ele>1045</ele>
        <time>2015-06-21T07:31:21Z</time>
      </trkpt>
      <trkpt lat="44.06965" lon="6.31211">
        <ele>1046</ele>
        <time>2015-06-21T07:31:30Z</time>
      </trkpt>
      <trkpt lat="44.06979" lon="6.31222">
        <ele>1046</ele>
        <time>2015-06-21T07:31:36Z</time>
      </trkpt>
      <trkpt lat="44.0698" lon="6.31237">
        <ele>1047</ele>
        <time>2015-06-21T07:31:40Z</time>
      </trkpt>
      <trkpt lat="44.06971" lon="6.31257">
        <ele>1047</ele>
        <time>2015-06-21T07:31:46Z</time>
      </trkpt>
      <trkpt lat="44.06967" lon="6.31275">
        <ele>1050</ele>
        <time>2015-06-21T07:31:51Z</time>
      </trkpt>
      <trkpt lat="44.06975" lon="6.31298">
        <ele>1053</ele>
        <time>2015-06-21T07:31:57Z</time>
      </trkpt>
      <trkpt lat="44.06982" lon="6.31306">
        <ele>1053</ele>
        <time>2015-06-21T07:32:00Z</time>
      </trkpt>
      <trkpt lat="44.06993" lon="6.31322">
        <ele>1056</ele>
        <time>2015-06-21T07:32:06Z</time>
      </trkpt>
      <trkpt lat="44.0701" lon="6.31347">
        <ele>1056</ele>
        <time>2015-06-21T07:32:15Z</time>
      </trkpt>
      <trkpt lat="44.07029" lon="6.31375">
        <ele>1057</ele>
        <time>2015-06-21T07:32:25Z</time>
      </trkpt>
      <trkpt lat="44.07039" lon="6.31397">
        <ele>1062</ele>
        <time>2015-06-21T07:32:32Z</time>
      </trkpt>
      <trkpt lat="44.07042" lon="6.31423">
        <ele>1061</ele>
        <time>2015-06-21T07:32:40Z</time>
      </trkpt>
      <trkpt lat="44.07049" lon="6.31444">
        <ele>1067</ele>
        <time>2015-06-21T07:32:46Z</time>
      </trkpt>
      <trkpt lat="44.07061" lon="6.31457">
        <ele>1067</ele>
        <time>2015-06-21T07:32:52Z</time>
      </trkpt>
      <trkpt lat="44.07079" lon="6.31473">
        <ele>1070</ele>
        <time>2015-06-21T07:33:01Z</time>
      </trkpt>
      <trkpt lat="44.07097" lon="6.31479">
        <ele>1070</ele>
        <time>2015-06-21T07:33:08Z</time>
      </trkpt>
      <trkpt lat="44.07119" lon="6.31478">
        <ele>1069</ele>
        <time>2015-06-21T07:33:16Z</time>
      </trkpt>
      <trkpt lat="44.07141" lon="6.31478">
        <ele>1071</ele>
        <time>2015-06-21T07:33:24Z</time>
      </trkpt>
      <trkpt lat="44.07158" lon="6.31466">
        <ele>1075</ele>
        <time>2015-06-21T07:33:31Z</time>
      </trkpt>
      <trkpt lat="44.07168" lon="6.31475">
        <ele>1075</ele>
        <time>2015-06-21T07:33:36Z</time>
      </trkpt>
      <trkpt lat="44.07161" lon="6.31487">
        <ele>1079</ele>
        <time>2015-06-21T07:33:40Z</time>
      </trkpt>
      <trkpt lat="44.07134" lon="6.31504">
        <ele>1076</ele>
        <time>2015-06-21T07:33:49Z</time>
      </trkpt>
      <trkpt lat="44.07111" lon="6.31519">
        <ele>1081</ele>
        <time>2015-06-21T07:33:57Z</time>
      </trkpt>
      <trkpt lat="44.07088" lon="6.31533">
        <ele>1081</ele>
        <time>2015-06-21T07:34:05Z</time>
      </trkpt>
      <trkpt lat="44.07068" lon="6.31535">
        <ele>1086</ele>
        <time>2015-06-21T07:34:12Z</time>
      </trkpt>
      <trkpt lat="44.07044" lon="6.31531">
        <ele>1086</ele>
        <time>2015-06-21T07:34:21Z</time>
      </trkpt>
      <trkpt lat="44.07016" lon="6.31529">
        <ele>1087</ele>
        <time>2015-06-21T07:34:31Z</time>
      </trkpt>
      <trkpt lat="44.06999" lon="6.31538">
        <ele>1086</ele>
        <time>2015-06-21T07:34:38Z</time>
      </trkpt>
      <trkpt lat="44.06979" lon="6.31553">
        <ele>1094</ele>
        <time>2015-06-21T07:34:47Z</time>
      </trkpt>
      <trkpt lat="44.06959" lon="6.31565">
        <ele>1094</ele>
        <time>2015-06-21T07:34:55Z</time>
      </trkpt>
      <trkpt lat="44.06931" lon="6.31569">
        <ele>1095</ele>
        <time>2015-06-21T07:35:04Z</time>
      </trkpt>
      <trkpt lat="44.06915" lon="6.31563">
        <ele>1097</ele>
        <time>2015-06-21T07:35:10Z</time>
      </trkpt>
      <trkpt lat="44.06894" lon="6.31553">
        <ele>1098</ele>
        <time>2015-06-21T07:35:18Z</time>
      </trkpt>
      <trkpt lat="44.06873" lon="6.31549">
        <ele>1099</ele>
        <time>2015-06-21T07:35:27Z</time>
      </trkpt>
      <trkpt lat="44.06862" lon="6.31556">
        <ele>1099</ele>
        <time>2015-06-21T07:35:33Z</time>
      </trkpt>
      <trkpt lat="44.06861" lon="6.31578">
        <ele>1102</ele>
        <time>2015-06-21T07:35:40Z</time>
      </trkpt>
      <trkpt lat="44.06858" lon="6.31597">
        <ele>1102</ele>
        <time>2015-06-21T07:35:46Z</time>
      </trkpt>
      <trkpt lat="44.06846" lon="6.31615">
        <ele>1108</ele>
        <time>2015-06-21T07:35:54Z</time>
      </trkpt>
      <trkpt lat="44.06834" lon="6.31622">
        <ele>1108</ele>
        <time>2015-06-21T07:36:00Z</time>
      </trkpt>
      <trkpt lat="44.06818" lon="6.31622">
        <ele>1108</ele>
        <time>2015-06-21T07:36:07Z</time>
      </trkpt>
      <trkpt lat="44.06802" lon="6.31625">
        <ele>1112</ele>
        <time>2015-06-21T07:36:14Z</time>
      </trkpt>
      <trkpt lat="44.06789" lon="6.3164">
        <ele>1110</ele>
        <time>2015-06-21T07:36:21Z</time>
      </trkpt>
      <trkpt lat="44.06774" lon="6.3166">
        <ele>1116</ele>
        <time>2015-06-21T07:36:30Z</time>
      </trkpt>
      <trkpt lat="44.06763" lon="6.31675">
        <ele>1114</ele>
        <time>2015-06-21T07:36:37Z</time>
      </trkpt>
      <trkpt lat="44.06748" lon="6.31697">
        <ele>1119</ele>
        <time>2015-06-21T07:36:48Z</time>
      </trkpt>
      <trkpt lat="44.06737" lon="6.31711">
        <ele>1123</ele>
        <time>2015-06-21T07:36:56Z</time>
      </trkpt>
      <trkpt lat="44.06727" lon="6.31731">
        <ele>1121</ele>
        <time>2015-06-21T07:37:05Z</time>
      </trkpt>
      <trkpt lat="44.06718" lon="6.31758">
        <ele>1126</ele>
        <time>2015-06-21T07:37:16Z</time>
      </trkpt>
      <trkpt lat="44.06714" lon="6.31781">
        <ele>1129</ele>
        <time>2015-06-21T07:37:25Z</time>
      </trkpt>
      <trkpt lat="44.06711" lon="6.31797">
        <ele>1132</ele>
        <time>2015-06-21T07:37:31Z</time>
      </trkpt>
      <trkpt lat="44.06702" lon="6.31814">
        <ele>1129</ele>
        <time>2015-06-21T07:37:39Z</time>
      </trkpt>
      <trkpt lat="44.06692" lon="6.3183">
        <ele>1132</ele>
        <time>2015-06-21T07:37:47Z</time>
      </trkpt>
      <trkpt lat="44.06696" lon="6.31844">
        <ele>1132</ele>
        <time>2015-06-21T07:37:52Z</time>
      </trkpt>
      <trkpt lat="44.06707" lon="6.31852">
        <ele>1136</ele>
        <time>2015-06-21T07:37:57Z</time>
      </trkpt>
      <trkpt lat="44.06723" lon="6.31847">
        <ele>1136</ele>
        <time>2015-06-21T07:38:04Z</time>
      </trkpt>
      <trkpt lat="44.0674" lon="6.31836">
        <ele>1142</ele>
        <time>2015-06-21T07:38:12Z</time>
      </trkpt>
      <trkpt lat="44.06754" lon="6.31821">
        <ele>1142</ele>
        <time>2015-06-21T07:38:21Z</time>
      </trkpt>
      <trkpt lat="44.06765" lon="6.31809">
        <ele>1142</ele>
        <time>2015-06-21T07:38:28Z</time>
      </trkpt>
      <trkpt lat="44.06777" lon="6.31801">
        <ele>1142</ele>
        <time>2015-06-21T07:38:35Z</time>
      </trkpt>
      <trkpt lat="44.06788" lon="6.318">
        <ele>1142</ele>
        <time>2015-06-21T07:38:41Z</time>
      </trkpt>
      <trkpt lat="44.06801" lon="6.31805">
        <ele>1144</ele>
        <time>2015-06-21T07:38:48Z</time>
      </trkpt>
      <trkpt lat="44.06815" lon="6.31811">
        <ele>1144</ele>
        <time>2015-06-21T07:38:56Z</time>
      </trkpt>
      <trkpt lat="44.06828" lon="6.31822">
        <ele>1152</ele>
        <time>2015-06-21T07:39:03Z</time>
      </trkpt>
      <trkpt lat="44.06847" lon="6.31831">
        <ele>1152</ele>
        <time>2015-06-21T07:39:12Z</time>
      </trkpt>
      <trkpt lat="44.06853" lon="6.31833">
        <ele>1153</ele>
        <time>2015-06-21T07:39:15Z</time>
      </trkpt>
      <trkpt lat="44.06855" lon="6.3184">
        <ele>1153</ele>
        <time>2015-06-21T07:39:19Z</time>
      </trkpt>
      <trkpt lat="44.06845" lon="6.31844">
        <ele>1152</ele>
        <time>2015-06-21T07:39:25Z</time>
      </trkpt>
      <trkpt lat="44.06829" lon="6.31854">
        <ele>1157</ele>
        <time>2015-06-21T07:39:34Z</time>
      </trkpt>
      <trkpt lat="44.06817" lon="6.31864">
        <ele>1154</ele>
        <time>2015-06-21T07:39:41Z</time>
      </trkpt>
      <trkpt lat="44.06808" lon="6.31876">
        <ele>1160</ele>
        <time>2015-06-21T07:39:48Z</time>
      </trkpt>
      <trkpt lat="44.06799" lon="6.31889">
        <ele>1160</ele>
        <time>2015-06-21T07:39:55Z</time>
      </trkpt>
      <trkpt lat="44.06788" lon="6.31902">
        <ele>1156</ele>
        <time>2015-06-21T07:40:03Z</time>
      </trkpt>
      <trkpt lat="44.06777" lon="6.31915">
        <ele>1161</ele>
        <time>2015-06-21T07:40:11Z</time>
      </trkpt>
      <trkpt lat="44.06771" lon="6.31929">
        <ele>1161</ele>
        <time>2015-06-21T07:40:18Z</time>
      </trkpt>
      <trkpt lat="44.06764" lon="6.31947">
        <ele>1165</ele>
        <time>2015-06-21T07:40:27Z</time>
      </trkpt>
      <trkpt lat="44.06754" lon="6.31958">
        <ele>1161</ele>
        <time>2015-06-21T07:40:34Z</time>
      </trkpt>
      <trkpt lat="44.06749" lon="6.3196">
        <ele>1167</ele>
        <time>2015-06-21T07:40:37Z</time>
      </trkpt>
      <trkpt lat="44.06748" lon="6.31967">
        <ele>1167</ele>
        <time>2015-06-21T07:40:42Z</time>
      </trkpt>
      <trkpt lat="44.06755" lon="6.31968">
        <ele>1167</ele>
        <time>2015-06-21T07:40:47Z</time>
      </trkpt>
      <trkpt lat="44.06764" lon="6.31969">
        <ele>1170</ele>
        <time>2015-06-21T07:40:53Z</time>
      </trkpt>
      <trkpt lat="44.06779" lon="6.31975">
        <ele>1170</ele>
        <time>2015-06-21T07:41:02Z</time>
      </trkpt>
      <trkpt lat="44.06787" lon="6.31983">
        <ele>1170</ele>
        <time>2015-06-21T07:41:07Z</time>
      </trkpt>
      <trkpt lat="44.06794" lon="6.31999">
        <ele>1182</ele>
        <time>2015-06-21T07:41:15Z</time>
      </trkpt>
      <trkpt lat="44.06806" lon="6.32005">
        <ele>1182</ele>
        <time>2015-06-21T07:41:22Z</time>
      </trkpt>
      <trkpt lat="44.06823" lon="6.32008">
        <ele>1184</ele>
        <time>2015-06-21T07:41:31Z</time>
      </trkpt>
      <trkpt lat="44.06838" lon="6.32012">
        <ele>1184</ele>
        <time>2015-06-21T07:41:39Z</time>
      </trkpt>
      <trkpt lat="44.0685" lon="6.32009">
        <ele>1185</ele>
        <time>2015-06-21T07:41:46Z</time>
      </trkpt>
      <trkpt lat="44.06866" lon="6.32006">
        <ele>1185</ele>
        <time>2015-06-21T07:41:54Z</time>
      </trkpt>
      <trkpt lat="44.06881" lon="6.32006">
        <ele>1190</ele>
        <time>2015-06-21T07:42:02Z</time>
      </trkpt>
      <trkpt lat="44.06895" lon="6.32007">
        <ele>1190</ele>
        <time>2015-06-21T07:42:10Z</time>
      </trkpt>
      <trkpt lat="44.06903" lon="6.32007">
        <ele>1192</ele>
        <time>2015-06-21T07:42:15Z</time>
      </trkpt>
      <trkpt lat="44.06914" lon="6.32016">
        <ele>1197</ele>
        <time>2015-06-21T07:42:22Z</time>
      </trkpt>
      <trkpt lat="44.06927" lon="6.32025">
        <ele>1197</ele>
        <time>2015-06-21T07:42:31Z</time>
      </trkpt>
      <trkpt lat="44.06937" lon="6.32036">
        <ele>1195</ele>
        <time>2015-06-21T07:42:37Z</time>
      </trkpt>
      <trkpt lat="44.06947" lon="6.3205">
        <ele>1200</ele>
        <time>2015-06-21T07:42:44Z</time>
      </trkpt>
      <trkpt lat="44.06961" lon="6.32074">
        <ele>1202</ele>
        <time>2015-06-21T07:42:54Z</time>
      </trkpt>
      <trkpt lat="44.0697" lon="6.32083">
        <ele>1202</ele>
        <time>2015-06-21T07:43:00Z</time>
      </trkpt>
      <trkpt lat="44.06979" lon="6.32097">
        <ele>1202</ele>
        <time>2015-06-21T07:43:07Z</time>
      </trkpt>
      <trkpt lat="44.06977" lon="6.32108">
        <ele>1206</ele>
        <time>2015-06-21T07:43:12Z</time>
      </trkpt>
      <trkpt lat="44.06971" lon="6.32123">
        <ele>1206</ele>
        <time>2015-06-21T07:43:20Z</time>
      </trkpt>
      <trkpt lat="44.06961" lon="6.32139">
        <ele>1207</ele>
        <time>2015-06-21T07:43:27Z</time>
      </trkpt>
      <trkpt lat="44.06945" lon="6.32146">
        <ele>1212</ele>
        <time>2015-06-21T07:43:34Z</time>
      </trkpt>
      <trkpt lat="44.06934" lon="6.32144">
        <ele>1212</ele>
        <time>2015-06-21T07:43:41Z</time>
      </trkpt>
      <trkpt lat="44.06922" lon="6.32141">
        <ele>1216</ele>
        <time>2015-06-21T07:43:50Z</time>
      </trkpt>
      <trkpt lat="44.06913" lon="6.32133">
        <ele>1216</ele>
        <time>2015-06-21T07:43:57Z</time>
      </trkpt>
      <trkpt lat="44.06903" lon="6.32127">
        <ele>1216</ele>
        <time>2015-06-21T07:44:02Z</time>
      </trkpt>
      <trkpt lat="44.06888" lon="6.32121">
        <ele>1216</ele>
        <time>2015-06-21T07:44:07Z</time>
      </trkpt>
      <trkpt lat="44.06878" lon="6.32123">
        <ele>1216</ele>
        <time>2015-06-21T07:44:14Z</time>
      </trkpt>
      <trkpt lat="44.06866" lon="6.32127">
        <ele>1221</ele>
        <time>2015-06-21T07:44:21Z</time>
      </trkpt>
      <trkpt lat="44.06848" lon="6.32138">
        <ele>1221</ele>
        <time>2015-06-21T07:44:30Z</time>
      </trkpt>
      <trkpt lat="44.06836" lon="6.32152">
        <ele>1219</ele>
        <time>2015-06-21T07:44:38Z</time>
      </trkpt>
      <trkpt lat="44.06827" lon="6.32162">
        <ele>1224</ele>
        <time>2015-06-21T07:44:45Z</time>
      </trkpt>
      <trkpt lat="44.06819" lon="6.3217">
        <ele>1218</ele>
        <time>2015-06-21T07:44:51Z</time>
      </trkpt>
      <trkpt lat="44.06815" lon="6.32178">
        <ele>1218</ele>
        <time>2015-06-21T07:44:55Z</time>
      </trkpt>
      <trkpt lat="44.06816" lon="6.32197">
        <ele>1222</ele>
        <time>2015-06-21T07:45:02Z</time>
      </trkpt>
      <trkpt lat="44.06817" lon="6.32212">
        <ele>1225</ele>
        <time>2015-06-21T07:45:08Z</time>
      </trkpt>
      <trkpt lat="44.0681" lon="6.3223">
        <ele>1225</ele>
        <time>2015-06-21T07:45:17Z</time>
      </trkpt>
      <trkpt lat="44.06803" lon="6.32243">
        <ele>1230</ele>
        <time>2015-06-21T07:45:23Z</time>
      </trkpt>
      <trkpt lat="44.06799" lon="6.32254">
        <ele>1230</ele>
        <time>2015-06-21T07:45:29Z</time>
      </trkpt>
      <trkpt lat="44.06797" lon="6.32269">
        <ele>1235</ele>
        <time>2015-06-21T07:45:36Z</time>
      </trkpt>
      <trkpt lat="44.06795" lon="6.32287">
        <ele>1235</ele>
        <time>2015-06-21T07:45:45Z</time>
      </trkpt>
      <trkpt lat="44.06796" lon="6.32304">
        <ele>1239</ele>
        <time>2015-06-21T07:45:53Z</time>
      </trkpt>
      <trkpt lat="44.06799" lon="6.32325">
        <ele>1242</ele>
        <time>2015-06-21T07:46:02Z</time>
      </trkpt>
      <trkpt lat="44.06805" lon="6.32348">
        <ele>1245</ele>
        <time>2015-06-21T07:46:12Z</time>
      </trkpt>
      <trkpt lat="44.06806" lon="6.32373">
        <ele>1245</ele>
        <time>2015-06-21T07:46:22Z</time>
      </trkpt>
      <trkpt lat="44.06807" lon="6.32397">
        <ele>1248</ele>
        <time>2015-06-21T07:46:32Z</time>
      </trkpt>
      <trkpt lat="44.06811" lon="6.32405">
        <ele>1250</ele>
        <time>2015-06-21T07:46:37Z</time>
      </trkpt>
      <trkpt lat="44.06816" lon="6.32413">
        <ele>1250</ele>
        <time>2015-06-21T07:46:42Z</time>
      </trkpt>
      <trkpt lat="44.0682" lon="6.32421">
        <ele>1256</ele>
        <time>2015-06-21T07:46:49Z</time>
      </trkpt>
      <trkpt lat="44.06827" lon="6.32431">
        <ele>1259</ele>
        <time>2015-06-21T07:46:56Z</time>
      </trkpt>
      <trkpt lat="44.06832" lon="6.32436">
        <ele>1259</ele>
        <time>2015-06-21T07:47:02Z</time>
      </trkpt>
      <trkpt lat="44.06838" lon="6.32447">
        <ele>1259</ele>
        <time>2015-06-21T07:47:10Z</time>
      </trkpt>
      <trkpt lat="44.06842" lon="6.32451">
        <ele>1259</ele>
        <time>2015-06-21T07:47:13Z</time>
      </trkpt>
      <trkpt lat="44.06847" lon="6.32463">
        <ele>1262</ele>
        <time>2015-06-21T07:47:21Z</time>
      </trkpt>
      <trkpt lat="44.06856" lon="6.32475">
        <ele>1263</ele>
        <time>2015-06-21T07:47:28Z</time>
      </trkpt>
      <trkpt lat="44.06865" lon="6.3249">
        <ele>1265</ele>
        <time>2015-06-21T07:47:36Z</time>
      </trkpt>
      <trkpt lat="44.06873" lon="6.32502">
        <ele>1265</ele>
        <time>2015-06-21T07:47:43Z</time>
      </trkpt>
      <trkpt lat="44.0688" lon="6.3251">
        <ele>1264</ele>
        <time>2015-06-21T07:47:49Z</time>
      </trkpt>
      <trkpt lat="44.06894" lon="6.32516">
        <ele>1269</ele>
        <time>2015-06-21T07:47:58Z</time>
      </trkpt>
      <trkpt lat="44.06906" lon="6.32519">
        <ele>1270</ele>
        <time>2015-06-21T07:48:04Z</time>
      </trkpt>
      <trkpt lat="44.06919" lon="6.32518">
        <ele>1270</ele>
        <time>2015-06-21T07:48:11Z</time>
      </trkpt>
      <trkpt lat="44.06938" lon="6.32515">
        <ele>1273</ele>
        <time>2015-06-21T07:48:21Z</time>
      </trkpt>
      <trkpt lat="44.06952" lon="6.32518">
        <ele>1273</ele>
        <time>2015-06-21T07:48:28Z</time>
      </trkpt>
      <trkpt lat="44.06964" lon="6.3253">
        <ele>1272</ele>
        <time>2015-06-21T07:48:35Z</time>
      </trkpt>
      <trkpt lat="44.06972" lon="6.32554">
        <ele>1277</ele>
        <time>2015-06-21T07:48:44Z</time>
      </trkpt>
      <trkpt lat="44.06978" lon="6.3258">
        <ele>1282</ele>
        <time>2015-06-21T07:48:53Z</time>
      </trkpt>
      <trkpt lat="44.06983" lon="6.32602">
        <ele>1287</ele>
        <time>2015-06-21T07:49:01Z</time>
      </trkpt>
      <trkpt lat="44.06988" lon="6.32615">
        <ele>1279</ele>
        <time>2015-06-21T07:49:06Z</time>
      </trkpt>
      <trkpt lat="44.06996" lon="6.32634">
        <ele>1284</ele>
        <time>2015-06-21T07:49:13Z</time>
      </trkpt>
      <trkpt lat="44.07004" lon="6.32652">
        <ele>1284</ele>
        <time>2015-06-21T07:49:20Z</time>
      </trkpt>
      <trkpt lat="44.07016" lon="6.3266">
        <ele>1287</ele>
        <time>2015-06-21T07:49:25Z</time>
      </trkpt>
      <trkpt lat="44.07037" lon="6.32663">
        <ele>1287</ele>
        <time>2015-06-21T07:49:32Z</time>
      </trkpt>
      <trkpt lat="44.07047" lon="6.32662">
        <ele>1286</ele>
        <time>2015-06-21T07:49:35Z</time>
      </trkpt>
      <trkpt lat="44.07072" lon="6.32658">
        <ele>1287</ele>
        <time>2015-06-21T07:49:42Z</time>
      </trkpt>
      <trkpt lat="44.07088" lon="6.32658">
        <ele>1287</ele>
        <time>2015-06-21T07:49:46Z</time>
      </trkpt>
      <trkpt lat="44.0711" lon="6.32677">
        <ele>1288</ele>
        <time>2015-06-21T07:49:52Z</time>
      </trkpt>
      <trkpt lat="44.07123" lon="6.32692">
        <ele>1294</ele>
        <time>2015-06-21T07:49:57Z</time>
      </trkpt>
      <trkpt lat="44.07136" lon="6.3271">
        <ele>1295</ele>
        <time>2015-06-21T07:50:03Z</time>
      </trkpt>
      <trkpt lat="44.07151" lon="6.32723">
        <ele>1295</ele>
        <time>2015-06-21T07:50:09Z</time>
      </trkpt>
      <trkpt lat="44.07166" lon="6.32736">
        <ele>1292</ele>
        <time>2015-06-21T07:50:15Z</time>
      </trkpt>
      <trkpt lat="44.07177" lon="6.32748">
        <ele>1298</ele>
        <time>2015-06-21T07:50:21Z</time>
      </trkpt>
      <trkpt lat="44.07192" lon="6.3276">
        <ele>1294</ele>
        <time>2015-06-21T07:50:30Z</time>
      </trkpt>
      <trkpt lat="44.07202" lon="6.32768">
        <ele>1301</ele>
        <time>2015-06-21T07:50:36Z</time>
      </trkpt>
      <trkpt lat="44.07212" lon="6.32782">
        <ele>1296</ele>
        <time>2015-06-21T07:50:43Z</time>
      </trkpt>
      <trkpt lat="44.07223" lon="6.32799">
        <ele>1305</ele>
        <time>2015-06-21T07:50:52Z</time>
      </trkpt>
      <trkpt lat="44.07235" lon="6.32803">
        <ele>1305</ele>
        <time>2015-06-21T07:50:58Z</time>
      </trkpt>
      <trkpt lat="44.07247" lon="6.32814">
        <ele>1298</ele>
        <time>2015-06-21T07:51:06Z</time>
      </trkpt>
      <trkpt lat="44.07262" lon="6.32832">
        <ele>1308</ele>
        <time>2015-06-21T07:51:15Z</time>
      </trkpt>
      <trkpt lat="44.07278" lon="6.3284">
        <ele>1303</ele>
        <time>2015-06-21T07:51:22Z</time>
      </trkpt>
      <trkpt lat="44.07302" lon="6.32842">
        <ele>1302</ele>
        <time>2015-06-21T07:51:30Z</time>
      </trkpt>
      <trkpt lat="44.0732" lon="6.3285">
        <ele>1312</ele>
        <time>2015-06-21T07:51:36Z</time>
      </trkpt>
      <trkpt lat="44.07339" lon="6.32865">
        <ele>1312</ele>
        <time>2015-06-21T07:51:43Z</time>
      </trkpt>
      <trkpt lat="44.07357" lon="6.32876">
        <ele>1317</ele>
        <time>2015-06-21T07:51:50Z</time>
      </trkpt>
      <trkpt lat="44.07369" lon="6.32888">
        <ele>1317</ele>
        <time>2015-06-21T07:51:57Z</time>
      </trkpt>
      <trkpt lat="44.07375" lon="6.3291">
        <ele>1324</ele>
        <time>2015-06-21T07:52:05Z</time>
      </trkpt>
      <trkpt lat="44.07383" lon="6.32923">
        <ele>1319</ele>
        <time>2015-06-21T07:52:11Z</time>
      </trkpt>
      <trkpt lat="44.07396" lon="6.32935">
        <ele>1329</ele>
        <time>2015-06-21T07:52:19Z</time>
      </trkpt>
      <trkpt lat="44.07411" lon="6.32942">
        <ele>1324</ele>
        <time>2015-06-21T07:52:27Z</time>
      </trkpt>
      <trkpt lat="44.07421" lon="6.32953">
        <ele>1324</ele>
        <time>2015-06-21T07:52:33Z</time>
      </trkpt>
      <trkpt lat="44.0743" lon="6.32969">
        <ele>1336</ele>
        <time>2015-06-21T07:52:40Z</time>
      </trkpt>
      <trkpt lat="44.07444" lon="6.3299">
        <ele>1337</ele>
        <time>2015-06-21T07:52:50Z</time>
      </trkpt>
      <trkpt lat="44.07457" lon="6.33009">
        <ele>1337</ele>
        <time>2015-06-21T07:52:59Z</time>
      </trkpt>
      <trkpt lat="44.07468" lon="6.33025">
        <ele>1332</ele>
        <time>2015-06-21T07:53:07Z</time>
      </trkpt>
      <trkpt lat="44.0748" lon="6.33042">
        <ele>1339</ele>
        <time>2015-06-21T07:53:15Z</time>
      </trkpt>
      <trkpt lat="44.07491" lon="6.33056">
        <ele>1333</ele>
        <time>2015-06-21T07:53:22Z</time>
      </trkpt>
      <trkpt lat="44.07503" lon="6.33071">
        <ele>1342</ele>
        <time>2015-06-21T07:53:29Z</time>
      </trkpt>
      <trkpt lat="44.07519" lon="6.33078">
        <ele>1334</ele>
        <time>2015-06-21T07:53:37Z</time>
      </trkpt>
      <trkpt lat="44.07537" lon="6.33083">
        <ele>1334</ele>
        <time>2015-06-21T07:53:45Z</time>
      </trkpt>
      <trkpt lat="44.07562" lon="6.33101">
        <ele>1339</ele>
        <time>2015-06-21T07:53:56Z</time>
      </trkpt>
      <trkpt lat="44.07575" lon="6.33115">
        <ele>1337</ele>
        <time>2015-06-21T07:54:03Z</time>
      </trkpt>
      <trkpt lat="44.07574" lon="6.33125">
        <ele>1337</ele>
        <time>2015-06-21T07:54:09Z</time>
      </trkpt>
      <trkpt lat="44.0757" lon="6.3312">
        <ele>1337</ele>
        <time>2015-06-21T07:54:13Z</time>
      </trkpt>
      <trkpt lat="44.07554" lon="6.33113">
        <ele>1339</ele>
        <time>2015-06-21T07:54:22Z</time>
      </trkpt>
      <trkpt lat="44.0754" lon="6.33111">
        <ele>1346</ele>
        <time>2015-06-21T07:54:31Z</time>
      </trkpt>
      <trkpt lat="44.07533" lon="6.33111">
        <ele>1346</ele>
        <time>2015-06-21T07:54:35Z</time>
      </trkpt>
      <trkpt lat="44.0752" lon="6.33108">
        <ele>1346</ele>
        <time>2015-06-21T07:54:43Z</time>
      </trkpt>
      <trkpt lat="44.0751" lon="6.33105">
        <ele>1353</ele>
        <time>2015-06-21T07:54:49Z</time>
      </trkpt>
      <trkpt lat="44.07499" lon="6.33108">
        <ele>1353</ele>
        <time>2015-06-21T07:54:56Z</time>
      </trkpt>
      <trkpt lat="44.07487" lon="6.33111">
        <ele>1353</ele>
        <time>2015-06-21T07:55:04Z</time>
      </trkpt>
      <trkpt lat="44.0748" lon="6.33111">
        <ele>1361</ele>
        <time>2015-06-21T07:55:09Z</time>
      </trkpt>
      <trkpt lat="44.07474" lon="6.33104">
        <ele>1361</ele>
        <time>2015-06-21T07:55:15Z</time>
      </trkpt>
      <trkpt lat="44.07469" lon="6.33102">
        <ele>1361</ele>
        <time>2015-06-21T07:55:18Z</time>
      </trkpt>
      <trkpt lat="44.07457" lon="6.33096">
        <ele>1359</ele>
        <time>2015-06-21T07:55:25Z</time>
      </trkpt>
      <trkpt lat="44.0745" lon="6.33092">
        <ele>1359</ele>
        <time>2015-06-21T07:55:31Z</time>
      </trkpt>
      <trkpt lat="44.07437" lon="6.33079">
        <ele>1359</ele>
        <time>2015-06-21T07:55:40Z</time>
      </trkpt>
      <trkpt lat="44.07428" lon="6.33068">
        <ele>1364</ele>
        <time>2015-06-21T07:55:46Z</time>
      </trkpt>
      <trkpt lat="44.07418" lon="6.33061">
        <ele>1364</ele>
        <time>2015-06-21T07:55:52Z</time>
      </trkpt>
      <trkpt lat="44.07415" lon="6.33058">
        <ele>1364</ele>
        <time>2015-06-21T07:55:55Z</time>
      </trkpt>
      <trkpt lat="44.07409" lon="6.33054">
        <ele>1364</ele>
        <time>2015-06-21T07:55:59Z</time>
      </trkpt>
      <trkpt lat="44.07415" lon="6.33068">
        <ele>1364</ele>
        <time>2015-06-21T07:56:09Z</time>
      </trkpt>
      <trkpt lat="44.07424" lon="6.33082">
        <ele>1371</ele>
        <time>2015-06-21T07:56:16Z</time>
      </trkpt>
      <trkpt lat="44.07431" lon="6.33097">
        <ele>1359</ele>
        <time>2015-06-21T07:56:22Z</time>
      </trkpt>
      <trkpt lat="44.0744" lon="6.33112">
        <ele>1372</ele>
        <time>2015-06-21T07:56:29Z</time>
      </trkpt>
      <trkpt lat="44.07448" lon="6.33126">
        <ele>1384</ele>
        <time>2015-06-21T07:56:36Z</time>
      </trkpt>
      <trkpt lat="44.07457" lon="6.33135">
        <ele>1384</ele>
        <time>2015-06-21T07:56:42Z</time>
      </trkpt>
      <trkpt lat="44.07467" lon="6.33149">
        <ele>1375</ele>
        <time>2015-06-21T07:56:50Z</time>
      </trkpt>
      <trkpt lat="44.07475" lon="6.33154">
        <ele>1386</ele>
        <time>2015-06-21T07:56:56Z</time>
      </trkpt>
      <trkpt lat="44.07484" lon="6.33163">
        <ele>1386</ele>
        <time>2015-06-21T07:57:03Z</time>
      </trkpt>
      <trkpt lat="44.07499" lon="6.33176">
        <ele>1378</ele>
        <time>2015-06-21T07:57:12Z</time>
      </trkpt>
      <trkpt lat="44.07507" lon="6.33186">
        <ele>1389</ele>
        <time>2015-06-21T07:57:19Z</time>
      </trkpt>
      <trkpt lat="44.07515" lon="6.33194">
        <ele>1380</ele>
        <time>2015-06-21T07:57:25Z</time>
      </trkpt>
      <trkpt lat="44.07525" lon="6.33207">
        <ele>1380</ele>
        <time>2015-06-21T07:57:33Z</time>
      </trkpt>
      <trkpt lat="44.07528" lon="6.3322">
        <ele>1390</ele>
        <time>2015-06-21T07:57:39Z</time>
      </trkpt>
      <trkpt lat="44.07537" lon="6.3323">
        <ele>1390</ele>
        <time>2015-06-21T07:57:47Z</time>
      </trkpt>
      <trkpt lat="44.07545" lon="6.33241">
        <ele>1392</ele>
        <time>2015-06-21T07:57:54Z</time>
      </trkpt>
      <trkpt lat="44.0755" lon="6.33246">
        <ele>1392</ele>
        <time>2015-06-21T07:57:57Z</time>
      </trkpt>
      <trkpt lat="44.0756" lon="6.33253">
        <ele>1392</ele>
        <time>2015-06-21T07:58:03Z</time>
      </trkpt>
      <trkpt lat="44.07575" lon="6.33263">
        <ele>1384</ele>
        <time>2015-06-21T07:58:10Z</time>
      </trkpt>
      <trkpt lat="44.07588" lon="6.33274">
        <ele>1395</ele>
        <time>2015-06-21T07:58:19Z</time>
      </trkpt>
      <trkpt lat="44.07598" lon="6.33282">
        <ele>1387</ele>
        <time>2015-06-21T07:58:26Z</time>
      </trkpt>
      <trkpt lat="44.07608" lon="6.33297">
        <ele>1403</ele>
        <time>2015-06-21T07:58:34Z</time>
      </trkpt>
      <trkpt lat="44.07618" lon="6.33305">
        <ele>1403</ele>
        <time>2015-06-21T07:58:40Z</time>
      </trkpt>
      <trkpt lat="44.07633" lon="6.33317">
        <ele>1395</ele>
        <time>2015-06-21T07:58:49Z</time>
      </trkpt>
      <trkpt lat="44.0764" lon="6.33326">
        <ele>1411</ele>
        <time>2015-06-21T07:58:56Z</time>
      </trkpt>
      <trkpt lat="44.07646" lon="6.33333">
        <ele>1411</ele>
        <time>2015-06-21T07:59:02Z</time>
      </trkpt>
      <trkpt lat="44.07654" lon="6.33338">
        <ele>1404</ele>
        <time>2015-06-21T07:59:08Z</time>
      </trkpt>
      <trkpt lat="44.07666" lon="6.33348">
        <ele>1415</ele>
        <time>2015-06-21T07:59:17Z</time>
      </trkpt>
      <trkpt lat="44.07678" lon="6.3336">
        <ele>1415</ele>
        <time>2015-06-21T07:59:23Z</time>
      </trkpt>
      <trkpt lat="44.07688" lon="6.33367">
        <ele>1409</ele>
        <time>2015-06-21T07:59:29Z</time>
      </trkpt>
      <trkpt lat="44.077" lon="6.33375">
        <ele>1420</ele>
        <time>2015-06-21T07:59:37Z</time>
      </trkpt>
      <trkpt lat="44.07714" lon="6.33384">
        <ele>1416</ele>
        <time>2015-06-21T07:59:46Z</time>
      </trkpt>
      <trkpt lat="44.07729" lon="6.33394">
        <ele>1416</ele>
        <time>2015-06-21T07:59:56Z</time>
      </trkpt>
      <trkpt lat="44.07744" lon="6.33404">
        <ele>1424</ele>
        <time>2015-06-21T08:00:05Z</time>
      </trkpt>
      <trkpt lat="44.07758" lon="6.33414">
        <ele>1424</ele>
        <time>2015-06-21T08:00:14Z</time>
      </trkpt>
      <trkpt lat="44.07771" lon="6.33423">
        <ele>1421</ele>
        <time>2015-06-21T08:00:23Z</time>
      </trkpt>
      <trkpt lat="44.07783" lon="6.3343">
        <ele>1421</ele>
        <time>2015-06-21T08:00:30Z</time>
      </trkpt>
      <trkpt lat="44.07797" lon="6.33439">
        <ele>1427</ele>
        <time>2015-06-21T08:00:39Z</time>
      </trkpt>
      <trkpt lat="44.07814" lon="6.33446">
        <ele>1427</ele>
        <time>2015-06-21T08:00:49Z</time>
      </trkpt>
      <trkpt lat="44.07833" lon="6.33455">
        <ele>1423</ele>
        <time>2015-06-21T08:01:00Z</time>
      </trkpt>
      <trkpt lat="44.07846" lon="6.33462">
        <ele>1437</ele>
        <time>2015-06-21T08:01:08Z</time>
      </trkpt>
      <trkpt lat="44.07861" lon="6.3347">
        <ele>1435</ele>
        <time>2015-06-21T08:01:18Z</time>
      </trkpt>
      <trkpt lat="44.07877" lon="6.33478">
        <ele>1435</ele>
        <time>2015-06-21T08:01:28Z</time>
      </trkpt>
      <trkpt lat="44.07891" lon="6.33477">
        <ele>1435</ele>
        <time>2015-06-21T08:01:35Z</time>
      </trkpt>
      <trkpt lat="44.07904" lon="6.33483">
        <ele>1433</ele>
        <time>2015-06-21T08:01:42Z</time>
      </trkpt>
      <trkpt lat="44.07915" lon="6.33486">
        <ele>1433</ele>
        <time>2015-06-21T08:01:49Z</time>
      </trkpt>
      <trkpt lat="44.07929" lon="6.33494">
        <ele>1442</ele>
        <time>2015-06-21T08:01:57Z</time>
      </trkpt>
      <trkpt lat="44.07943" lon="6.33499">
        <ele>1441</ele>
        <time>2015-06-21T08:02:06Z</time>
      </trkpt>
      <trkpt lat="44.07956" lon="6.33501">
        <ele>1441</ele>
        <time>2015-06-21T08:02:14Z</time>
      </trkpt>
      <trkpt lat="44.07968" lon="6.33506">
        <ele>1441</ele>
        <time>2015-06-21T08:02:21Z</time>
      </trkpt>
      <trkpt lat="44.07983" lon="6.33512">
        <ele>1441</ele>
        <time>2015-06-21T08:02:30Z</time>
      </trkpt>
      <trkpt lat="44.07996" lon="6.33518">
        <ele>1456</ele>
        <time>2015-06-21T08:02:38Z</time>
      </trkpt>
      <trkpt lat="44.0801" lon="6.33521">
        <ele>1456</ele>
        <time>2015-06-21T08:02:46Z</time>
      </trkpt>
      <trkpt lat="44.08022" lon="6.33525">
        <ele>1456</ele>
        <time>2015-06-21T08:02:53Z</time>
      </trkpt>
      <trkpt lat="44.08033" lon="6.33527">
        <ele>1456</ele>
        <time>2015-06-21T08:03:00Z</time>
      </trkpt>
      <trkpt lat="44.08031" lon="6.33533">
        <ele>1456</ele>
        <time>2015-06-21T08:03:05Z</time>
      </trkpt>
      <trkpt lat="44.08017" lon="6.33536">
        <ele>1456</ele>
        <time>2015-06-21T08:03:16Z</time>
      </trkpt>
      <trkpt lat="44.08004" lon="6.33541">
        <ele>1456</ele>
        <time>2015-06-21T08:03:25Z</time>
      </trkpt>
      <trkpt lat="44.07994" lon="6.33546">
        <ele>1470</ele>
        <time>2015-06-21T08:03:33Z</time>
      </trkpt>
      <trkpt lat="44.07983" lon="6.3355">
        <ele>1471</ele>
        <time>2015-06-21T08:03:41Z</time>
      </trkpt>
      <trkpt lat="44.07973" lon="6.33554">
        <ele>1471</ele>
        <time>2015-06-21T08:03:49Z</time>
      </trkpt>
      <trkpt lat="44.07961" lon="6.33559">
        <ele>1471</ele>
        <time>2015-06-21T08:03:59Z</time>
      </trkpt>
      <trkpt lat="44.07949" lon="6.33564">
        <ele>1471</ele>
        <time>2015-06-21T08:04:08Z</time>
      </trkpt>
      <trkpt lat="44.07937" lon="6.3357">
        <ele>1484</ele>
        <time>2015-06-21T08:04:17Z</time>
      </trkpt>
      <trkpt lat="44.07925" lon="6.33574">
        <ele>1482</ele>
        <time>2015-06-21T08:04:26Z</time>
      </trkpt>
      <trkpt lat="44.07916" lon="6.33577">
        <ele>1482</ele>
        <time>2015-06-21T08:04:34Z</time>
      </trkpt>
      <trkpt lat="44.07908" lon="6.33579">
        <ele>1482</ele>
        <time>2015-06-21T08:04:41Z</time>
      </trkpt>
      <trkpt lat="44.07897" lon="6.33581">
        <ele>1485</ele>
        <time>2015-06-21T08:04:49Z</time>
      </trkpt>
      <trkpt lat="44.07899" lon="6.33585">
        <ele>1485</ele>
        <time>2015-06-21T08:04:55Z</time>
      </trkpt>
      <trkpt lat="44.079" lon="6.33586">
        <ele>1485</ele>
        <time>2015-06-21T08:04:59Z</time>
      </trkpt>
      <trkpt lat="44.07906" lon="6.3359">
        <ele>1482</ele>
        <time>2015-06-21T08:05:07Z</time>
      </trkpt>
      <trkpt lat="44.07914" lon="6.33596">
        <ele>1482</ele>
        <time>2015-06-21T08:05:14Z</time>
      </trkpt>
      <trkpt lat="44.07921" lon="6.33601">
        <ele>1496</ele>
        <time>2015-06-21T08:05:21Z</time>
      </trkpt>
      <trkpt lat="44.07931" lon="6.33604">
        <ele>1494</ele>
        <time>2015-06-21T08:05:29Z</time>
      </trkpt>
      <trkpt lat="44.07939" lon="6.33604">
        <ele>1494</ele>
        <time>2015-06-21T08:05:34Z</time>
      </trkpt>
      <trkpt lat="44.0795" lon="6.33609">
        <ele>1494</ele>
        <time>2015-06-21T08:05:43Z</time>
      </trkpt>
      <trkpt lat="44.07961" lon="6.33612">
        <ele>1497</ele>
        <time>2015-06-21T08:05:52Z</time>
      </trkpt>
      <trkpt lat="44.07969" lon="6.33614">
        <ele>1497</ele>
        <time>2015-06-21T08:05:58Z</time>
      </trkpt>
      <trkpt lat="44.0798" lon="6.3362">
        <ele>1497</ele>
        <time>2015-06-21T08:06:06Z</time>
      </trkpt>
      <trkpt lat="44.07988" lon="6.33623">
        <ele>1496</ele>
        <time>2015-06-21T08:06:13Z</time>
      </trkpt>
      <trkpt lat="44.07998" lon="6.33625">
        <ele>1496</ele>
        <time>2015-06-21T08:06:19Z</time>
      </trkpt>
      <trkpt lat="44.08004" lon="6.33627">
        <ele>1509</ele>
        <time>2015-06-21T08:06:24Z</time>
      </trkpt>
      <trkpt lat="44.08014" lon="6.33629">
        <ele>1508</ele>
        <time>2015-06-21T08:06:32Z</time>
      </trkpt>
      <trkpt lat="44.08021" lon="6.33632">
        <ele>1508</ele>
        <time>2015-06-21T08:06:38Z</time>
      </trkpt>
      <trkpt lat="44.08029" lon="6.33635">
        <ele>1508</ele>
        <time>2015-06-21T08:06:45Z</time>
      </trkpt>
      <trkpt lat="44.08035" lon="6.33641">
        <ele>1508</ele>
        <time>2015-06-21T08:06:52Z</time>
      </trkpt>
      <trkpt lat="44.0804" lon="6.33646">
        <ele>1508</ele>
        <time>2015-06-21T08:06:57Z</time>
      </trkpt>
      <trkpt lat="44.08049" lon="6.33653">
        <ele>1515</ele>
        <time>2015-06-21T08:07:03Z</time>
      </trkpt>
      <trkpt lat="44.08053" lon="6.33657">
        <ele>1515</ele>
        <time>2015-06-21T08:07:07Z</time>
      </trkpt>
      <trkpt lat="44.08053" lon="6.33661">
        <ele>1515</ele>
        <time>2015-06-21T08:07:11Z</time>
      </trkpt>
      <trkpt lat="44.08051" lon="6.33661">
        <ele>1515</ele>
        <time>2015-06-21T08:07:16Z</time>
      </trkpt>
      <trkpt lat="44.08043" lon="6.33663">
        <ele>1515</ele>
        <time>2015-06-21T08:07:24Z</time>
      </trkpt>
      <trkpt lat="44.08036" lon="6.33665">
        <ele>1519</ele>
        <time>2015-06-21T08:07:30Z</time>
      </trkpt>
      <trkpt lat="44.08029" lon="6.33665">
        <ele>1519</ele>
        <time>2015-06-21T08:07:37Z</time>
      </trkpt>
      <trkpt lat="44.0802" lon="6.33668">
        <ele>1519</ele>
        <time>2015-06-21T08:07:43Z</time>
      </trkpt>
      <trkpt lat="44.08011" lon="6.33671">
        <ele>1521</ele>
        <time>2015-06-21T08:07:49Z</time>
      </trkpt>
      <trkpt lat="44.08001" lon="6.33675">
        <ele>1521</ele>
        <time>2015-06-21T08:07:55Z</time>
      </trkpt>
      <trkpt lat="44.07991" lon="6.33676">
        <ele>1521</ele>
        <time>2015-06-21T08:08:01Z</time>
      </trkpt>
      <trkpt lat="44.07979" lon="6.33676">
        <ele>1523</ele>
        <time>2015-06-21T08:08:07Z</time>
      </trkpt>
      <trkpt lat="44.07965" lon="6.33679">
        <ele>1523</ele>
        <time>2015-06-21T08:08:14Z</time>
      </trkpt>
      <trkpt lat="44.07954" lon="6.33682">
        <ele>1542</ele>
        <time>2015-06-21T08:08:20Z</time>
      </trkpt>
      <trkpt lat="44.0794" lon="6.33685">
        <ele>1542</ele>
        <time>2015-06-21T08:08:27Z</time>
      </trkpt>
      <trkpt lat="44.07931" lon="6.33686">
        <ele>1542</ele>
        <time>2015-06-21T08:08:31Z</time>
      </trkpt>
      <trkpt lat="44.07916" lon="6.33683">
        <ele>1538</ele>
        <time>2015-06-21T08:08:37Z</time>
      </trkpt>
      <trkpt lat="44.07904" lon="6.33681">
        <ele>1538</ele>
        <time>2015-06-21T08:08:42Z</time>
      </trkpt>
      <trkpt lat="44.07893" lon="6.33681">
        <ele>1541</ele>
        <time>2015-06-21T08:08:48Z</time>
      </trkpt>
      <trkpt lat="44.07881" lon="6.33679">
        <ele>1528</ele>
        <time>2015-06-21T08:08:54Z</time>
      </trkpt>
      <trkpt lat="44.07876" lon="6.33679">
        <ele>1528</ele>
        <time>2015-06-21T08:08:57Z</time>
      </trkpt>
      <trkpt lat="44.07865" lon="6.33676">
        <ele>1534</ele>
        <time>2015-06-21T08:09:03Z</time>
      </trkpt>
      <trkpt lat="44.07854" lon="6.33675">
        <ele>1534</ele>
        <time>2015-06-21T08:09:09Z</time>
      </trkpt>
      <trkpt lat="44.07845" lon="6.33673">
        <ele>1532</ele>
        <time>2015-06-21T08:09:14Z</time>
      </trkpt>
      <trkpt lat="44.07838" lon="6.33672">
        <ele>1532</ele>
        <time>2015-06-21T08:09:18Z</time>
      </trkpt>
      <trkpt lat="44.07824" lon="6.33673">
        <ele>1532</ele>
        <time>2015-06-21T08:09:25Z</time>
      </trkpt>
      <trkpt lat="44.07819" lon="6.33673">
        <ele>1539</ele>
        <time>2015-06-21T08:09:30Z</time>
      </trkpt>
      <trkpt lat="44.07822" lon="6.33674">
        <ele>1532</ele>
        <time>2015-06-21T08:09:38Z</time>
      </trkpt>
      <trkpt lat="44.07823" lon="6.33674">
        <ele>1532</ele>
        <time>2015-06-21T08:09:43Z</time>
      </trkpt>
      <trkpt lat="44.07831" lon="6.3368">
        <ele>1532</ele>
        <time>2015-06-21T08:09:50Z</time>
      </trkpt>
      <trkpt lat="44.07841" lon="6.33687">
        <ele>1549</ele>
        <time>2015-06-21T08:09:57Z</time>
      </trkpt>
      <trkpt lat="44.07854" lon="6.33694">
        <ele>1545</ele>
        <time>2015-06-21T08:10:06Z</time>
      </trkpt>
      <trkpt lat="44.07861" lon="6.33699">
        <ele>1545</ele>
        <time>2015-06-21T08:10:11Z</time>
      </trkpt>
      <trkpt lat="44.07866" lon="6.33704">
        <ele>1545</ele>
        <time>2015-06-21T08:10:16Z</time>
      </trkpt>
      <trkpt lat="44.07876" lon="6.33709">
        <ele>1553</ele>
        <time>2015-06-21T08:10:23Z</time>
      </trkpt>
      <trkpt lat="44.0788" lon="6.33712">
        <ele>1553</ele>
        <time>2015-06-21T08:10:27Z</time>
      </trkpt>
      <trkpt lat="44.07885" lon="6.33714">
        <ele>1553</ele>
        <time>2015-06-21T08:10:31Z</time>
      </trkpt>
      <trkpt lat="44.07897" lon="6.3372">
        <ele>1553</ele>
        <time>2015-06-21T08:10:37Z</time>
      </trkpt>
      <trkpt lat="44.07909" lon="6.33724">
        <ele>1552</ele>
        <time>2015-06-21T08:10:44Z</time>
      </trkpt>
      <trkpt lat="44.07914" lon="6.33729">
        <ele>1552</ele>
        <time>2015-06-21T08:10:49Z</time>
      </trkpt>
      <trkpt lat="44.07924" lon="6.33732">
        <ele>1552</ele>
        <time>2015-06-21T08:10:56Z</time>
      </trkpt>
      <trkpt lat="44.07928" lon="6.33734">
        <ele>1552</ele>
        <time>2015-06-21T08:10:59Z</time>
      </trkpt>
      <trkpt lat="44.07935" lon="6.33735">
        <ele>1554</ele>
        <time>2015-06-21T08:11:05Z</time>
      </trkpt>
      <trkpt lat="44.07944" lon="6.33737">
        <ele>1568</ele>
        <time>2015-06-21T08:11:11Z</time>
      </trkpt>
      <trkpt lat="44.07955" lon="6.33742">
        <ele>1568</ele>
        <time>2015-06-21T08:11:18Z</time>
      </trkpt>
      <trkpt lat="44.07964" lon="6.33746">
        <ele>1571</ele>
        <time>2015-06-21T08:11:24Z</time>
      </trkpt>
      <trkpt lat="44.07973" lon="6.33748">
        <ele>1571</ele>
        <time>2015-06-21T08:11:30Z</time>
      </trkpt>
      <trkpt lat="44.07982" lon="6.33749">
        <ele>1571</ele>
        <time>2015-06-21T08:11:37Z</time>
      </trkpt>
      <trkpt lat="44.07987" lon="6.33749">
        <ele>1571</ele>
        <time>2015-06-21T08:11:41Z</time>
      </trkpt>
      <trkpt lat="44.07994" lon="6.33754">
        <ele>1571</ele>
        <time>2015-06-21T08:11:46Z</time>
      </trkpt>
      <trkpt lat="44.08003" lon="6.33758">
        <ele>1571</ele>
        <time>2015-06-21T08:11:52Z</time>
      </trkpt>
      <trkpt lat="44.0801" lon="6.33762">
        <ele>1571</ele>
        <time>2015-06-21T08:11:57Z</time>
      </trkpt>
      <trkpt lat="44.08015" lon="6.33765">
        <ele>1580</ele>
        <time>2015-06-21T08:12:02Z</time>
      </trkpt>
      <trkpt lat="44.08021" lon="6.33767">
        <ele>1580</ele>
        <time>2015-06-21T08:12:08Z</time>
      </trkpt>
      <trkpt lat="44.08024" lon="6.33765">
        <ele>1580</ele>
        <time>2015-06-21T08:12:13Z</time>
      </trkpt>
      <trkpt lat="44.08025" lon="6.33767">
        <ele>1580</ele>
        <time>2015-06-21T08:12:18Z</time>
      </trkpt>
      <trkpt lat="44.08024" lon="6.33768">
        <ele>1580</ele>
        <time>2015-06-21T08:12:24Z</time>
      </trkpt>
      <trkpt lat="44.0802" lon="6.33772">
        <ele>1580</ele>
        <time>2015-06-21T08:12:30Z</time>
      </trkpt>
      <trkpt lat="44.08017" lon="6.33775">
        <ele>1580</ele>
        <time>2015-06-21T08:12:34Z</time>
      </trkpt>
      <trkpt lat="44.08014" lon="6.33777">
        <ele>1580</ele>
        <time>2015-06-21T08:12:37Z</time>
      </trkpt>
      <trkpt lat="44.08009" lon="6.3378">
        <ele>1587</ele>
        <time>2015-06-21T08:12:42Z</time>
      </trkpt>
      <trkpt lat="44.07999" lon="6.33783">
        <ele>1587</ele>
        <time>2015-06-21T08:12:50Z</time>
      </trkpt>
      <trkpt lat="44.07992" lon="6.33784">
        <ele>1587</ele>
        <time>2015-06-21T08:12:55Z</time>
      </trkpt>
      <trkpt lat="44.07982" lon="6.33786">
        <ele>1593</ele>
        <time>2015-06-21T08:13:01Z</time>
      </trkpt>
      <trkpt lat="44.07967" lon="6.33785">
        <ele>1593</ele>
        <time>2015-06-21T08:13:10Z</time>
      </trkpt>
      <trkpt lat="44.07958" lon="6.33787">
        <ele>1587</ele>
        <time>2015-06-21T08:13:18Z</time>
      </trkpt>
      <trkpt lat="44.07947" lon="6.33793">
        <ele>1616</ele>
        <time>2015-06-21T08:13:27Z</time>
      </trkpt>
      <trkpt lat="44.07939" lon="6.33797">
        <ele>1616</ele>
        <time>2015-06-21T08:13:34Z</time>
      </trkpt>
      <trkpt lat="44.0793" lon="6.33801">
        <ele>1616</ele>
        <time>2015-06-21T08:13:41Z</time>
      </trkpt>
      <trkpt lat="44.07921" lon="6.33807">
        <ele>1616</ele>
        <time>2015-06-21T08:13:49Z</time>
      </trkpt>
      <trkpt lat="44.07912" lon="6.3381">
        <ele>1616</ele>
        <time>2015-06-21T08:13:57Z</time>
      </trkpt>
      <trkpt lat="44.07904" lon="6.33806">
        <ele>1616</ele>
        <time>2015-06-21T08:14:04Z</time>
      </trkpt>
      <trkpt lat="44.07898" lon="6.33807">
        <ele>1613</ele>
        <time>2015-06-21T08:14:11Z</time>
      </trkpt>
      <trkpt lat="44.07895" lon="6.3381">
        <ele>1613</ele>
        <time>2015-06-21T08:14:16Z</time>
      </trkpt>
      <trkpt lat="44.07891" lon="6.33817">
        <ele>1613</ele>
        <time>2015-06-21T08:14:24Z</time>
      </trkpt>
      <trkpt lat="44.07887" lon="6.3382">
        <ele>1638</ele>
        <time>2015-06-21T08:14:30Z</time>
      </trkpt>
      <trkpt lat="44.07881" lon="6.3382">
        <ele>1638</ele>
        <time>2015-06-21T08:14:35Z</time>
      </trkpt>
      <trkpt lat="44.07876" lon="6.33809">
        <ele>1613</ele>
        <time>2015-06-21T08:14:42Z</time>
      </trkpt>
      <trkpt lat="44.0787" lon="6.33801">
        <ele>1609</ele>
        <time>2015-06-21T08:14:48Z</time>
      </trkpt>
      <trkpt lat="44.07868" lon="6.33803">
        <ele>1609</ele>
        <time>2015-06-21T08:14:52Z</time>
      </trkpt>
      <trkpt lat="44.0787" lon="6.33808">
        <ele>1609</ele>
        <time>2015-06-21T08:15:01Z</time>
      </trkpt>
      <trkpt lat="44.07873" lon="6.33814">
        <ele>1609</ele>
        <time>2015-06-21T08:15:09Z</time>
      </trkpt>
      <trkpt lat="44.07871" lon="6.33827">
        <ele>1640</ele>
        <time>2015-06-21T08:15:20Z</time>
      </trkpt>
      <trkpt lat="44.0787" lon="6.33829">
        <ele>1640</ele>
        <time>2015-06-21T08:15:24Z</time>
      </trkpt>
      <trkpt lat="44.07869" lon="6.33832">
        <ele>1640</ele>
        <time>2015-06-21T08:15:32Z</time>
      </trkpt>
      <trkpt lat="44.07868" lon="6.33834">
        <ele>1640</ele>
        <time>2015-06-21T08:15:37Z</time>
      </trkpt>
      <trkpt lat="44.0787" lon="6.33834">
        <ele>1640</ele>
        <time>2015-06-21T08:15:43Z</time>
      </trkpt>
      <trkpt lat="44.07874" lon="6.33832">
        <ele>1640</ele>
        <time>2015-06-21T08:15:50Z</time>
      </trkpt>
      <trkpt lat="44.07876" lon="6.3383">
        <ele>1638</ele>
        <time>2015-06-21T08:15:54Z</time>
      </trkpt>
      <trkpt lat="44.07881" lon="6.33827">
        <ele>1638</ele>
        <time>2015-06-21T08:15:59Z</time>
      </trkpt>
      <trkpt lat="44.07888" lon="6.33838">
        <ele>1638</ele>
        <time>2015-06-21T08:16:04Z</time>
      </trkpt>
      <trkpt lat="44.07892" lon="6.33831">
        <ele>1638</ele>
        <time>2015-06-21T08:16:08Z</time>
      </trkpt>
      <trkpt lat="44.079" lon="6.3383">
        <ele>1638</ele>
        <time>2015-06-21T08:16:19Z</time>
      </trkpt>
      <trkpt lat="44.07905" lon="6.3383">
        <ele>1636</ele>
        <time>2015-06-21T08:16:25Z</time>
      </trkpt>
      <trkpt lat="44.07906" lon="6.33835">
        <ele>1636</ele>
        <time>2015-06-21T08:16:31Z</time>
      </trkpt>
      <trkpt lat="44.07904" lon="6.33838">
        <ele>1636</ele>
        <time>2015-06-21T08:16:37Z</time>
      </trkpt>
      <trkpt lat="44.07902" lon="6.33841">
        <ele>1638</ele>
        <time>2015-06-21T08:16:42Z</time>
      </trkpt>
      <trkpt lat="44.07899" lon="6.33845">
        <ele>1638</ele>
        <time>2015-06-21T08:16:47Z</time>
      </trkpt>
      <trkpt lat="44.07892" lon="6.3385">
        <ele>1653</ele>
        <time>2015-06-21T08:16:56Z</time>
      </trkpt>
      <trkpt lat="44.07883" lon="6.33853">
        <ele>1653</ele>
        <time>2015-06-21T08:17:03Z</time>
      </trkpt>
      <trkpt lat="44.07879" lon="6.33854">
        <ele>1653</ele>
        <time>2015-06-21T08:17:08Z</time>
      </trkpt>
      <trkpt lat="44.0788" lon="6.33856">
        <ele>1653</ele>
        <time>2015-06-21T08:17:15Z</time>
      </trkpt>
      <trkpt lat="44.07885" lon="6.33857">
        <ele>1653</ele>
        <time>2015-06-21T08:17:24Z</time>
      </trkpt>
      <trkpt lat="44.07889" lon="6.3386">
        <ele>1653</ele>
        <time>2015-06-21T08:17:31Z</time>
      </trkpt>
      <trkpt lat="44.07894" lon="6.33862">
        <ele>1653</ele>
        <time>2015-06-21T08:17:39Z</time>
      </trkpt>
      <trkpt lat="44.07899" lon="6.3386">
        <ele>1653</ele>
        <time>2015-06-21T08:17:47Z</time>
      </trkpt>
      <trkpt lat="44.079" lon="6.33855">
        <ele>1653</ele>
        <time>2015-06-21T08:17:53Z</time>
      </trkpt>
      <trkpt lat="44.07902" lon="6.33853">
        <ele>1653</ele>
        <time>2015-06-21T08:18:00Z</time>
      </trkpt>
      <trkpt lat="44.07905" lon="6.33852">
        <ele>1650</ele>
        <time>2015-06-21T08:18:10Z</time>
      </trkpt>
      <trkpt lat="44.07906" lon="6.33853">
        <ele>1650</ele>
        <time>2015-06-21T08:18:15Z</time>
      </trkpt>
      <trkpt lat="44.07907" lon="6.33852">
        <ele>1650</ele>
        <time>2015-06-21T08:18:22Z</time>
      </trkpt>
      <trkpt lat="44.07909" lon="6.33851">
        <ele>1650</ele>
        <time>2015-06-21T08:18:28Z</time>
      </trkpt>
      <trkpt lat="44.07912" lon="6.33852">
        <ele>1650</ele>
        <time>2015-06-21T08:18:34Z</time>
      </trkpt>
      <trkpt lat="44.07913" lon="6.33854">
        <ele>1650</ele>
        <time>2015-06-21T08:18:43Z</time>
      </trkpt>
      <trkpt lat="44.07915" lon="6.33855">
        <ele>1650</ele>
        <time>2015-06-21T08:18:49Z</time>
      </trkpt>
      <trkpt lat="44.07919" lon="6.33857">
        <ele>1650</ele>
        <time>2015-06-21T08:18:54Z</time>
      </trkpt>
      <trkpt lat="44.07924" lon="6.33865">
        <ele>1650</ele>
        <time>2015-06-21T08:19:03Z</time>
      </trkpt>
      <trkpt lat="44.07928" lon="6.33865">
        <ele>1650</ele>
        <time>2015-06-21T08:19:11Z</time>
      </trkpt>
      <trkpt lat="44.0793" lon="6.33865">
        <ele>1650</ele>
        <time>2015-06-21T08:19:15Z</time>
      </trkpt>
      <trkpt lat="44.07934" lon="6.33866">
        <ele>1651</ele>
        <time>2015-06-21T08:19:22Z</time>
      </trkpt>
      <trkpt lat="44.07937" lon="6.33866">
        <ele>1651</ele>
        <time>2015-06-21T08:19:29Z</time>
      </trkpt>
      <trkpt lat="44.07943" lon="6.33866">
        <ele>1651</ele>
        <time>2015-06-21T08:19:37Z</time>
      </trkpt>
      <trkpt lat="44.0795" lon="6.33865">
        <ele>1651</ele>
        <time>2015-06-21T08:19:45Z</time>
      </trkpt>
      <trkpt lat="44.07955" lon="6.33866">
        <ele>1651</ele>
        <time>2015-06-21T08:19:55Z</time>
      </trkpt>
      <trkpt lat="44.07961" lon="6.33866">
        <ele>1653</ele>
        <time>2015-06-21T08:20:03Z</time>
      </trkpt>
      <trkpt lat="44.07969" lon="6.33869">
        <ele>1653</ele>
        <time>2015-06-21T08:20:13Z</time>
      </trkpt>
      <trkpt lat="44.07967" lon="6.33872">
        <ele>1653</ele>
        <time>2015-06-21T08:20:17Z</time>
      </trkpt>
      <trkpt lat="44.07967" lon="6.33874">
        <ele>1653</ele>
        <time>2015-06-21T08:20:24Z</time>
      </trkpt>
      <trkpt lat="44.07972" lon="6.33874">
        <ele>1653</ele>
        <time>2015-06-21T08:20:31Z</time>
      </trkpt>
      <trkpt lat="44.07976" lon="6.33875">
        <ele>1668</ele>
        <time>2015-06-21T08:20:38Z</time>
      </trkpt>
      <trkpt lat="44.07981" lon="6.33876">
        <ele>1668</ele>
        <time>2015-06-21T08:20:45Z</time>
      </trkpt>
      <trkpt lat="44.07986" lon="6.33875">
        <ele>1668</ele>
        <time>2015-06-21T08:20:52Z</time>
      </trkpt>
      <trkpt lat="44.07992" lon="6.33876">
        <ele>1661</ele>
        <time>2015-06-21T08:20:58Z</time>
      </trkpt>
      <trkpt lat="44.07997" lon="6.33875">
        <ele>1661</ele>
        <time>2015-06-21T08:21:05Z</time>
      </trkpt>
      <trkpt lat="44.08003" lon="6.33876">
        <ele>1661</ele>
        <time>2015-06-21T08:21:08Z</time>
      </trkpt>
      <trkpt lat="44.08021" lon="6.33876">
        <ele>1656</ele>
        <time>2015-06-21T08:21:14Z</time>
      </trkpt>
      <trkpt lat="44.08032" lon="6.3388">
        <ele>1656</ele>
        <time>2015-06-21T08:21:17Z</time>
      </trkpt>
      <trkpt lat="44.08047" lon="6.33884">
        <ele>1649</ele>
        <time>2015-06-21T08:21:22Z</time>
      </trkpt>
      <trkpt lat="44.08058" lon="6.33887">
        <ele>1649</ele>
        <time>2015-06-21T08:21:28Z</time>
      </trkpt>
      <trkpt lat="44.08067" lon="6.33888">
        <ele>1649</ele>
        <time>2015-06-21T08:21:34Z</time>
      </trkpt>
      <trkpt lat="44.08076" lon="6.33896">
        <ele>1634</ele>
        <time>2015-06-21T08:21:38Z</time>
      </trkpt>
      <trkpt lat="44.08087" lon="6.33902">
        <ele>1634</ele>
        <time>2015-06-21T08:21:44Z</time>
      </trkpt>
      <trkpt lat="44.081" lon="6.33909">
        <ele>1636</ele>
        <time>2015-06-21T08:21:51Z</time>
      </trkpt>
      <trkpt lat="44.08112" lon="6.33915">
        <ele>1636</ele>
        <time>2015-06-21T08:21:58Z</time>
      </trkpt>
      <trkpt lat="44.08107" lon="6.33927">
        <ele>1636</ele>
        <time>2015-06-21T08:22:03Z</time>
      </trkpt>
      <trkpt lat="44.08091" lon="6.33942">
        <ele>1657</ele>
        <time>2015-06-21T08:22:08Z</time>
      </trkpt>
      <trkpt lat="44.081" lon="6.33946">
        <ele>1647</ele>
        <time>2015-06-21T08:22:12Z</time>
      </trkpt>
      <trkpt lat="44.08119" lon="6.33948">
        <ele>1647</ele>
        <time>2015-06-21T08:22:17Z</time>
      </trkpt>
      <trkpt lat="44.08138" lon="6.33952">
        <ele>1644</ele>
        <time>2015-06-21T08:22:21Z</time>
      </trkpt>
      <trkpt lat="44.08164" lon="6.33961">
        <ele>1648</ele>
        <time>2015-06-21T08:22:27Z</time>
      </trkpt>
      <trkpt lat="44.08174" lon="6.33963">
        <ele>1648</ele>
        <time>2015-06-21T08:22:30Z</time>
      </trkpt>
      <trkpt lat="44.08186" lon="6.33967">
        <ele>1648</ele>
        <time>2015-06-21T08:22:34Z</time>
      </trkpt>
      <trkpt lat="44.08213" lon="6.33977">
        <ele>1647</ele>
        <time>2015-06-21T08:22:40Z</time>
      </trkpt>
      <trkpt lat="44.08231" lon="6.33991">
        <ele>1642</ele>
        <time>2015-06-21T08:22:44Z</time>
      </trkpt>
      <trkpt lat="44.08238" lon="6.34001">
        <ele>1642</ele>
        <time>2015-06-21T08:22:48Z</time>
      </trkpt>
      <trkpt lat="44.08229" lon="6.34001">
        <ele>1642</ele>
        <time>2015-06-21T08:22:52Z</time>
      </trkpt>
      <trkpt lat="44.08208" lon="6.34008">
        <ele>1641</ele>
        <time>2015-06-21T08:22:56Z</time>
      </trkpt>
      <trkpt lat="44.08189" lon="6.34018">
        <ele>1632</ele>
        <time>2015-06-21T08:23:00Z</time>
      </trkpt>
      <trkpt lat="44.08191" lon="6.34022">
        <ele>1632</ele>
        <time>2015-06-21T08:23:03Z</time>
      </trkpt>
      <trkpt lat="44.08202" lon="6.34032">
        <ele>1632</ele>
        <time>2015-06-21T08:23:07Z</time>
      </trkpt>
      <trkpt lat="44.08211" lon="6.34043">
        <ele>1625</ele>
        <time>2015-06-21T08:23:10Z</time>
      </trkpt>
      <trkpt lat="44.08235" lon="6.34062">
        <ele>1625</ele>
        <time>2015-06-21T08:23:16Z</time>
      </trkpt>
      <trkpt lat="44.08255" lon="6.34091">
        <ele>1619</ele>
        <time>2015-06-21T08:23:23Z</time>
      </trkpt>
      <trkpt lat="44.08255" lon="6.341">
        <ele>1610</ele>
        <time>2015-06-21T08:23:29Z</time>
      </trkpt>
      <trkpt lat="44.08246" lon="6.34095">
        <ele>1619</ele>
        <time>2015-06-21T08:23:32Z</time>
      </trkpt>
      <trkpt lat="44.08227" lon="6.34093">
        <ele>1616</ele>
        <time>2015-06-21T08:23:36Z</time>
      </trkpt>
      <trkpt lat="44.08213" lon="6.34095">
        <ele>1616</ele>
        <time>2015-06-21T08:23:39Z</time>
      </trkpt>
      <trkpt lat="44.08194" lon="6.34094">
        <ele>1618</ele>
        <time>2015-06-21T08:23:45Z</time>
      </trkpt>
      <trkpt lat="44.08169" lon="6.34089">
        <ele>1624</ele>
        <time>2015-06-21T08:23:52Z</time>
      </trkpt>
      <trkpt lat="44.08157" lon="6.34095">
        <ele>1624</ele>
        <time>2015-06-21T08:23:55Z</time>
      </trkpt>
      <trkpt lat="44.08125" lon="6.34101">
        <ele>1620</ele>
        <time>2015-06-21T08:24:02Z</time>
      </trkpt>
      <trkpt lat="44.08093" lon="6.34107">
        <ele>1622</ele>
        <time>2015-06-21T08:24:08Z</time>
      </trkpt>
      <trkpt lat="44.08058" lon="6.34118">
        <ele>1623</ele>
        <time>2015-06-21T08:24:14Z</time>
      </trkpt>
      <trkpt lat="44.08033" lon="6.34128">
        <ele>1610</ele>
        <time>2015-06-21T08:24:18Z</time>
      </trkpt>
      <trkpt lat="44.08012" lon="6.34134">
        <ele>1608</ele>
        <time>2015-06-21T08:24:21Z</time>
      </trkpt>
      <trkpt lat="44.0799" lon="6.34148">
        <ele>1608</ele>
        <time>2015-06-21T08:24:25Z</time>
      </trkpt>
      <trkpt lat="44.07959" lon="6.34167">
        <ele>1596</ele>
        <time>2015-06-21T08:24:30Z</time>
      </trkpt>
      <trkpt lat="44.07939" lon="6.34182">
        <ele>1589</ele>
        <time>2015-06-21T08:24:34Z</time>
      </trkpt>
      <trkpt lat="44.07927" lon="6.3419">
        <ele>1591</ele>
        <time>2015-06-21T08:24:37Z</time>
      </trkpt>
      <trkpt lat="44.07911" lon="6.342">
        <ele>1591</ele>
        <time>2015-06-21T08:24:41Z</time>
      </trkpt>
      <trkpt lat="44.07894" lon="6.3421">
        <ele>1582</ele>
        <time>2015-06-21T08:24:47Z</time>
      </trkpt>
      <trkpt lat="44.07904" lon="6.34214">
        <ele>1582</ele>
        <time>2015-06-21T08:24:54Z</time>
      </trkpt>
      <trkpt lat="44.0793" lon="6.34215">
        <ele>1582</ele>
        <time>2015-06-21T08:25:00Z</time>
      </trkpt>
      <trkpt lat="44.07955" lon="6.3421">
        <ele>1581</ele>
        <time>2015-06-21T08:25:06Z</time>
      </trkpt>
      <trkpt lat="44.0797" lon="6.34207">
        <ele>1587</ele>
        <time>2015-06-21T08:25:09Z</time>
      </trkpt>
      <trkpt lat="44.07993" lon="6.34199">
        <ele>1588</ele>
        <time>2015-06-21T08:25:14Z</time>
      </trkpt>
      <trkpt lat="44.08017" lon="6.34193">
        <ele>1586</ele>
        <time>2015-06-21T08:25:19Z</time>
      </trkpt>
      <trkpt lat="44.08026" lon="6.34201">
        <ele>1586</ele>
        <time>2015-06-21T08:25:22Z</time>
      </trkpt>
      <trkpt lat="44.08039" lon="6.34206">
        <ele>1586</ele>
        <time>2015-06-21T08:25:25Z</time>
      </trkpt>
      <trkpt lat="44.08052" lon="6.34209">
        <ele>1572</ele>
        <time>2015-06-21T08:25:28Z</time>
      </trkpt>
      <trkpt lat="44.08085" lon="6.3422">
        <ele>1572</ele>
        <time>2015-06-21T08:25:34Z</time>
      </trkpt>
      <trkpt lat="44.08101" lon="6.34229">
        <ele>1574</ele>
        <time>2015-06-21T08:25:37Z</time>
      </trkpt>
      <trkpt lat="44.08133" lon="6.34242">
        <ele>1566</ele>
        <time>2015-06-21T08:25:42Z</time>
      </trkpt>
      <trkpt lat="44.08156" lon="6.34254">
        <ele>1567</ele>
        <time>2015-06-21T08:25:46Z</time>
      </trkpt>
      <trkpt lat="44.08183" lon="6.34261">
        <ele>1571</ele>
        <time>2015-06-21T08:25:51Z</time>
      </trkpt>
      <trkpt lat="44.08201" lon="6.34268">
        <ele>1561</ele>
        <time>2015-06-21T08:25:55Z</time>
      </trkpt>
      <trkpt lat="44.08212" lon="6.34271">
        <ele>1559</ele>
        <time>2015-06-21T08:25:58Z</time>
      </trkpt>
      <trkpt lat="44.08248" lon="6.34282">
        <ele>1555</ele>
        <time>2015-06-21T08:26:03Z</time>
      </trkpt>
      <trkpt lat="44.08284" lon="6.34285">
        <ele>1554</ele>
        <time>2015-06-21T08:26:08Z</time>
      </trkpt>
      <trkpt lat="44.08303" lon="6.34288">
        <ele>1553</ele>
        <time>2015-06-21T08:26:11Z</time>
      </trkpt>
      <trkpt lat="44.08318" lon="6.3429">
        <ele>1553</ele>
        <time>2015-06-21T08:26:14Z</time>
      </trkpt>
      <trkpt lat="44.08344" lon="6.34293">
        <ele>1537</ele>
        <time>2015-06-21T08:26:18Z</time>
      </trkpt>
      <trkpt lat="44.08367" lon="6.34295">
        <ele>1533</ele>
        <time>2015-06-21T08:26:21Z</time>
      </trkpt>
      <trkpt lat="44.08416" lon="6.343">
        <ele>1529</ele>
        <time>2015-06-21T08:26:28Z</time>
      </trkpt>
      <trkpt lat="44.08454" lon="6.34304">
        <ele>1528</ele>
        <time>2015-06-21T08:26:34Z</time>
      </trkpt>
      <trkpt lat="44.08493" lon="6.3431">
        <ele>1526</ele>
        <time>2015-06-21T08:26:40Z</time>
      </trkpt>
      <trkpt lat="44.08519" lon="6.34316">
        <ele>1533</ele>
        <time>2015-06-21T08:26:44Z</time>
      </trkpt>
      <trkpt lat="44.08549" lon="6.34325">
        <ele>1522</ele>
        <time>2015-06-21T08:26:49Z</time>
      </trkpt>
      <trkpt lat="44.08574" lon="6.34337">
        <ele>1525</ele>
        <time>2015-06-21T08:26:53Z</time>
      </trkpt>
      <trkpt lat="44.08594" lon="6.34347">
        <ele>1525</ele>
        <time>2015-06-21T08:26:56Z</time>
      </trkpt>
      <trkpt lat="44.08641" lon="6.34368">
        <ele>1514</ele>
        <time>2015-06-21T08:27:03Z</time>
      </trkpt>
      <trkpt lat="44.08675" lon="6.34378">
        <ele>1506</ele>
        <time>2015-06-21T08:27:08Z</time>
      </trkpt>
      <trkpt lat="44.08694" lon="6.34383">
        <ele>1510</ele>
        <time>2015-06-21T08:27:12Z</time>
      </trkpt>
      <trkpt lat="44.08716" lon="6.34388">
        <ele>1510</ele>
        <time>2015-06-21T08:27:16Z</time>
      </trkpt>
      <trkpt lat="44.08755" lon="6.34396">
        <ele>1512</ele>
        <time>2015-06-21T08:27:23Z</time>
      </trkpt>
      <trkpt lat="44.0878" lon="6.34398">
        <ele>1512</ele>
        <time>2015-06-21T08:27:27Z</time>
      </trkpt>
      <trkpt lat="44.08816" lon="6.34403">
        <ele>1499</ele>
        <time>2015-06-21T08:27:33Z</time>
      </trkpt>
      <trkpt lat="44.08845" lon="6.34406">
        <ele>1496</ele>
        <time>2015-06-21T08:27:38Z</time>
      </trkpt>
      <trkpt lat="44.0888" lon="6.34405">
        <ele>1494</ele>
        <time>2015-06-21T08:27:45Z</time>
      </trkpt>
      <trkpt lat="44.08912" lon="6.3441">
        <ele>1492</ele>
        <time>2015-06-21T08:27:51Z</time>
      </trkpt>
      <trkpt lat="44.08916" lon="6.34413">
        <ele>1492</ele>
        <time>2015-06-21T08:27:54Z</time>
      </trkpt>
      <trkpt lat="44.08907" lon="6.34416">
        <ele>1492</ele>
        <time>2015-06-21T08:27:58Z</time>
      </trkpt>
      <trkpt lat="44.0887" lon="6.34425">
        <ele>1495</ele>
        <time>2015-06-21T08:28:04Z</time>
      </trkpt>
      <trkpt lat="44.0885" lon="6.34433">
        <ele>1486</ele>
        <time>2015-06-21T08:28:07Z</time>
      </trkpt>
      <trkpt lat="44.08822" lon="6.34441">
        <ele>1482</ele>
        <time>2015-06-21T08:28:11Z</time>
      </trkpt>
      <trkpt lat="44.08807" lon="6.34446">
        <ele>1486</ele>
        <time>2015-06-21T08:28:14Z</time>
      </trkpt>
      <trkpt lat="44.08792" lon="6.3445">
        <ele>1486</ele>
        <time>2015-06-21T08:28:17Z</time>
      </trkpt>
      <trkpt lat="44.08771" lon="6.34459">
        <ele>1472</ele>
        <time>2015-06-21T08:28:21Z</time>
      </trkpt>
      <trkpt lat="44.08747" lon="6.34467">
        <ele>1474</ele>
        <time>2015-06-21T08:28:25Z</time>
      </trkpt>
      <trkpt lat="44.08727" lon="6.34472">
        <ele>1479</ele>
        <time>2015-06-21T08:28:28Z</time>
      </trkpt>
      <trkpt lat="44.08698" lon="6.34482">
        <ele>1478</ele>
        <time>2015-06-21T08:28:32Z</time>
      </trkpt>
      <trkpt lat="44.08674" lon="6.34487">
        <ele>1462</ele>
        <time>2015-06-21T08:28:36Z</time>
      </trkpt>
      <trkpt lat="44.08647" lon="6.34494">
        <ele>1457</ele>
        <time>2015-06-21T08:28:41Z</time>
      </trkpt>
      <trkpt lat="44.08621" lon="6.345">
        <ele>1455</ele>
        <time>2015-06-21T08:28:45Z</time>
      </trkpt>
      <trkpt lat="44.08599" lon="6.34505">
        <ele>1455</ele>
        <time>2015-06-21T08:28:48Z</time>
      </trkpt>
      <trkpt lat="44.08563" lon="6.3451">
        <ele>1453</ele>
        <time>2015-06-21T08:28:53Z</time>
      </trkpt>
      <trkpt lat="44.08542" lon="6.34514">
        <ele>1444</ele>
        <time>2015-06-21T08:28:56Z</time>
      </trkpt>
      <trkpt lat="44.08518" lon="6.34519">
        <ele>1439</ele>
        <time>2015-06-21T08:29:00Z</time>
      </trkpt>
      <trkpt lat="44.08485" lon="6.34523">
        <ele>1440</ele>
        <time>2015-06-21T08:29:06Z</time>
      </trkpt>
      <trkpt lat="44.08455" lon="6.3453">
        <ele>1438</ele>
        <time>2015-06-21T08:29:11Z</time>
      </trkpt>
      <trkpt lat="44.08436" lon="6.34534">
        <ele>1438</ele>
        <time>2015-06-21T08:29:14Z</time>
      </trkpt>
      <trkpt lat="44.08386" lon="6.34547">
        <ele>1433</ele>
        <time>2015-06-21T08:29:21Z</time>
      </trkpt>
      <trkpt lat="44.08367" lon="6.34555">
        <ele>1432</ele>
        <time>2015-06-21T08:29:24Z</time>
      </trkpt>
      <trkpt lat="44.08332" lon="6.34571">
        <ele>1419</ele>
        <time>2015-06-21T08:29:29Z</time>
      </trkpt>
      <trkpt lat="44.0831" lon="6.34581">
        <ele>1420</ele>
        <time>2015-06-21T08:29:33Z</time>
      </trkpt>
      <trkpt lat="44.08284" lon="6.34593">
        <ele>1425</ele>
        <time>2015-06-21T08:29:39Z</time>
      </trkpt>
      <trkpt lat="44.08267" lon="6.34599">
        <ele>1410</ele>
        <time>2015-06-21T08:29:42Z</time>
      </trkpt>
      <trkpt lat="44.08228" lon="6.34615">
        <ele>1414</ele>
        <time>2015-06-21T08:29:48Z</time>
      </trkpt>
      <trkpt lat="44.08207" lon="6.34623">
        <ele>1414</ele>
        <time>2015-06-21T08:29:51Z</time>
      </trkpt>
      <trkpt lat="44.08191" lon="6.34629">
        <ele>1405</ele>
        <time>2015-06-21T08:29:54Z</time>
      </trkpt>
      <trkpt lat="44.08159" lon="6.34638">
        <ele>1407</ele>
        <time>2015-06-21T08:29:59Z</time>
      </trkpt>
      <trkpt lat="44.08114" lon="6.34649">
        <ele>1406</ele>
        <time>2015-06-21T08:30:06Z</time>
      </trkpt>
      <trkpt lat="44.08092" lon="6.34654">
        <ele>1393</ele>
        <time>2015-06-21T08:30:10Z</time>
      </trkpt>
      <trkpt lat="44.08094" lon="6.34659">
        <ele>1393</ele>
        <time>2015-06-21T08:30:15Z</time>
      </trkpt>
      <trkpt lat="44.08114" lon="6.34665">
        <ele>1395</ele>
        <time>2015-06-21T08:30:20Z</time>
      </trkpt>
      <trkpt lat="44.08134" lon="6.34669">
        <ele>1398</ele>
        <time>2015-06-21T08:30:24Z</time>
      </trkpt>
      <trkpt lat="44.08155" lon="6.34674">
        <ele>1398</ele>
        <time>2015-06-21T08:30:29Z</time>
      </trkpt>
      <trkpt lat="44.08173" lon="6.34677">
        <ele>1398</ele>
        <time>2015-06-21T08:30:33Z</time>
      </trkpt>
      <trkpt lat="44.08219" lon="6.34681">
        <ele>1386</ele>
        <time>2015-06-21T08:30:41Z</time>
      </trkpt>
      <trkpt lat="44.08252" lon="6.34678">
        <ele>1394</ele>
        <time>2015-06-21T08:30:46Z</time>
      </trkpt>
      <trkpt lat="44.08268" lon="6.34678">
        <ele>1390</ele>
        <time>2015-06-21T08:30:50Z</time>
      </trkpt>
      <trkpt lat="44.08269" lon="6.34683">
        <ele>1380</ele>
        <time>2015-06-21T08:30:56Z</time>
      </trkpt>
      <trkpt lat="44.0824" lon="6.34696">
        <ele>1385</ele>
        <time>2015-06-21T08:31:04Z</time>
      </trkpt>
      <trkpt lat="44.08211" lon="6.34707">
        <ele>1386</ele>
        <time>2015-06-21T08:31:10Z</time>
      </trkpt>
      <trkpt lat="44.08186" lon="6.3472">
        <ele>1379</ele>
        <time>2015-06-21T08:31:14Z</time>
      </trkpt>
      <trkpt lat="44.08167" lon="6.34726">
        <ele>1379</ele>
        <time>2015-06-21T08:31:17Z</time>
      </trkpt>
      <trkpt lat="44.08149" lon="6.3473">
        <ele>1378</ele>
        <time>2015-06-21T08:31:20Z</time>
      </trkpt>
      <trkpt lat="44.08112" lon="6.34737">
        <ele>1368</ele>
        <time>2015-06-21T08:31:25Z</time>
      </trkpt>
      <trkpt lat="44.08091" lon="6.3474">
        <ele>1368</ele>
        <time>2015-06-21T08:31:28Z</time>
      </trkpt>
      <trkpt lat="44.0807" lon="6.34747">
        <ele>1368</ele>
        <time>2015-06-21T08:31:32Z</time>
      </trkpt>
      <trkpt lat="44.08047" lon="6.34749">
        <ele>1371</ele>
        <time>2015-06-21T08:31:36Z</time>
      </trkpt>
      <trkpt lat="44.08024" lon="6.34764">
        <ele>1365</ele>
        <time>2015-06-21T08:31:41Z</time>
      </trkpt>
      <trkpt lat="44.07991" lon="6.34784">
        <ele>1368</ele>
        <time>2015-06-21T08:31:47Z</time>
      </trkpt>
      <trkpt lat="44.07956" lon="6.34804">
        <ele>1361</ele>
        <time>2015-06-21T08:31:53Z</time>
      </trkpt>
      <trkpt lat="44.07945" lon="6.34813">
        <ele>1361</ele>
        <time>2015-06-21T08:31:57Z</time>
      </trkpt>
      <trkpt lat="44.07955" lon="6.34815">
        <ele>1361</ele>
        <time>2015-06-21T08:32:01Z</time>
      </trkpt>
      <trkpt lat="44.07974" lon="6.34817">
        <ele>1361</ele>
        <time>2015-06-21T08:32:05Z</time>
      </trkpt>
      <trkpt lat="44.07998" lon="6.34815">
        <ele>1359</ele>
        <time>2015-06-21T08:32:10Z</time>
      </trkpt>
      <trkpt lat="44.08025" lon="6.34813">
        <ele>1356</ele>
        <time>2015-06-21T08:32:15Z</time>
      </trkpt>
      <trkpt lat="44.08051" lon="6.34818">
        <ele>1353</ele>
        <time>2015-06-21T08:32:20Z</time>
      </trkpt>
      <trkpt lat="44.08079" lon="6.34825">
        <ele>1345</ele>
        <time>2015-06-21T08:32:24Z</time>
      </trkpt>
      <trkpt lat="44.08116" lon="6.3483">
        <ele>1344</ele>
        <time>2015-06-21T08:32:29Z</time>
      </trkpt>
      <trkpt lat="44.0814" lon="6.34828">
        <ele>1340</ele>
        <time>2015-06-21T08:32:32Z</time>
      </trkpt>
      <trkpt lat="44.08161" lon="6.34824">
        <ele>1334</ele>
        <time>2015-06-21T08:32:35Z</time>
      </trkpt>
      <trkpt lat="44.08184" lon="6.34829">
        <ele>1330</ele>
        <time>2015-06-21T08:32:38Z</time>
      </trkpt>
      <trkpt lat="44.08203" lon="6.3483">
        <ele>1330</ele>
        <time>2015-06-21T08:32:43Z</time>
      </trkpt>
      <trkpt lat="44.08198" lon="6.34834">
        <ele>1330</ele>
        <time>2015-06-21T08:32:46Z</time>
      </trkpt>
      <trkpt lat="44.08178" lon="6.34844">
        <ele>1334</ele>
        <time>2015-06-21T08:32:50Z</time>
      </trkpt>
      <trkpt lat="44.08144" lon="6.34864">
        <ele>1328</ele>
        <time>2015-06-21T08:32:55Z</time>
      </trkpt>
      <trkpt lat="44.08124" lon="6.34878">
        <ele>1321</ele>
        <time>2015-06-21T08:32:58Z</time>
      </trkpt>
      <trkpt lat="44.0808" lon="6.34894">
        <ele>1320</ele>
        <time>2015-06-21T08:33:04Z</time>
      </trkpt>
      <trkpt lat="44.08065" lon="6.34896">
        <ele>1323</ele>
        <time>2015-06-21T08:33:07Z</time>
      </trkpt>
      <trkpt lat="44.08063" lon="6.34899">
        <ele>1323</ele>
        <time>2015-06-21T08:33:10Z</time>
      </trkpt>
      <trkpt lat="44.08077" lon="6.34905">
        <ele>1307</ele>
        <time>2015-06-21T08:33:15Z</time>
      </trkpt>
      <trkpt lat="44.081" lon="6.34907">
        <ele>1304</ele>
        <time>2015-06-21T08:33:20Z</time>
      </trkpt>
      <trkpt lat="44.08129" lon="6.34905">
        <ele>1301</ele>
        <time>2015-06-21T08:33:25Z</time>
      </trkpt>
      <trkpt lat="44.08172" lon="6.34892">
        <ele>1309</ele>
        <time>2015-06-21T08:33:32Z</time>
      </trkpt>
      <trkpt lat="44.08189" lon="6.34889">
        <ele>1306</ele>
        <time>2015-06-21T08:33:35Z</time>
      </trkpt>
      <trkpt lat="44.08212" lon="6.34886">
        <ele>1307</ele>
        <time>2015-06-21T08:33:39Z</time>
      </trkpt>
      <trkpt lat="44.0824" lon="6.34881">
        <ele>1304</ele>
        <time>2015-06-21T08:33:44Z</time>
      </trkpt>
      <trkpt lat="44.08269" lon="6.34871">
        <ele>1308</ele>
        <time>2015-06-21T08:33:49Z</time>
      </trkpt>
      <trkpt lat="44.08301" lon="6.34872">
        <ele>1302</ele>
        <time>2015-06-21T08:33:55Z</time>
      </trkpt>
      <trkpt lat="44.08319" lon="6.34866">
        <ele>1302</ele>
        <time>2015-06-21T08:33:58Z</time>
      </trkpt>
      <trkpt lat="44.08355" lon="6.34861">
        <ele>1294</ele>
        <time>2015-06-21T08:34:04Z</time>
      </trkpt>
      <trkpt lat="44.08379" lon="6.34857">
        <ele>1295</ele>
        <time>2015-06-21T08:34:08Z</time>
      </trkpt>
      <trkpt lat="44.08402" lon="6.34861">
        <ele>1295</ele>
        <time>2015-06-21T08:34:12Z</time>
      </trkpt>
      <trkpt lat="44.0843" lon="6.34874">
        <ele>1296</ele>
        <time>2015-06-21T08:34:17Z</time>
      </trkpt>
      <trkpt lat="44.08458" lon="6.3488">
        <ele>1282</ele>
        <time>2015-06-21T08:34:22Z</time>
      </trkpt>
      <trkpt lat="44.08494" lon="6.34887">
        <ele>1283</ele>
        <time>2015-06-21T08:34:28Z</time>
      </trkpt>
      <trkpt lat="44.08511" lon="6.34906">
        <ele>1275</ele>
        <time>2015-06-21T08:34:32Z</time>
      </trkpt>
      <trkpt lat="44.08537" lon="6.3492">
        <ele>1280</ele>
        <time>2015-06-21T08:34:37Z</time>
      </trkpt>
      <trkpt lat="44.08563" lon="6.34928">
        <ele>1283</ele>
        <time>2015-06-21T08:34:42Z</time>
      </trkpt>
      <trkpt lat="44.08589" lon="6.3493">
        <ele>1283</ele>
        <time>2015-06-21T08:34:46Z</time>
      </trkpt>
      <trkpt lat="44.08609" lon="6.34931">
        <ele>1271</ele>
        <time>2015-06-21T08:34:49Z</time>
      </trkpt>
      <trkpt lat="44.08628" lon="6.34934">
        <ele>1270</ele>
        <time>2015-06-21T08:34:52Z</time>
      </trkpt>
      <trkpt lat="44.08653" lon="6.34932">
        <ele>1268</ele>
        <time>2015-06-21T08:34:57Z</time>
      </trkpt>
      <trkpt lat="44.08671" lon="6.3493">
        <ele>1279</ele>
        <time>2015-06-21T08:35:01Z</time>
      </trkpt>
      <trkpt lat="44.0867" lon="6.34934">
        <ele>1268</ele>
        <time>2015-06-21T08:35:06Z</time>
      </trkpt>
      <trkpt lat="44.08656" lon="6.34944">
        <ele>1268</ele>
        <time>2015-06-21T08:35:10Z</time>
      </trkpt>
      <trkpt lat="44.08634" lon="6.34954">
        <ele>1270</ele>
        <time>2015-06-21T08:35:14Z</time>
      </trkpt>
      <trkpt lat="44.08613" lon="6.34963">
        <ele>1259</ele>
        <time>2015-06-21T08:35:18Z</time>
      </trkpt>
      <trkpt lat="44.08587" lon="6.34974">
        <ele>1259</ele>
        <time>2015-06-21T08:35:22Z</time>
      </trkpt>
      <trkpt lat="44.08575" lon="6.34977">
        <ele>1259</ele>
        <time>2015-06-21T08:35:26Z</time>
      </trkpt>
      <trkpt lat="44.08586" lon="6.34979">
        <ele>1259</ele>
        <time>2015-06-21T08:35:31Z</time>
      </trkpt>
      <trkpt lat="44.08597" lon="6.34977">
        <ele>1259</ele>
        <time>2015-06-21T08:35:34Z</time>
      </trkpt>
      <trkpt lat="44.08599" lon="6.34981">
        <ele>1259</ele>
        <time>2015-06-21T08:35:37Z</time>
      </trkpt>
      <trkpt lat="44.08592" lon="6.34983">
        <ele>1259</ele>
        <time>2015-06-21T08:35:41Z</time>
      </trkpt>
      <trkpt lat="44.08558" lon="6.34994">
        <ele>1247</ele>
        <time>2015-06-21T08:35:48Z</time>
      </trkpt>
      <trkpt lat="44.0854" lon="6.34996">
        <ele>1246</ele>
        <time>2015-06-21T08:35:51Z</time>
      </trkpt>
      <trkpt lat="44.08544" lon="6.35002">
        <ele>1247</ele>
        <time>2015-06-21T08:35:56Z</time>
      </trkpt>
      <trkpt lat="44.08546" lon="6.35006">
        <ele>1247</ele>
        <time>2015-06-21T08:35:59Z</time>
      </trkpt>
      <trkpt lat="44.08537" lon="6.35007">
        <ele>1246</ele>
        <time>2015-06-21T08:36:03Z</time>
      </trkpt>
      <trkpt lat="44.0851" lon="6.35008">
        <ele>1248</ele>
        <time>2015-06-21T08:36:08Z</time>
      </trkpt>
      <trkpt lat="44.08484" lon="6.35013">
        <ele>1243</ele>
        <time>2015-06-21T08:36:12Z</time>
      </trkpt>
      <trkpt lat="44.08463" lon="6.35001">
        <ele>1243</ele>
        <time>2015-06-21T08:36:16Z</time>
      </trkpt>
      <trkpt lat="44.08448" lon="6.34995">
        <ele>1239</ele>
        <time>2015-06-21T08:36:19Z</time>
      </trkpt>
      <trkpt lat="44.08425" lon="6.34999">
        <ele>1234</ele>
        <time>2015-06-21T08:36:23Z</time>
      </trkpt>
      <trkpt lat="44.08424" lon="6.35001">
        <ele>1234</ele>
        <time>2015-06-21T08:36:26Z</time>
      </trkpt>
      <trkpt lat="44.08436" lon="6.35002">
        <ele>1239</ele>
        <time>2015-06-21T08:36:31Z</time>
      </trkpt>
      <trkpt lat="44.0845" lon="6.35013">
        <ele>1239</ele>
        <time>2015-06-21T08:36:35Z</time>
      </trkpt>
      <trkpt lat="44.08459" lon="6.35023">
        <ele>1234</ele>
        <time>2015-06-21T08:36:38Z</time>
      </trkpt>
      <trkpt lat="44.08473" lon="6.35032">
        <ele>1234</ele>
        <time>2015-06-21T08:36:41Z</time>
      </trkpt>
      <trkpt lat="44.08491" lon="6.35043">
        <ele>1224</ele>
        <time>2015-06-21T08:36:45Z</time>
      </trkpt>
      <trkpt lat="44.08507" lon="6.3505">
        <ele>1224</ele>
        <time>2015-06-21T08:36:48Z</time>
      </trkpt>
      <trkpt lat="44.08548" lon="6.35056">
        <ele>1228</ele>
        <time>2015-06-21T08:36:54Z</time>
      </trkpt>
      <trkpt lat="44.08572" lon="6.35066">
        <ele>1226</ele>
        <time>2015-06-21T08:36:59Z</time>
      </trkpt>
      <trkpt lat="44.08565" lon="6.35066">
        <ele>1228</ele>
        <time>2015-06-21T08:37:03Z</time>
      </trkpt>
      <trkpt lat="44.08537" lon="6.35067">
        <ele>1226</ele>
        <time>2015-06-21T08:37:09Z</time>
      </trkpt>
      <trkpt lat="44.08514" lon="6.35076">
        <ele>1213</ele>
        <time>2015-06-21T08:37:14Z</time>
      </trkpt>
      <trkpt lat="44.08511" lon="6.3508">
        <ele>1211</ele>
        <time>2015-06-21T08:37:17Z</time>
      </trkpt>
      <trkpt lat="44.0853" lon="6.35079">
        <ele>1213</ele>
        <time>2015-06-21T08:37:23Z</time>
      </trkpt>
      <trkpt lat="44.0855" lon="6.35084">
        <ele>1216</ele>
        <time>2015-06-21T08:37:27Z</time>
      </trkpt>
      <trkpt lat="44.08584" lon="6.35091">
        <ele>1216</ele>
        <time>2015-06-21T08:37:33Z</time>
      </trkpt>
      <trkpt lat="44.08604" lon="6.35092">
        <ele>1213</ele>
        <time>2015-06-21T08:37:36Z</time>
      </trkpt>
      <trkpt lat="44.08639" lon="6.35094">
        <ele>1212</ele>
        <time>2015-06-21T08:37:41Z</time>
      </trkpt>
      <trkpt lat="44.0866" lon="6.35096">
        <ele>1214</ele>
        <time>2015-06-21T08:37:44Z</time>
      </trkpt>
      <trkpt lat="44.08684" lon="6.351">
        <ele>1211</ele>
        <time>2015-06-21T08:37:48Z</time>
      </trkpt>
      <trkpt lat="44.08688" lon="6.35122">
        <ele>1211</ele>
        <time>2015-06-21T08:37:52Z</time>
      </trkpt>
      <trkpt lat="44.08683" lon="6.35152">
        <ele>1205</ele>
        <time>2015-06-21T08:37:56Z</time>
      </trkpt>
      <trkpt lat="44.08691" lon="6.35168">
        <ele>1203</ele>
        <time>2015-06-21T08:37:59Z</time>
      </trkpt>
      <trkpt lat="44.08719" lon="6.35196">
        <ele>1208</ele>
        <time>2015-06-21T08:38:05Z</time>
      </trkpt>
      <trkpt lat="44.08739" lon="6.35212">
        <ele>1213</ele>
        <time>2015-06-21T08:38:09Z</time>
      </trkpt>
      <trkpt lat="44.08742" lon="6.3522">
        <ele>1213</ele>
        <time>2015-06-21T08:38:13Z</time>
      </trkpt>
      <trkpt lat="44.08743" lon="6.35229">
        <ele>1213</ele>
        <time>2015-06-21T08:38:19Z</time>
      </trkpt>
      <trkpt lat="44.08743" lon="6.35235">
        <ele>1213</ele>
        <time>2015-06-21T08:38:23Z</time>
      </trkpt>
      <trkpt lat="44.08742" lon="6.35245">
        <ele>1213</ele>
        <time>2015-06-21T08:38:30Z</time>
      </trkpt>
      <trkpt lat="44.08738" lon="6.3525">
        <ele>1213</ele>
        <time>2015-06-21T08:38:36Z</time>
      </trkpt>
      <trkpt lat="44.0873" lon="6.35249">
        <ele>1210</ele>
        <time>2015-06-21T08:38:45Z</time>
      </trkpt>
      <trkpt lat="44.08723" lon="6.35251">
        <ele>1210</ele>
        <time>2015-06-21T08:38:54Z</time>
      </trkpt>
      <trkpt lat="44.08713" lon="6.3525">
        <ele>1210</ele>
        <time>2015-06-21T08:39:03Z</time>
      </trkpt>
      <trkpt lat="44.08708" lon="6.35249">
        <ele>1207</ele>
        <time>2015-06-21T08:39:08Z</time>
      </trkpt>
      <trkpt lat="44.087" lon="6.35253">
        <ele>1207</ele>
        <time>2015-06-21T08:39:16Z</time>
      </trkpt>
      <trkpt lat="44.08686" lon="6.35273">
        <ele>1214</ele>
        <time>2015-06-21T08:39:27Z</time>
      </trkpt>
      <trkpt lat="44.08678" lon="6.35289">
        <ele>1212</ele>
        <time>2015-06-21T08:39:35Z</time>
      </trkpt>
      <trkpt lat="44.08672" lon="6.35302">
        <ele>1219</ele>
        <time>2015-06-21T08:39:42Z</time>
      </trkpt>
      <trkpt lat="44.08658" lon="6.3532">
        <ele>1223</ele>
        <time>2015-06-21T08:39:51Z</time>
      </trkpt>
      <trkpt lat="44.08649" lon="6.35336">
        <ele>1220</ele>
        <time>2015-06-21T08:39:58Z</time>
      </trkpt>
      <trkpt lat="44.08636" lon="6.35357">
        <ele>1222</ele>
        <time>2015-06-21T08:40:07Z</time>
      </trkpt>
      <trkpt lat="44.08627" lon="6.3537">
        <ele>1222</ele>
        <time>2015-06-21T08:40:13Z</time>
      </trkpt>
      <trkpt lat="44.08619" lon="6.35386">
        <ele>1220</ele>
        <time>2015-06-21T08:40:20Z</time>
      </trkpt>
      <trkpt lat="44.08622" lon="6.35394">
        <ele>1220</ele>
        <time>2015-06-21T08:40:26Z</time>
      </trkpt>
      <trkpt lat="44.08646" lon="6.35383">
        <ele>1226</ele>
        <time>2015-06-21T08:40:37Z</time>
      </trkpt>
      <trkpt lat="44.08669" lon="6.35374">
        <ele>1228</ele>
        <time>2015-06-21T08:40:47Z</time>
      </trkpt>
      <trkpt lat="44.08685" lon="6.35371">
        <ele>1230</ele>
        <time>2015-06-21T08:40:57Z</time>
      </trkpt>
      <trkpt lat="44.08701" lon="6.3537">
        <ele>1230</ele>
        <time>2015-06-21T08:41:08Z</time>
      </trkpt>
      <trkpt lat="44.08714" lon="6.3537">
        <ele>1234</ele>
        <time>2015-06-21T08:41:18Z</time>
      </trkpt>
      <trkpt lat="44.08726" lon="6.35372">
        <ele>1234</ele>
        <time>2015-06-21T08:41:27Z</time>
      </trkpt>
      <trkpt lat="44.08739" lon="6.35373">
        <ele>1239</ele>
        <time>2015-06-21T08:41:35Z</time>
      </trkpt>
      <trkpt lat="44.08756" lon="6.35371">
        <ele>1239</ele>
        <time>2015-06-21T08:41:45Z</time>
      </trkpt>
      <trkpt lat="44.08773" lon="6.3537">
        <ele>1241</ele>
        <time>2015-06-21T08:41:54Z</time>
      </trkpt>
      <trkpt lat="44.08795" lon="6.35367">
        <ele>1247</ele>
        <time>2015-06-21T08:42:07Z</time>
      </trkpt>
      <trkpt lat="44.08805" lon="6.35367">
        <ele>1247</ele>
        <time>2015-06-21T08:42:13Z</time>
      </trkpt>
      <trkpt lat="44.08806" lon="6.3538">
        <ele>1262</ele>
        <time>2015-06-21T08:42:20Z</time>
      </trkpt>
      <trkpt lat="44.08789" lon="6.35395">
        <ele>1254</ele>
        <time>2015-06-21T08:42:32Z</time>
      </trkpt>
      <trkpt lat="44.08775" lon="6.35401">
        <ele>1254</ele>
        <time>2015-06-21T08:42:41Z</time>
      </trkpt>
      <trkpt lat="44.08762" lon="6.3541">
        <ele>1262</ele>
        <time>2015-06-21T08:42:49Z</time>
      </trkpt>
      <trkpt lat="44.08752" lon="6.35418">
        <ele>1262</ele>
        <time>2015-06-21T08:42:55Z</time>
      </trkpt>
      <trkpt lat="44.08741" lon="6.35431">
        <ele>1274</ele>
        <time>2015-06-21T08:43:03Z</time>
      </trkpt>
      <trkpt lat="44.08727" lon="6.35447">
        <ele>1263</ele>
        <time>2015-06-21T08:43:13Z</time>
      </trkpt>
      <trkpt lat="44.08714" lon="6.35462">
        <ele>1273</ele>
        <time>2015-06-21T08:43:21Z</time>
      </trkpt>
      <trkpt lat="44.087" lon="6.35486">
        <ele>1262</ele>
        <time>2015-06-21T08:43:32Z</time>
      </trkpt>
      <trkpt lat="44.08686" lon="6.35509">
        <ele>1271</ele>
        <time>2015-06-21T08:43:43Z</time>
      </trkpt>
      <trkpt lat="44.08671" lon="6.3553">
        <ele>1268</ele>
        <time>2015-06-21T08:43:54Z</time>
      </trkpt>
      <trkpt lat="44.0866" lon="6.35549">
        <ele>1277</ele>
        <time>2015-06-21T08:44:03Z</time>
      </trkpt>
      <trkpt lat="44.08649" lon="6.35564">
        <ele>1267</ele>
        <time>2015-06-21T08:44:11Z</time>
      </trkpt>
      <trkpt lat="44.08641" lon="6.35575">
        <ele>1274</ele>
        <time>2015-06-21T08:44:17Z</time>
      </trkpt>
      <trkpt lat="44.08629" lon="6.35592">
        <ele>1274</ele>
        <time>2015-06-21T08:44:26Z</time>
      </trkpt>
      <trkpt lat="44.08617" lon="6.35604">
        <ele>1281</ele>
        <time>2015-06-21T08:44:34Z</time>
      </trkpt>
      <trkpt lat="44.08602" lon="6.35619">
        <ele>1281</ele>
        <time>2015-06-21T08:44:43Z</time>
      </trkpt>
      <trkpt lat="44.08587" lon="6.35632">
        <ele>1294</ele>
        <time>2015-06-21T08:44:52Z</time>
      </trkpt>
      <trkpt lat="44.08574" lon="6.35644">
        <ele>1294</ele>
        <time>2015-06-21T08:45:00Z</time>
      </trkpt>
      <trkpt lat="44.08558" lon="6.35656">
        <ele>1300</ele>
        <time>2015-06-21T08:45:08Z</time>
      </trkpt>
      <trkpt lat="44.0854" lon="6.3567">
        <ele>1294</ele>
        <time>2015-06-21T08:45:18Z</time>
      </trkpt>
      <trkpt lat="44.08526" lon="6.3568">
        <ele>1294</ele>
        <time>2015-06-21T08:45:26Z</time>
      </trkpt>
      <trkpt lat="44.08511" lon="6.35691">
        <ele>1298</ele>
        <time>2015-06-21T08:45:34Z</time>
      </trkpt>
      <trkpt lat="44.08495" lon="6.35703">
        <ele>1298</ele>
        <time>2015-06-21T08:45:43Z</time>
      </trkpt>
      <trkpt lat="44.0848" lon="6.35716">
        <ele>1302</ele>
        <time>2015-06-21T08:45:52Z</time>
      </trkpt>
      <trkpt lat="44.08463" lon="6.35729">
        <ele>1302</ele>
        <time>2015-06-21T08:46:02Z</time>
      </trkpt>
      <trkpt lat="44.0845" lon="6.35744">
        <ele>1305</ele>
        <time>2015-06-21T08:46:10Z</time>
      </trkpt>
      <trkpt lat="44.0844" lon="6.35757">
        <ele>1305</ele>
        <time>2015-06-21T08:46:16Z</time>
      </trkpt>
      <trkpt lat="44.08426" lon="6.35773">
        <ele>1310</ele>
        <time>2015-06-21T08:46:24Z</time>
      </trkpt>
      <trkpt lat="44.08416" lon="6.35779">
        <ele>1310</ele>
        <time>2015-06-21T08:46:30Z</time>
      </trkpt>
      <trkpt lat="44.08404" lon="6.35786">
        <ele>1310</ele>
        <time>2015-06-21T08:46:37Z</time>
      </trkpt>
      <trkpt lat="44.08392" lon="6.35793">
        <ele>1318</ele>
        <time>2015-06-21T08:46:43Z</time>
      </trkpt>
      <trkpt lat="44.08383" lon="6.35803">
        <ele>1318</ele>
        <time>2015-06-21T08:46:49Z</time>
      </trkpt>
      <trkpt lat="44.08374" lon="6.35815">
        <ele>1311</ele>
        <time>2015-06-21T08:46:54Z</time>
      </trkpt>
      <trkpt lat="44.08358" lon="6.35826">
        <ele>1327</ele>
        <time>2015-06-21T08:47:02Z</time>
      </trkpt>
      <trkpt lat="44.08341" lon="6.35837">
        <ele>1318</ele>
        <time>2015-06-21T08:47:10Z</time>
      </trkpt>
      <trkpt lat="44.08323" lon="6.3585">
        <ele>1333</ele>
        <time>2015-06-21T08:47:19Z</time>
      </trkpt>
      <trkpt lat="44.08306" lon="6.3586">
        <ele>1323</ele>
        <time>2015-06-21T08:47:28Z</time>
      </trkpt>
      <trkpt lat="44.08295" lon="6.35869">
        <ele>1323</ele>
        <time>2015-06-21T08:47:34Z</time>
      </trkpt>
      <trkpt lat="44.08283" lon="6.35879">
        <ele>1325</ele>
        <time>2015-06-21T08:47:41Z</time>
      </trkpt>
      <trkpt lat="44.08268" lon="6.35894">
        <ele>1325</ele>
        <time>2015-06-21T08:47:50Z</time>
      </trkpt>
      <trkpt lat="44.08256" lon="6.35904">
        <ele>1332</ele>
        <time>2015-06-21T08:47:57Z</time>
      </trkpt>
      <trkpt lat="44.08244" lon="6.35916">
        <ele>1332</ele>
        <time>2015-06-21T08:48:04Z</time>
      </trkpt>
      <trkpt lat="44.08229" lon="6.35929">
        <ele>1326</ele>
        <time>2015-06-21T08:48:13Z</time>
      </trkpt>
      <trkpt lat="44.08218" lon="6.35942">
        <ele>1337</ele>
        <time>2015-06-21T08:48:20Z</time>
      </trkpt>
      <trkpt lat="44.08207" lon="6.35956">
        <ele>1330</ele>
        <time>2015-06-21T08:48:27Z</time>
      </trkpt>
      <trkpt lat="44.08188" lon="6.35979">
        <ele>1337</ele>
        <time>2015-06-21T08:48:38Z</time>
      </trkpt>
      <trkpt lat="44.08175" lon="6.3599">
        <ele>1338</ele>
        <time>2015-06-21T08:48:45Z</time>
      </trkpt>
      <trkpt lat="44.08163" lon="6.36002">
        <ele>1338</ele>
        <time>2015-06-21T08:48:52Z</time>
      </trkpt>
      <trkpt lat="44.08151" lon="6.3601">
        <ele>1333</ele>
        <time>2015-06-21T08:48:58Z</time>
      </trkpt>
      <trkpt lat="44.08139" lon="6.36019">
        <ele>1345</ele>
        <time>2015-06-21T08:49:04Z</time>
      </trkpt>
      <trkpt lat="44.08129" lon="6.36027">
        <ele>1345</ele>
        <time>2015-06-21T08:49:10Z</time>
      </trkpt>
      <trkpt lat="44.08121" lon="6.36035">
        <ele>1340</ele>
        <time>2015-06-21T08:49:14Z</time>
      </trkpt>
      <trkpt lat="44.08107" lon="6.36054">
        <ele>1348</ele>
        <time>2015-06-21T08:49:22Z</time>
      </trkpt>
      <trkpt lat="44.08093" lon="6.36069">
        <ele>1336</ele>
        <time>2015-06-21T08:49:30Z</time>
      </trkpt>
      <trkpt lat="44.08082" lon="6.36081">
        <ele>1346</ele>
        <time>2015-06-21T08:49:37Z</time>
      </trkpt>
      <trkpt lat="44.08071" lon="6.36091">
        <ele>1346</ele>
        <time>2015-06-21T08:49:43Z</time>
      </trkpt>
      <trkpt lat="44.08058" lon="6.36104">
        <ele>1355</ele>
        <time>2015-06-21T08:49:50Z</time>
      </trkpt>
      <trkpt lat="44.0804" lon="6.36122">
        <ele>1348</ele>
        <time>2015-06-21T08:49:59Z</time>
      </trkpt>
      <trkpt lat="44.08019" lon="6.36142">
        <ele>1361</ele>
        <time>2015-06-21T08:50:10Z</time>
      </trkpt>
      <trkpt lat="44.08014" lon="6.36147">
        <ele>1361</ele>
        <time>2015-06-21T08:50:13Z</time>
      </trkpt>
      <trkpt lat="44.08001" lon="6.36157">
        <ele>1368</ele>
        <time>2015-06-21T08:50:20Z</time>
      </trkpt>
      <trkpt lat="44.07989" lon="6.36167">
        <ele>1368</ele>
        <time>2015-06-21T08:50:27Z</time>
      </trkpt>
      <trkpt lat="44.07977" lon="6.36175">
        <ele>1348</ele>
        <time>2015-06-21T08:50:34Z</time>
      </trkpt>
      <trkpt lat="44.07967" lon="6.36182">
        <ele>1361</ele>
        <time>2015-06-21T08:50:40Z</time>
      </trkpt>
      <trkpt lat="44.07956" lon="6.36189">
        <ele>1358</ele>
        <time>2015-06-21T08:50:46Z</time>
      </trkpt>
      <trkpt lat="44.07943" lon="6.36199">
        <ele>1358</ele>
        <time>2015-06-21T08:50:53Z</time>
      </trkpt>
      <trkpt lat="44.07929" lon="6.36206">
        <ele>1353</ele>
        <time>2015-06-21T08:51:01Z</time>
      </trkpt>
      <trkpt lat="44.07919" lon="6.3621">
        <ele>1368</ele>
        <time>2015-06-21T08:51:06Z</time>
      </trkpt>
      <trkpt lat="44.07906" lon="6.36216">
        <ele>1368</ele>
        <time>2015-06-21T08:51:13Z</time>
      </trkpt>
      <trkpt lat="44.07895" lon="6.36225">
        <ele>1360</ele>
        <time>2015-06-21T08:51:19Z</time>
      </trkpt>
      <trkpt lat="44.07882" lon="6.36238">
        <ele>1376</ele>
        <time>2015-06-21T08:51:26Z</time>
      </trkpt>
      <trkpt lat="44.07872" lon="6.36249">
        <ele>1368</ele>
        <time>2015-06-21T08:51:32Z</time>
      </trkpt>
      <trkpt lat="44.07854" lon="6.36261">
        <ele>1368</ele>
        <time>2015-06-21T08:51:41Z</time>
      </trkpt>
      <trkpt lat="44.07836" lon="6.3627">
        <ele>1379</ele>
        <time>2015-06-21T08:51:50Z</time>
      </trkpt>
      <trkpt lat="44.07818" lon="6.36278">
        <ele>1373</ele>
        <time>2015-06-21T08:51:59Z</time>
      </trkpt>
      <trkpt lat="44.07799" lon="6.36288">
        <ele>1373</ele>
        <time>2015-06-21T08:52:09Z</time>
      </trkpt>
      <trkpt lat="44.07782" lon="6.36297">
        <ele>1369</ele>
        <time>2015-06-21T08:52:18Z</time>
      </trkpt>
      <trkpt lat="44.07768" lon="6.36302">
        <ele>1369</ele>
        <time>2015-06-21T08:52:25Z</time>
      </trkpt>
      <trkpt lat="44.0775" lon="6.36314">
        <ele>1367</ele>
        <time>2015-06-21T08:52:34Z</time>
      </trkpt>
      <trkpt lat="44.07737" lon="6.36326">
        <ele>1380</ele>
        <time>2015-06-21T08:52:41Z</time>
      </trkpt>
      <trkpt lat="44.07723" lon="6.36337">
        <ele>1377</ele>
        <time>2015-06-21T08:52:48Z</time>
      </trkpt>
      <trkpt lat="44.07705" lon="6.3635">
        <ele>1387</ele>
        <time>2015-06-21T08:52:57Z</time>
      </trkpt>
      <trkpt lat="44.07699" lon="6.36354">
        <ele>1387</ele>
        <time>2015-06-21T08:53:00Z</time>
      </trkpt>
      <trkpt lat="44.07686" lon="6.36365">
        <ele>1387</ele>
        <time>2015-06-21T08:53:07Z</time>
      </trkpt>
      <trkpt lat="44.07668" lon="6.36376">
        <ele>1393</ele>
        <time>2015-06-21T08:53:16Z</time>
      </trkpt>
      <trkpt lat="44.07653" lon="6.36385">
        <ele>1393</ele>
        <time>2015-06-21T08:53:24Z</time>
      </trkpt>
      <trkpt lat="44.07641" lon="6.36397">
        <ele>1389</ele>
        <time>2015-06-21T08:53:31Z</time>
      </trkpt>
      <trkpt lat="44.07625" lon="6.3641">
        <ele>1392</ele>
        <time>2015-06-21T08:53:40Z</time>
      </trkpt>
      <trkpt lat="44.07627" lon="6.36424">
        <ele>1392</ele>
        <time>2015-06-21T08:53:45Z</time>
      </trkpt>
      <trkpt lat="44.07636" lon="6.36424">
        <ele>1392</ele>
        <time>2015-06-21T08:53:48Z</time>
      </trkpt>
      <trkpt lat="44.07662" lon="6.36408">
        <ele>1397</ele>
        <time>2015-06-21T08:53:55Z</time>
      </trkpt>
      <trkpt lat="44.07703" lon="6.36392">
        <ele>1393</ele>
        <time>2015-06-21T08:54:03Z</time>
      </trkpt>
      <trkpt lat="44.0773" lon="6.36385">
        <ele>1391</ele>
        <time>2015-06-21T08:54:08Z</time>
      </trkpt>
      <trkpt lat="44.07758" lon="6.36383">
        <ele>1392</ele>
        <time>2015-06-21T08:54:13Z</time>
      </trkpt>
      <trkpt lat="44.07776" lon="6.36382">
        <ele>1395</ele>
        <time>2015-06-21T08:54:16Z</time>
      </trkpt>
      <trkpt lat="44.07799" lon="6.3638">
        <ele>1395</ele>
        <time>2015-06-21T08:54:20Z</time>
      </trkpt>
      <trkpt lat="44.07818" lon="6.36375">
        <ele>1397</ele>
        <time>2015-06-21T08:54:23Z</time>
      </trkpt>
      <trkpt lat="44.07835" lon="6.36365">
        <ele>1393</ele>
        <time>2015-06-21T08:54:26Z</time>
      </trkpt>
      <trkpt lat="44.07877" lon="6.36322">
        <ele>1383</ele>
        <time>2015-06-21T08:54:34Z</time>
      </trkpt>
      <trkpt lat="44.07911" lon="6.3629">
        <ele>1389</ele>
        <time>2015-06-21T08:54:40Z</time>
      </trkpt>
      <trkpt lat="44.0795" lon="6.36256">
        <ele>1385</ele>
        <time>2015-06-21T08:54:47Z</time>
      </trkpt>
      <trkpt lat="44.07976" lon="6.36246">
        <ele>1388</ele>
        <time>2015-06-21T08:54:53Z</time>
      </trkpt>
      <trkpt lat="44.08008" lon="6.36238">
        <ele>1400</ele>
        <time>2015-06-21T08:55:03Z</time>
      </trkpt>
      <trkpt lat="44.08034" lon="6.36224">
        <ele>1400</ele>
        <time>2015-06-21T08:55:12Z</time>
      </trkpt>
      <trkpt lat="44.08049" lon="6.36213">
        <ele>1406</ele>
        <time>2015-06-21T08:55:18Z</time>
      </trkpt>
      <trkpt lat="44.08068" lon="6.36203">
        <ele>1393</ele>
        <time>2015-06-21T08:55:25Z</time>
      </trkpt>
      <trkpt lat="44.08083" lon="6.36194">
        <ele>1407</ele>
        <time>2015-06-21T08:55:31Z</time>
      </trkpt>
      <trkpt lat="44.081" lon="6.36186">
        <ele>1414</ele>
        <time>2015-06-21T08:55:38Z</time>
      </trkpt>
      <trkpt lat="44.08116" lon="6.36176">
        <ele>1402</ele>
        <time>2015-06-21T08:55:45Z</time>
      </trkpt>
      <trkpt lat="44.08131" lon="6.36171">
        <ele>1407</ele>
        <time>2015-06-21T08:55:51Z</time>
      </trkpt>
      <trkpt lat="44.08152" lon="6.36164">
        <ele>1407</ele>
        <time>2015-06-21T08:55:59Z</time>
      </trkpt>
      <trkpt lat="44.08175" lon="6.36149">
        <ele>1405</ele>
        <time>2015-06-21T08:56:08Z</time>
      </trkpt>
      <trkpt lat="44.08193" lon="6.36132">
        <ele>1414</ele>
        <time>2015-06-21T08:56:15Z</time>
      </trkpt>
      <trkpt lat="44.08213" lon="6.36116">
        <ele>1412</ele>
        <time>2015-06-21T08:56:23Z</time>
      </trkpt>
      <trkpt lat="44.08237" lon="6.36102">
        <ele>1420</ele>
        <time>2015-06-21T08:56:32Z</time>
      </trkpt>
      <trkpt lat="44.08257" lon="6.36089">
        <ele>1411</ele>
        <time>2015-06-21T08:56:39Z</time>
      </trkpt>
      <trkpt lat="44.08286" lon="6.36074">
        <ele>1420</ele>
        <time>2015-06-21T08:56:47Z</time>
      </trkpt>
      <trkpt lat="44.08305" lon="6.36059">
        <ele>1418</ele>
        <time>2015-06-21T08:56:53Z</time>
      </trkpt>
      <trkpt lat="44.08334" lon="6.36039">
        <ele>1416</ele>
        <time>2015-06-21T08:57:01Z</time>
      </trkpt>
      <trkpt lat="44.08368" lon="6.3602">
        <ele>1425</ele>
        <time>2015-06-21T08:57:09Z</time>
      </trkpt>
      <trkpt lat="44.08403" lon="6.36003">
        <ele>1425</ele>
        <time>2015-06-21T08:57:17Z</time>
      </trkpt>
      <trkpt lat="44.0843" lon="6.35995">
        <ele>1425</ele>
        <time>2015-06-21T08:57:24Z</time>
      </trkpt>
      <trkpt lat="44.08456" lon="6.35988">
        <ele>1430</ele>
        <time>2015-06-21T08:57:31Z</time>
      </trkpt>
      <trkpt lat="44.08487" lon="6.35979">
        <ele>1426</ele>
        <time>2015-06-21T08:57:40Z</time>
      </trkpt>
      <trkpt lat="44.0851" lon="6.35971">
        <ele>1426</ele>
        <time>2015-06-21T08:57:48Z</time>
      </trkpt>
      <trkpt lat="44.08539" lon="6.35967">
        <ele>1430</ele>
        <time>2015-06-21T08:57:57Z</time>
      </trkpt>
      <trkpt lat="44.08559" lon="6.35961">
        <ele>1435</ele>
        <time>2015-06-21T08:58:03Z</time>
      </trkpt>
      <trkpt lat="44.08583" lon="6.35956">
        <ele>1422</ele>
        <time>2015-06-21T08:58:10Z</time>
      </trkpt>
      <trkpt lat="44.08607" lon="6.35955">
        <ele>1429</ele>
        <time>2015-06-21T08:58:17Z</time>
      </trkpt>
      <trkpt lat="44.08634" lon="6.35951">
        <ele>1435</ele>
        <time>2015-06-21T08:58:26Z</time>
      </trkpt>
      <trkpt lat="44.08665" lon="6.35945">
        <ele>1442</ele>
        <time>2015-06-21T08:58:36Z</time>
      </trkpt>
      <trkpt lat="44.08688" lon="6.3594">
        <ele>1441</ele>
        <time>2015-06-21T08:58:43Z</time>
      </trkpt>
      <trkpt lat="44.0871" lon="6.35945">
        <ele>1432</ele>
        <time>2015-06-21T08:58:50Z</time>
      </trkpt>
      <trkpt lat="44.08729" lon="6.35963">
        <ele>1447</ele>
        <time>2015-06-21T08:58:58Z</time>
      </trkpt>
      <trkpt lat="44.0874" lon="6.35981">
        <ele>1433</ele>
        <time>2015-06-21T08:59:04Z</time>
      </trkpt>
      <trkpt lat="44.08757" lon="6.36012">
        <ele>1446</ele>
        <time>2015-06-21T08:59:14Z</time>
      </trkpt>
      <trkpt lat="44.08772" lon="6.36035">
        <ele>1442</ele>
        <time>2015-06-21T08:59:22Z</time>
      </trkpt>
      <trkpt lat="44.0879" lon="6.36064">
        <ele>1455</ele>
        <time>2015-06-21T08:59:32Z</time>
      </trkpt>
      <trkpt lat="44.08806" lon="6.36085">
        <ele>1439</ele>
        <time>2015-06-21T08:59:40Z</time>
      </trkpt>
      <trkpt lat="44.08814" lon="6.36105">
        <ele>1447</ele>
        <time>2015-06-21T08:59:46Z</time>
      </trkpt>
      <trkpt lat="44.08813" lon="6.36128">
        <ele>1455</ele>
        <time>2015-06-21T08:59:52Z</time>
      </trkpt>
      <trkpt lat="44.08811" lon="6.36158">
        <ele>1458</ele>
        <time>2015-06-21T09:00:00Z</time>
      </trkpt>
      <trkpt lat="44.08806" lon="6.36193">
        <ele>1460</ele>
        <time>2015-06-21T09:00:09Z</time>
      </trkpt>
      <trkpt lat="44.08803" lon="6.36231">
        <ele>1464</ele>
        <time>2015-06-21T09:00:18Z</time>
      </trkpt>
      <trkpt lat="44.08804" lon="6.36261">
        <ele>1463</ele>
        <time>2015-06-21T09:00:25Z</time>
      </trkpt>
      <trkpt lat="44.08807" lon="6.36287">
        <ele>1464</ele>
        <time>2015-06-21T09:00:31Z</time>
      </trkpt>
      <trkpt lat="44.08815" lon="6.36316">
        <ele>1462</ele>
        <time>2015-06-21T09:00:38Z</time>
      </trkpt>
      <trkpt lat="44.08826" lon="6.36341">
        <ele>1460</ele>
        <time>2015-06-21T09:00:44Z</time>
      </trkpt>
      <trkpt lat="44.08845" lon="6.36367">
        <ele>1462</ele>
        <time>2015-06-21T09:00:51Z</time>
      </trkpt>
      <trkpt lat="44.0887" lon="6.36391">
        <ele>1461</ele>
        <time>2015-06-21T09:00:59Z</time>
      </trkpt>
      <trkpt lat="44.08888" lon="6.3641">
        <ele>1461</ele>
        <time>2015-06-21T09:01:05Z</time>
      </trkpt>
      <trkpt lat="44.08912" lon="6.36429">
        <ele>1455</ele>
        <time>2015-06-21T09:01:12Z</time>
      </trkpt>
      <trkpt lat="44.08936" lon="6.36443">
        <ele>1465</ele>
        <time>2015-06-21T09:01:19Z</time>
      </trkpt>
      <trkpt lat="44.08962" lon="6.36458">
        <ele>1457</ele>
        <time>2015-06-21T09:01:26Z</time>
      </trkpt>
      <trkpt lat="44.08978" lon="6.36468">
        <ele>1473</ele>
        <time>2015-06-21T09:01:30Z</time>
      </trkpt>
      <trkpt lat="44.08999" lon="6.36472">
        <ele>1463</ele>
        <time>2015-06-21T09:01:35Z</time>
      </trkpt>
      <trkpt lat="44.09013" lon="6.36476">
        <ele>1463</ele>
        <time>2015-06-21T09:01:38Z</time>
      </trkpt>
      <trkpt lat="44.09037" lon="6.36491">
        <ele>1474</ele>
        <time>2015-06-21T09:01:43Z</time>
      </trkpt>
      <trkpt lat="44.09056" lon="6.36499">
        <ele>1468</ele>
        <time>2015-06-21T09:01:47Z</time>
      </trkpt>
      <trkpt lat="44.09071" lon="6.36508">
        <ele>1468</ele>
        <time>2015-06-21T09:01:50Z</time>
      </trkpt>
      <trkpt lat="44.09087" lon="6.36513">
        <ele>1468</ele>
        <time>2015-06-21T09:01:53Z</time>
      </trkpt>
      <trkpt lat="44.09126" lon="6.36505">
        <ele>1477</ele>
        <time>2015-06-21T09:02:00Z</time>
      </trkpt>
      <trkpt lat="44.09139" lon="6.36518">
        <ele>1481</ele>
        <time>2015-06-21T09:02:03Z</time>
      </trkpt>
      <trkpt lat="44.09149" lon="6.36502">
        <ele>1477</ele>
        <time>2015-06-21T09:02:07Z</time>
      </trkpt>
      <trkpt lat="44.09146" lon="6.36451">
        <ele>1479</ele>
        <time>2015-06-21T09:02:16Z</time>
      </trkpt>
      <trkpt lat="44.09142" lon="6.36425">
        <ele>1484</ele>
        <time>2015-06-21T09:02:22Z</time>
      </trkpt>
      <trkpt lat="44.0913" lon="6.36388">
        <ele>1488</ele>
        <time>2015-06-21T09:02:32Z</time>
      </trkpt>
      <trkpt lat="44.09121" lon="6.36364">
        <ele>1477</ele>
        <time>2015-06-21T09:02:39Z</time>
      </trkpt>
      <trkpt lat="44.09117" lon="6.36341">
        <ele>1478</ele>
        <time>2015-06-21T09:02:46Z</time>
      </trkpt>
      <trkpt lat="44.09128" lon="6.36322">
        <ele>1489</ele>
        <time>2015-06-21T09:02:53Z</time>
      </trkpt>
      <trkpt lat="44.09142" lon="6.36299">
        <ele>1488</ele>
        <time>2015-06-21T09:03:01Z</time>
      </trkpt>
      <trkpt lat="44.09144" lon="6.36277">
        <ele>1488</ele>
        <time>2015-06-21T09:03:07Z</time>
      </trkpt>
      <trkpt lat="44.09141" lon="6.36245">
        <ele>1488</ele>
        <time>2015-06-21T09:03:15Z</time>
      </trkpt>
      <trkpt lat="44.09142" lon="6.36218">
        <ele>1487</ele>
        <time>2015-06-21T09:03:22Z</time>
      </trkpt>
      <trkpt lat="44.0915" lon="6.36192">
        <ele>1484</ele>
        <time>2015-06-21T09:03:29Z</time>
      </trkpt>
      <trkpt lat="44.09164" lon="6.36168">
        <ele>1496</ele>
        <time>2015-06-21T09:03:36Z</time>
      </trkpt>
      <trkpt lat="44.09163" lon="6.36139">
        <ele>1495</ele>
        <time>2015-06-21T09:03:41Z</time>
      </trkpt>
      <trkpt lat="44.09156" lon="6.36107">
        <ele>1494</ele>
        <time>2015-06-21T09:03:48Z</time>
      </trkpt>
      <trkpt lat="44.09163" lon="6.36096">
        <ele>1493</ele>
        <time>2015-06-21T09:03:52Z</time>
      </trkpt>
      <trkpt lat="44.09172" lon="6.36101">
        <ele>1494</ele>
        <time>2015-06-21T09:03:56Z</time>
      </trkpt>
      <trkpt lat="44.09178" lon="6.3613">
        <ele>1495</ele>
        <time>2015-06-21T09:04:07Z</time>
      </trkpt>
      <trkpt lat="44.0918" lon="6.36149">
        <ele>1495</ele>
        <time>2015-06-21T09:04:14Z</time>
      </trkpt>
      <trkpt lat="44.09182" lon="6.36166">
        <ele>1509</ele>
        <time>2015-06-21T09:04:21Z</time>
      </trkpt>
      <trkpt lat="44.09182" lon="6.36182">
        <ele>1510</ele>
        <time>2015-06-21T09:04:27Z</time>
      </trkpt>
      <trkpt lat="44.09175" lon="6.36201">
        <ele>1498</ele>
        <time>2015-06-21T09:04:34Z</time>
      </trkpt>
      <trkpt lat="44.09172" lon="6.36225">
        <ele>1499</ele>
        <time>2015-06-21T09:04:41Z</time>
      </trkpt>
      <trkpt lat="44.09177" lon="6.36253">
        <ele>1500</ele>
        <time>2015-06-21T09:04:50Z</time>
      </trkpt>
      <trkpt lat="44.09182" lon="6.36276">
        <ele>1512</ele>
        <time>2015-06-21T09:04:58Z</time>
      </trkpt>
      <trkpt lat="44.09188" lon="6.36292">
        <ele>1510</ele>
        <time>2015-06-21T09:05:04Z</time>
      </trkpt>
      <trkpt lat="44.09195" lon="6.36317">
        <ele>1510</ele>
        <time>2015-06-21T09:05:13Z</time>
      </trkpt>
      <trkpt lat="44.09203" lon="6.36331">
        <ele>1512</ele>
        <time>2015-06-21T09:05:19Z</time>
      </trkpt>
      <trkpt lat="44.09216" lon="6.36348">
        <ele>1519</ele>
        <time>2015-06-21T09:05:28Z</time>
      </trkpt>
      <trkpt lat="44.09226" lon="6.36364">
        <ele>1519</ele>
        <time>2015-06-21T09:05:36Z</time>
      </trkpt>
      <trkpt lat="44.09238" lon="6.36384">
        <ele>1524</ele>
        <time>2015-06-21T09:05:45Z</time>
      </trkpt>
      <trkpt lat="44.09243" lon="6.36403">
        <ele>1525</ele>
        <time>2015-06-21T09:05:52Z</time>
      </trkpt>
      <trkpt lat="44.09243" lon="6.36425">
        <ele>1525</ele>
        <time>2015-06-21T09:06:00Z</time>
      </trkpt>
      <trkpt lat="44.09246" lon="6.36446">
        <ele>1526</ele>
        <time>2015-06-21T09:06:08Z</time>
      </trkpt>
      <trkpt lat="44.09254" lon="6.36473">
        <ele>1529</ele>
        <time>2015-06-21T09:06:18Z</time>
      </trkpt>
      <trkpt lat="44.09256" lon="6.36495">
        <ele>1529</ele>
        <time>2015-06-21T09:06:27Z</time>
      </trkpt>
      <trkpt lat="44.09261" lon="6.36512">
        <ele>1529</ele>
        <time>2015-06-21T09:06:34Z</time>
      </trkpt>
      <trkpt lat="44.09266" lon="6.36535">
        <ele>1538</ele>
        <time>2015-06-21T09:06:43Z</time>
      </trkpt>
      <trkpt lat="44.09269" lon="6.36554">
        <ele>1537</ele>
        <time>2015-06-21T09:06:52Z</time>
      </trkpt>
      <trkpt lat="44.0927" lon="6.36578">
        <ele>1540</ele>
        <time>2015-06-21T09:07:02Z</time>
      </trkpt>
      <trkpt lat="44.09271" lon="6.366">
        <ele>1543</ele>
        <time>2015-06-21T09:07:10Z</time>
      </trkpt>
      <trkpt lat="44.09269" lon="6.36629">
        <ele>1543</ele>
        <time>2015-06-21T09:07:19Z</time>
      </trkpt>
      <trkpt lat="44.0926" lon="6.36653">
        <ele>1533</ele>
        <time>2015-06-21T09:07:27Z</time>
      </trkpt>
      <trkpt lat="44.09263" lon="6.36667">
        <ele>1533</ele>
        <time>2015-06-21T09:07:32Z</time>
      </trkpt>
      <trkpt lat="44.09272" lon="6.3667">
        <ele>1540</ele>
        <time>2015-06-21T09:07:36Z</time>
      </trkpt>
      <trkpt lat="44.09283" lon="6.3666">
        <ele>1540</ele>
        <time>2015-06-21T09:07:41Z</time>
      </trkpt>
      <trkpt lat="44.09298" lon="6.36643">
        <ele>1544</ele>
        <time>2015-06-21T09:07:47Z</time>
      </trkpt>
      <trkpt lat="44.09311" lon="6.36626">
        <ele>1544</ele>
        <time>2015-06-21T09:07:53Z</time>
      </trkpt>
      <trkpt lat="44.09329" lon="6.36604">
        <ele>1543</ele>
        <time>2015-06-21T09:08:00Z</time>
      </trkpt>
      <trkpt lat="44.09349" lon="6.36577">
        <ele>1546</ele>
        <time>2015-06-21T09:08:08Z</time>
      </trkpt>
      <trkpt lat="44.09361" lon="6.36563">
        <ele>1553</ele>
        <time>2015-06-21T09:08:13Z</time>
      </trkpt>
      <trkpt lat="44.09377" lon="6.36547">
        <ele>1547</ele>
        <time>2015-06-21T09:08:20Z</time>
      </trkpt>
      <trkpt lat="44.09395" lon="6.36528">
        <ele>1553</ele>
        <time>2015-06-21T09:08:28Z</time>
      </trkpt>
      <trkpt lat="44.09412" lon="6.36511">
        <ele>1553</ele>
        <time>2015-06-21T09:08:35Z</time>
      </trkpt>
      <trkpt lat="44.09433" lon="6.36488">
        <ele>1547</ele>
        <time>2015-06-21T09:08:43Z</time>
      </trkpt>
      <trkpt lat="44.09448" lon="6.36468">
        <ele>1554</ele>
        <time>2015-06-21T09:08:50Z</time>
      </trkpt>
      <trkpt lat="44.09463" lon="6.36447">
        <ele>1553</ele>
        <time>2015-06-21T09:08:57Z</time>
      </trkpt>
      <trkpt lat="44.09477" lon="6.36427">
        <ele>1560</ele>
        <time>2015-06-21T09:09:04Z</time>
      </trkpt>
      <trkpt lat="44.09498" lon="6.36401">
        <ele>1561</ele>
        <time>2015-06-21T09:09:13Z</time>
      </trkpt>
      <trkpt lat="44.09519" lon="6.3638">
        <ele>1552</ele>
        <time>2015-06-21T09:09:21Z</time>
      </trkpt>
      <trkpt lat="44.09529" lon="6.3636">
        <ele>1563</ele>
        <time>2015-06-21T09:09:27Z</time>
      </trkpt>
      <trkpt lat="44.09531" lon="6.36338">
        <ele>1571</ele>
        <time>2015-06-21T09:09:32Z</time>
      </trkpt>
      <trkpt lat="44.09539" lon="6.36319">
        <ele>1584</ele>
        <time>2015-06-21T09:09:37Z</time>
      </trkpt>
      <trkpt lat="44.09558" lon="6.36305">
        <ele>1570</ele>
        <time>2015-06-21T09:09:44Z</time>
      </trkpt>
      <trkpt lat="44.0957" lon="6.363">
        <ele>1567</ele>
        <time>2015-06-21T09:09:49Z</time>
      </trkpt>
      <trkpt lat="44.09588" lon="6.36298">
        <ele>1567</ele>
        <time>2015-06-21T09:09:55Z</time>
      </trkpt>
      <trkpt lat="44.09608" lon="6.36296">
        <ele>1565</ele>
        <time>2015-06-21T09:10:02Z</time>
      </trkpt>
      <trkpt lat="44.09629" lon="6.36286">
        <ele>1568</ele>
        <time>2015-06-21T09:10:10Z</time>
      </trkpt>
      <trkpt lat="44.09644" lon="6.36272">
        <ele>1568</ele>
        <time>2015-06-21T09:10:17Z</time>
      </trkpt>
      <trkpt lat="44.09662" lon="6.36254">
        <ele>1570</ele>
        <time>2015-06-21T09:10:25Z</time>
      </trkpt>
      <trkpt lat="44.09683" lon="6.36241">
        <ele>1566</ele>
        <time>2015-06-21T09:10:33Z</time>
      </trkpt>
      <trkpt lat="44.09695" lon="6.36224">
        <ele>1574</ele>
        <time>2015-06-21T09:10:39Z</time>
      </trkpt>
      <trkpt lat="44.09707" lon="6.36209">
        <ele>1574</ele>
        <time>2015-06-21T09:10:46Z</time>
      </trkpt>
      <trkpt lat="44.09721" lon="6.36206">
        <ele>1580</ele>
        <time>2015-06-21T09:10:52Z</time>
      </trkpt>
      <trkpt lat="44.09737" lon="6.36201">
        <ele>1576</ele>
        <time>2015-06-21T09:10:58Z</time>
      </trkpt>
      <trkpt lat="44.09747" lon="6.36189">
        <ele>1576</ele>
        <time>2015-06-21T09:11:03Z</time>
      </trkpt>
      <trkpt lat="44.09766" lon="6.36163">
        <ele>1580</ele>
        <time>2015-06-21T09:11:13Z</time>
      </trkpt>
      <trkpt lat="44.09779" lon="6.36146">
        <ele>1587</ele>
        <time>2015-06-21T09:11:21Z</time>
      </trkpt>
      <trkpt lat="44.09802" lon="6.36133">
        <ele>1584</ele>
        <time>2015-06-21T09:11:31Z</time>
      </trkpt>
      <trkpt lat="44.09824" lon="6.36121">
        <ele>1588</ele>
        <time>2015-06-21T09:11:40Z</time>
      </trkpt>
      <trkpt lat="44.09842" lon="6.36107">
        <ele>1588</ele>
        <time>2015-06-21T09:11:49Z</time>
      </trkpt>
      <trkpt lat="44.09859" lon="6.36094">
        <ele>1595</ele>
        <time>2015-06-21T09:11:58Z</time>
      </trkpt>
      <trkpt lat="44.09866" lon="6.36088">
        <ele>1595</ele>
        <time>2015-06-21T09:12:02Z</time>
      </trkpt>
      <trkpt lat="44.0988" lon="6.36076">
        <ele>1593</ele>
        <time>2015-06-21T09:12:09Z</time>
      </trkpt>
      <trkpt lat="44.09886" lon="6.36071">
        <ele>1593</ele>
        <time>2015-06-21T09:12:12Z</time>
      </trkpt>
      <trkpt lat="44.09904" lon="6.36058">
        <ele>1599</ele>
        <time>2015-06-21T09:12:21Z</time>
      </trkpt>
      <trkpt lat="44.0992" lon="6.36045">
        <ele>1599</ele>
        <time>2015-06-21T09:12:30Z</time>
      </trkpt>
      <trkpt lat="44.09935" lon="6.3604">
        <ele>1605</ele>
        <time>2015-06-21T09:12:37Z</time>
      </trkpt>
      <trkpt lat="44.09952" lon="6.36042">
        <ele>1597</ele>
        <time>2015-06-21T09:12:45Z</time>
      </trkpt>
      <trkpt lat="44.09964" lon="6.3604">
        <ele>1602</ele>
        <time>2015-06-21T09:12:51Z</time>
      </trkpt>
      <trkpt lat="44.09979" lon="6.36032">
        <ele>1602</ele>
        <time>2015-06-21T09:12:59Z</time>
      </trkpt>
      <trkpt lat="44.09983" lon="6.36026">
        <ele>1602</ele>
        <time>2015-06-21T09:13:02Z</time>
      </trkpt>
      <trkpt lat="44.09991" lon="6.36008">
        <ele>1604</ele>
        <time>2015-06-21T09:13:09Z</time>
      </trkpt>
      <trkpt lat="44.10002" lon="6.3599">
        <ele>1604</ele>
        <time>2015-06-21T09:13:16Z</time>
      </trkpt>
      <trkpt lat="44.10013" lon="6.35974">
        <ele>1612</ele>
        <time>2015-06-21T09:13:22Z</time>
      </trkpt>
      <trkpt lat="44.1002" lon="6.35963">
        <ele>1606</ele>
        <time>2015-06-21T09:13:26Z</time>
      </trkpt>
      <trkpt lat="44.10036" lon="6.35948">
        <ele>1617</ele>
        <time>2015-06-21T09:13:34Z</time>
      </trkpt>
      <trkpt lat="44.10059" lon="6.35932">
        <ele>1609</ele>
        <time>2015-06-21T09:13:44Z</time>
      </trkpt>
      <trkpt lat="44.10068" lon="6.3592">
        <ele>1620</ele>
        <time>2015-06-21T09:13:50Z</time>
      </trkpt>
      <trkpt lat="44.10072" lon="6.35914">
        <ele>1611</ele>
        <time>2015-06-21T09:13:53Z</time>
      </trkpt>
      <trkpt lat="44.10085" lon="6.35896">
        <ele>1622</ele>
        <time>2015-06-21T09:14:02Z</time>
      </trkpt>
      <trkpt lat="44.10099" lon="6.35882">
        <ele>1615</ele>
        <time>2015-06-21T09:14:11Z</time>
      </trkpt>
      <trkpt lat="44.10111" lon="6.35879">
        <ele>1615</ele>
        <time>2015-06-21T09:14:17Z</time>
      </trkpt>
      <trkpt lat="44.1013" lon="6.35882">
        <ele>1615</ele>
        <time>2015-06-21T09:14:27Z</time>
      </trkpt>
      <trkpt lat="44.10145" lon="6.35875">
        <ele>1627</ele>
        <time>2015-06-21T09:14:35Z</time>
      </trkpt>
      <trkpt lat="44.10161" lon="6.35864">
        <ele>1629</ele>
        <time>2015-06-21T09:14:44Z</time>
      </trkpt>
      <trkpt lat="44.10174" lon="6.35857">
        <ele>1629</ele>
        <time>2015-06-21T09:14:52Z</time>
      </trkpt>
      <trkpt lat="44.10192" lon="6.35849">
        <ele>1630</ele>
        <time>2015-06-21T09:15:02Z</time>
      </trkpt>
      <trkpt lat="44.10202" lon="6.35834">
        <ele>1638</ele>
        <time>2015-06-21T09:15:11Z</time>
      </trkpt>
      <trkpt lat="44.10212" lon="6.35826">
        <ele>1640</ele>
        <time>2015-06-21T09:15:18Z</time>
      </trkpt>
      <trkpt lat="44.10231" lon="6.35822">
        <ele>1640</ele>
        <time>2015-06-21T09:15:28Z</time>
      </trkpt>
      <trkpt lat="44.1025" lon="6.35823">
        <ele>1645</ele>
        <time>2015-06-21T09:15:38Z</time>
      </trkpt>
      <trkpt lat="44.10267" lon="6.35827">
        <ele>1640</ele>
        <time>2015-06-21T09:15:47Z</time>
      </trkpt>
      <trkpt lat="44.10288" lon="6.35823">
        <ele>1640</ele>
        <time>2015-06-21T09:15:59Z</time>
      </trkpt>
      <trkpt lat="44.10302" lon="6.35816">
        <ele>1648</ele>
        <time>2015-06-21T09:16:07Z</time>
      </trkpt>
      <trkpt lat="44.10311" lon="6.35811">
        <ele>1648</ele>
        <time>2015-06-21T09:16:14Z</time>
      </trkpt>
      <trkpt lat="44.1032" lon="6.35804">
        <ele>1646</ele>
        <time>2015-06-21T09:16:20Z</time>
      </trkpt>
      <trkpt lat="44.10335" lon="6.35796">
        <ele>1646</ele>
        <time>2015-06-21T09:16:28Z</time>
      </trkpt>
      <trkpt lat="44.1035" lon="6.3579">
        <ele>1657</ele>
        <time>2015-06-21T09:16:36Z</time>
      </trkpt>
      <trkpt lat="44.10356" lon="6.35787">
        <ele>1657</ele>
        <time>2015-06-21T09:16:40Z</time>
      </trkpt>
      <trkpt lat="44.10369" lon="6.35773">
        <ele>1657</ele>
        <time>2015-06-21T09:16:50Z</time>
      </trkpt>
      <trkpt lat="44.10384" lon="6.35763">
        <ele>1659</ele>
        <time>2015-06-21T09:16:59Z</time>
      </trkpt>
      <trkpt lat="44.10396" lon="6.35755">
        <ele>1659</ele>
        <time>2015-06-21T09:17:06Z</time>
      </trkpt>
      <trkpt lat="44.1041" lon="6.35743">
        <ele>1654</ele>
        <time>2015-06-21T09:17:15Z</time>
      </trkpt>
      <trkpt lat="44.10422" lon="6.35738">
        <ele>1654</ele>
        <time>2015-06-21T09:17:22Z</time>
      </trkpt>
      <trkpt lat="44.10432" lon="6.35725">
        <ele>1666</ele>
        <time>2015-06-21T09:17:29Z</time>
      </trkpt>
      <trkpt lat="44.10448" lon="6.35713">
        <ele>1666</ele>
        <time>2015-06-21T09:17:38Z</time>
      </trkpt>
      <trkpt lat="44.10462" lon="6.35712">
        <ele>1669</ele>
        <time>2015-06-21T09:17:44Z</time>
      </trkpt>
      <trkpt lat="44.1048" lon="6.35719">
        <ele>1669</ele>
        <time>2015-06-21T09:17:52Z</time>
      </trkpt>
      <trkpt lat="44.10495" lon="6.35727">
        <ele>1675</ele>
        <time>2015-06-21T09:17:58Z</time>
      </trkpt>
      <trkpt lat="44.10512" lon="6.3575">
        <ele>1669</ele>
        <time>2015-06-21T09:18:05Z</time>
      </trkpt>
      <trkpt lat="44.10528" lon="6.35768">
        <ele>1674</ele>
        <time>2015-06-21T09:18:11Z</time>
      </trkpt>
      <trkpt lat="44.10542" lon="6.35781">
        <ele>1678</ele>
        <time>2015-06-21T09:18:15Z</time>
      </trkpt>
      <trkpt lat="44.10564" lon="6.35806">
        <ele>1673</ele>
        <time>2015-06-21T09:18:22Z</time>
      </trkpt>
      <trkpt lat="44.1058" lon="6.3583">
        <ele>1670</ele>
        <time>2015-06-21T09:18:27Z</time>
      </trkpt>
      <trkpt lat="44.10596" lon="6.35833">
        <ele>1670</ele>
        <time>2015-06-21T09:18:31Z</time>
      </trkpt>
      <trkpt lat="44.10623" lon="6.35829">
        <ele>1671</ele>
        <time>2015-06-21T09:18:37Z</time>
      </trkpt>
      <trkpt lat="44.10644" lon="6.35828">
        <ele>1668</ele>
        <time>2015-06-21T09:18:41Z</time>
      </trkpt>
      <trkpt lat="44.10665" lon="6.35842">
        <ele>1664</ele>
        <time>2015-06-21T09:18:46Z</time>
      </trkpt>
      <trkpt lat="44.10679" lon="6.35848">
        <ele>1664</ele>
        <time>2015-06-21T09:18:51Z</time>
      </trkpt>
      <trkpt lat="44.1069" lon="6.35842">
        <ele>1657</ele>
        <time>2015-06-21T09:18:54Z</time>
      </trkpt>
      <trkpt lat="44.107" lon="6.35835">
        <ele>1657</ele>
        <time>2015-06-21T09:18:58Z</time>
      </trkpt>
      <trkpt lat="44.10715" lon="6.35813">
        <ele>1648</ele>
        <time>2015-06-21T09:19:02Z</time>
      </trkpt>
      <trkpt lat="44.10745" lon="6.35775">
        <ele>1643</ele>
        <time>2015-06-21T09:19:07Z</time>
      </trkpt>
      <trkpt lat="44.10771" lon="6.35741">
        <ele>1638</ele>
        <time>2015-06-21T09:19:11Z</time>
      </trkpt>
      <trkpt lat="44.10793" lon="6.35711">
        <ele>1623</ele>
        <time>2015-06-21T09:19:15Z</time>
      </trkpt>
      <trkpt lat="44.10811" lon="6.35687">
        <ele>1616</ele>
        <time>2015-06-21T09:19:20Z</time>
      </trkpt>
      <trkpt lat="44.10818" lon="6.35677">
        <ele>1609</ele>
        <time>2015-06-21T09:19:23Z</time>
      </trkpt>
      <trkpt lat="44.10821" lon="6.35675">
        <ele>1594</ele>
        <time>2015-06-21T09:19:27Z</time>
      </trkpt>
      <trkpt lat="44.10821" lon="6.35676">
        <ele>1594</ele>
        <time>2015-06-21T09:19:31Z</time>
      </trkpt>
      <trkpt lat="44.10824" lon="6.35692">
        <ele>1608</ele>
        <time>2015-06-21T09:19:36Z</time>
      </trkpt>
      <trkpt lat="44.10833" lon="6.3571">
        <ele>1621</ele>
        <time>2015-06-21T09:19:39Z</time>
      </trkpt>
      <trkpt lat="44.1085" lon="6.35726">
        <ele>1613</ele>
        <time>2015-06-21T09:19:43Z</time>
      </trkpt>
      <trkpt lat="44.10864" lon="6.3573">
        <ele>1613</ele>
        <time>2015-06-21T09:19:48Z</time>
      </trkpt>
      <trkpt lat="44.10855" lon="6.35721">
        <ele>1613</ele>
        <time>2015-06-21T09:19:53Z</time>
      </trkpt>
      <trkpt lat="44.10835" lon="6.35685">
        <ele>1608</ele>
        <time>2015-06-21T09:20:00Z</time>
      </trkpt>
      <trkpt lat="44.10845" lon="6.35695">
        <ele>1608</ele>
        <time>2015-06-21T09:20:08Z</time>
      </trkpt>
      <trkpt lat="44.10868" lon="6.35706">
        <ele>1596</ele>
        <time>2015-06-21T09:20:14Z</time>
      </trkpt>
      <trkpt lat="44.10891" lon="6.35708">
        <ele>1584</ele>
        <time>2015-06-21T09:20:20Z</time>
      </trkpt>
      <trkpt lat="44.10895" lon="6.357">
        <ele>1584</ele>
        <time>2015-06-21T09:20:23Z</time>
      </trkpt>
      <trkpt lat="44.10884" lon="6.35684">
        <ele>1584</ele>
        <time>2015-06-21T09:20:28Z</time>
      </trkpt>
      <trkpt lat="44.10864" lon="6.35675">
        <ele>1579</ele>
        <time>2015-06-21T09:20:32Z</time>
      </trkpt>
      <trkpt lat="44.1085" lon="6.35662">
        <ele>1579</ele>
        <time>2015-06-21T09:20:36Z</time>
      </trkpt>
      <trkpt lat="44.1084" lon="6.35658">
        <ele>1594</ele>
        <time>2015-06-21T09:20:39Z</time>
      </trkpt>
      <trkpt lat="44.10841" lon="6.35652">
        <ele>1582</ele>
        <time>2015-06-21T09:20:42Z</time>
      </trkpt>
      <trkpt lat="44.10852" lon="6.35642">
        <ele>1568</ele>
        <time>2015-06-21T09:20:46Z</time>
      </trkpt>
      <trkpt lat="44.10865" lon="6.35644">
        <ele>1568</ele>
        <time>2015-06-21T09:20:49Z</time>
      </trkpt>
      <trkpt lat="44.10877" lon="6.35642">
        <ele>1560</ele>
        <time>2015-06-21T09:20:52Z</time>
      </trkpt>
      <trkpt lat="44.1089" lon="6.35637">
        <ele>1560</ele>
        <time>2015-06-21T09:20:59Z</time>
      </trkpt>
      <trkpt lat="44.1089" lon="6.35641">
        <ele>1560</ele>
        <time>2015-06-21T09:21:06Z</time>
      </trkpt>
      <trkpt lat="44.10885" lon="6.35643">
        <ele>1560</ele>
        <time>2015-06-21T09:21:12Z</time>
      </trkpt>
      <trkpt lat="44.10873" lon="6.3564">
        <ele>1568</ele>
        <time>2015-06-21T09:21:16Z</time>
      </trkpt>
      <trkpt lat="44.10851" lon="6.35623">
        <ele>1559</ele>
        <time>2015-06-21T09:21:22Z</time>
      </trkpt>
      <trkpt lat="44.10836" lon="6.35617">
        <ele>1574</ele>
        <time>2015-06-21T09:21:27Z</time>
      </trkpt>
      <trkpt lat="44.10845" lon="6.35608">
        <ele>1574</ele>
        <time>2015-06-21T09:21:32Z</time>
      </trkpt>
      <trkpt lat="44.10841" lon="6.35601">
        <ele>1574</ele>
        <time>2015-06-21T09:21:35Z</time>
      </trkpt>
      <trkpt lat="44.10843" lon="6.35596">
        <ele>1564</ele>
        <time>2015-06-21T09:21:38Z</time>
      </trkpt>
      <trkpt lat="44.10857" lon="6.35591">
        <ele>1550</ele>
        <time>2015-06-21T09:21:42Z</time>
      </trkpt>
      <trkpt lat="44.10879" lon="6.35586">
        <ele>1538</ele>
        <time>2015-06-21T09:21:46Z</time>
      </trkpt>
      <trkpt lat="44.10919" lon="6.35577">
        <ele>1529</ele>
        <time>2015-06-21T09:21:52Z</time>
      </trkpt>
      <trkpt lat="44.10947" lon="6.35574">
        <ele>1526</ele>
        <time>2015-06-21T09:21:56Z</time>
      </trkpt>
      <trkpt lat="44.10964" lon="6.35572">
        <ele>1523</ele>
        <time>2015-06-21T09:21:59Z</time>
      </trkpt>
      <trkpt lat="44.10975" lon="6.35577">
        <ele>1523</ele>
        <time>2015-06-21T09:22:02Z</time>
      </trkpt>
      <trkpt lat="44.1097" lon="6.35578">
        <ele>1523</ele>
        <time>2015-06-21T09:22:05Z</time>
      </trkpt>
      <trkpt lat="44.10963" lon="6.35571">
        <ele>1523</ele>
        <time>2015-06-21T09:22:09Z</time>
      </trkpt>
      <trkpt lat="44.10936" lon="6.35551">
        <ele>1513</ele>
        <time>2015-06-21T09:22:15Z</time>
      </trkpt>
      <trkpt lat="44.10903" lon="6.35544">
        <ele>1518</ele>
        <time>2015-06-21T09:22:21Z</time>
      </trkpt>
      <trkpt lat="44.10917" lon="6.35537">
        <ele>1511</ele>
        <time>2015-06-21T09:22:27Z</time>
      </trkpt>
      <trkpt lat="44.10924" lon="6.35532">
        <ele>1511</ele>
        <time>2015-06-21T09:22:30Z</time>
      </trkpt>
      <trkpt lat="44.10915" lon="6.35525">
        <ele>1511</ele>
        <time>2015-06-21T09:22:37Z</time>
      </trkpt>
      <trkpt lat="44.10947" lon="6.35504">
        <ele>1496</ele>
        <time>2015-06-21T09:22:45Z</time>
      </trkpt>
      <trkpt lat="44.10963" lon="6.35496">
        <ele>1486</ele>
        <time>2015-06-21T09:22:48Z</time>
      </trkpt>
      <trkpt lat="44.10966" lon="6.35493">
        <ele>1486</ele>
        <time>2015-06-21T09:22:51Z</time>
      </trkpt>
      <trkpt lat="44.10953" lon="6.35494">
        <ele>1496</ele>
        <time>2015-06-21T09:22:55Z</time>
      </trkpt>
      <trkpt lat="44.1093" lon="6.35493">
        <ele>1506</ele>
        <time>2015-06-21T09:22:59Z</time>
      </trkpt>
      <trkpt lat="44.10922" lon="6.3548">
        <ele>1500</ele>
        <time>2015-06-21T09:23:03Z</time>
      </trkpt>
      <trkpt lat="44.10922" lon="6.35465">
        <ele>1500</ele>
        <time>2015-06-21T09:23:06Z</time>
      </trkpt>
      <trkpt lat="44.10922" lon="6.35441">
        <ele>1492</ele>
        <time>2015-06-21T09:23:09Z</time>
      </trkpt>
      <trkpt lat="44.10926" lon="6.35398">
        <ele>1478</ele>
        <time>2015-06-21T09:23:13Z</time>
      </trkpt>
      <trkpt lat="44.10929" lon="6.35388">
        <ele>1478</ele>
        <time>2015-06-21T09:23:17Z</time>
      </trkpt>
      <trkpt lat="44.10933" lon="6.35407">
        <ele>1466</ele>
        <time>2015-06-21T09:23:22Z</time>
      </trkpt>
      <trkpt lat="44.10937" lon="6.3543">
        <ele>1466</ele>
        <time>2015-06-21T09:23:25Z</time>
      </trkpt>
      <trkpt lat="44.10944" lon="6.35446">
        <ele>1476</ele>
        <time>2015-06-21T09:23:28Z</time>
      </trkpt>
      <trkpt lat="44.10962" lon="6.35441">
        <ele>1468</ele>
        <time>2015-06-21T09:23:32Z</time>
      </trkpt>
      <trkpt lat="44.10982" lon="6.35424">
        <ele>1458</ele>
        <time>2015-06-21T09:23:35Z</time>
      </trkpt>
      <trkpt lat="44.11003" lon="6.35417">
        <ele>1452</ele>
        <time>2015-06-21T09:23:40Z</time>
      </trkpt>
      <trkpt lat="44.10989" lon="6.35415">
        <ele>1452</ele>
        <time>2015-06-21T09:23:45Z</time>
      </trkpt>
      <trkpt lat="44.10972" lon="6.35408">
        <ele>1458</ele>
        <time>2015-06-21T09:23:49Z</time>
      </trkpt>
      <trkpt lat="44.10962" lon="6.354">
        <ele>1448</ele>
        <time>2015-06-21T09:23:52Z</time>
      </trkpt>
      <trkpt lat="44.10961" lon="6.35381">
        <ele>1448</ele>
        <time>2015-06-21T09:23:56Z</time>
      </trkpt>
      <trkpt lat="44.10971" lon="6.35361">
        <ele>1444</ele>
        <time>2015-06-21T09:23:59Z</time>
      </trkpt>
      <trkpt lat="44.10971" lon="6.35327">
        <ele>1440</ele>
        <time>2015-06-21T09:24:03Z</time>
      </trkpt>
      <trkpt lat="44.10965" lon="6.35305">
        <ele>1433</ele>
        <time>2015-06-21T09:24:06Z</time>
      </trkpt>
      <trkpt lat="44.10953" lon="6.35264">
        <ele>1437</ele>
        <time>2015-06-21T09:24:10Z</time>
      </trkpt>
      <trkpt lat="44.10954" lon="6.35221">
        <ele>1435</ele>
        <time>2015-06-21T09:24:14Z</time>
      </trkpt>
      <trkpt lat="44.10953" lon="6.35185">
        <ele>1431</ele>
        <time>2015-06-21T09:24:17Z</time>
      </trkpt>
      <trkpt lat="44.10951" lon="6.35121">
        <ele>1417</ele>
        <time>2015-06-21T09:24:22Z</time>
      </trkpt>
      <trkpt lat="44.10944" lon="6.35086">
        <ele>1409</ele>
        <time>2015-06-21T09:24:25Z</time>
      </trkpt>
      <trkpt lat="44.10932" lon="6.3504">
        <ele>1395</ele>
        <time>2015-06-21T09:24:30Z</time>
      </trkpt>
      <trkpt lat="44.10919" lon="6.34986">
        <ele>1395</ele>
        <time>2015-06-21T09:24:36Z</time>
      </trkpt>
      <trkpt lat="44.10911" lon="6.34955">
        <ele>1386</ele>
        <time>2015-06-21T09:24:40Z</time>
      </trkpt>
      <trkpt lat="44.10906" lon="6.34918">
        <ele>1378</ele>
        <time>2015-06-21T09:24:45Z</time>
      </trkpt>
      <trkpt lat="44.10902" lon="6.34892">
        <ele>1383</ele>
        <time>2015-06-21T09:24:48Z</time>
      </trkpt>
      <trkpt lat="44.10898" lon="6.34863">
        <ele>1378</ele>
        <time>2015-06-21T09:24:51Z</time>
      </trkpt>
      <trkpt lat="44.10897" lon="6.3484">
        <ele>1371</ele>
        <time>2015-06-21T09:24:54Z</time>
      </trkpt>
      <trkpt lat="44.10893" lon="6.34804">
        <ele>1365</ele>
        <time>2015-06-21T09:24:58Z</time>
      </trkpt>
      <trkpt lat="44.1089" lon="6.34752">
        <ele>1354</ele>
        <time>2015-06-21T09:25:02Z</time>
      </trkpt>
      <trkpt lat="44.10879" lon="6.34715">
        <ele>1347</ele>
        <time>2015-06-21T09:25:05Z</time>
      </trkpt>
      <trkpt lat="44.10857" lon="6.34668">
        <ele>1342</ele>
        <time>2015-06-21T09:25:09Z</time>
      </trkpt>
      <trkpt lat="44.10847" lon="6.34625">
        <ele>1348</ele>
        <time>2015-06-21T09:25:12Z</time>
      </trkpt>
      <trkpt lat="44.10845" lon="6.3456">
        <ele>1332</ele>
        <time>2015-06-21T09:25:16Z</time>
      </trkpt>
      <trkpt lat="44.10836" lon="6.34488">
        <ele>1327</ele>
        <time>2015-06-21T09:25:21Z</time>
      </trkpt>
      <trkpt lat="44.10837" lon="6.34449">
        <ele>1315</ele>
        <time>2015-06-21T09:25:24Z</time>
      </trkpt>
      <trkpt lat="44.10836" lon="6.34391">
        <ele>1308</ele>
        <time>2015-06-21T09:25:28Z</time>
      </trkpt>
      <trkpt lat="44.10824" lon="6.3433">
        <ele>1298</ele>
        <time>2015-06-21T09:25:34Z</time>
      </trkpt>
      <trkpt lat="44.10821" lon="6.34318">
        <ele>1291</ele>
        <time>2015-06-21T09:25:37Z</time>
      </trkpt>
      <trkpt lat="44.1082" lon="6.34316">
        <ele>1291</ele>
        <time>2015-06-21T09:25:40Z</time>
      </trkpt>
      <trkpt lat="44.1082" lon="6.34322">
        <ele>1298</ele>
        <time>2015-06-21T09:26:59Z</time>
      </trkpt>
      <trkpt lat="44.10818" lon="6.3431">
        <ele>1299</ele>
        <time>2015-06-21T09:27:03Z</time>
      </trkpt>
      <trkpt lat="44.10812" lon="6.3429">
        <ele>1287</ele>
        <time>2015-06-21T09:27:06Z</time>
      </trkpt>
      <trkpt lat="44.10812" lon="6.34274">
        <ele>1287</ele>
        <time>2015-06-21T09:27:10Z</time>
      </trkpt>
      <trkpt lat="44.10827" lon="6.34279">
        <ele>1283</ele>
        <time>2015-06-21T09:27:13Z</time>
      </trkpt>
      <trkpt lat="44.10868" lon="6.34293">
        <ele>1284</ele>
        <time>2015-06-21T09:27:19Z</time>
      </trkpt>
      <trkpt lat="44.10873" lon="6.34287">
        <ele>1279</ele>
        <time>2015-06-21T09:27:23Z</time>
      </trkpt>
      <trkpt lat="44.10864" lon="6.34274">
        <ele>1279</ele>
        <time>2015-06-21T09:27:27Z</time>
      </trkpt>
      <trkpt lat="44.10845" lon="6.34255">
        <ele>1274</ele>
        <time>2015-06-21T09:27:33Z</time>
      </trkpt>
      <trkpt lat="44.10833" lon="6.34246">
        <ele>1274</ele>
        <time>2015-06-21T09:27:36Z</time>
      </trkpt>
      <trkpt lat="44.10811" lon="6.34242">
        <ele>1278</ele>
        <time>2015-06-21T09:27:41Z</time>
      </trkpt>
      <trkpt lat="44.10791" lon="6.34235">
        <ele>1276</ele>
        <time>2015-06-21T09:27:45Z</time>
      </trkpt>
      <trkpt lat="44.10776" lon="6.34228">
        <ele>1276</ele>
        <time>2015-06-21T09:27:48Z</time>
      </trkpt>
      <trkpt lat="44.1076" lon="6.34217">
        <ele>1283</ele>
        <time>2015-06-21T09:27:51Z</time>
      </trkpt>
      <trkpt lat="44.1073" lon="6.34199">
        <ele>1280</ele>
        <time>2015-06-21T09:27:57Z</time>
      </trkpt>
      <trkpt lat="44.10702" lon="6.34177">
        <ele>1273</ele>
        <time>2015-06-21T09:28:03Z</time>
      </trkpt>
      <trkpt lat="44.10687" lon="6.34163">
        <ele>1273</ele>
        <time>2015-06-21T09:28:06Z</time>
      </trkpt>
      <trkpt lat="44.10669" lon="6.34146">
        <ele>1256</ele>
        <time>2015-06-21T09:28:10Z</time>
      </trkpt>
      <trkpt lat="44.1066" lon="6.34152">
        <ele>1256</ele>
        <time>2015-06-21T09:28:13Z</time>
      </trkpt>
      <trkpt lat="44.10659" lon="6.34165">
        <ele>1267</ele>
        <time>2015-06-21T09:28:16Z</time>
      </trkpt>
      <trkpt lat="44.10653" lon="6.34176">
        <ele>1267</ele>
        <time>2015-06-21T09:28:19Z</time>
      </trkpt>
      <trkpt lat="44.10639" lon="6.34188">
        <ele>1270</ele>
        <time>2015-06-21T09:28:23Z</time>
      </trkpt>
      <trkpt lat="44.10632" lon="6.34184">
        <ele>1270</ele>
        <time>2015-06-21T09:28:27Z</time>
      </trkpt>
      <trkpt lat="44.10619" lon="6.3419">
        <ele>1267</ele>
        <time>2015-06-21T09:28:30Z</time>
      </trkpt>
      <trkpt lat="44.10602" lon="6.34195">
        <ele>1267</ele>
        <time>2015-06-21T09:28:34Z</time>
      </trkpt>
      <trkpt lat="44.10589" lon="6.3419">
        <ele>1260</ele>
        <time>2015-06-21T09:28:38Z</time>
      </trkpt>
      <trkpt lat="44.10577" lon="6.34191">
        <ele>1260</ele>
        <time>2015-06-21T09:28:41Z</time>
      </trkpt>
      <trkpt lat="44.10562" lon="6.3419">
        <ele>1254</ele>
        <time>2015-06-21T09:28:45Z</time>
      </trkpt>
      <trkpt lat="44.10551" lon="6.34184">
        <ele>1254</ele>
        <time>2015-06-21T09:28:48Z</time>
      </trkpt>
      <trkpt lat="44.10567" lon="6.34169">
        <ele>1245</ele>
        <time>2015-06-21T09:28:54Z</time>
      </trkpt>
      <trkpt lat="44.10591" lon="6.34161">
        <ele>1250</ele>
        <time>2015-06-21T09:29:00Z</time>
      </trkpt>
      <trkpt lat="44.10608" lon="6.34149">
        <ele>1241</ele>
        <time>2015-06-21T09:29:05Z</time>
      </trkpt>
      <trkpt lat="44.10623" lon="6.34141">
        <ele>1241</ele>
        <time>2015-06-21T09:29:09Z</time>
      </trkpt>
      <trkpt lat="44.10617" lon="6.34134">
        <ele>1241</ele>
        <time>2015-06-21T09:29:15Z</time>
      </trkpt>
      <trkpt lat="44.10592" lon="6.34145">
        <ele>1239</ele>
        <time>2015-06-21T09:29:21Z</time>
      </trkpt>
      <trkpt lat="44.10571" lon="6.34139">
        <ele>1239</ele>
        <time>2015-06-21T09:29:25Z</time>
      </trkpt>
      <trkpt lat="44.10554" lon="6.34132">
        <ele>1235</ele>
        <time>2015-06-21T09:29:30Z</time>
      </trkpt>
      <trkpt lat="44.10562" lon="6.34126">
        <ele>1235</ele>
        <time>2015-06-21T09:29:33Z</time>
      </trkpt>
      <trkpt lat="44.10582" lon="6.34116">
        <ele>1227</ele>
        <time>2015-06-21T09:29:36Z</time>
      </trkpt>
      <trkpt lat="44.106" lon="6.341">
        <ele>1232</ele>
        <time>2015-06-21T09:29:40Z</time>
      </trkpt>
      <trkpt lat="44.10585" lon="6.341">
        <ele>1227</ele>
        <time>2015-06-21T09:29:47Z</time>
      </trkpt>
      <trkpt lat="44.10568" lon="6.34101">
        <ele>1224</ele>
        <time>2015-06-21T09:29:50Z</time>
      </trkpt>
      <trkpt lat="44.1056" lon="6.34097">
        <ele>1217</ele>
        <time>2015-06-21T09:29:53Z</time>
      </trkpt>
      <trkpt lat="44.10556" lon="6.34097">
        <ele>1217</ele>
        <time>2015-06-21T09:29:56Z</time>
      </trkpt>
      <trkpt lat="44.10549" lon="6.34094">
        <ele>1217</ele>
        <time>2015-06-21T09:30:01Z</time>
      </trkpt>
      <trkpt lat="44.10547" lon="6.34088">
        <ele>1217</ele>
        <time>2015-06-21T09:30:06Z</time>
      </trkpt>
      <trkpt lat="44.10544" lon="6.34086">
        <ele>1217</ele>
        <time>2015-06-21T09:30:11Z</time>
      </trkpt>
      <trkpt lat="44.10542" lon="6.34081">
        <ele>1217</ele>
        <time>2015-06-21T09:30:14Z</time>
      </trkpt>
      <trkpt lat="44.10548" lon="6.34069">
        <ele>1213</ele>
        <time>2015-06-21T09:30:18Z</time>
      </trkpt>
      <trkpt lat="44.10544" lon="6.34065">
        <ele>1213</ele>
        <time>2015-06-21T09:30:22Z</time>
      </trkpt>
      <trkpt lat="44.10532" lon="6.34062">
        <ele>1218</ele>
        <time>2015-06-21T09:30:26Z</time>
      </trkpt>
      <trkpt lat="44.10526" lon="6.34051">
        <ele>1218</ele>
        <time>2015-06-21T09:30:30Z</time>
      </trkpt>
      <trkpt lat="44.1052" lon="6.34044">
        <ele>1218</ele>
        <time>2015-06-21T09:30:33Z</time>
      </trkpt>
      <trkpt lat="44.10518" lon="6.34038">
        <ele>1213</ele>
        <time>2015-06-21T09:30:36Z</time>
      </trkpt>
      <trkpt lat="44.1052" lon="6.34033">
        <ele>1213</ele>
        <time>2015-06-21T09:30:42Z</time>
      </trkpt>
      <trkpt lat="44.1052" lon="6.34028">
        <ele>1213</ele>
        <time>2015-06-21T09:30:51Z</time>
      </trkpt>
      <trkpt lat="44.10522" lon="6.3402">
        <ele>1213</ele>
        <time>2015-06-21T09:30:55Z</time>
      </trkpt>
      <trkpt lat="44.10532" lon="6.34011">
        <ele>1210</ele>
        <time>2015-06-21T09:31:01Z</time>
      </trkpt>
      <trkpt lat="44.10533" lon="6.33988">
        <ele>1210</ele>
        <time>2015-06-21T09:31:05Z</time>
      </trkpt>
      <trkpt lat="44.10522" lon="6.33937">
        <ele>1206</ele>
        <time>2015-06-21T09:31:11Z</time>
      </trkpt>
      <trkpt lat="44.10523" lon="6.33912">
        <ele>1205</ele>
        <time>2015-06-21T09:31:16Z</time>
      </trkpt>
      <trkpt lat="44.10509" lon="6.33912">
        <ele>1209</ele>
        <time>2015-06-21T09:31:24Z</time>
      </trkpt>
      <trkpt lat="44.10508" lon="6.33909">
        <ele>1209</ele>
        <time>2015-06-21T09:31:29Z</time>
      </trkpt>
      <trkpt lat="44.10512" lon="6.33908">
        <ele>1209</ele>
        <time>2015-06-21T09:31:33Z</time>
      </trkpt>
      <trkpt lat="44.10514" lon="6.33902">
        <ele>1206</ele>
        <time>2015-06-21T09:31:38Z</time>
      </trkpt>
      <trkpt lat="44.10512" lon="6.33889">
        <ele>1212</ele>
        <time>2015-06-21T09:31:44Z</time>
      </trkpt>
      <trkpt lat="44.10517" lon="6.33873">
        <ele>1207</ele>
        <time>2015-06-21T09:31:51Z</time>
      </trkpt>
      <trkpt lat="44.10513" lon="6.33849">
        <ele>1213</ele>
        <time>2015-06-21T09:31:57Z</time>
      </trkpt>
      <trkpt lat="44.10507" lon="6.33836">
        <ele>1210</ele>
        <time>2015-06-21T09:32:02Z</time>
      </trkpt>
      <trkpt lat="44.10496" lon="6.33819">
        <ele>1208</ele>
        <time>2015-06-21T09:32:09Z</time>
      </trkpt>
      <trkpt lat="44.1049" lon="6.33815">
        <ele>1208</ele>
        <time>2015-06-21T09:32:12Z</time>
      </trkpt>
      <trkpt lat="44.10481" lon="6.33794">
        <ele>1214</ele>
        <time>2015-06-21T09:32:19Z</time>
      </trkpt>
      <trkpt lat="44.10477" lon="6.33786">
        <ele>1212</ele>
        <time>2015-06-21T09:32:22Z</time>
      </trkpt>
      <trkpt lat="44.10468" lon="6.33777">
        <ele>1212</ele>
        <time>2015-06-21T09:32:28Z</time>
      </trkpt>
      <trkpt lat="44.10465" lon="6.33777">
        <ele>1212</ele>
        <time>2015-06-21T09:32:32Z</time>
      </trkpt>
      <trkpt lat="44.10467" lon="6.33787">
        <ele>1212</ele>
        <time>2015-06-21T09:32:39Z</time>
      </trkpt>
      <trkpt lat="44.10468" lon="6.33797">
        <ele>1214</ele>
        <time>2015-06-21T09:32:45Z</time>
      </trkpt>
      <trkpt lat="44.10469" lon="6.33806">
        <ele>1214</ele>
        <time>2015-06-21T09:32:52Z</time>
      </trkpt>
      <trkpt lat="44.1047" lon="6.33814">
        <ele>1214</ele>
        <time>2015-06-21T09:32:59Z</time>
      </trkpt>
      <trkpt lat="44.10471" lon="6.33827">
        <ele>1218</ele>
        <time>2015-06-21T09:33:07Z</time>
      </trkpt>
      <trkpt lat="44.10469" lon="6.33831">
        <ele>1218</ele>
        <time>2015-06-21T09:33:12Z</time>
      </trkpt>
      <trkpt lat="44.10458" lon="6.33823">
        <ele>1228</ele>
        <time>2015-06-21T09:33:23Z</time>
      </trkpt>
      <trkpt lat="44.10452" lon="6.33818">
        <ele>1224</ele>
        <time>2015-06-21T09:33:30Z</time>
      </trkpt>
      <trkpt lat="44.10447" lon="6.33817">
        <ele>1224</ele>
        <time>2015-06-21T09:33:35Z</time>
      </trkpt>
      <trkpt lat="44.10442" lon="6.33815">
        <ele>1224</ele>
        <time>2015-06-21T09:33:41Z</time>
      </trkpt>
      <trkpt lat="44.10437" lon="6.33811">
        <ele>1224</ele>
        <time>2015-06-21T09:33:47Z</time>
      </trkpt>
      <trkpt lat="44.10431" lon="6.33809">
        <ele>1224</ele>
        <time>2015-06-21T09:33:54Z</time>
      </trkpt>
      <trkpt lat="44.10427" lon="6.33807">
        <ele>1235</ele>
        <time>2015-06-21T09:34:00Z</time>
      </trkpt>
      <trkpt lat="44.10419" lon="6.33803">
        <ele>1235</ele>
        <time>2015-06-21T09:34:08Z</time>
      </trkpt>
      <trkpt lat="44.10411" lon="6.33798">
        <ele>1235</ele>
        <time>2015-06-21T09:34:15Z</time>
      </trkpt>
      <trkpt lat="44.10406" lon="6.33796">
        <ele>1235</ele>
        <time>2015-06-21T09:34:21Z</time>
      </trkpt>
      <trkpt lat="44.10395" lon="6.33801">
        <ele>1244</ele>
        <time>2015-06-21T09:34:32Z</time>
      </trkpt>
      <trkpt lat="44.10393" lon="6.33797">
        <ele>1244</ele>
        <time>2015-06-21T09:34:35Z</time>
      </trkpt>
      <trkpt lat="44.10392" lon="6.3379">
        <ele>1240</ele>
        <time>2015-06-21T09:34:39Z</time>
      </trkpt>
      <trkpt lat="44.1039" lon="6.33783">
        <ele>1240</ele>
        <time>2015-06-21T09:34:44Z</time>
      </trkpt>
      <trkpt lat="44.10389" lon="6.33776">
        <ele>1240</ele>
        <time>2015-06-21T09:34:48Z</time>
      </trkpt>
      <trkpt lat="44.10382" lon="6.33768">
        <ele>1240</ele>
        <time>2015-06-21T09:34:55Z</time>
      </trkpt>
      <trkpt lat="44.10377" lon="6.33766">
        <ele>1240</ele>
        <time>2015-06-21T09:35:01Z</time>
      </trkpt>
      <trkpt lat="44.10372" lon="6.33759">
        <ele>1248</ele>
        <time>2015-06-21T09:35:10Z</time>
      </trkpt>
      <trkpt lat="44.10368" lon="6.33758">
        <ele>1248</ele>
        <time>2015-06-21T09:35:15Z</time>
      </trkpt>
      <trkpt lat="44.10363" lon="6.33757">
        <ele>1248</ele>
        <time>2015-06-21T09:35:19Z</time>
      </trkpt>
      <trkpt lat="44.10356" lon="6.33753">
        <ele>1248</ele>
        <time>2015-06-21T09:35:27Z</time>
      </trkpt>
      <trkpt lat="44.1035" lon="6.33745">
        <ele>1248</ele>
        <time>2015-06-21T09:35:36Z</time>
      </trkpt>
      <trkpt lat="44.10347" lon="6.3374">
        <ele>1260</ele>
        <time>2015-06-21T09:35:41Z</time>
      </trkpt>
      <trkpt lat="44.10346" lon="6.33729">
        <ele>1260</ele>
        <time>2015-06-21T09:35:47Z</time>
      </trkpt>
      <trkpt lat="44.10345" lon="6.33724">
        <ele>1260</ele>
        <time>2015-06-21T09:35:52Z</time>
      </trkpt>
      <trkpt lat="44.10343" lon="6.3372">
        <ele>1260</ele>
        <time>2015-06-21T09:35:59Z</time>
      </trkpt>
      <trkpt lat="44.10335" lon="6.33718">
        <ele>1260</ele>
        <time>2015-06-21T09:36:06Z</time>
      </trkpt>
      <trkpt lat="44.10332" lon="6.33712">
        <ele>1260</ele>
        <time>2015-06-21T09:36:12Z</time>
      </trkpt>
      <trkpt lat="44.10329" lon="6.33704">
        <ele>1259</ele>
        <time>2015-06-21T09:36:17Z</time>
      </trkpt>
      <trkpt lat="44.10329" lon="6.33699">
        <ele>1259</ele>
        <time>2015-06-21T09:36:20Z</time>
      </trkpt>
      <trkpt lat="44.10323" lon="6.3369">
        <ele>1259</ele>
        <time>2015-06-21T09:36:27Z</time>
      </trkpt>
      <trkpt lat="44.10323" lon="6.33684">
        <ele>1259</ele>
        <time>2015-06-21T09:36:30Z</time>
      </trkpt>
      <trkpt lat="44.10316" lon="6.33667">
        <ele>1266</ele>
        <time>2015-06-21T09:36:37Z</time>
      </trkpt>
      <trkpt lat="44.10313" lon="6.3366">
        <ele>1266</ele>
        <time>2015-06-21T09:36:40Z</time>
      </trkpt>
      <trkpt lat="44.10308" lon="6.33657">
        <ele>1266</ele>
        <time>2015-06-21T09:36:43Z</time>
      </trkpt>
      <trkpt lat="44.10304" lon="6.33643">
        <ele>1268</ele>
        <time>2015-06-21T09:36:49Z</time>
      </trkpt>
      <trkpt lat="44.10301" lon="6.33637">
        <ele>1268</ele>
        <time>2015-06-21T09:36:54Z</time>
      </trkpt>
      <trkpt lat="44.10302" lon="6.33636">
        <ele>1268</ele>
        <time>2015-06-21T09:36:59Z</time>
      </trkpt>
      <trkpt lat="44.10307" lon="6.33633">
        <ele>1268</ele>
        <time>2015-06-21T09:37:05Z</time>
      </trkpt>
      <trkpt lat="44.10308" lon="6.33633">
        <ele>1268</ele>
        <time>2015-06-21T09:37:10Z</time>
      </trkpt>
      <trkpt lat="44.10303" lon="6.33632">
        <ele>1268</ele>
        <time>2015-06-21T09:37:14Z</time>
      </trkpt>
      <trkpt lat="44.10299" lon="6.33621">
        <ele>1272</ele>
        <time>2015-06-21T09:37:20Z</time>
      </trkpt>
      <trkpt lat="44.10296" lon="6.33617">
        <ele>1272</ele>
        <time>2015-06-21T09:37:23Z</time>
      </trkpt>
      <trkpt lat="44.10298" lon="6.33614">
        <ele>1272</ele>
        <time>2015-06-21T09:37:28Z</time>
      </trkpt>
      <trkpt lat="44.10302" lon="6.33611">
        <ele>1272</ele>
        <time>2015-06-21T09:37:34Z</time>
      </trkpt>
      <trkpt lat="44.10302" lon="6.33608">
        <ele>1272</ele>
        <time>2015-06-21T09:37:42Z</time>
      </trkpt>
      <trkpt lat="44.10304" lon="6.336">
        <ele>1272</ele>
        <time>2015-06-21T09:37:48Z</time>
      </trkpt>
      <trkpt lat="44.1031" lon="6.33592">
        <ele>1277</ele>
        <time>2015-06-21T09:37:57Z</time>
      </trkpt>
      <trkpt lat="44.10314" lon="6.3359">
        <ele>1277</ele>
        <time>2015-06-21T09:38:02Z</time>
      </trkpt>
      <trkpt lat="44.10316" lon="6.33588">
        <ele>1277</ele>
        <time>2015-06-21T09:38:05Z</time>
      </trkpt>
      <trkpt lat="44.10314" lon="6.33585">
        <ele>1277</ele>
        <time>2015-06-21T09:38:10Z</time>
      </trkpt>
      <trkpt lat="44.10312" lon="6.33583">
        <ele>1277</ele>
        <time>2015-06-21T09:38:16Z</time>
      </trkpt>
      <trkpt lat="44.10311" lon="6.3358">
        <ele>1277</ele>
        <time>2015-06-21T09:38:20Z</time>
      </trkpt>
      <trkpt lat="44.10304" lon="6.33577">
        <ele>1277</ele>
        <time>2015-06-21T09:38:30Z</time>
      </trkpt>
      <trkpt lat="44.10302" lon="6.33575">
        <ele>1277</ele>
        <time>2015-06-21T09:38:34Z</time>
      </trkpt>
      <trkpt lat="44.10303" lon="6.33571">
        <ele>1277</ele>
        <time>2015-06-21T09:38:38Z</time>
      </trkpt>
      <trkpt lat="44.10308" lon="6.33561">
        <ele>1283</ele>
        <time>2015-06-21T09:38:45Z</time>
      </trkpt>
      <trkpt lat="44.10311" lon="6.3356">
        <ele>1283</ele>
        <time>2015-06-21T09:38:51Z</time>
      </trkpt>
      <trkpt lat="44.1031" lon="6.33559">
        <ele>1283</ele>
        <time>2015-06-21T09:38:55Z</time>
      </trkpt>
      <trkpt lat="44.10305" lon="6.33558">
        <ele>1283</ele>
        <time>2015-06-21T09:39:03Z</time>
      </trkpt>
      <trkpt lat="44.10298" lon="6.33545">
        <ele>1283</ele>
        <time>2015-06-21T09:39:11Z</time>
      </trkpt>
      <trkpt lat="44.10296" lon="6.33529">
        <ele>1287</ele>
        <time>2015-06-21T09:39:19Z</time>
      </trkpt>
      <trkpt lat="44.10295" lon="6.33524">
        <ele>1287</ele>
        <time>2015-06-21T09:39:22Z</time>
      </trkpt>
      <trkpt lat="44.10291" lon="6.33514">
        <ele>1289</ele>
        <time>2015-06-21T09:39:29Z</time>
      </trkpt>
      <trkpt lat="44.10291" lon="6.33496">
        <ele>1288</ele>
        <time>2015-06-21T09:39:35Z</time>
      </trkpt>
      <trkpt lat="44.10296" lon="6.33469">
        <ele>1286</ele>
        <time>2015-06-21T09:39:39Z</time>
      </trkpt>
      <trkpt lat="44.10308" lon="6.33454">
        <ele>1280</ele>
        <time>2015-06-21T09:39:45Z</time>
      </trkpt>
      <trkpt lat="44.10321" lon="6.33459">
        <ele>1284</ele>
        <time>2015-06-21T09:39:50Z</time>
      </trkpt>
      <trkpt lat="44.10334" lon="6.3346">
        <ele>1284</ele>
        <time>2015-06-21T09:39:53Z</time>
      </trkpt>
      <trkpt lat="44.10348" lon="6.33455">
        <ele>1276</ele>
        <time>2015-06-21T09:39:56Z</time>
      </trkpt>
      <trkpt lat="44.10364" lon="6.33447">
        <ele>1276</ele>
        <time>2015-06-21T09:39:59Z</time>
      </trkpt>
      <trkpt lat="44.10374" lon="6.33428">
        <ele>1273</ele>
        <time>2015-06-21T09:40:03Z</time>
      </trkpt>
      <trkpt lat="44.1039" lon="6.33404">
        <ele>1266</ele>
        <time>2015-06-21T09:40:08Z</time>
      </trkpt>
      <trkpt lat="44.10399" lon="6.33395">
        <ele>1266</ele>
        <time>2015-06-21T09:40:11Z</time>
      </trkpt>
      <trkpt lat="44.10404" lon="6.3338">
        <ele>1255</ele>
        <time>2015-06-21T09:40:15Z</time>
      </trkpt>
      <trkpt lat="44.10429" lon="6.33356">
        <ele>1258</ele>
        <time>2015-06-21T09:40:23Z</time>
      </trkpt>
      <trkpt lat="44.10438" lon="6.33344">
        <ele>1251</ele>
        <time>2015-06-21T09:40:27Z</time>
      </trkpt>
      <trkpt lat="44.10443" lon="6.33334">
        <ele>1251</ele>
        <time>2015-06-21T09:40:30Z</time>
      </trkpt>
      <trkpt lat="44.10451" lon="6.33312">
        <ele>1251</ele>
        <time>2015-06-21T09:40:34Z</time>
      </trkpt>
      <trkpt lat="44.10454" lon="6.33295">
        <ele>1251</ele>
        <time>2015-06-21T09:40:37Z</time>
      </trkpt>
      <trkpt lat="44.1046" lon="6.3328">
        <ele>1248</ele>
        <time>2015-06-21T09:40:40Z</time>
      </trkpt>
      <trkpt lat="44.10473" lon="6.33267">
        <ele>1248</ele>
        <time>2015-06-21T09:40:43Z</time>
      </trkpt>
      <trkpt lat="44.10485" lon="6.33247">
        <ele>1246</ele>
        <time>2015-06-21T09:40:46Z</time>
      </trkpt>
      <trkpt lat="44.10502" lon="6.33213">
        <ele>1246</ele>
        <time>2015-06-21T09:40:51Z</time>
      </trkpt>
      <trkpt lat="44.10507" lon="6.33189">
        <ele>1244</ele>
        <time>2015-06-21T09:40:57Z</time>
      </trkpt>
      <trkpt lat="44.10513" lon="6.33182">
        <ele>1244</ele>
        <time>2015-06-21T09:41:01Z</time>
      </trkpt>
      <trkpt lat="44.10526" lon="6.33176">
        <ele>1243</ele>
        <time>2015-06-21T09:41:06Z</time>
      </trkpt>
      <trkpt lat="44.10536" lon="6.33167">
        <ele>1243</ele>
        <time>2015-06-21T09:41:09Z</time>
      </trkpt>
      <trkpt lat="44.10547" lon="6.33152">
        <ele>1241</ele>
        <time>2015-06-21T09:41:12Z</time>
      </trkpt>
      <trkpt lat="44.10556" lon="6.33133">
        <ele>1241</ele>
        <time>2015-06-21T09:41:15Z</time>
      </trkpt>
      <trkpt lat="44.10553" lon="6.33116">
        <ele>1242</ele>
        <time>2015-06-21T09:41:19Z</time>
      </trkpt>
      <trkpt lat="44.10559" lon="6.3309">
        <ele>1241</ele>
        <time>2015-06-21T09:41:24Z</time>
      </trkpt>
      <trkpt lat="44.10561" lon="6.33063">
        <ele>1241</ele>
        <time>2015-06-21T09:41:28Z</time>
      </trkpt>
      <trkpt lat="44.10558" lon="6.33043">
        <ele>1241</ele>
        <time>2015-06-21T09:41:31Z</time>
      </trkpt>
      <trkpt lat="44.10553" lon="6.33024">
        <ele>1240</ele>
        <time>2015-06-21T09:41:34Z</time>
      </trkpt>
      <trkpt lat="44.10551" lon="6.33004">
        <ele>1237</ele>
        <time>2015-06-21T09:41:37Z</time>
      </trkpt>
      <trkpt lat="44.10546" lon="6.32986">
        <ele>1234</ele>
        <time>2015-06-21T09:41:40Z</time>
      </trkpt>
      <trkpt lat="44.10537" lon="6.32962">
        <ele>1233</ele>
        <time>2015-06-21T09:41:44Z</time>
      </trkpt>
      <trkpt lat="44.10524" lon="6.32952">
        <ele>1230</ele>
        <time>2015-06-21T09:41:48Z</time>
      </trkpt>
      <trkpt lat="44.10517" lon="6.32951">
        <ele>1230</ele>
        <time>2015-06-21T09:41:51Z</time>
      </trkpt>
      <trkpt lat="44.10509" lon="6.32915">
        <ele>1221</ele>
        <time>2015-06-21T09:41:58Z</time>
      </trkpt>
      <trkpt lat="44.10504" lon="6.32886">
        <ele>1217</ele>
        <time>2015-06-21T09:42:02Z</time>
      </trkpt>
      <trkpt lat="44.10502" lon="6.32862">
        <ele>1212</ele>
        <time>2015-06-21T09:42:05Z</time>
      </trkpt>
      <trkpt lat="44.105" lon="6.3284">
        <ele>1207</ele>
        <time>2015-06-21T09:42:08Z</time>
      </trkpt>
      <trkpt lat="44.10502" lon="6.32806">
        <ele>1202</ele>
        <time>2015-06-21T09:42:12Z</time>
      </trkpt>
      <trkpt lat="44.1051" lon="6.32765">
        <ele>1197</ele>
        <time>2015-06-21T09:42:17Z</time>
      </trkpt>
      <trkpt lat="44.10521" lon="6.32742">
        <ele>1200</ele>
        <time>2015-06-21T09:42:20Z</time>
      </trkpt>
      <trkpt lat="44.10524" lon="6.32724">
        <ele>1194</ele>
        <time>2015-06-21T09:42:23Z</time>
      </trkpt>
      <trkpt lat="44.10542" lon="6.327">
        <ele>1195</ele>
        <time>2015-06-21T09:42:29Z</time>
      </trkpt>
      <trkpt lat="44.10554" lon="6.32655">
        <ele>1192</ele>
        <time>2015-06-21T09:42:35Z</time>
      </trkpt>
      <trkpt lat="44.10545" lon="6.32632">
        <ele>1190</ele>
        <time>2015-06-21T09:42:38Z</time>
      </trkpt>
      <trkpt lat="44.10546" lon="6.32602">
        <ele>1186</ele>
        <time>2015-06-21T09:42:42Z</time>
      </trkpt>
      <trkpt lat="44.10542" lon="6.32579">
        <ele>1183</ele>
        <time>2015-06-21T09:42:46Z</time>
      </trkpt>
      <trkpt lat="44.10538" lon="6.32553">
        <ele>1178</ele>
        <time>2015-06-21T09:42:50Z</time>
      </trkpt>
      <trkpt lat="44.1053" lon="6.32527">
        <ele>1175</ele>
        <time>2015-06-21T09:42:57Z</time>
      </trkpt>
      <trkpt lat="44.10538" lon="6.32501">
        <ele>1171</ele>
        <time>2015-06-21T09:43:01Z</time>
      </trkpt>
      <trkpt lat="44.10535" lon="6.32488">
        <ele>1171</ele>
        <time>2015-06-21T09:43:04Z</time>
      </trkpt>
      <trkpt lat="44.10531" lon="6.32455">
        <ele>1164</ele>
        <time>2015-06-21T09:43:10Z</time>
      </trkpt>
      <trkpt lat="44.10512" lon="6.32434">
        <ele>1154</ele>
        <time>2015-06-21T09:43:16Z</time>
      </trkpt>
      <trkpt lat="44.10507" lon="6.32417">
        <ele>1153</ele>
        <time>2015-06-21T09:43:20Z</time>
      </trkpt>
      <trkpt lat="44.10509" lon="6.32407">
        <ele>1153</ele>
        <time>2015-06-21T09:43:23Z</time>
      </trkpt>
      <trkpt lat="44.10503" lon="6.32402">
        <ele>1151</ele>
        <time>2015-06-21T09:43:26Z</time>
      </trkpt>
      <trkpt lat="44.10492" lon="6.32402">
        <ele>1151</ele>
        <time>2015-06-21T09:43:29Z</time>
      </trkpt>
      <trkpt lat="44.10483" lon="6.32395">
        <ele>1141</ele>
        <time>2015-06-21T09:43:32Z</time>
      </trkpt>
      <trkpt lat="44.10477" lon="6.32381">
        <ele>1141</ele>
        <time>2015-06-21T09:43:35Z</time>
      </trkpt>
      <trkpt lat="44.10465" lon="6.32347">
        <ele>1140</ele>
        <time>2015-06-21T09:43:41Z</time>
      </trkpt>
      <trkpt lat="44.10456" lon="6.32322">
        <ele>1129</ele>
        <time>2015-06-21T09:43:45Z</time>
      </trkpt>
      <trkpt lat="44.10452" lon="6.32309">
        <ele>1131</ele>
        <time>2015-06-21T09:43:48Z</time>
      </trkpt>
      <trkpt lat="44.10441" lon="6.32288">
        <ele>1133</ele>
        <time>2015-06-21T09:43:54Z</time>
      </trkpt>
      <trkpt lat="44.10434" lon="6.32272">
        <ele>1133</ele>
        <time>2015-06-21T09:43:57Z</time>
      </trkpt>
      <trkpt lat="44.10421" lon="6.32264">
        <ele>1125</ele>
        <time>2015-06-21T09:44:01Z</time>
      </trkpt>
      <trkpt lat="44.10406" lon="6.32258">
        <ele>1123</ele>
        <time>2015-06-21T09:44:05Z</time>
      </trkpt>
      <trkpt lat="44.10396" lon="6.32264">
        <ele>1118</ele>
        <time>2015-06-21T09:44:08Z</time>
      </trkpt>
      <trkpt lat="44.10369" lon="6.32265">
        <ele>1110</ele>
        <time>2015-06-21T09:44:13Z</time>
      </trkpt>
      <trkpt lat="44.10347" lon="6.32234">
        <ele>1099</ele>
        <time>2015-06-21T09:44:19Z</time>
      </trkpt>
      <trkpt lat="44.10326" lon="6.3224">
        <ele>1104</ele>
        <time>2015-06-21T09:44:25Z</time>
      </trkpt>
      <trkpt lat="44.10307" lon="6.32244">
        <ele>1100</ele>
        <time>2015-06-21T09:44:31Z</time>
      </trkpt>
      <trkpt lat="44.1029" lon="6.32245">
        <ele>1095</ele>
        <time>2015-06-21T09:44:35Z</time>
      </trkpt>
      <trkpt lat="44.10282" lon="6.32238">
        <ele>1095</ele>
        <time>2015-06-21T09:44:38Z</time>
      </trkpt>
      <trkpt lat="44.10277" lon="6.3222">
        <ele>1092</ele>
        <time>2015-06-21T09:44:43Z</time>
      </trkpt>
      <trkpt lat="44.1026" lon="6.32214">
        <ele>1090</ele>
        <time>2015-06-21T09:44:48Z</time>
      </trkpt>
      <trkpt lat="44.1025" lon="6.32186">
        <ele>1086</ele>
        <time>2015-06-21T09:44:54Z</time>
      </trkpt>
      <trkpt lat="44.10246" lon="6.32163">
        <ele>1080</ele>
        <time>2015-06-21T09:44:58Z</time>
      </trkpt>
      <trkpt lat="44.10232" lon="6.32153">
        <ele>1081</ele>
        <time>2015-06-21T09:45:02Z</time>
      </trkpt>
      <trkpt lat="44.1022" lon="6.32147">
        <ele>1080</ele>
        <time>2015-06-21T09:45:06Z</time>
      </trkpt>
      <trkpt lat="44.10216" lon="6.32138">
        <ele>1080</ele>
        <time>2015-06-21T09:45:09Z</time>
      </trkpt>
      <trkpt lat="44.10216" lon="6.32122">
        <ele>1075</ele>
        <time>2015-06-21T09:45:12Z</time>
      </trkpt>
      <trkpt lat="44.10201" lon="6.32098">
        <ele>1079</ele>
        <time>2015-06-21T09:45:16Z</time>
      </trkpt>
      <trkpt lat="44.10191" lon="6.32079">
        <ele>1072</ele>
        <time>2015-06-21T09:45:19Z</time>
      </trkpt>
      <trkpt lat="44.10191" lon="6.32081">
        <ele>1072</ele>
        <time>2015-06-21T09:45:22Z</time>
      </trkpt>
      <trkpt lat="44.10192" lon="6.32084">
        <ele>1072</ele>
        <time>2015-06-21T09:45:29Z</time>
      </trkpt>
      <trkpt lat="44.1019" lon="6.32074">
        <ele>1072</ele>
        <time>2015-06-21T09:45:33Z</time>
      </trkpt>
      <trkpt lat="44.1017" lon="6.32069">
        <ele>1069</ele>
        <time>2015-06-21T09:45:38Z</time>
      </trkpt>
      <trkpt lat="44.10158" lon="6.32067">
        <ele>1069</ele>
        <time>2015-06-21T09:45:41Z</time>
      </trkpt>
      <trkpt lat="44.10155" lon="6.32064">
        <ele>1069</ele>
        <time>2015-06-21T09:45:44Z</time>
      </trkpt>
      <trkpt lat="44.10152" lon="6.32066">
        <ele>1071</ele>
        <time>2015-06-21T09:45:48Z</time>
      </trkpt>
      <trkpt lat="44.10148" lon="6.32064">
        <ele>1071</ele>
        <time>2015-06-21T09:45:51Z</time>
      </trkpt>
      <trkpt lat="44.1014" lon="6.32054">
        <ele>1071</ele>
        <time>2015-06-21T09:45:56Z</time>
      </trkpt>
      <trkpt lat="44.10136" lon="6.32041">
        <ele>1069</ele>
        <time>2015-06-21T09:46:00Z</time>
      </trkpt>
      <trkpt lat="44.10132" lon="6.3203">
        <ele>1069</ele>
        <time>2015-06-21T09:46:04Z</time>
      </trkpt>
      <trkpt lat="44.10136" lon="6.32006">
        <ele>1063</ele>
        <time>2015-06-21T09:46:09Z</time>
      </trkpt>
      <trkpt lat="44.10134" lon="6.31993">
        <ele>1063</ele>
        <time>2015-06-21T09:46:12Z</time>
      </trkpt>
      <trkpt lat="44.10134" lon="6.31982">
        <ele>1059</ele>
        <time>2015-06-21T09:46:15Z</time>
      </trkpt>
      <trkpt lat="44.10135" lon="6.31971">
        <ele>1059</ele>
        <time>2015-06-21T09:46:18Z</time>
      </trkpt>
      <trkpt lat="44.10141" lon="6.3196">
        <ele>1059</ele>
        <time>2015-06-21T09:46:21Z</time>
      </trkpt>
      <trkpt lat="44.10152" lon="6.31949">
        <ele>1053</ele>
        <time>2015-06-21T09:46:25Z</time>
      </trkpt>
      <trkpt lat="44.10156" lon="6.31941">
        <ele>1045</ele>
        <time>2015-06-21T09:46:28Z</time>
      </trkpt>
      <trkpt lat="44.10162" lon="6.31924">
        <ele>1042</ele>
        <time>2015-06-21T09:46:32Z</time>
      </trkpt>
      <trkpt lat="44.10173" lon="6.3193">
        <ele>1042</ele>
        <time>2015-06-21T09:46:37Z</time>
      </trkpt>
      <trkpt lat="44.1018" lon="6.3194">
        <ele>1045</ele>
        <time>2015-06-21T09:46:40Z</time>
      </trkpt>
      <trkpt lat="44.10186" lon="6.31945">
        <ele>1041</ele>
        <time>2015-06-21T09:46:44Z</time>
      </trkpt>
      <trkpt lat="44.10196" lon="6.31941">
        <ele>1041</ele>
        <time>2015-06-21T09:46:50Z</time>
      </trkpt>
      <trkpt lat="44.10201" lon="6.31926">
        <ele>1038</ele>
        <time>2015-06-21T09:46:55Z</time>
      </trkpt>
      <trkpt lat="44.10206" lon="6.31896">
        <ele>1033</ele>
        <time>2015-06-21T09:47:01Z</time>
      </trkpt>
      <trkpt lat="44.10215" lon="6.31882">
        <ele>1033</ele>
        <time>2015-06-21T09:47:08Z</time>
      </trkpt>
      <trkpt lat="44.10221" lon="6.31872">
        <ele>1029</ele>
        <time>2015-06-21T09:47:11Z</time>
      </trkpt>
      <trkpt lat="44.10227" lon="6.31857">
        <ele>1029</ele>
        <time>2015-06-21T09:47:15Z</time>
      </trkpt>
      <trkpt lat="44.10229" lon="6.31851">
        <ele>1029</ele>
        <time>2015-06-21T09:47:18Z</time>
      </trkpt>
      <trkpt lat="44.1023" lon="6.31851">
        <ele>1029</ele>
        <time>2015-06-21T09:47:21Z</time>
      </trkpt>
      <trkpt lat="44.10227" lon="6.31847">
        <ele>1026</ele>
        <time>2015-06-21T09:47:26Z</time>
      </trkpt>
      <trkpt lat="44.10222" lon="6.31837">
        <ele>1026</ele>
        <time>2015-06-21T09:47:31Z</time>
      </trkpt>
      <trkpt lat="44.10219" lon="6.31827">
        <ele>1026</ele>
        <time>2015-06-21T09:47:36Z</time>
      </trkpt>
      <trkpt lat="44.10219" lon="6.31813">
        <ele>1026</ele>
        <time>2015-06-21T09:47:42Z</time>
      </trkpt>
      <trkpt lat="44.10219" lon="6.31799">
        <ele>1026</ele>
        <time>2015-06-21T09:47:47Z</time>
      </trkpt>
      <trkpt lat="44.10219" lon="6.31779">
        <ele>1027</ele>
        <time>2015-06-21T09:47:55Z</time>
      </trkpt>
      <trkpt lat="44.10215" lon="6.31764">
        <ele>1027</ele>
        <time>2015-06-21T09:48:02Z</time>
      </trkpt>
      <trkpt lat="44.10224" lon="6.31751">
        <ele>1028</ele>
        <time>2015-06-21T09:48:09Z</time>
      </trkpt>
      <trkpt lat="44.10234" lon="6.31738">
        <ele>1028</ele>
        <time>2015-06-21T09:48:17Z</time>
      </trkpt>
      <trkpt lat="44.1024" lon="6.3173">
        <ele>1030</ele>
        <time>2015-06-21T09:48:22Z</time>
      </trkpt>
      <trkpt lat="44.10253" lon="6.31719">
        <ele>1030</ele>
        <time>2015-06-21T09:48:29Z</time>
      </trkpt>
      <trkpt lat="44.10267" lon="6.31715">
        <ele>1029</ele>
        <time>2015-06-21T09:48:34Z</time>
      </trkpt>
      <trkpt lat="44.10285" lon="6.31718">
        <ele>1029</ele>
        <time>2015-06-21T09:48:40Z</time>
      </trkpt>
      <trkpt lat="44.10309" lon="6.31766">
        <ele>1040</ele>
        <time>2015-06-21T09:48:49Z</time>
      </trkpt>
      <trkpt lat="44.10316" lon="6.31785">
        <ele>1040</ele>
        <time>2015-06-21T09:48:53Z</time>
      </trkpt>
      <trkpt lat="44.10329" lon="6.31808">
        <ele>1040</ele>
        <time>2015-06-21T09:49:01Z</time>
      </trkpt>
      <trkpt lat="44.10336" lon="6.3182">
        <ele>1044</ele>
        <time>2015-06-21T09:49:06Z</time>
      </trkpt>
      <trkpt lat="44.10347" lon="6.31828">
        <ele>1044</ele>
        <time>2015-06-21T09:49:12Z</time>
      </trkpt>
      <trkpt lat="44.10362" lon="6.31829">
        <ele>1044</ele>
        <time>2015-06-21T09:49:19Z</time>
      </trkpt>
      <trkpt lat="44.10368" lon="6.31826">
        <ele>1044</ele>
        <time>2015-06-21T09:49:22Z</time>
      </trkpt>
      <trkpt lat="44.10373" lon="6.31816">
        <ele>1039</ele>
        <time>2015-06-21T09:49:26Z</time>
      </trkpt>
      <trkpt lat="44.10384" lon="6.31802">
        <ele>1043</ele>
        <time>2015-06-21T09:49:34Z</time>
      </trkpt>
      <trkpt lat="44.10404" lon="6.31796">
        <ele>1049</ele>
        <time>2015-06-21T09:49:44Z</time>
      </trkpt>
      <trkpt lat="44.10418" lon="6.31791">
        <ele>1046</ele>
        <time>2015-06-21T09:49:51Z</time>
      </trkpt>
      <trkpt lat="44.10428" lon="6.31788">
        <ele>1046</ele>
        <time>2015-06-21T09:49:57Z</time>
      </trkpt>
      <trkpt lat="44.10443" lon="6.31784">
        <ele>1048</ele>
        <time>2015-06-21T09:50:05Z</time>
      </trkpt>
      <trkpt lat="44.10454" lon="6.31791">
        <ele>1048</ele>
        <time>2015-06-21T09:50:12Z</time>
      </trkpt>
      <trkpt lat="44.10466" lon="6.31804">
        <ele>1055</ele>
        <time>2015-06-21T09:50:20Z</time>
      </trkpt>
      <trkpt lat="44.10478" lon="6.31817">
        <ele>1055</ele>
        <time>2015-06-21T09:50:27Z</time>
      </trkpt>
      <trkpt lat="44.10492" lon="6.31831">
        <ele>1060</ele>
        <time>2015-06-21T09:50:35Z</time>
      </trkpt>
      <trkpt lat="44.10506" lon="6.31834">
        <ele>1060</ele>
        <time>2015-06-21T09:50:41Z</time>
      </trkpt>
      <trkpt lat="44.10515" lon="6.31839">
        <ele>1058</ele>
        <time>2015-06-21T09:50:47Z</time>
      </trkpt>
      <trkpt lat="44.10519" lon="6.31837">
        <ele>1058</ele>
        <time>2015-06-21T09:50:52Z</time>
      </trkpt>
      <trkpt lat="44.10527" lon="6.3184">
        <ele>1058</ele>
        <time>2015-06-21T09:50:59Z</time>
      </trkpt>
      <trkpt lat="44.10537" lon="6.31849">
        <ele>1065</ele>
        <time>2015-06-21T09:51:06Z</time>
      </trkpt>
      <trkpt lat="44.10549" lon="6.31848">
        <ele>1070</ele>
        <time>2015-06-21T09:51:12Z</time>
      </trkpt>
      <trkpt lat="44.10565" lon="6.3185">
        <ele>1070</ele>
        <time>2015-06-21T09:51:20Z</time>
      </trkpt>
      <trkpt lat="44.10573" lon="6.3185">
        <ele>1071</ele>
        <time>2015-06-21T09:51:25Z</time>
      </trkpt>
      <trkpt lat="44.10583" lon="6.31848">
        <ele>1071</ele>
        <time>2015-06-21T09:51:30Z</time>
      </trkpt>
      <trkpt lat="44.10592" lon="6.31842">
        <ele>1063</ele>
        <time>2015-06-21T09:51:36Z</time>
      </trkpt>
      <trkpt lat="44.10597" lon="6.31842">
        <ele>1063</ele>
        <time>2015-06-21T09:51:39Z</time>
      </trkpt>
      <trkpt lat="44.1061" lon="6.31844">
        <ele>1067</ele>
        <time>2015-06-21T09:51:48Z</time>
      </trkpt>
      <trkpt lat="44.10614" lon="6.31844">
        <ele>1067</ele>
        <time>2015-06-21T09:51:53Z</time>
      </trkpt>
      <trkpt lat="44.10625" lon="6.31838">
        <ele>1076</ele>
        <time>2015-06-21T09:52:03Z</time>
      </trkpt>
      <trkpt lat="44.10631" lon="6.31833">
        <ele>1076</ele>
        <time>2015-06-21T09:52:10Z</time>
      </trkpt>
      <trkpt lat="44.10639" lon="6.31828">
        <ele>1076</ele>
        <time>2015-06-21T09:52:16Z</time>
      </trkpt>
      <trkpt lat="44.10643" lon="6.31826">
        <ele>1076</ele>
        <time>2015-06-21T09:52:20Z</time>
      </trkpt>
      <trkpt lat="44.10656" lon="6.31819">
        <ele>1080</ele>
        <time>2015-06-21T09:52:28Z</time>
      </trkpt>
      <trkpt lat="44.10668" lon="6.3181">
        <ele>1080</ele>
        <time>2015-06-21T09:52:37Z</time>
      </trkpt>
      <trkpt lat="44.10678" lon="6.31805">
        <ele>1080</ele>
        <time>2015-06-21T09:52:45Z</time>
      </trkpt>
      <trkpt lat="44.10683" lon="6.31801">
        <ele>1087</ele>
        <time>2015-06-21T09:52:51Z</time>
      </trkpt>
      <trkpt lat="44.10691" lon="6.31803">
        <ele>1087</ele>
        <time>2015-06-21T09:52:58Z</time>
      </trkpt>
      <trkpt lat="44.10698" lon="6.31806">
        <ele>1087</ele>
        <time>2015-06-21T09:53:06Z</time>
      </trkpt>
      <trkpt lat="44.10705" lon="6.31809">
        <ele>1087</ele>
        <time>2015-06-21T09:53:12Z</time>
      </trkpt>
      <trkpt lat="44.10712" lon="6.31805">
        <ele>1094</ele>
        <time>2015-06-21T09:53:20Z</time>
      </trkpt>
      <trkpt lat="44.10719" lon="6.31801">
        <ele>1094</ele>
        <time>2015-06-21T09:53:26Z</time>
      </trkpt>
      <trkpt lat="44.10725" lon="6.31798">
        <ele>1094</ele>
        <time>2015-06-21T09:53:32Z</time>
      </trkpt>
      <trkpt lat="44.10732" lon="6.3179">
        <ele>1088</ele>
        <time>2015-06-21T09:53:38Z</time>
      </trkpt>
      <trkpt lat="44.1074" lon="6.31788">
        <ele>1092</ele>
        <time>2015-06-21T09:53:44Z</time>
      </trkpt>
      <trkpt lat="44.10746" lon="6.31786">
        <ele>1092</ele>
        <time>2015-06-21T09:53:50Z</time>
      </trkpt>
      <trkpt lat="44.10755" lon="6.31793">
        <ele>1097</ele>
        <time>2015-06-21T09:53:55Z</time>
      </trkpt>
      <trkpt lat="44.10766" lon="6.31799">
        <ele>1095</ele>
        <time>2015-06-21T09:54:01Z</time>
      </trkpt>
      <trkpt lat="44.10775" lon="6.31806">
        <ele>1095</ele>
        <time>2015-06-21T09:54:07Z</time>
      </trkpt>
      <trkpt lat="44.10784" lon="6.31817">
        <ele>1095</ele>
        <time>2015-06-21T09:54:13Z</time>
      </trkpt>
      <trkpt lat="44.10793" lon="6.31832">
        <ele>1094</ele>
        <time>2015-06-21T09:54:19Z</time>
      </trkpt>
      <trkpt lat="44.10797" lon="6.31851">
        <ele>1097</ele>
        <time>2015-06-21T09:54:25Z</time>
      </trkpt>
      <trkpt lat="44.10803" lon="6.31873">
        <ele>1097</ele>
        <time>2015-06-21T09:54:31Z</time>
      </trkpt>
      <trkpt lat="44.10808" lon="6.31896">
        <ele>1100</ele>
        <time>2015-06-21T09:54:36Z</time>
      </trkpt>
      <trkpt lat="44.10812" lon="6.31919">
        <ele>1103</ele>
        <time>2015-06-21T09:54:41Z</time>
      </trkpt>
      <trkpt lat="44.10818" lon="6.3194">
        <ele>1106</ele>
        <time>2015-06-21T09:54:46Z</time>
      </trkpt>
      <trkpt lat="44.10824" lon="6.31949">
        <ele>1098</ele>
        <time>2015-06-21T09:54:49Z</time>
      </trkpt>
      <trkpt lat="44.10822" lon="6.31959">
        <ele>1101</ele>
        <time>2015-06-21T09:54:53Z</time>
      </trkpt>
      <trkpt lat="44.10824" lon="6.31995">
        <ele>1103</ele>
        <time>2015-06-21T09:55:01Z</time>
      </trkpt>
      <trkpt lat="44.10826" lon="6.32017">
        <ele>1106</ele>
        <time>2015-06-21T09:55:06Z</time>
      </trkpt>
      <trkpt lat="44.10828" lon="6.32047">
        <ele>1107</ele>
        <time>2015-06-21T09:55:13Z</time>
      </trkpt>
      <trkpt lat="44.10829" lon="6.32073">
        <ele>1108</ele>
        <time>2015-06-21T09:55:19Z</time>
      </trkpt>
      <trkpt lat="44.10833" lon="6.3209">
        <ele>1108</ele>
        <time>2015-06-21T09:55:24Z</time>
      </trkpt>
      <trkpt lat="44.10845" lon="6.32104">
        <ele>1112</ele>
        <time>2015-06-21T09:55:31Z</time>
      </trkpt>
      <trkpt lat="44.1085" lon="6.32108">
        <ele>1108</ele>
        <time>2015-06-21T09:55:34Z</time>
      </trkpt>
      <trkpt lat="44.10867" lon="6.32113">
        <ele>1108</ele>
        <time>2015-06-21T09:55:41Z</time>
      </trkpt>
      <trkpt lat="44.10879" lon="6.32106">
        <ele>1106</ele>
        <time>2015-06-21T09:55:45Z</time>
      </trkpt>
      <trkpt lat="44.10893" lon="6.3209">
        <ele>1105</ele>
        <time>2015-06-21T09:55:49Z</time>
      </trkpt>
      <trkpt lat="44.10913" lon="6.32064">
        <ele>1100</ele>
        <time>2015-06-21T09:55:54Z</time>
      </trkpt>
      <trkpt lat="44.10946" lon="6.32078">
        <ele>1102</ele>
        <time>2015-06-21T09:55:59Z</time>
      </trkpt>
      <trkpt lat="44.10963" lon="6.32097">
        <ele>1099</ele>
        <time>2015-06-21T09:56:02Z</time>
      </trkpt>
      <trkpt lat="44.10995" lon="6.32117">
        <ele>1098</ele>
        <time>2015-06-21T09:56:07Z</time>
      </trkpt>
      <trkpt lat="44.11021" lon="6.32124">
        <ele>1097</ele>
        <time>2015-06-21T09:56:11Z</time>
      </trkpt>
      <trkpt lat="44.11044" lon="6.32115">
        <ele>1092</ele>
        <time>2015-06-21T09:56:15Z</time>
      </trkpt>
      <trkpt lat="44.11069" lon="6.32122">
        <ele>1092</ele>
        <time>2015-06-21T09:56:20Z</time>
      </trkpt>
      <trkpt lat="44.11061" lon="6.3217">
        <ele>1094</ele>
        <time>2015-06-21T09:56:25Z</time>
      </trkpt>
      <trkpt lat="44.1106" lon="6.32206">
        <ele>1093</ele>
        <time>2015-06-21T09:56:28Z</time>
      </trkpt>
      <trkpt lat="44.11059" lon="6.32241">
        <ele>1087</ele>
        <time>2015-06-21T09:56:31Z</time>
      </trkpt>
      <trkpt lat="44.11053" lon="6.32265">
        <ele>1087</ele>
        <time>2015-06-21T09:56:35Z</time>
      </trkpt>
      <trkpt lat="44.11076" lon="6.32295">
        <ele>1083</ele>
        <time>2015-06-21T09:56:42Z</time>
      </trkpt>
      <trkpt lat="44.11093" lon="6.32298">
        <ele>1083</ele>
        <time>2015-06-21T09:56:45Z</time>
      </trkpt>
      <trkpt lat="44.11108" lon="6.32297">
        <ele>1079</ele>
        <time>2015-06-21T09:56:48Z</time>
      </trkpt>
      <trkpt lat="44.1113" lon="6.3231">
        <ele>1076</ele>
        <time>2015-06-21T09:56:53Z</time>
      </trkpt>
      <trkpt lat="44.11143" lon="6.32321">
        <ele>1074</ele>
        <time>2015-06-21T09:56:56Z</time>
      </trkpt>
      <trkpt lat="44.11152" lon="6.32339">
        <ele>1074</ele>
        <time>2015-06-21T09:56:59Z</time>
      </trkpt>
      <trkpt lat="44.1116" lon="6.3237">
        <ele>1071</ele>
        <time>2015-06-21T09:57:04Z</time>
      </trkpt>
      <trkpt lat="44.11173" lon="6.32376">
        <ele>1068</ele>
        <time>2015-06-21T09:57:08Z</time>
      </trkpt>
      <trkpt lat="44.11185" lon="6.32374">
        <ele>1073</ele>
        <time>2015-06-21T09:57:12Z</time>
      </trkpt>
      <trkpt lat="44.11192" lon="6.3238">
        <ele>1072</ele>
        <time>2015-06-21T09:57:15Z</time>
      </trkpt>
      <trkpt lat="44.11213" lon="6.3238">
        <ele>1076</ele>
        <time>2015-06-21T09:57:21Z</time>
      </trkpt>
      <trkpt lat="44.11233" lon="6.32382">
        <ele>1076</ele>
        <time>2015-06-21T09:57:28Z</time>
      </trkpt>
      <trkpt lat="44.11251" lon="6.3237">
        <ele>1077</ele>
        <time>2015-06-21T09:57:33Z</time>
      </trkpt>
      <trkpt lat="44.11267" lon="6.32364">
        <ele>1077</ele>
        <time>2015-06-21T09:57:36Z</time>
      </trkpt>
      <trkpt lat="44.11287" lon="6.32359">
        <ele>1077</ele>
        <time>2015-06-21T09:57:41Z</time>
      </trkpt>
      <trkpt lat="44.11295" lon="6.32348">
        <ele>1075</ele>
        <time>2015-06-21T09:57:45Z</time>
      </trkpt>
      <trkpt lat="44.11309" lon="6.32348">
        <ele>1075</ele>
        <time>2015-06-21T09:57:49Z</time>
      </trkpt>
      <trkpt lat="44.11329" lon="6.3233">
        <ele>1078</ele>
        <time>2015-06-21T09:57:57Z</time>
      </trkpt>
      <trkpt lat="44.11341" lon="6.32321">
        <ele>1078</ele>
        <time>2015-06-21T09:58:03Z</time>
      </trkpt>
      <trkpt lat="44.11346" lon="6.3231">
        <ele>1080</ele>
        <time>2015-06-21T09:58:07Z</time>
      </trkpt>
      <trkpt lat="44.11362" lon="6.3231">
        <ele>1080</ele>
        <time>2015-06-21T09:58:16Z</time>
      </trkpt>
      <trkpt lat="44.11375" lon="6.32311">
        <ele>1077</ele>
        <time>2015-06-21T09:58:23Z</time>
      </trkpt>
      <trkpt lat="44.11382" lon="6.32312">
        <ele>1077</ele>
        <time>2015-06-21T09:58:27Z</time>
      </trkpt>
      <trkpt lat="44.11396" lon="6.32303">
        <ele>1077</ele>
        <time>2015-06-21T09:58:32Z</time>
      </trkpt>
      <trkpt lat="44.11403" lon="6.3231">
        <ele>1067</ele>
        <time>2015-06-21T09:58:35Z</time>
      </trkpt>
      <trkpt lat="44.11394" lon="6.32344">
        <ele>1072</ele>
        <time>2015-06-21T09:58:41Z</time>
      </trkpt>
      <trkpt lat="44.11392" lon="6.3236">
        <ele>1065</ele>
        <time>2015-06-21T09:58:45Z</time>
      </trkpt>
      <trkpt lat="44.11396" lon="6.32368">
        <ele>1065</ele>
        <time>2015-06-21T09:58:48Z</time>
      </trkpt>
      <trkpt lat="44.11407" lon="6.32389">
        <ele>1058</ele>
        <time>2015-06-21T09:58:53Z</time>
      </trkpt>
      <trkpt lat="44.11408" lon="6.32391">
        <ele>1058</ele>
        <time>2015-06-21T09:58:56Z</time>
      </trkpt>
      <trkpt lat="44.11417" lon="6.32391">
        <ele>1058</ele>
        <time>2015-06-21T09:58:59Z</time>
      </trkpt>
      <trkpt lat="44.11432" lon="6.32414">
        <ele>1048</ele>
        <time>2015-06-21T09:59:04Z</time>
      </trkpt>
      <trkpt lat="44.11453" lon="6.32435">
        <ele>1045</ele>
        <time>2015-06-21T09:59:11Z</time>
      </trkpt>
      <trkpt lat="44.11463" lon="6.32438">
        <ele>1038</ele>
        <time>2015-06-21T09:59:14Z</time>
      </trkpt>
      <trkpt lat="44.11478" lon="6.32454">
        <ele>1038</ele>
        <time>2015-06-21T09:59:20Z</time>
      </trkpt>
      <trkpt lat="44.11482" lon="6.32458">
        <ele>1038</ele>
        <time>2015-06-21T09:59:23Z</time>
      </trkpt>
      <trkpt lat="44.11492" lon="6.32456">
        <ele>1033</ele>
        <time>2015-06-21T09:59:28Z</time>
      </trkpt>
      <trkpt lat="44.11504" lon="6.32462">
        <ele>1026</ele>
        <time>2015-06-21T09:59:34Z</time>
      </trkpt>
      <trkpt lat="44.11513" lon="6.32465">
        <ele>1026</ele>
        <time>2015-06-21T09:59:38Z</time>
      </trkpt>
      <trkpt lat="44.11523" lon="6.32457">
        <ele>1026</ele>
        <time>2015-06-21T09:59:41Z</time>
      </trkpt>
      <trkpt lat="44.1154" lon="6.32446">
        <ele>1026</ele>
        <time>2015-06-21T09:59:45Z</time>
      </trkpt>
      <trkpt lat="44.11553" lon="6.3244">
        <ele>1019</ele>
        <time>2015-06-21T09:59:49Z</time>
      </trkpt>
      <trkpt lat="44.11562" lon="6.32438">
        <ele>1019</ele>
        <time>2015-06-21T09:59:53Z</time>
      </trkpt>
      <trkpt lat="44.11572" lon="6.32419">
        <ele>1016</ele>
        <time>2015-06-21T09:59:58Z</time>
      </trkpt>
      <trkpt lat="44.11578" lon="6.32406">
        <ele>1016</ele>
        <time>2015-06-21T10:00:01Z</time>
      </trkpt>
      <trkpt lat="44.11593" lon="6.32404">
        <ele>1016</ele>
        <time>2015-06-21T10:00:05Z</time>
      </trkpt>
      <trkpt lat="44.11602" lon="6.32422">
        <ele>1011</ele>
        <time>2015-06-21T10:00:08Z</time>
      </trkpt>
      <trkpt lat="44.11612" lon="6.32427">
        <ele>1011</ele>
        <time>2015-06-21T10:00:11Z</time>
      </trkpt>
      <trkpt lat="44.11632" lon="6.32426">
        <ele>1010</ele>
        <time>2015-06-21T10:00:16Z</time>
      </trkpt>
      <trkpt lat="44.11652" lon="6.32431">
        <ele>1003</ele>
        <time>2015-06-21T10:00:22Z</time>
      </trkpt>
      <trkpt lat="44.11661" lon="6.32425">
        <ele>1011</ele>
        <time>2015-06-21T10:00:26Z</time>
      </trkpt>
      <trkpt lat="44.11662" lon="6.32403">
        <ele>1011</ele>
        <time>2015-06-21T10:00:29Z</time>
      </trkpt>
      <trkpt lat="44.11662" lon="6.32387">
        <ele>1011</ele>
        <time>2015-06-21T10:00:32Z</time>
      </trkpt>
      <trkpt lat="44.11669" lon="6.3236">
        <ele>1010</ele>
        <time>2015-06-21T10:00:36Z</time>
      </trkpt>
      <trkpt lat="44.11686" lon="6.32352">
        <ele>1003</ele>
        <time>2015-06-21T10:00:40Z</time>
      </trkpt>
      <trkpt lat="44.11701" lon="6.32343">
        <ele>1004</ele>
        <time>2015-06-21T10:00:43Z</time>
      </trkpt>
      <trkpt lat="44.11723" lon="6.32333">
        <ele>1002</ele>
        <time>2015-06-21T10:00:47Z</time>
      </trkpt>
      <trkpt lat="44.11745" lon="6.32326">
        <ele>1001</ele>
        <time>2015-06-21T10:00:51Z</time>
      </trkpt>
      <trkpt lat="44.11759" lon="6.32326">
        <ele>1001</ele>
        <time>2015-06-21T10:00:54Z</time>
      </trkpt>
      <trkpt lat="44.11764" lon="6.32312">
        <ele>993</ele>
        <time>2015-06-21T10:00:57Z</time>
      </trkpt>
      <trkpt lat="44.11759" lon="6.32296">
        <ele>1003</ele>
        <time>2015-06-21T10:01:01Z</time>
      </trkpt>
      <trkpt lat="44.11767" lon="6.32287">
        <ele>995</ele>
        <time>2015-06-21T10:01:04Z</time>
      </trkpt>
      <trkpt lat="44.11776" lon="6.3228">
        <ele>995</ele>
        <time>2015-06-21T10:01:07Z</time>
      </trkpt>
      <trkpt lat="44.11795" lon="6.32288">
        <ele>990</ele>
        <time>2015-06-21T10:01:11Z</time>
      </trkpt>
      <trkpt lat="44.11818" lon="6.3229">
        <ele>990</ele>
        <time>2015-06-21T10:01:16Z</time>
      </trkpt>
      <trkpt lat="44.11826" lon="6.32269">
        <ele>990</ele>
        <time>2015-06-21T10:01:20Z</time>
      </trkpt>
      <trkpt lat="44.11838" lon="6.32247">
        <ele>996</ele>
        <time>2015-06-21T10:01:24Z</time>
      </trkpt>
      <trkpt lat="44.1186" lon="6.32223">
        <ele>995</ele>
        <time>2015-06-21T10:01:31Z</time>
      </trkpt>
      <trkpt lat="44.11868" lon="6.32217">
        <ele>995</ele>
        <time>2015-06-21T10:01:35Z</time>
      </trkpt>
      <trkpt lat="44.11881" lon="6.32209">
        <ele>987</ele>
        <time>2015-06-21T10:01:42Z</time>
      </trkpt>
      <trkpt lat="44.11885" lon="6.32206">
        <ele>989</ele>
        <time>2015-06-21T10:01:45Z</time>
      </trkpt>
      <trkpt lat="44.11887" lon="6.32186">
        <ele>989</ele>
        <time>2015-06-21T10:01:50Z</time>
      </trkpt>
      <trkpt lat="44.11877" lon="6.3217">
        <ele>991</ele>
        <time>2015-06-21T10:01:55Z</time>
      </trkpt>
      <trkpt lat="44.1187" lon="6.32149">
        <ele>997</ele>
        <time>2015-06-21T10:02:00Z</time>
      </trkpt>
      <trkpt lat="44.11877" lon="6.32132">
        <ele>992</ele>
        <time>2015-06-21T10:02:05Z</time>
      </trkpt>
      <trkpt lat="44.11894" lon="6.32136">
        <ele>992</ele>
        <time>2015-06-21T10:02:11Z</time>
      </trkpt>
      <trkpt lat="44.11917" lon="6.32129">
        <ele>984</ele>
        <time>2015-06-21T10:02:16Z</time>
      </trkpt>
      <trkpt lat="44.11925" lon="6.3213">
        <ele>984</ele>
        <time>2015-06-21T10:02:19Z</time>
      </trkpt>
      <trkpt lat="44.11946" lon="6.32117">
        <ele>976</ele>
        <time>2015-06-21T10:02:25Z</time>
      </trkpt>
      <trkpt lat="44.11953" lon="6.32111">
        <ele>976</ele>
        <time>2015-06-21T10:02:28Z</time>
      </trkpt>
      <trkpt lat="44.11968" lon="6.32088">
        <ele>969</ele>
        <time>2015-06-21T10:02:33Z</time>
      </trkpt>
      <trkpt lat="44.11981" lon="6.32096">
        <ele>969</ele>
        <time>2015-06-21T10:02:36Z</time>
      </trkpt>
      <trkpt lat="44.11995" lon="6.32108">
        <ele>969</ele>
        <time>2015-06-21T10:02:40Z</time>
      </trkpt>
      <trkpt lat="44.12007" lon="6.32111">
        <ele>969</ele>
        <time>2015-06-21T10:02:45Z</time>
      </trkpt>
      <trkpt lat="44.12016" lon="6.3211">
        <ele>967</ele>
        <time>2015-06-21T10:02:49Z</time>
      </trkpt>
      <trkpt lat="44.1203" lon="6.32124">
        <ele>967</ele>
        <time>2015-06-21T10:02:54Z</time>
      </trkpt>
      <trkpt lat="44.12036" lon="6.32141">
        <ele>962</ele>
        <time>2015-06-21T10:02:58Z</time>
      </trkpt>
      <trkpt lat="44.12054" lon="6.32149">
        <ele>957</ele>
        <time>2015-06-21T10:03:03Z</time>
      </trkpt>
      <trkpt lat="44.12068" lon="6.32161">
        <ele>953</ele>
        <time>2015-06-21T10:03:06Z</time>
      </trkpt>
      <trkpt lat="44.12101" lon="6.3218">
        <ele>957</ele>
        <time>2015-06-21T10:03:13Z</time>
      </trkpt>
      <trkpt lat="44.1211" lon="6.32186">
        <ele>954</ele>
        <time>2015-06-21T10:03:16Z</time>
      </trkpt>
      <trkpt lat="44.12132" lon="6.3219">
        <ele>957</ele>
        <time>2015-06-21T10:03:21Z</time>
      </trkpt>
      <trkpt lat="44.12146" lon="6.32196">
        <ele>957</ele>
        <time>2015-06-21T10:03:24Z</time>
      </trkpt>
      <trkpt lat="44.12159" lon="6.32201">
        <ele>958</ele>
        <time>2015-06-21T10:03:28Z</time>
      </trkpt>
      <trkpt lat="44.12165" lon="6.32186">
        <ele>958</ele>
        <time>2015-06-21T10:03:32Z</time>
      </trkpt>
      <trkpt lat="44.12167" lon="6.3217">
        <ele>959</ele>
        <time>2015-06-21T10:03:36Z</time>
      </trkpt>
      <trkpt lat="44.12173" lon="6.32163">
        <ele>959</ele>
        <time>2015-06-21T10:03:40Z</time>
      </trkpt>
      <trkpt lat="44.12185" lon="6.32152">
        <ele>961</ele>
        <time>2015-06-21T10:03:45Z</time>
      </trkpt>
      <trkpt lat="44.12196" lon="6.32153">
        <ele>961</ele>
        <time>2015-06-21T10:03:50Z</time>
      </trkpt>
      <trkpt lat="44.12206" lon="6.32158">
        <ele>961</ele>
        <time>2015-06-21T10:03:55Z</time>
      </trkpt>
      <trkpt lat="44.12209" lon="6.32171">
        <ele>965</ele>
        <time>2015-06-21T10:04:01Z</time>
      </trkpt>
      <trkpt lat="44.12218" lon="6.32183">
        <ele>962</ele>
        <time>2015-06-21T10:04:06Z</time>
      </trkpt>
      <trkpt lat="44.12231" lon="6.32189">
        <ele>962</ele>
        <time>2015-06-21T10:04:11Z</time>
      </trkpt>
      <trkpt lat="44.12245" lon="6.32195">
        <ele>965</ele>
        <time>2015-06-21T10:04:16Z</time>
      </trkpt>
      <trkpt lat="44.12257" lon="6.32193">
        <ele>965</ele>
        <time>2015-06-21T10:04:20Z</time>
      </trkpt>
      <trkpt lat="44.12269" lon="6.32202">
        <ele>968</ele>
        <time>2015-06-21T10:04:24Z</time>
      </trkpt>
      <trkpt lat="44.1228" lon="6.32205">
        <ele>968</ele>
        <time>2015-06-21T10:04:30Z</time>
      </trkpt>
      <trkpt lat="44.12281" lon="6.32218">
        <ele>959</ele>
        <time>2015-06-21T10:04:34Z</time>
      </trkpt>
      <trkpt lat="44.1228" lon="6.32244">
        <ele>950</ele>
        <time>2015-06-21T10:04:39Z</time>
      </trkpt>
      <trkpt lat="44.1228" lon="6.32267">
        <ele>946</ele>
        <time>2015-06-21T10:04:43Z</time>
      </trkpt>
      <trkpt lat="44.1227" lon="6.32278">
        <ele>946</ele>
        <time>2015-06-21T10:04:46Z</time>
      </trkpt>
      <trkpt lat="44.12273" lon="6.32299">
        <ele>943</ele>
        <time>2015-06-21T10:04:50Z</time>
      </trkpt>
      <trkpt lat="44.12271" lon="6.32314">
        <ele>943</ele>
        <time>2015-06-21T10:04:53Z</time>
      </trkpt>
      <trkpt lat="44.12261" lon="6.32335">
        <ele>935</ele>
        <time>2015-06-21T10:04:58Z</time>
      </trkpt>
      <trkpt lat="44.1225" lon="6.32342">
        <ele>935</ele>
        <time>2015-06-21T10:05:03Z</time>
      </trkpt>
      <trkpt lat="44.12235" lon="6.32356">
        <ele>929</ele>
        <time>2015-06-21T10:05:08Z</time>
      </trkpt>
      <trkpt lat="44.12229" lon="6.32365">
        <ele>929</ele>
        <time>2015-06-21T10:05:11Z</time>
      </trkpt>
      <trkpt lat="44.12214" lon="6.32386">
        <ele>925</ele>
        <time>2015-06-21T10:05:16Z</time>
      </trkpt>
      <trkpt lat="44.12207" lon="6.32396">
        <ele>923</ele>
        <time>2015-06-21T10:05:21Z</time>
      </trkpt>
      <trkpt lat="44.12208" lon="6.32421">
        <ele>919</ele>
        <time>2015-06-21T10:05:29Z</time>
      </trkpt>
      <trkpt lat="44.12205" lon="6.32434">
        <ele>914</ele>
        <time>2015-06-21T10:05:35Z</time>
      </trkpt>
      <trkpt lat="44.12201" lon="6.32442">
        <ele>914</ele>
        <time>2015-06-21T10:05:39Z</time>
      </trkpt>
      <trkpt lat="44.12202" lon="6.32454">
        <ele>914</ele>
        <time>2015-06-21T10:05:42Z</time>
      </trkpt>
      <trkpt lat="44.12201" lon="6.32462">
        <ele>910</ele>
        <time>2015-06-21T10:05:45Z</time>
      </trkpt>
      <trkpt lat="44.12193" lon="6.32473">
        <ele>910</ele>
        <time>2015-06-21T10:05:51Z</time>
      </trkpt>
      <trkpt lat="44.12191" lon="6.32484">
        <ele>910</ele>
        <time>2015-06-21T10:05:54Z</time>
      </trkpt>
      <trkpt lat="44.12185" lon="6.3252">
        <ele>904</ele>
        <time>2015-06-21T10:06:01Z</time>
      </trkpt>
      <trkpt lat="44.12178" lon="6.3254">
        <ele>906</ele>
        <time>2015-06-21T10:06:05Z</time>
      </trkpt>
      <trkpt lat="44.12179" lon="6.3257">
        <ele>906</ele>
        <time>2015-06-21T10:06:11Z</time>
      </trkpt>
      <trkpt lat="44.12195" lon="6.32593">
        <ele>904</ele>
        <time>2015-06-21T10:06:18Z</time>
      </trkpt>
      <trkpt lat="44.12192" lon="6.32612">
        <ele>903</ele>
        <time>2015-06-21T10:06:21Z</time>
      </trkpt>
      <trkpt lat="44.12195" lon="6.32635">
        <ele>901</ele>
        <time>2015-06-21T10:06:25Z</time>
      </trkpt>
      <trkpt lat="44.12208" lon="6.3265">
        <ele>901</ele>
        <time>2015-06-21T10:06:30Z</time>
      </trkpt>
      <trkpt lat="44.12236" lon="6.32665">
        <ele>898</ele>
        <time>2015-06-21T10:06:37Z</time>
      </trkpt>
      <trkpt lat="44.12244" lon="6.32662">
        <ele>898</ele>
        <time>2015-06-21T10:06:40Z</time>
      </trkpt>
      <trkpt lat="44.12253" lon="6.3266">
        <ele>898</ele>
        <time>2015-06-21T10:06:44Z</time>
      </trkpt>
      <trkpt lat="44.12254" lon="6.3266">
        <ele>898</ele>
        <time>2015-06-21T10:06:48Z</time>
      </trkpt>
      <trkpt lat="44.12262" lon="6.32664">
        <ele>898</ele>
        <time>2015-06-21T10:06:53Z</time>
      </trkpt>
      <trkpt lat="44.1227" lon="6.32677">
        <ele>898</ele>
        <time>2015-06-21T10:06:59Z</time>
      </trkpt>
      <trkpt lat="44.12277" lon="6.32689">
        <ele>898</ele>
        <time>2015-06-21T10:07:02Z</time>
      </trkpt>
      <trkpt lat="44.12286" lon="6.32693">
        <ele>898</ele>
        <time>2015-06-21T10:07:06Z</time>
      </trkpt>
      <trkpt lat="44.12301" lon="6.32691">
        <ele>896</ele>
        <time>2015-06-21T10:07:13Z</time>
      </trkpt>
      <trkpt lat="44.1231" lon="6.32696">
        <ele>896</ele>
        <time>2015-06-21T10:07:16Z</time>
      </trkpt>
      <trkpt lat="44.12328" lon="6.3272">
        <ele>893</ele>
        <time>2015-06-21T10:07:21Z</time>
      </trkpt>
      <trkpt lat="44.12339" lon="6.3274">
        <ele>891</ele>
        <time>2015-06-21T10:07:25Z</time>
      </trkpt>
      <trkpt lat="44.12339" lon="6.32763">
        <ele>891</ele>
        <time>2015-06-21T10:07:30Z</time>
      </trkpt>
      <trkpt lat="44.12334" lon="6.32776">
        <ele>891</ele>
        <time>2015-06-21T10:07:34Z</time>
      </trkpt>
      <trkpt lat="44.12332" lon="6.32783">
        <ele>891</ele>
        <time>2015-06-21T10:07:38Z</time>
      </trkpt>
      <trkpt lat="44.1233" lon="6.32788">
        <ele>891</ele>
        <time>2015-06-21T10:07:44Z</time>
      </trkpt>
      <trkpt lat="44.12328" lon="6.32795">
        <ele>892</ele>
        <time>2015-06-21T10:07:49Z</time>
      </trkpt>
      <trkpt lat="44.1233" lon="6.32802">
        <ele>892</ele>
        <time>2015-06-21T10:07:55Z</time>
      </trkpt>
      <trkpt lat="44.12336" lon="6.32814">
        <ele>892</ele>
        <time>2015-06-21T10:08:04Z</time>
      </trkpt>
      <trkpt lat="44.12338" lon="6.32821">
        <ele>894</ele>
        <time>2015-06-21T10:08:08Z</time>
      </trkpt>
      <trkpt lat="44.12342" lon="6.32831">
        <ele>894</ele>
        <time>2015-06-21T10:08:14Z</time>
      </trkpt>
      <trkpt lat="44.12354" lon="6.32842">
        <ele>889</ele>
        <time>2015-06-21T10:08:19Z</time>
      </trkpt>
      <trkpt lat="44.12362" lon="6.32848">
        <ele>893</ele>
        <time>2015-06-21T10:08:25Z</time>
      </trkpt>
      <trkpt lat="44.12379" lon="6.32839">
        <ele>888</ele>
        <time>2015-06-21T10:08:29Z</time>
      </trkpt>
      <trkpt lat="44.12405" lon="6.32817">
        <ele>886</ele>
        <time>2015-06-21T10:08:35Z</time>
      </trkpt>
      <trkpt lat="44.12413" lon="6.32808">
        <ele>886</ele>
        <time>2015-06-21T10:08:38Z</time>
      </trkpt>
      <trkpt lat="44.12428" lon="6.32811">
        <ele>886</ele>
        <time>2015-06-21T10:08:42Z</time>
      </trkpt>
      <trkpt lat="44.12429" lon="6.32818">
        <ele>886</ele>
        <time>2015-06-21T10:08:45Z</time>
      </trkpt>
      <trkpt lat="44.12431" lon="6.32819">
        <ele>887</ele>
        <time>2015-06-21T10:08:51Z</time>
      </trkpt>
      <trkpt lat="44.12433" lon="6.3282">
        <ele>888</ele>
        <time>2015-06-21T10:08:56Z</time>
      </trkpt>
      <trkpt lat="44.12437" lon="6.32827">
        <ele>888</ele>
        <time>2015-06-21T10:09:02Z</time>
      </trkpt>
      <trkpt lat="44.12445" lon="6.32829">
        <ele>888</ele>
        <time>2015-06-21T10:09:10Z</time>
      </trkpt>
      <trkpt lat="44.12448" lon="6.32828">
        <ele>888</ele>
        <time>2015-06-21T10:09:14Z</time>
      </trkpt>
      <trkpt lat="44.12451" lon="6.32829">
        <ele>888</ele>
        <time>2015-06-21T10:09:18Z</time>
      </trkpt>
      <trkpt lat="44.12457" lon="6.32833">
        <ele>888</ele>
        <time>2015-06-21T10:09:23Z</time>
      </trkpt>
      <trkpt lat="44.1246" lon="6.32837">
        <ele>890</ele>
        <time>2015-06-21T10:09:27Z</time>
      </trkpt>
      <trkpt lat="44.1246" lon="6.3284">
        <ele>890</ele>
        <time>2015-06-21T10:09:30Z</time>
      </trkpt>
      <trkpt lat="44.12463" lon="6.32854">
        <ele>894</ele>
        <time>2015-06-21T10:09:40Z</time>
      </trkpt>
      <trkpt lat="44.12473" lon="6.32864">
        <ele>894</ele>
        <time>2015-06-21T10:09:51Z</time>
      </trkpt>
      <trkpt lat="44.1248" lon="6.32871">
        <ele>894</ele>
        <time>2015-06-21T10:10:01Z</time>
      </trkpt>
      <trkpt lat="44.12487" lon="6.32875">
        <ele>900</ele>
        <time>2015-06-21T10:10:11Z</time>
      </trkpt>
      <trkpt lat="44.12497" lon="6.32883">
        <ele>900</ele>
        <time>2015-06-21T10:10:24Z</time>
      </trkpt>
      <trkpt lat="44.125" lon="6.32885">
        <ele>900</ele>
        <time>2015-06-21T10:10:28Z</time>
      </trkpt>
      <trkpt lat="44.125" lon="6.32891">
        <ele>900</ele>
        <time>2015-06-21T10:10:34Z</time>
      </trkpt>
      <trkpt lat="44.125" lon="6.32896">
        <ele>900</ele>
        <time>2015-06-21T10:10:40Z</time>
      </trkpt>
      <trkpt lat="44.12502" lon="6.32901">
        <ele>900</ele>
        <time>2015-06-21T10:10:45Z</time>
      </trkpt>
      <trkpt lat="44.12502" lon="6.32906">
        <ele>903</ele>
        <time>2015-06-21T10:10:48Z</time>
      </trkpt>
      <trkpt lat="44.12506" lon="6.32911">
        <ele>903</ele>
        <time>2015-06-21T10:10:55Z</time>
      </trkpt>
      <trkpt lat="44.12513" lon="6.32918">
        <ele>903</ele>
        <time>2015-06-21T10:11:01Z</time>
      </trkpt>
      <trkpt lat="44.12519" lon="6.32935">
        <ele>907</ele>
        <time>2015-06-21T10:11:07Z</time>
      </trkpt>
      <trkpt lat="44.12531" lon="6.32958">
        <ele>907</ele>
        <time>2015-06-21T10:11:13Z</time>
      </trkpt>
      <trkpt lat="44.12544" lon="6.3298">
        <ele>911</ele>
        <time>2015-06-21T10:11:19Z</time>
      </trkpt>
      <trkpt lat="44.12557" lon="6.32998">
        <ele>913</ele>
        <time>2015-06-21T10:11:25Z</time>
      </trkpt>
      <trkpt lat="44.12564" lon="6.33003">
        <ele>913</ele>
        <time>2015-06-21T10:11:28Z</time>
      </trkpt>
      <trkpt lat="44.12575" lon="6.33007">
        <ele>916</ele>
        <time>2015-06-21T10:11:34Z</time>
      </trkpt>
      <trkpt lat="44.1258" lon="6.33005">
        <ele>916</ele>
        <time>2015-06-21T10:11:37Z</time>
      </trkpt>
      <trkpt lat="44.12591" lon="6.33005">
        <ele>916</ele>
        <time>2015-06-21T10:11:42Z</time>
      </trkpt>
      <trkpt lat="44.1259" lon="6.33014">
        <ele>922</ele>
        <time>2015-06-21T10:11:46Z</time>
      </trkpt>
      <trkpt lat="44.12567" lon="6.33034">
        <ele>916</ele>
        <time>2015-06-21T10:11:55Z</time>
      </trkpt>
      <trkpt lat="44.12546" lon="6.33052">
        <ele>922</ele>
        <time>2015-06-21T10:12:03Z</time>
      </trkpt>
      <trkpt lat="44.12529" lon="6.33052">
        <ele>919</ele>
        <time>2015-06-21T10:12:08Z</time>
      </trkpt>
      <trkpt lat="44.12517" lon="6.33057">
        <ele>919</ele>
        <time>2015-06-21T10:12:12Z</time>
      </trkpt>
      <trkpt lat="44.12494" lon="6.33081">
        <ele>927</ele>
        <time>2015-06-21T10:12:22Z</time>
      </trkpt>
      <trkpt lat="44.12478" lon="6.33098">
        <ele>929</ele>
        <time>2015-06-21T10:12:29Z</time>
      </trkpt>
      <trkpt lat="44.12459" lon="6.3312">
        <ele>929</ele>
        <time>2015-06-21T10:12:37Z</time>
      </trkpt>
      <trkpt lat="44.12459" lon="6.33137">
        <ele>933</ele>
        <time>2015-06-21T10:12:41Z</time>
      </trkpt>
      <trkpt lat="44.12454" lon="6.33156">
        <ele>931</ele>
        <time>2015-06-21T10:12:46Z</time>
      </trkpt>
      <trkpt lat="44.12436" lon="6.3317">
        <ele>931</ele>
        <time>2015-06-21T10:12:53Z</time>
      </trkpt>
      <trkpt lat="44.12423" lon="6.33187">
        <ele>929</ele>
        <time>2015-06-21T10:12:59Z</time>
      </trkpt>
      <trkpt lat="44.12421" lon="6.33214">
        <ele>932</ele>
        <time>2015-06-21T10:13:05Z</time>
      </trkpt>
      <trkpt lat="44.12415" lon="6.33261">
        <ele>934</ele>
        <time>2015-06-21T10:13:15Z</time>
      </trkpt>
      <trkpt lat="44.12406" lon="6.33303">
        <ele>943</ele>
        <time>2015-06-21T10:13:24Z</time>
      </trkpt>
      <trkpt lat="44.12393" lon="6.33333">
        <ele>939</ele>
        <time>2015-06-21T10:13:31Z</time>
      </trkpt>
      <trkpt lat="44.12375" lon="6.33348">
        <ele>945</ele>
        <time>2015-06-21T10:13:37Z</time>
      </trkpt>
      <trkpt lat="44.12353" lon="6.3335">
        <ele>944</ele>
        <time>2015-06-21T10:13:43Z</time>
      </trkpt>
      <trkpt lat="44.12325" lon="6.33352">
        <ele>946</ele>
        <time>2015-06-21T10:13:51Z</time>
      </trkpt>
      <trkpt lat="44.123" lon="6.33364">
        <ele>944</ele>
        <time>2015-06-21T10:13:59Z</time>
      </trkpt>
      <trkpt lat="44.12283" lon="6.33371">
        <ele>943</ele>
        <time>2015-06-21T10:14:05Z</time>
      </trkpt>
      <trkpt lat="44.1227" lon="6.33377">
        <ele>952</ele>
        <time>2015-06-21T10:14:10Z</time>
      </trkpt>
      <trkpt lat="44.12252" lon="6.33388">
        <ele>950</ele>
        <time>2015-06-21T10:14:16Z</time>
      </trkpt>
      <trkpt lat="44.12231" lon="6.33389">
        <ele>952</ele>
        <time>2015-06-21T10:14:22Z</time>
      </trkpt>
      <trkpt lat="44.12206" lon="6.33384">
        <ele>955</ele>
        <time>2015-06-21T10:14:29Z</time>
      </trkpt>
      <trkpt lat="44.12185" lon="6.33381">
        <ele>955</ele>
        <time>2015-06-21T10:14:35Z</time>
      </trkpt>
      <trkpt lat="44.12155" lon="6.3338">
        <ele>956</ele>
        <time>2015-06-21T10:14:45Z</time>
      </trkpt>
      <trkpt lat="44.12143" lon="6.33391">
        <ele>954</ele>
        <time>2015-06-21T10:14:50Z</time>
      </trkpt>
      <trkpt lat="44.12144" lon="6.33403">
        <ele>956</ele>
        <time>2015-06-21T10:14:57Z</time>
      </trkpt>
      <trkpt lat="44.12149" lon="6.33403">
        <ele>956</ele>
        <time>2015-06-21T10:15:01Z</time>
      </trkpt>
      <trkpt lat="44.12162" lon="6.33404">
        <ele>958</ele>
        <time>2015-06-21T10:15:09Z</time>
      </trkpt>
      <trkpt lat="44.12165" lon="6.33406">
        <ele>958</ele>
        <time>2015-06-21T10:15:12Z</time>
      </trkpt>
      <trkpt lat="44.12179" lon="6.33408">
        <ele>958</ele>
        <time>2015-06-21T10:15:21Z</time>
      </trkpt>
      <trkpt lat="44.12195" lon="6.33412">
        <ele>959</ele>
        <time>2015-06-21T10:15:27Z</time>
      </trkpt>
      <trkpt lat="44.12219" lon="6.33422">
        <ele>959</ele>
        <time>2015-06-21T10:15:36Z</time>
      </trkpt>
      <trkpt lat="44.12243" lon="6.33432">
        <ele>966</ele>
        <time>2015-06-21T10:15:44Z</time>
      </trkpt>
      <trkpt lat="44.1226" lon="6.33431">
        <ele>966</ele>
        <time>2015-06-21T10:15:50Z</time>
      </trkpt>
      <trkpt lat="44.12278" lon="6.3343">
        <ele>959</ele>
        <time>2015-06-21T10:15:55Z</time>
      </trkpt>
      <trkpt lat="44.12305" lon="6.33428">
        <ele>961</ele>
        <time>2015-06-21T10:16:02Z</time>
      </trkpt>
      <trkpt lat="44.12321" lon="6.33421">
        <ele>961</ele>
        <time>2015-06-21T10:16:06Z</time>
      </trkpt>
      <trkpt lat="44.1235" lon="6.33409">
        <ele>960</ele>
        <time>2015-06-21T10:16:12Z</time>
      </trkpt>
      <trkpt lat="44.12379" lon="6.33412">
        <ele>960</ele>
        <time>2015-06-21T10:16:17Z</time>
      </trkpt>
      <trkpt lat="44.12417" lon="6.33434">
        <ele>965</ele>
        <time>2015-06-21T10:16:23Z</time>
      </trkpt>
      <trkpt lat="44.12439" lon="6.33447">
        <ele>964</ele>
        <time>2015-06-21T10:16:28Z</time>
      </trkpt>
      <trkpt lat="44.12447" lon="6.33454">
        <ele>964</ele>
        <time>2015-06-21T10:16:31Z</time>
      </trkpt>
      <trkpt lat="44.12453" lon="6.33471">
        <ele>965</ele>
        <time>2015-06-21T10:16:34Z</time>
      </trkpt>
      <trkpt lat="44.12462" lon="6.33498">
        <ele>961</ele>
        <time>2015-06-21T10:16:38Z</time>
      </trkpt>
      <trkpt lat="44.12479" lon="6.33526">
        <ele>963</ele>
        <time>2015-06-21T10:16:42Z</time>
      </trkpt>
      <trkpt lat="44.12495" lon="6.33546">
        <ele>962</ele>
        <time>2015-06-21T10:16:47Z</time>
      </trkpt>
      <trkpt lat="44.12517" lon="6.33574">
        <ele>964</ele>
        <time>2015-06-21T10:16:54Z</time>
      </trkpt>
      <trkpt lat="44.12524" lon="6.33578">
        <ele>964</ele>
        <time>2015-06-21T10:16:57Z</time>
      </trkpt>
      <trkpt lat="44.12534" lon="6.33576">
        <ele>964</ele>
        <time>2015-06-21T10:17:03Z</time>
      </trkpt>
      <trkpt lat="44.1254" lon="6.33575">
        <ele>964</ele>
        <time>2015-06-21T10:17:06Z</time>
      </trkpt>
      <trkpt lat="44.12568" lon="6.33581">
        <ele>963</ele>
        <time>2015-06-21T10:17:12Z</time>
      </trkpt>
      <trkpt lat="44.12584" lon="6.33586">
        <ele>959</ele>
        <time>2015-06-21T10:17:15Z</time>
      </trkpt>
      <trkpt lat="44.12598" lon="6.33593">
        <ele>955</ele>
        <time>2015-06-21T10:17:18Z</time>
      </trkpt>
      <trkpt lat="44.1263" lon="6.33618">
        <ele>954</ele>
        <time>2015-06-21T10:17:26Z</time>
      </trkpt>
      <trkpt lat="44.12648" lon="6.33644">
        <ele>961</ele>
        <time>2015-06-21T10:17:33Z</time>
      </trkpt>
      <trkpt lat="44.12655" lon="6.33653">
        <ele>960</ele>
        <time>2015-06-21T10:17:37Z</time>
      </trkpt>
      <trkpt lat="44.12664" lon="6.33662">
        <ele>960</ele>
        <time>2015-06-21T10:17:42Z</time>
      </trkpt>
      <trkpt lat="44.12675" lon="6.3367">
        <ele>960</ele>
        <time>2015-06-21T10:17:45Z</time>
      </trkpt>
      <trkpt lat="44.1269" lon="6.33704">
        <ele>956</ele>
        <time>2015-06-21T10:17:51Z</time>
      </trkpt>
      <trkpt lat="44.12698" lon="6.33732">
        <ele>958</ele>
        <time>2015-06-21T10:17:57Z</time>
      </trkpt>
      <trkpt lat="44.12704" lon="6.3374">
        <ele>961</ele>
        <time>2015-06-21T10:18:02Z</time>
      </trkpt>
      <trkpt lat="44.12718" lon="6.33727">
        <ele>958</ele>
        <time>2015-06-21T10:18:08Z</time>
      </trkpt>
      <trkpt lat="44.12724" lon="6.33723">
        <ele>958</ele>
        <time>2015-06-21T10:18:11Z</time>
      </trkpt>
      <trkpt lat="44.12733" lon="6.33721">
        <ele>958</ele>
        <time>2015-06-21T10:18:15Z</time>
      </trkpt>
      <trkpt lat="44.1274" lon="6.33718">
        <ele>961</ele>
        <time>2015-06-21T10:18:20Z</time>
      </trkpt>
      <trkpt lat="44.12748" lon="6.33717">
        <ele>961</ele>
        <time>2015-06-21T10:18:25Z</time>
      </trkpt>
      <trkpt lat="44.1276" lon="6.33716">
        <ele>961</ele>
        <time>2015-06-21T10:18:31Z</time>
      </trkpt>
      <trkpt lat="44.12773" lon="6.33713">
        <ele>967</ele>
        <time>2015-06-21T10:18:38Z</time>
      </trkpt>
      <trkpt lat="44.12787" lon="6.33704">
        <ele>957</ele>
        <time>2015-06-21T10:18:47Z</time>
      </trkpt>
      <trkpt lat="44.12801" lon="6.33695">
        <ele>965</ele>
        <time>2015-06-21T10:18:56Z</time>
      </trkpt>
      <trkpt lat="44.12808" lon="6.33688">
        <ele>965</ele>
        <time>2015-06-21T10:19:02Z</time>
      </trkpt>
      <trkpt lat="44.12819" lon="6.33681">
        <ele>965</ele>
        <time>2015-06-21T10:19:08Z</time>
      </trkpt>
      <trkpt lat="44.12835" lon="6.33672">
        <ele>966</ele>
        <time>2015-06-21T10:19:16Z</time>
      </trkpt>
      <trkpt lat="44.12846" lon="6.3366">
        <ele>966</ele>
        <time>2015-06-21T10:19:24Z</time>
      </trkpt>
      <trkpt lat="44.12856" lon="6.33649">
        <ele>967</ele>
        <time>2015-06-21T10:19:31Z</time>
      </trkpt>
      <trkpt lat="44.12868" lon="6.3364">
        <ele>967</ele>
        <time>2015-06-21T10:19:39Z</time>
      </trkpt>
      <trkpt lat="44.12879" lon="6.33632">
        <ele>973</ele>
        <time>2015-06-21T10:19:47Z</time>
      </trkpt>
      <trkpt lat="44.12887" lon="6.33631">
        <ele>973</ele>
        <time>2015-06-21T10:19:53Z</time>
      </trkpt>
      <trkpt lat="44.12898" lon="6.33637">
        <ele>973</ele>
        <time>2015-06-21T10:19:59Z</time>
      </trkpt>
      <trkpt lat="44.12911" lon="6.33654">
        <ele>980</ele>
        <time>2015-06-21T10:20:04Z</time>
      </trkpt>
      <trkpt lat="44.12936" lon="6.33641">
        <ele>973</ele>
        <time>2015-06-21T10:20:12Z</time>
      </trkpt>
      <trkpt lat="44.12956" lon="6.33611">
        <ele>969</ele>
        <time>2015-06-21T10:20:19Z</time>
      </trkpt>
      <trkpt lat="44.12978" lon="6.33602">
        <ele>972</ele>
        <time>2015-06-21T10:20:24Z</time>
      </trkpt>
      <trkpt lat="44.12997" lon="6.33606">
        <ele>978</ele>
        <time>2015-06-21T10:20:28Z</time>
      </trkpt>
      <trkpt lat="44.13018" lon="6.3361">
        <ele>976</ele>
        <time>2015-06-21T10:20:32Z</time>
      </trkpt>
      <trkpt lat="44.13045" lon="6.33626">
        <ele>969</ele>
        <time>2015-06-21T10:20:36Z</time>
      </trkpt>
      <trkpt lat="44.13067" lon="6.33647">
        <ele>969</ele>
        <time>2015-06-21T10:20:39Z</time>
      </trkpt>
      <trkpt lat="44.1309" lon="6.33653">
        <ele>969</ele>
        <time>2015-06-21T10:20:42Z</time>
      </trkpt>
      <trkpt lat="44.13121" lon="6.33648">
        <ele>967</ele>
        <time>2015-06-21T10:20:46Z</time>
      </trkpt>
      <trkpt lat="44.13141" lon="6.33662">
        <ele>968</ele>
        <time>2015-06-21T10:20:49Z</time>
      </trkpt>
      <trkpt lat="44.13173" lon="6.33688">
        <ele>965</ele>
        <time>2015-06-21T10:20:53Z</time>
      </trkpt>
      <trkpt lat="44.132" lon="6.33702">
        <ele>961</ele>
        <time>2015-06-21T10:20:56Z</time>
      </trkpt>
      <trkpt lat="44.13229" lon="6.33702">
        <ele>958</ele>
        <time>2015-06-21T10:20:59Z</time>
      </trkpt>
      <trkpt lat="44.1326" lon="6.33692">
        <ele>956</ele>
        <time>2015-06-21T10:21:02Z</time>
      </trkpt>
      <trkpt lat="44.13332" lon="6.33686">
        <ele>948</ele>
        <time>2015-06-21T10:21:09Z</time>
      </trkpt>
      <trkpt lat="44.13363" lon="6.33687">
        <ele>944</ele>
        <time>2015-06-21T10:21:12Z</time>
      </trkpt>
      <trkpt lat="44.13405" lon="6.33689">
        <ele>940</ele>
        <time>2015-06-21T10:21:16Z</time>
      </trkpt>
      <trkpt lat="44.13431" lon="6.33691">
        <ele>938</ele>
        <time>2015-06-21T10:21:19Z</time>
      </trkpt>
      <trkpt lat="44.13432" lon="6.33691">
        <ele>938</ele>
        <time>2015-06-21T10:21:22Z</time>
      </trkpt>
      <trkpt lat="44.13422" lon="6.33696">
        <ele>940</ele>
        <time>2015-06-21T10:21:26Z</time>
      </trkpt>
      <trkpt lat="44.13424" lon="6.3373">
        <ele>941</ele>
        <time>2015-06-21T10:21:33Z</time>
      </trkpt>
      <trkpt lat="44.13426" lon="6.33751">
        <ele>939</ele>
        <time>2015-06-21T10:21:36Z</time>
      </trkpt>
      <trkpt lat="44.13422" lon="6.33799">
        <ele>930</ele>
        <time>2015-06-21T10:21:42Z</time>
      </trkpt>
      <trkpt lat="44.13405" lon="6.3382">
        <ele>922</ele>
        <time>2015-06-21T10:21:45Z</time>
      </trkpt>
      <trkpt lat="44.13381" lon="6.33841">
        <ele>929</ele>
        <time>2015-06-21T10:21:49Z</time>
      </trkpt>
      <trkpt lat="44.13363" lon="6.33868">
        <ele>924</ele>
        <time>2015-06-21T10:21:53Z</time>
      </trkpt>
      <trkpt lat="44.13353" lon="6.33899">
        <ele>913</ele>
        <time>2015-06-21T10:21:57Z</time>
      </trkpt>
      <trkpt lat="44.13338" lon="6.33921">
        <ele>913</ele>
        <time>2015-06-21T10:22:01Z</time>
      </trkpt>
      <trkpt lat="44.13311" lon="6.33952">
        <ele>913</ele>
        <time>2015-06-21T10:22:07Z</time>
      </trkpt>
      <trkpt lat="44.13295" lon="6.3398">
        <ele>907</ele>
        <time>2015-06-21T10:22:11Z</time>
      </trkpt>
      <trkpt lat="44.13283" lon="6.33997">
        <ele>904</ele>
        <time>2015-06-21T10:22:14Z</time>
      </trkpt>
      <trkpt lat="44.13267" lon="6.34055">
        <ele>888</ele>
        <time>2015-06-21T10:22:20Z</time>
      </trkpt>
      <trkpt lat="44.13262" lon="6.34087">
        <ele>889</ele>
        <time>2015-06-21T10:22:23Z</time>
      </trkpt>
      <trkpt lat="44.13257" lon="6.34118">
        <ele>884</ele>
        <time>2015-06-21T10:22:26Z</time>
      </trkpt>
      <trkpt lat="44.1325" lon="6.34144">
        <ele>877</ele>
        <time>2015-06-21T10:22:29Z</time>
      </trkpt>
      <trkpt lat="44.13257" lon="6.34167">
        <ele>872</ele>
        <time>2015-06-21T10:22:34Z</time>
      </trkpt>
      <trkpt lat="44.13312" lon="6.34157">
        <ele>868</ele>
        <time>2015-06-21T10:22:41Z</time>
      </trkpt>
      <trkpt lat="44.13346" lon="6.34165">
        <ele>867</ele>
        <time>2015-06-21T10:22:45Z</time>
      </trkpt>
      <trkpt lat="44.13353" lon="6.34185">
        <ele>863</ele>
        <time>2015-06-21T10:22:48Z</time>
      </trkpt>
      <trkpt lat="44.13362" lon="6.34208">
        <ele>863</ele>
        <time>2015-06-21T10:22:52Z</time>
      </trkpt>
      <trkpt lat="44.13395" lon="6.34226">
        <ele>862</ele>
        <time>2015-06-21T10:23:01Z</time>
      </trkpt>
      <trkpt lat="44.13419" lon="6.34242">
        <ele>864</ele>
        <time>2015-06-21T10:23:08Z</time>
      </trkpt>
      <trkpt lat="44.1343" lon="6.34251">
        <ele>864</ele>
        <time>2015-06-21T10:23:12Z</time>
      </trkpt>
      <trkpt lat="44.13453" lon="6.34267">
        <ele>869</ele>
        <time>2015-06-21T10:23:20Z</time>
      </trkpt>
      <trkpt lat="44.13458" lon="6.34281">
        <ele>869</ele>
        <time>2015-06-21T10:23:24Z</time>
      </trkpt>
      <trkpt lat="44.13452" lon="6.34298">
        <ele>872</ele>
        <time>2015-06-21T10:23:28Z</time>
      </trkpt>
      <trkpt lat="44.1345" lon="6.34324">
        <ele>874</ele>
        <time>2015-06-21T10:23:33Z</time>
      </trkpt>
      <trkpt lat="44.13448" lon="6.34344">
        <ele>874</ele>
        <time>2015-06-21T10:23:37Z</time>
      </trkpt>
      <trkpt lat="44.13424" lon="6.34379">
        <ele>873</ele>
        <time>2015-06-21T10:23:44Z</time>
      </trkpt>
      <trkpt lat="44.13397" lon="6.34409">
        <ele>873</ele>
        <time>2015-06-21T10:23:51Z</time>
      </trkpt>
      <trkpt lat="44.13381" lon="6.34425">
        <ele>873</ele>
        <time>2015-06-21T10:23:55Z</time>
      </trkpt>
      <trkpt lat="44.13361" lon="6.34453">
        <ele>873</ele>
        <time>2015-06-21T10:24:01Z</time>
      </trkpt>
      <trkpt lat="44.13349" lon="6.34474">
        <ele>872</ele>
        <time>2015-06-21T10:24:04Z</time>
      </trkpt>
      <trkpt lat="44.13319" lon="6.34525">
        <ele>872</ele>
        <time>2015-06-21T10:24:11Z</time>
      </trkpt>
      <trkpt lat="44.13297" lon="6.34543">
        <ele>871</ele>
        <time>2015-06-21T10:24:15Z</time>
      </trkpt>
      <trkpt lat="44.13276" lon="6.34537">
        <ele>872</ele>
        <time>2015-06-21T10:24:18Z</time>
      </trkpt>
      <trkpt lat="44.13256" lon="6.34535">
        <ele>875</ele>
        <time>2015-06-21T10:24:21Z</time>
      </trkpt>
      <trkpt lat="44.1325" lon="6.3455">
        <ele>874</ele>
        <time>2015-06-21T10:24:24Z</time>
      </trkpt>
      <trkpt lat="44.13255" lon="6.34567">
        <ele>874</ele>
        <time>2015-06-21T10:24:28Z</time>
      </trkpt>
      <trkpt lat="44.13275" lon="6.34595">
        <ele>872</ele>
        <time>2015-06-21T10:24:36Z</time>
      </trkpt>
      <trkpt lat="44.13272" lon="6.34601">
        <ele>876</ele>
        <time>2015-06-21T10:24:40Z</time>
      </trkpt>
      <trkpt lat="44.13262" lon="6.34601">
        <ele>880</ele>
        <time>2015-06-21T10:24:48Z</time>
      </trkpt>
      <trkpt lat="44.13267" lon="6.34613">
        <ele>876</ele>
        <time>2015-06-21T10:24:55Z</time>
      </trkpt>
      <trkpt lat="44.13271" lon="6.3462">
        <ele>876</ele>
        <time>2015-06-21T10:24:59Z</time>
      </trkpt>
      <trkpt lat="44.1327" lon="6.3463">
        <ele>880</ele>
        <time>2015-06-21T10:25:06Z</time>
      </trkpt>
      <trkpt lat="44.13267" lon="6.34633">
        <ele>880</ele>
        <time>2015-06-21T10:25:09Z</time>
      </trkpt>
      <trkpt lat="44.13255" lon="6.34643">
        <ele>883</ele>
        <time>2015-06-21T10:25:18Z</time>
      </trkpt>
      <trkpt lat="44.13243" lon="6.34653">
        <ele>886</ele>
        <time>2015-06-21T10:25:25Z</time>
      </trkpt>
      <trkpt lat="44.13234" lon="6.34661">
        <ele>892</ele>
        <time>2015-06-21T10:25:33Z</time>
      </trkpt>
      <trkpt lat="44.13229" lon="6.34665">
        <ele>892</ele>
        <time>2015-06-21T10:25:37Z</time>
      </trkpt>
      <trkpt lat="44.1323" lon="6.34671">
        <ele>892</ele>
        <time>2015-06-21T10:25:41Z</time>
      </trkpt>
      <trkpt lat="44.13238" lon="6.34674">
        <ele>886</ele>
        <time>2015-06-21T10:25:47Z</time>
      </trkpt>
      <trkpt lat="44.13236" lon="6.34681">
        <ele>894</ele>
        <time>2015-06-21T10:25:52Z</time>
      </trkpt>
      <trkpt lat="44.13224" lon="6.34687">
        <ele>894</ele>
        <time>2015-06-21T10:26:01Z</time>
      </trkpt>
      <trkpt lat="44.13221" lon="6.34689">
        <ele>894</ele>
        <time>2015-06-21T10:26:04Z</time>
      </trkpt>
      <trkpt lat="44.13211" lon="6.34697">
        <ele>894</ele>
        <time>2015-06-21T10:26:12Z</time>
      </trkpt>
      <trkpt lat="44.13198" lon="6.34716">
        <ele>901</ele>
        <time>2015-06-21T10:26:25Z</time>
      </trkpt>
      <trkpt lat="44.13191" lon="6.34729">
        <ele>901</ele>
        <time>2015-06-21T10:26:34Z</time>
      </trkpt>
      <trkpt lat="44.13192" lon="6.34736">
        <ele>901</ele>
        <time>2015-06-21T10:26:38Z</time>
      </trkpt>
      <trkpt lat="44.13199" lon="6.34734">
        <ele>901</ele>
        <time>2015-06-21T10:26:44Z</time>
      </trkpt>
      <trkpt lat="44.13204" lon="6.34736">
        <ele>901</ele>
        <time>2015-06-21T10:26:50Z</time>
      </trkpt>
      <trkpt lat="44.13203" lon="6.34737">
        <ele>907</ele>
        <time>2015-06-21T10:26:56Z</time>
      </trkpt>
      <trkpt lat="44.13205" lon="6.34743">
        <ele>907</ele>
        <time>2015-06-21T10:27:00Z</time>
      </trkpt>
      <trkpt lat="44.13204" lon="6.34747">
        <ele>907</ele>
        <time>2015-06-21T10:27:04Z</time>
      </trkpt>
      <trkpt lat="44.132" lon="6.34758">
        <ele>907</ele>
        <time>2015-06-21T10:27:13Z</time>
      </trkpt>
      <trkpt lat="44.13196" lon="6.34774">
        <ele>912</ele>
        <time>2015-06-21T10:27:24Z</time>
      </trkpt>
      <trkpt lat="44.13193" lon="6.34788">
        <ele>912</ele>
        <time>2015-06-21T10:27:33Z</time>
      </trkpt>
      <trkpt lat="44.1319" lon="6.34796">
        <ele>919</ele>
        <time>2015-06-21T10:27:39Z</time>
      </trkpt>
      <trkpt lat="44.13193" lon="6.34801">
        <ele>919</ele>
        <time>2015-06-21T10:27:45Z</time>
      </trkpt>
      <trkpt lat="44.13193" lon="6.34811">
        <ele>919</ele>
        <time>2015-06-21T10:27:53Z</time>
      </trkpt>
      <trkpt lat="44.1319" lon="6.34817">
        <ele>919</ele>
        <time>2015-06-21T10:27:58Z</time>
      </trkpt>
      <trkpt lat="44.13182" lon="6.3483">
        <ele>924</ele>
        <time>2015-06-21T10:28:07Z</time>
      </trkpt>
      <trkpt lat="44.13179" lon="6.34835">
        <ele>924</ele>
        <time>2015-06-21T10:28:10Z</time>
      </trkpt>
      <trkpt lat="44.1318" lon="6.34843">
        <ele>924</ele>
        <time>2015-06-21T10:28:15Z</time>
      </trkpt>
      <trkpt lat="44.13188" lon="6.34859">
        <ele>930</ele>
        <time>2015-06-21T10:28:24Z</time>
      </trkpt>
      <trkpt lat="44.13194" lon="6.34869">
        <ele>930</ele>
        <time>2015-06-21T10:28:31Z</time>
      </trkpt>
      <trkpt lat="44.13195" lon="6.34877">
        <ele>933</ele>
        <time>2015-06-21T10:28:38Z</time>
      </trkpt>
      <trkpt lat="44.13191" lon="6.34877">
        <ele>933</ele>
        <time>2015-06-21T10:28:43Z</time>
      </trkpt>
      <trkpt lat="44.13183" lon="6.3488">
        <ele>933</ele>
        <time>2015-06-21T10:28:51Z</time>
      </trkpt>
      <trkpt lat="44.13175" lon="6.34884">
        <ele>937</ele>
        <time>2015-06-21T10:29:00Z</time>
      </trkpt>
      <trkpt lat="44.13171" lon="6.34889">
        <ele>937</ele>
        <time>2015-06-21T10:29:06Z</time>
      </trkpt>
      <trkpt lat="44.13165" lon="6.34895">
        <ele>937</ele>
        <time>2015-06-21T10:29:13Z</time>
      </trkpt>
      <trkpt lat="44.13159" lon="6.34899">
        <ele>937</ele>
        <time>2015-06-21T10:29:19Z</time>
      </trkpt>
      <trkpt lat="44.13152" lon="6.34905">
        <ele>941</ele>
        <time>2015-06-21T10:29:26Z</time>
      </trkpt>
      <trkpt lat="44.13144" lon="6.34916">
        <ele>941</ele>
        <time>2015-06-21T10:29:33Z</time>
      </trkpt>
      <trkpt lat="44.1314" lon="6.34929">
        <ele>941</ele>
        <time>2015-06-21T10:29:41Z</time>
      </trkpt>
      <trkpt lat="44.13137" lon="6.34944">
        <ele>946</ele>
        <time>2015-06-21T10:29:50Z</time>
      </trkpt>
      <trkpt lat="44.13136" lon="6.34955">
        <ele>946</ele>
        <time>2015-06-21T10:29:56Z</time>
      </trkpt>
      <trkpt lat="44.13134" lon="6.34964">
        <ele>947</ele>
        <time>2015-06-21T10:30:01Z</time>
      </trkpt>
      <trkpt lat="44.13134" lon="6.34975">
        <ele>947</ele>
        <time>2015-06-21T10:30:08Z</time>
      </trkpt>
      <trkpt lat="44.1313" lon="6.34984">
        <ele>947</ele>
        <time>2015-06-21T10:30:15Z</time>
      </trkpt>
      <trkpt lat="44.13122" lon="6.34986">
        <ele>950</ele>
        <time>2015-06-21T10:30:21Z</time>
      </trkpt>
      <trkpt lat="44.13113" lon="6.34983">
        <ele>950</ele>
        <time>2015-06-21T10:30:28Z</time>
      </trkpt>
      <trkpt lat="44.13106" lon="6.3498">
        <ele>950</ele>
        <time>2015-06-21T10:30:34Z</time>
      </trkpt>
      <trkpt lat="44.13096" lon="6.34977">
        <ele>953</ele>
        <time>2015-06-21T10:30:41Z</time>
      </trkpt>
      <trkpt lat="44.13083" lon="6.34976">
        <ele>953</ele>
        <time>2015-06-21T10:30:49Z</time>
      </trkpt>
      <trkpt lat="44.13075" lon="6.34979">
        <ele>953</ele>
        <time>2015-06-21T10:30:55Z</time>
      </trkpt>
      <trkpt lat="44.13065" lon="6.34981">
        <ele>957</ele>
        <time>2015-06-21T10:31:03Z</time>
      </trkpt>
      <trkpt lat="44.13056" lon="6.34984">
        <ele>957</ele>
        <time>2015-06-21T10:31:10Z</time>
      </trkpt>
      <trkpt lat="44.13047" lon="6.34984">
        <ele>957</ele>
        <time>2015-06-21T10:31:16Z</time>
      </trkpt>
      <trkpt lat="44.1304" lon="6.34984">
        <ele>959</ele>
        <time>2015-06-21T10:31:22Z</time>
      </trkpt>
      <trkpt lat="44.13036" lon="6.34986">
        <ele>959</ele>
        <time>2015-06-21T10:31:27Z</time>
      </trkpt>
      <trkpt lat="44.13034" lon="6.34988">
        <ele>965</ele>
        <time>2015-06-21T10:31:30Z</time>
      </trkpt>
      <trkpt lat="44.13028" lon="6.34995">
        <ele>965</ele>
        <time>2015-06-21T10:31:39Z</time>
      </trkpt>
      <trkpt lat="44.13022" lon="6.34997">
        <ele>965</ele>
        <time>2015-06-21T10:31:44Z</time>
      </trkpt>
      <trkpt lat="44.13018" lon="6.34999">
        <ele>965</ele>
        <time>2015-06-21T10:31:48Z</time>
      </trkpt>
      <trkpt lat="44.13011" lon="6.35007">
        <ele>968</ele>
        <time>2015-06-21T10:31:57Z</time>
      </trkpt>
      <trkpt lat="44.13005" lon="6.35013">
        <ele>968</ele>
        <time>2015-06-21T10:32:04Z</time>
      </trkpt>
      <trkpt lat="44.12999" lon="6.35019">
        <ele>972</ele>
        <time>2015-06-21T10:32:12Z</time>
      </trkpt>
      <trkpt lat="44.12992" lon="6.35028">
        <ele>972</ele>
        <time>2015-06-21T10:32:19Z</time>
      </trkpt>
      <trkpt lat="44.12984" lon="6.35036">
        <ele>976</ele>
        <time>2015-06-21T10:32:25Z</time>
      </trkpt>
      <trkpt lat="44.12981" lon="6.35039">
        <ele>976</ele>
        <time>2015-06-21T10:32:28Z</time>
      </trkpt>
      <trkpt lat="44.12975" lon="6.35047">
        <ele>980</ele>
        <time>2015-06-21T10:32:34Z</time>
      </trkpt>
      <trkpt lat="44.12966" lon="6.35057">
        <ele>980</ele>
        <time>2015-06-21T10:32:42Z</time>
      </trkpt>
      <trkpt lat="44.1296" lon="6.35065">
        <ele>980</ele>
        <time>2015-06-21T10:32:49Z</time>
      </trkpt>
      <trkpt lat="44.12959" lon="6.35074">
        <ele>983</ele>
        <time>2015-06-21T10:32:54Z</time>
      </trkpt>
      <trkpt lat="44.12959" lon="6.3509">
        <ele>983</ele>
        <time>2015-06-21T10:33:03Z</time>
      </trkpt>
      <trkpt lat="44.12958" lon="6.35101">
        <ele>989</ele>
        <time>2015-06-21T10:33:10Z</time>
      </trkpt>
      <trkpt lat="44.12957" lon="6.35114">
        <ele>989</ele>
        <time>2015-06-21T10:33:18Z</time>
      </trkpt>
      <trkpt lat="44.12955" lon="6.35126">
        <ele>990</ele>
        <time>2015-06-21T10:33:25Z</time>
      </trkpt>
      <trkpt lat="44.12953" lon="6.35139">
        <ele>990</ele>
        <time>2015-06-21T10:33:32Z</time>
      </trkpt>
      <trkpt lat="44.12952" lon="6.35144">
        <ele>990</ele>
        <time>2015-06-21T10:33:35Z</time>
      </trkpt>
      <trkpt lat="44.12953" lon="6.35155">
        <ele>992</ele>
        <time>2015-06-21T10:33:40Z</time>
      </trkpt>
      <trkpt lat="44.12949" lon="6.35159">
        <ele>992</ele>
        <time>2015-06-21T10:33:43Z</time>
      </trkpt>
      <trkpt lat="44.12946" lon="6.3516">
        <ele>992</ele>
        <time>2015-06-21T10:33:47Z</time>
      </trkpt>
      <trkpt lat="44.12938" lon="6.35157">
        <ele>992</ele>
        <time>2015-06-21T10:33:54Z</time>
      </trkpt>
      <trkpt lat="44.12927" lon="6.3516">
        <ele>995</ele>
        <time>2015-06-21T10:34:02Z</time>
      </trkpt>
      <trkpt lat="44.12917" lon="6.3516">
        <ele>995</ele>
        <time>2015-06-21T10:34:09Z</time>
      </trkpt>
      <trkpt lat="44.12909" lon="6.3516">
        <ele>995</ele>
        <time>2015-06-21T10:34:14Z</time>
      </trkpt>
      <trkpt lat="44.12904" lon="6.35161">
        <ele>995</ele>
        <time>2015-06-21T10:34:17Z</time>
      </trkpt>
      <trkpt lat="44.12894" lon="6.35159">
        <ele>999</ele>
        <time>2015-06-21T10:34:23Z</time>
      </trkpt>
      <trkpt lat="44.12885" lon="6.35159">
        <ele>999</ele>
        <time>2015-06-21T10:34:28Z</time>
      </trkpt>
      <trkpt lat="44.12874" lon="6.35165">
        <ele>1001</ele>
        <time>2015-06-21T10:34:35Z</time>
      </trkpt>
      <trkpt lat="44.12862" lon="6.35174">
        <ele>1001</ele>
        <time>2015-06-21T10:34:43Z</time>
      </trkpt>
      <trkpt lat="44.12852" lon="6.35189">
        <ele>1006</ele>
        <time>2015-06-21T10:34:53Z</time>
      </trkpt>
      <trkpt lat="44.12845" lon="6.35205">
        <ele>1007</ele>
        <time>2015-06-21T10:35:02Z</time>
      </trkpt>
      <trkpt lat="44.12841" lon="6.3522">
        <ele>1012</ele>
        <time>2015-06-21T10:35:09Z</time>
      </trkpt>
      <trkpt lat="44.12836" lon="6.3524">
        <ele>1014</ele>
        <time>2015-06-21T10:35:19Z</time>
      </trkpt>
      <trkpt lat="44.12832" lon="6.35255">
        <ele>1014</ele>
        <time>2015-06-21T10:35:27Z</time>
      </trkpt>
      <trkpt lat="44.12827" lon="6.35269">
        <ele>1015</ele>
        <time>2015-06-21T10:35:35Z</time>
      </trkpt>
      <trkpt lat="44.12818" lon="6.35288">
        <ele>1019</ele>
        <time>2015-06-21T10:35:46Z</time>
      </trkpt>
      <trkpt lat="44.12811" lon="6.35306">
        <ele>1022</ele>
        <time>2015-06-21T10:35:56Z</time>
      </trkpt>
      <trkpt lat="44.12805" lon="6.35313">
        <ele>1022</ele>
        <time>2015-06-21T10:36:02Z</time>
      </trkpt>
      <trkpt lat="44.12798" lon="6.3533">
        <ele>1025</ele>
        <time>2015-06-21T10:36:12Z</time>
      </trkpt>
      <trkpt lat="44.12804" lon="6.35337">
        <ele>1025</ele>
        <time>2015-06-21T10:36:17Z</time>
      </trkpt>
      <trkpt lat="44.128" lon="6.35348">
        <ele>1027</ele>
        <time>2015-06-21T10:36:23Z</time>
      </trkpt>
      <trkpt lat="44.12791" lon="6.35357">
        <ele>1029</ele>
        <time>2015-06-21T10:36:29Z</time>
      </trkpt>
      <trkpt lat="44.1278" lon="6.35362">
        <ele>1029</ele>
        <time>2015-06-21T10:36:35Z</time>
      </trkpt>
      <trkpt lat="44.12764" lon="6.35362">
        <ele>1029</ele>
        <time>2015-06-21T10:36:42Z</time>
      </trkpt>
      <trkpt lat="44.12745" lon="6.35354">
        <ele>1029</ele>
        <time>2015-06-21T10:36:51Z</time>
      </trkpt>
      <trkpt lat="44.12725" lon="6.35342">
        <ele>1026</ele>
        <time>2015-06-21T10:37:02Z</time>
      </trkpt>
      <trkpt lat="44.12718" lon="6.35346">
        <ele>1026</ele>
        <time>2015-06-21T10:37:06Z</time>
      </trkpt>
      <trkpt lat="44.12718" lon="6.35363">
        <ele>1028</ele>
        <time>2015-06-21T10:37:13Z</time>
      </trkpt>
      <trkpt lat="44.12719" lon="6.35373">
        <ele>1028</ele>
        <time>2015-06-21T10:37:17Z</time>
      </trkpt>
      <trkpt lat="44.12714" lon="6.35399">
        <ele>1032</ele>
        <time>2015-06-21T10:37:28Z</time>
      </trkpt>
      <trkpt lat="44.12709" lon="6.35423">
        <ele>1037</ele>
        <time>2015-06-21T10:37:38Z</time>
      </trkpt>
      <trkpt lat="44.12704" lon="6.35448">
        <ele>1044</ele>
        <time>2015-06-21T10:37:49Z</time>
      </trkpt>
      <trkpt lat="44.12705" lon="6.35467">
        <ele>1046</ele>
        <time>2015-06-21T10:37:58Z</time>
      </trkpt>
      <trkpt lat="44.12708" lon="6.35487">
        <ele>1047</ele>
        <time>2015-06-21T10:38:07Z</time>
      </trkpt>
      <trkpt lat="44.12703" lon="6.35502">
        <ele>1047</ele>
        <time>2015-06-21T10:38:14Z</time>
      </trkpt>
      <trkpt lat="44.12693" lon="6.35507">
        <ele>1047</ele>
        <time>2015-06-21T10:38:21Z</time>
      </trkpt>
      <trkpt lat="44.1268" lon="6.35501">
        <ele>1050</ele>
        <time>2015-06-21T10:38:29Z</time>
      </trkpt>
      <trkpt lat="44.12669" lon="6.35492">
        <ele>1050</ele>
        <time>2015-06-21T10:38:36Z</time>
      </trkpt>
      <trkpt lat="44.12655" lon="6.35483">
        <ele>1048</ele>
        <time>2015-06-21T10:38:45Z</time>
      </trkpt>
      <trkpt lat="44.12646" lon="6.3549">
        <ele>1052</ele>
        <time>2015-06-21T10:38:51Z</time>
      </trkpt>
      <trkpt lat="44.12642" lon="6.35506">
        <ele>1052</ele>
        <time>2015-06-21T10:38:58Z</time>
      </trkpt>
      <trkpt lat="44.1264" lon="6.35528">
        <ele>1055</ele>
        <time>2015-06-21T10:39:06Z</time>
      </trkpt>
      <trkpt lat="44.12637" lon="6.35548">
        <ele>1058</ele>
        <time>2015-06-21T10:39:14Z</time>
      </trkpt>
      <trkpt lat="44.12633" lon="6.35566">
        <ele>1058</ele>
        <time>2015-06-21T10:39:22Z</time>
      </trkpt>
      <trkpt lat="44.12623" lon="6.35581">
        <ele>1063</ele>
        <time>2015-06-21T10:39:30Z</time>
      </trkpt>
      <trkpt lat="44.12609" lon="6.35598">
        <ele>1061</ele>
        <time>2015-06-21T10:39:40Z</time>
      </trkpt>
      <trkpt lat="44.12598" lon="6.35615">
        <ele>1061</ele>
        <time>2015-06-21T10:39:50Z</time>
      </trkpt>
      <trkpt lat="44.12584" lon="6.35628">
        <ele>1062</ele>
        <time>2015-06-21T10:40:00Z</time>
      </trkpt>
      <trkpt lat="44.12567" lon="6.35635">
        <ele>1069</ele>
        <time>2015-06-21T10:40:10Z</time>
      </trkpt>
      <trkpt lat="44.12554" lon="6.35647">
        <ele>1069</ele>
        <time>2015-06-21T10:40:17Z</time>
      </trkpt>
      <trkpt lat="44.12542" lon="6.35661">
        <ele>1071</ele>
        <time>2015-06-21T10:40:25Z</time>
      </trkpt>
      <trkpt lat="44.12537" lon="6.35673">
        <ele>1079</ele>
        <time>2015-06-21T10:40:31Z</time>
      </trkpt>
      <trkpt lat="44.12534" lon="6.35686">
        <ele>1080</ele>
        <time>2015-06-21T10:40:37Z</time>
      </trkpt>
      <trkpt lat="44.1254" lon="6.35703">
        <ele>1080</ele>
        <time>2015-06-21T10:40:44Z</time>
      </trkpt>
      <trkpt lat="44.12548" lon="6.35707">
        <ele>1074</ele>
        <time>2015-06-21T10:40:49Z</time>
      </trkpt>
      <trkpt lat="44.12564" lon="6.35715">
        <ele>1078</ele>
        <time>2015-06-21T10:40:57Z</time>
      </trkpt>
      <trkpt lat="44.12576" lon="6.35724">
        <ele>1069</ele>
        <time>2015-06-21T10:41:03Z</time>
      </trkpt>
      <trkpt lat="44.12585" lon="6.35739">
        <ele>1074</ele>
        <time>2015-06-21T10:41:09Z</time>
      </trkpt>
      <trkpt lat="44.12584" lon="6.35764">
        <ele>1078</ele>
        <time>2015-06-21T10:41:15Z</time>
      </trkpt>
      <trkpt lat="44.12574" lon="6.35789">
        <ele>1078</ele>
        <time>2015-06-21T10:41:21Z</time>
      </trkpt>
      <trkpt lat="44.12565" lon="6.35819">
        <ele>1088</ele>
        <time>2015-06-21T10:41:28Z</time>
      </trkpt>
      <trkpt lat="44.12559" lon="6.3584">
        <ele>1088</ele>
        <time>2015-06-21T10:41:33Z</time>
      </trkpt>
      <trkpt lat="44.12555" lon="6.35865">
        <ele>1087</ele>
        <time>2015-06-21T10:41:38Z</time>
      </trkpt>
      <trkpt lat="44.12558" lon="6.35887">
        <ele>1088</ele>
        <time>2015-06-21T10:41:43Z</time>
      </trkpt>
      <trkpt lat="44.12554" lon="6.35909">
        <ele>1088</ele>
        <time>2015-06-21T10:41:49Z</time>
      </trkpt>
      <trkpt lat="44.12538" lon="6.35928">
        <ele>1099</ele>
        <time>2015-06-21T10:41:56Z</time>
      </trkpt>
      <trkpt lat="44.12525" lon="6.35944">
        <ele>1095</ele>
        <time>2015-06-21T10:42:02Z</time>
      </trkpt>
      <trkpt lat="44.12512" lon="6.35961">
        <ele>1101</ele>
        <time>2015-06-21T10:42:08Z</time>
      </trkpt>
      <trkpt lat="44.12504" lon="6.35977">
        <ele>1101</ele>
        <time>2015-06-21T10:42:13Z</time>
      </trkpt>
      <trkpt lat="44.12504" lon="6.35999">
        <ele>1099</ele>
        <time>2015-06-21T10:42:19Z</time>
      </trkpt>
      <trkpt lat="44.12506" lon="6.36022">
        <ele>1098</ele>
        <time>2015-06-21T10:42:25Z</time>
      </trkpt>
      <trkpt lat="44.12502" lon="6.36048">
        <ele>1098</ele>
        <time>2015-06-21T10:42:32Z</time>
      </trkpt>
      <trkpt lat="44.12505" lon="6.36067">
        <ele>1098</ele>
        <time>2015-06-21T10:42:37Z</time>
      </trkpt>
      <trkpt lat="44.12508" lon="6.36087">
        <ele>1097</ele>
        <time>2015-06-21T10:42:42Z</time>
      </trkpt>
      <trkpt lat="44.12511" lon="6.36102">
        <ele>1097</ele>
        <time>2015-06-21T10:42:47Z</time>
      </trkpt>
      <trkpt lat="44.12521" lon="6.36119">
        <ele>1095</ele>
        <time>2015-06-21T10:42:53Z</time>
      </trkpt>
      <trkpt lat="44.12533" lon="6.36144">
        <ele>1097</ele>
        <time>2015-06-21T10:43:02Z</time>
      </trkpt>
      <trkpt lat="44.1254" lon="6.3616">
        <ele>1101</ele>
        <time>2015-06-21T10:43:08Z</time>
      </trkpt>
      <trkpt lat="44.12549" lon="6.3618">
        <ele>1096</ele>
        <time>2015-06-21T10:43:15Z</time>
      </trkpt>
      <trkpt lat="44.12557" lon="6.362">
        <ele>1099</ele>
        <time>2015-06-21T10:43:22Z</time>
      </trkpt>
      <trkpt lat="44.12563" lon="6.36215">
        <ele>1104</ele>
        <time>2015-06-21T10:43:29Z</time>
      </trkpt>
      <trkpt lat="44.12564" lon="6.36217">
        <ele>1104</ele>
        <time>2015-06-21T10:43:34Z</time>
      </trkpt>
      <trkpt lat="44.12565" lon="6.36217">
        <ele>1104</ele>
        <time>2015-06-21T10:43:37Z</time>
      </trkpt>
      <trkpt lat="44.12572" lon="6.36215">
        <ele>1091</ele>
        <time>2015-06-21T10:43:44Z</time>
      </trkpt>
      <trkpt lat="44.12573" lon="6.36214">
        <ele>1091</ele>
        <time>2015-06-21T10:43:50Z</time>
      </trkpt>
      <trkpt lat="44.12574" lon="6.36212">
        <ele>1091</ele>
        <time>2015-06-21T10:43:55Z</time>
      </trkpt>
      <trkpt lat="44.12578" lon="6.36206">
        <ele>1090</ele>
        <time>2015-06-21T10:44:00Z</time>
      </trkpt>
      <trkpt lat="44.12582" lon="6.36201">
        <ele>1090</ele>
        <time>2015-06-21T10:44:04Z</time>
      </trkpt>
      <trkpt lat="44.12591" lon="6.36194">
        <ele>1090</ele>
        <time>2015-06-21T10:44:12Z</time>
      </trkpt>
      <trkpt lat="44.12602" lon="6.36176">
        <ele>1079</ele>
        <time>2015-06-21T10:44:19Z</time>
      </trkpt>
      <trkpt lat="44.12606" lon="6.36171">
        <ele>1079</ele>
        <time>2015-06-21T10:44:22Z</time>
      </trkpt>
      <trkpt lat="44.12614" lon="6.36158">
        <ele>1079</ele>
        <time>2015-06-21T10:44:29Z</time>
      </trkpt>
      <trkpt lat="44.12626" lon="6.36149">
        <ele>1070</ele>
        <time>2015-06-21T10:44:34Z</time>
      </trkpt>
      <trkpt lat="44.12636" lon="6.36145">
        <ele>1070</ele>
        <time>2015-06-21T10:44:37Z</time>
      </trkpt>
      <trkpt lat="44.12643" lon="6.36141">
        <ele>1070</ele>
        <time>2015-06-21T10:44:41Z</time>
      </trkpt>
      <trkpt lat="44.12645" lon="6.36134">
        <ele>1070</ele>
        <time>2015-06-21T10:44:44Z</time>
      </trkpt>
      <trkpt lat="44.12651" lon="6.3613">
        <ele>1070</ele>
        <time>2015-06-21T10:44:49Z</time>
      </trkpt>
      <trkpt lat="44.12655" lon="6.3613">
        <ele>1060</ele>
        <time>2015-06-21T10:44:56Z</time>
      </trkpt>
      <trkpt lat="44.1266" lon="6.3613">
        <ele>1060</ele>
        <time>2015-06-21T10:45:03Z</time>
      </trkpt>
      <trkpt lat="44.12669" lon="6.36128">
        <ele>1060</ele>
        <time>2015-06-21T10:45:07Z</time>
      </trkpt>
      <trkpt lat="44.12672" lon="6.36126">
        <ele>1060</ele>
        <time>2015-06-21T10:45:10Z</time>
      </trkpt>
      <trkpt lat="44.12675" lon="6.36121">
        <ele>1064</ele>
        <time>2015-06-21T10:45:17Z</time>
      </trkpt>
      <trkpt lat="44.12675" lon="6.3612">
        <ele>1064</ele>
        <time>2015-06-21T10:45:20Z</time>
      </trkpt>
      <trkpt lat="44.12674" lon="6.36107">
        <ele>1064</ele>
        <time>2015-06-21T10:45:25Z</time>
      </trkpt>
      <trkpt lat="44.12678" lon="6.36086">
        <ele>1065</ele>
        <time>2015-06-21T10:45:29Z</time>
      </trkpt>
      <trkpt lat="44.12694" lon="6.36068">
        <ele>1063</ele>
        <time>2015-06-21T10:45:33Z</time>
      </trkpt>
      <trkpt lat="44.12696" lon="6.36058">
        <ele>1063</ele>
        <time>2015-06-21T10:45:36Z</time>
      </trkpt>
      <trkpt lat="44.12705" lon="6.36049">
        <ele>1063</ele>
        <time>2015-06-21T10:45:40Z</time>
      </trkpt>
      <trkpt lat="44.12708" lon="6.36047">
        <ele>1063</ele>
        <time>2015-06-21T10:45:43Z</time>
      </trkpt>
      <trkpt lat="44.12716" lon="6.36051">
        <ele>1056</ele>
        <time>2015-06-21T10:45:48Z</time>
      </trkpt>
      <trkpt lat="44.12725" lon="6.36045">
        <ele>1056</ele>
        <time>2015-06-21T10:45:54Z</time>
      </trkpt>
      <trkpt lat="44.12724" lon="6.36042">
        <ele>1056</ele>
        <time>2015-06-21T10:45:59Z</time>
      </trkpt>
      <trkpt lat="44.12728" lon="6.36025">
        <ele>1061</ele>
        <time>2015-06-21T10:46:04Z</time>
      </trkpt>
      <trkpt lat="44.12734" lon="6.36011">
        <ele>1060</ele>
        <time>2015-06-21T10:46:09Z</time>
      </trkpt>
      <trkpt lat="44.12739" lon="6.35994">
        <ele>1058</ele>
        <time>2015-06-21T10:46:13Z</time>
      </trkpt>
      <trkpt lat="44.12745" lon="6.35979">
        <ele>1058</ele>
        <time>2015-06-21T10:46:17Z</time>
      </trkpt>
      <trkpt lat="44.12752" lon="6.35973">
        <ele>1058</ele>
        <time>2015-06-21T10:46:20Z</time>
      </trkpt>
      <trkpt lat="44.1276" lon="6.35961">
        <ele>1058</ele>
        <time>2015-06-21T10:46:24Z</time>
      </trkpt>
      <trkpt lat="44.12771" lon="6.35954">
        <ele>1053</ele>
        <time>2015-06-21T10:46:28Z</time>
      </trkpt>
      <trkpt lat="44.12781" lon="6.35944">
        <ele>1053</ele>
        <time>2015-06-21T10:46:33Z</time>
      </trkpt>
      <trkpt lat="44.12791" lon="6.35935">
        <ele>1053</ele>
        <time>2015-06-21T10:46:39Z</time>
      </trkpt>
      <trkpt lat="44.12799" lon="6.35915">
        <ele>1049</ele>
        <time>2015-06-21T10:46:45Z</time>
      </trkpt>
      <trkpt lat="44.12796" lon="6.35902">
        <ele>1051</ele>
        <time>2015-06-21T10:46:50Z</time>
      </trkpt>
      <trkpt lat="44.12803" lon="6.35885">
        <ele>1051</ele>
        <time>2015-06-21T10:46:55Z</time>
      </trkpt>
      <trkpt lat="44.12798" lon="6.35871">
        <ele>1054</ele>
        <time>2015-06-21T10:46:59Z</time>
      </trkpt>
      <trkpt lat="44.12794" lon="6.35864">
        <ele>1054</ele>
        <time>2015-06-21T10:47:02Z</time>
      </trkpt>
      <trkpt lat="44.12803" lon="6.35862">
        <ele>1054</ele>
        <time>2015-06-21T10:47:07Z</time>
      </trkpt>
      <trkpt lat="44.12808" lon="6.35853">
        <ele>1054</ele>
        <time>2015-06-21T10:47:10Z</time>
      </trkpt>
      <trkpt lat="44.12806" lon="6.35845">
        <ele>1057</ele>
        <time>2015-06-21T10:47:14Z</time>
      </trkpt>
      <trkpt lat="44.12807" lon="6.35844">
        <ele>1057</ele>
        <time>2015-06-21T10:47:18Z</time>
      </trkpt>
      <trkpt lat="44.12812" lon="6.35843">
        <ele>1057</ele>
        <time>2015-06-21T10:47:26Z</time>
      </trkpt>
      <trkpt lat="44.12816" lon="6.35835">
        <ele>1057</ele>
        <time>2015-06-21T10:47:30Z</time>
      </trkpt>
      <trkpt lat="44.12818" lon="6.35815">
        <ele>1061</ele>
        <time>2015-06-21T10:47:40Z</time>
      </trkpt>
      <trkpt lat="44.12821" lon="6.35813">
        <ele>1052</ele>
        <time>2015-06-21T10:47:43Z</time>
      </trkpt>
      <trkpt lat="44.12826" lon="6.35802">
        <ele>1052</ele>
        <time>2015-06-21T10:47:47Z</time>
      </trkpt>
      <trkpt lat="44.12837" lon="6.35787">
        <ele>1056</ele>
        <time>2015-06-21T10:47:52Z</time>
      </trkpt>
      <trkpt lat="44.12837" lon="6.35766">
        <ele>1056</ele>
        <time>2015-06-21T10:47:56Z</time>
      </trkpt>
      <trkpt lat="44.12857" lon="6.35769">
        <ele>1047</ele>
        <time>2015-06-21T10:48:02Z</time>
      </trkpt>
      <trkpt lat="44.12871" lon="6.35767">
        <ele>1047</ele>
        <time>2015-06-21T10:48:05Z</time>
      </trkpt>
      <trkpt lat="44.12882" lon="6.3577">
        <ele>1041</ele>
        <time>2015-06-21T10:48:08Z</time>
      </trkpt>
      <trkpt lat="44.12894" lon="6.35773">
        <ele>1041</ele>
        <time>2015-06-21T10:48:11Z</time>
      </trkpt>
      <trkpt lat="44.12903" lon="6.3576">
        <ele>1041</ele>
        <time>2015-06-21T10:48:14Z</time>
      </trkpt>
      <trkpt lat="44.12908" lon="6.35754">
        <ele>1041</ele>
        <time>2015-06-21T10:48:17Z</time>
      </trkpt>
      <trkpt lat="44.12923" lon="6.35761">
        <ele>1041</ele>
        <time>2015-06-21T10:48:22Z</time>
      </trkpt>
      <trkpt lat="44.1293" lon="6.3576">
        <ele>1041</ele>
        <time>2015-06-21T10:48:25Z</time>
      </trkpt>
      <trkpt lat="44.12932" lon="6.35764">
        <ele>1037</ele>
        <time>2015-06-21T10:48:29Z</time>
      </trkpt>
      <trkpt lat="44.12945" lon="6.35766">
        <ele>1037</ele>
        <time>2015-06-21T10:48:33Z</time>
      </trkpt>
      <trkpt lat="44.12957" lon="6.35768">
        <ele>1037</ele>
        <time>2015-06-21T10:48:38Z</time>
      </trkpt>
      <trkpt lat="44.12986" lon="6.35759">
        <ele>1036</ele>
        <time>2015-06-21T10:48:45Z</time>
      </trkpt>
      <trkpt lat="44.13004" lon="6.35748">
        <ele>1037</ele>
        <time>2015-06-21T10:48:50Z</time>
      </trkpt>
      <trkpt lat="44.13029" lon="6.35748">
        <ele>1038</ele>
        <time>2015-06-21T10:48:54Z</time>
      </trkpt>
      <trkpt lat="44.13046" lon="6.35737">
        <ele>1038</ele>
        <time>2015-06-21T10:48:58Z</time>
      </trkpt>
      <trkpt lat="44.13057" lon="6.3573">
        <ele>1040</ele>
        <time>2015-06-21T10:49:03Z</time>
      </trkpt>
      <trkpt lat="44.13076" lon="6.35741">
        <ele>1037</ele>
        <time>2015-06-21T10:49:11Z</time>
      </trkpt>
      <trkpt lat="44.13083" lon="6.35747">
        <ele>1037</ele>
        <time>2015-06-21T10:49:15Z</time>
      </trkpt>
      <trkpt lat="44.13091" lon="6.3575">
        <ele>1037</ele>
        <time>2015-06-21T10:49:19Z</time>
      </trkpt>
      <trkpt lat="44.13101" lon="6.35758">
        <ele>1034</ele>
        <time>2015-06-21T10:49:24Z</time>
      </trkpt>
      <trkpt lat="44.13112" lon="6.35769">
        <ele>1034</ele>
        <time>2015-06-21T10:49:30Z</time>
      </trkpt>
      <trkpt lat="44.13117" lon="6.35786">
        <ele>1034</ele>
        <time>2015-06-21T10:49:35Z</time>
      </trkpt>
      <trkpt lat="44.13123" lon="6.35803">
        <ele>1030</ele>
        <time>2015-06-21T10:49:41Z</time>
      </trkpt>
      <trkpt lat="44.13129" lon="6.35812">
        <ele>1024</ele>
        <time>2015-06-21T10:49:47Z</time>
      </trkpt>
      <trkpt lat="44.13131" lon="6.35833">
        <ele>1018</ele>
        <time>2015-06-21T10:49:51Z</time>
      </trkpt>
      <trkpt lat="44.13127" lon="6.35871">
        <ele>1013</ele>
        <time>2015-06-21T10:49:57Z</time>
      </trkpt>
      <trkpt lat="44.13126" lon="6.35891">
        <ele>1009</ele>
        <time>2015-06-21T10:50:00Z</time>
      </trkpt>
      <trkpt lat="44.13137" lon="6.35915">
        <ele>1003</ele>
        <time>2015-06-21T10:50:04Z</time>
      </trkpt>
      <trkpt lat="44.13151" lon="6.35936">
        <ele>995</ele>
        <time>2015-06-21T10:50:10Z</time>
      </trkpt>
      <trkpt lat="44.13168" lon="6.35949">
        <ele>992</ele>
        <time>2015-06-21T10:50:15Z</time>
      </trkpt>
      <trkpt lat="44.13184" lon="6.35964">
        <ele>981</ele>
        <time>2015-06-21T10:50:19Z</time>
      </trkpt>
      <trkpt lat="44.13201" lon="6.3598">
        <ele>981</ele>
        <time>2015-06-21T10:50:22Z</time>
      </trkpt>
      <trkpt lat="44.13217" lon="6.35996">
        <ele>975</ele>
        <time>2015-06-21T10:50:25Z</time>
      </trkpt>
      <trkpt lat="44.13232" lon="6.36015">
        <ele>973</ele>
        <time>2015-06-21T10:50:30Z</time>
      </trkpt>
      <trkpt lat="44.13236" lon="6.36024">
        <ele>973</ele>
        <time>2015-06-21T10:50:33Z</time>
      </trkpt>
      <trkpt lat="44.1324" lon="6.36037">
        <ele>973</ele>
        <time>2015-06-21T10:50:37Z</time>
      </trkpt>
      <trkpt lat="44.13247" lon="6.36048">
        <ele>971</ele>
        <time>2015-06-21T10:50:41Z</time>
      </trkpt>
      <trkpt lat="44.13257" lon="6.36063">
        <ele>971</ele>
        <time>2015-06-21T10:50:44Z</time>
      </trkpt>
      <trkpt lat="44.13264" lon="6.36087">
        <ele>962</ele>
        <time>2015-06-21T10:50:49Z</time>
      </trkpt>
      <trkpt lat="44.13264" lon="6.3611">
        <ele>960</ele>
        <time>2015-06-21T10:50:52Z</time>
      </trkpt>
      <trkpt lat="44.13264" lon="6.36125">
        <ele>959</ele>
        <time>2015-06-21T10:50:55Z</time>
      </trkpt>
      <trkpt lat="44.13259" lon="6.36169">
        <ele>957</ele>
        <time>2015-06-21T10:51:01Z</time>
      </trkpt>
      <trkpt lat="44.13259" lon="6.36199">
        <ele>956</ele>
        <time>2015-06-21T10:51:05Z</time>
      </trkpt>
      <trkpt lat="44.13256" lon="6.36219">
        <ele>954</ele>
        <time>2015-06-21T10:51:08Z</time>
      </trkpt>
      <trkpt lat="44.13252" lon="6.36245">
        <ele>949</ele>
        <time>2015-06-21T10:51:11Z</time>
      </trkpt>
      <trkpt lat="44.13251" lon="6.36285">
        <ele>943</ele>
        <time>2015-06-21T10:51:17Z</time>
      </trkpt>
      <trkpt lat="44.13255" lon="6.36305">
        <ele>940</ele>
        <time>2015-06-21T10:51:20Z</time>
      </trkpt>
      <trkpt lat="44.1326" lon="6.36322">
        <ele>939</ele>
        <time>2015-06-21T10:51:24Z</time>
      </trkpt>
      <trkpt lat="44.13255" lon="6.36341">
        <ele>939</ele>
        <time>2015-06-21T10:51:30Z</time>
      </trkpt>
      <trkpt lat="44.13243" lon="6.36375">
        <ele>938</ele>
        <time>2015-06-21T10:51:35Z</time>
      </trkpt>
      <trkpt lat="44.13235" lon="6.36409">
        <ele>926</ele>
        <time>2015-06-21T10:51:40Z</time>
      </trkpt>
      <trkpt lat="44.13242" lon="6.36425">
        <ele>932</ele>
        <time>2015-06-21T10:51:43Z</time>
      </trkpt>
      <trkpt lat="44.1324" lon="6.36446">
        <ele>927</ele>
        <time>2015-06-21T10:51:46Z</time>
      </trkpt>
      <trkpt lat="44.13237" lon="6.36495">
        <ele>916</ele>
        <time>2015-06-21T10:51:51Z</time>
      </trkpt>
      <trkpt lat="44.13244" lon="6.36513">
        <ele>916</ele>
        <time>2015-06-21T10:51:54Z</time>
      </trkpt>
      <trkpt lat="44.13265" lon="6.36522">
        <ele>913</ele>
        <time>2015-06-21T10:51:59Z</time>
      </trkpt>
      <trkpt lat="44.13288" lon="6.36531">
        <ele>913</ele>
        <time>2015-06-21T10:52:08Z</time>
      </trkpt>
      <trkpt lat="44.13309" lon="6.36539">
        <ele>914</ele>
        <time>2015-06-21T10:52:14Z</time>
      </trkpt>
      <trkpt lat="44.13335" lon="6.36559">
        <ele>914</ele>
        <time>2015-06-21T10:52:20Z</time>
      </trkpt>
      <trkpt lat="44.13346" lon="6.36583">
        <ele>912</ele>
        <time>2015-06-21T10:52:25Z</time>
      </trkpt>
      <trkpt lat="44.1335" lon="6.36625">
        <ele>911</ele>
        <time>2015-06-21T10:52:31Z</time>
      </trkpt>
      <trkpt lat="44.13355" lon="6.36668">
        <ele>905</ele>
        <time>2015-06-21T10:52:37Z</time>
      </trkpt>
      <trkpt lat="44.1337" lon="6.36679">
        <ele>905</ele>
        <time>2015-06-21T10:52:41Z</time>
      </trkpt>
      <trkpt lat="44.13395" lon="6.36667">
        <ele>902</ele>
        <time>2015-06-21T10:52:46Z</time>
      </trkpt>
      <trkpt lat="44.13416" lon="6.36647">
        <ele>898</ele>
        <time>2015-06-21T10:52:50Z</time>
      </trkpt>
      <trkpt lat="44.13432" lon="6.36627">
        <ele>892</ele>
        <time>2015-06-21T10:52:53Z</time>
      </trkpt>
      <trkpt lat="44.13451" lon="6.36616">
        <ele>895</ele>
        <time>2015-06-21T10:52:57Z</time>
      </trkpt>
      <trkpt lat="44.13471" lon="6.36604">
        <ele>887</ele>
        <time>2015-06-21T10:53:02Z</time>
      </trkpt>
      <trkpt lat="44.13492" lon="6.3659">
        <ele>884</ele>
        <time>2015-06-21T10:53:06Z</time>
      </trkpt>
      <trkpt lat="44.13521" lon="6.36558">
        <ele>885</ele>
        <time>2015-06-21T10:53:11Z</time>
      </trkpt>
      <trkpt lat="44.13546" lon="6.36542">
        <ele>883</ele>
        <time>2015-06-21T10:53:15Z</time>
      </trkpt>
      <trkpt lat="44.13582" lon="6.36545">
        <ele>882</ele>
        <time>2015-06-21T10:53:22Z</time>
      </trkpt>
      <trkpt lat="44.13615" lon="6.36528">
        <ele>883</ele>
        <time>2015-06-21T10:53:27Z</time>
      </trkpt>
      <trkpt lat="44.13647" lon="6.36512">
        <ele>887</ele>
        <time>2015-06-21T10:53:31Z</time>
      </trkpt>
      <trkpt lat="44.13671" lon="6.36508">
        <ele>880</ele>
        <time>2015-06-21T10:53:34Z</time>
      </trkpt>
      <trkpt lat="44.13702" lon="6.36498">
        <ele>878</ele>
        <time>2015-06-21T10:53:38Z</time>
      </trkpt>
      <trkpt lat="44.13738" lon="6.36475">
        <ele>879</ele>
        <time>2015-06-21T10:53:43Z</time>
      </trkpt>
      <trkpt lat="44.13758" lon="6.36467">
        <ele>879</ele>
        <time>2015-06-21T10:53:46Z</time>
      </trkpt>
      <trkpt lat="44.13777" lon="6.36451">
        <ele>881</ele>
        <time>2015-06-21T10:53:49Z</time>
      </trkpt>
      <trkpt lat="44.13801" lon="6.36417">
        <ele>877</ele>
        <time>2015-06-21T10:53:53Z</time>
      </trkpt>
      <trkpt lat="44.13823" lon="6.36392">
        <ele>875</ele>
        <time>2015-06-21T10:53:56Z</time>
      </trkpt>
      <trkpt lat="44.13848" lon="6.36322">
        <ele>875</ele>
        <time>2015-06-21T10:54:02Z</time>
      </trkpt>
      <trkpt lat="44.13881" lon="6.36285">
        <ele>865</ele>
        <time>2015-06-21T10:54:07Z</time>
      </trkpt>
      <trkpt lat="44.13892" lon="6.36248">
        <ele>866</ele>
        <time>2015-06-21T10:54:11Z</time>
      </trkpt>
      <trkpt lat="44.13888" lon="6.36189">
        <ele>871</ele>
        <time>2015-06-21T10:54:16Z</time>
      </trkpt>
      <trkpt lat="44.13902" lon="6.36157">
        <ele>874</ele>
        <time>2015-06-21T10:54:19Z</time>
      </trkpt>
      <trkpt lat="44.13938" lon="6.36105">
        <ele>858</ele>
        <time>2015-06-21T10:54:25Z</time>
      </trkpt>
      <trkpt lat="44.13952" lon="6.36075">
        <ele>859</ele>
        <time>2015-06-21T10:54:28Z</time>
      </trkpt>
      <trkpt lat="44.13958" lon="6.36037">
        <ele>857</ele>
        <time>2015-06-21T10:54:31Z</time>
      </trkpt>
      <trkpt lat="44.13982" lon="6.36002">
        <ele>850</ele>
        <time>2015-06-21T10:54:35Z</time>
      </trkpt>
      <trkpt lat="44.13992" lon="6.35939">
        <ele>851</ele>
        <time>2015-06-21T10:54:41Z</time>
      </trkpt>
      <trkpt lat="44.14001" lon="6.35877">
        <ele>847</ele>
        <time>2015-06-21T10:54:47Z</time>
      </trkpt>
      <trkpt lat="44.14018" lon="6.35869">
        <ele>850</ele>
        <time>2015-06-21T10:54:52Z</time>
      </trkpt>
      <trkpt lat="44.14021" lon="6.35884">
        <ele>851</ele>
        <time>2015-06-21T10:54:56Z</time>
      </trkpt>
      <trkpt lat="44.14021" lon="6.35899">
        <ele>851</ele>
        <time>2015-06-21T10:55:01Z</time>
      </trkpt>
      <trkpt lat="44.1403" lon="6.35922">
        <ele>854</ele>
        <time>2015-06-21T10:55:10Z</time>
      </trkpt>
      <trkpt lat="44.14043" lon="6.35936">
        <ele>859</ele>
        <time>2015-06-21T10:55:18Z</time>
      </trkpt>
      <trkpt lat="44.14059" lon="6.35942">
        <ele>859</ele>
        <time>2015-06-21T10:55:26Z</time>
      </trkpt>
      <trkpt lat="44.14074" lon="6.35948">
        <ele>863</ele>
        <time>2015-06-21T10:55:35Z</time>
      </trkpt>
      <trkpt lat="44.14081" lon="6.35958">
        <ele>863</ele>
        <time>2015-06-21T10:55:41Z</time>
      </trkpt>
      <trkpt lat="44.1409" lon="6.35973">
        <ele>862</ele>
        <time>2015-06-21T10:55:49Z</time>
      </trkpt>
      <trkpt lat="44.141" lon="6.35977">
        <ele>865</ele>
        <time>2015-06-21T10:55:54Z</time>
      </trkpt>
      <trkpt lat="44.14107" lon="6.35968">
        <ele>865</ele>
        <time>2015-06-21T10:55:58Z</time>
      </trkpt>
      <trkpt lat="44.14107" lon="6.35953">
        <ele>866</ele>
        <time>2015-06-21T10:56:03Z</time>
      </trkpt>
      <trkpt lat="44.1411" lon="6.35939">
        <ele>866</ele>
        <time>2015-06-21T10:56:08Z</time>
      </trkpt>
      <trkpt lat="44.14123" lon="6.35931">
        <ele>866</ele>
        <time>2015-06-21T10:56:15Z</time>
      </trkpt>
      <trkpt lat="44.14129" lon="6.35933">
        <ele>869</ele>
        <time>2015-06-21T10:56:18Z</time>
      </trkpt>
      <trkpt lat="44.14142" lon="6.35939">
        <ele>869</ele>
        <time>2015-06-21T10:56:26Z</time>
      </trkpt>
      <trkpt lat="44.14155" lon="6.35939">
        <ele>873</ele>
        <time>2015-06-21T10:56:34Z</time>
      </trkpt>
      <trkpt lat="44.14167" lon="6.35934">
        <ele>873</ele>
        <time>2015-06-21T10:56:43Z</time>
      </trkpt>
      <trkpt lat="44.14182" lon="6.35931">
        <ele>876</ele>
        <time>2015-06-21T10:56:53Z</time>
      </trkpt>
      <trkpt lat="44.14196" lon="6.3593">
        <ele>878</ele>
        <time>2015-06-21T10:57:02Z</time>
      </trkpt>
      <trkpt lat="44.14211" lon="6.35929">
        <ele>881</ele>
        <time>2015-06-21T10:57:11Z</time>
      </trkpt>
      <trkpt lat="44.14227" lon="6.35925">
        <ele>881</ele>
        <time>2015-06-21T10:57:19Z</time>
      </trkpt>
      <trkpt lat="44.14246" lon="6.35924">
        <ele>885</ele>
        <time>2015-06-21T10:57:27Z</time>
      </trkpt>
      <trkpt lat="44.14259" lon="6.35929">
        <ele>885</ele>
        <time>2015-06-21T10:57:33Z</time>
      </trkpt>
      <trkpt lat="44.14274" lon="6.35939">
        <ele>888</ele>
        <time>2015-06-21T10:57:40Z</time>
      </trkpt>
      <trkpt lat="44.14283" lon="6.35933">
        <ele>888</ele>
        <time>2015-06-21T10:57:44Z</time>
      </trkpt>
      <trkpt lat="44.14285" lon="6.35915">
        <ele>889</ele>
        <time>2015-06-21T10:57:50Z</time>
      </trkpt>
      <trkpt lat="44.14275" lon="6.35903">
        <ele>889</ele>
        <time>2015-06-21T10:57:56Z</time>
      </trkpt>
      <trkpt lat="44.14267" lon="6.35888">
        <ele>890</ele>
        <time>2015-06-21T10:58:03Z</time>
      </trkpt>
      <trkpt lat="44.14258" lon="6.35874">
        <ele>894</ele>
        <time>2015-06-21T10:58:10Z</time>
      </trkpt>
      <trkpt lat="44.1424" lon="6.35861">
        <ele>894</ele>
        <time>2015-06-21T10:58:18Z</time>
      </trkpt>
      <trkpt lat="44.14221" lon="6.35847">
        <ele>893</ele>
        <time>2015-06-21T10:58:24Z</time>
      </trkpt>
      <trkpt lat="44.14203" lon="6.35826">
        <ele>887</ele>
        <time>2015-06-21T10:58:29Z</time>
      </trkpt>
      <trkpt lat="44.14197" lon="6.35761">
        <ele>886</ele>
        <time>2015-06-21T10:58:36Z</time>
      </trkpt>
      <trkpt lat="44.14214" lon="6.3571">
        <ele>891</ele>
        <time>2015-06-21T10:58:41Z</time>
      </trkpt>
      <trkpt lat="44.1421" lon="6.35674">
        <ele>889</ele>
        <time>2015-06-21T10:58:45Z</time>
      </trkpt>
      <trkpt lat="44.14204" lon="6.35645">
        <ele>888</ele>
        <time>2015-06-21T10:58:48Z</time>
      </trkpt>
      <trkpt lat="44.14199" lon="6.35599">
        <ele>887</ele>
        <time>2015-06-21T10:58:52Z</time>
      </trkpt>
      <trkpt lat="44.14201" lon="6.35534">
        <ele>878</ele>
        <time>2015-06-21T10:58:57Z</time>
      </trkpt>
      <trkpt lat="44.1421" lon="6.35508">
        <ele>870</ele>
        <time>2015-06-21T10:59:01Z</time>
      </trkpt>
      <trkpt lat="44.14215" lon="6.35538">
        <ele>872</ele>
        <time>2015-06-21T10:59:05Z</time>
      </trkpt>
      <trkpt lat="44.14229" lon="6.35566">
        <ele>875</ele>
        <time>2015-06-21T10:59:09Z</time>
      </trkpt>
      <trkpt lat="44.1424" lon="6.35543">
        <ele>869</ele>
        <time>2015-06-21T10:59:14Z</time>
      </trkpt>
      <trkpt lat="44.14234" lon="6.35516">
        <ele>872</ele>
        <time>2015-06-21T10:59:17Z</time>
      </trkpt>
      <trkpt lat="44.14242" lon="6.35512">
        <ele>864</ele>
        <time>2015-06-21T10:59:20Z</time>
      </trkpt>
      <trkpt lat="44.14252" lon="6.35534">
        <ele>866</ele>
        <time>2015-06-21T10:59:23Z</time>
      </trkpt>
      <trkpt lat="44.14271" lon="6.35549">
        <ele>863</ele>
        <time>2015-06-21T10:59:26Z</time>
      </trkpt>
      <trkpt lat="44.14298" lon="6.35527">
        <ele>861</ele>
        <time>2015-06-21T10:59:32Z</time>
      </trkpt>
      <trkpt lat="44.14297" lon="6.35479">
        <ele>863</ele>
        <time>2015-06-21T10:59:38Z</time>
      </trkpt>
      <trkpt lat="44.14305" lon="6.3544">
        <ele>862</ele>
        <time>2015-06-21T10:59:42Z</time>
      </trkpt>
      <trkpt lat="44.14316" lon="6.35411">
        <ele>861</ele>
        <time>2015-06-21T10:59:45Z</time>
      </trkpt>
      <trkpt lat="44.1433" lon="6.35389">
        <ele>864</ele>
        <time>2015-06-21T10:59:49Z</time>
      </trkpt>
      <trkpt lat="44.1436" lon="6.35356">
        <ele>868</ele>
        <time>2015-06-21T10:59:57Z</time>
      </trkpt>
      <trkpt lat="44.14378" lon="6.3533">
        <ele>869</ele>
        <time>2015-06-21T11:00:04Z</time>
      </trkpt>
      <trkpt lat="44.14398" lon="6.35312">
        <ele>863</ele>
        <time>2015-06-21T11:00:11Z</time>
      </trkpt>
      <trkpt lat="44.14414" lon="6.35304">
        <ele>868</ele>
        <time>2015-06-21T11:00:17Z</time>
      </trkpt>
      <trkpt lat="44.14428" lon="6.35303">
        <ele>868</ele>
        <time>2015-06-21T11:00:24Z</time>
      </trkpt>
      <trkpt lat="44.14443" lon="6.35297">
        <ele>875</ele>
        <time>2015-06-21T11:00:31Z</time>
      </trkpt>
      <trkpt lat="44.14461" lon="6.3529">
        <ele>874</ele>
        <time>2015-06-21T11:00:39Z</time>
      </trkpt>
      <trkpt lat="44.14486" lon="6.35293">
        <ele>879</ele>
        <time>2015-06-21T11:00:48Z</time>
      </trkpt>
      <trkpt lat="44.14515" lon="6.35299">
        <ele>872</ele>
        <time>2015-06-21T11:00:57Z</time>
      </trkpt>
      <trkpt lat="44.14542" lon="6.35307">
        <ele>870</ele>
        <time>2015-06-21T11:01:05Z</time>
      </trkpt>
      <trkpt lat="44.14564" lon="6.35313">
        <ele>870</ele>
        <time>2015-06-21T11:01:09Z</time>
      </trkpt>
      <trkpt lat="44.14597" lon="6.35311">
        <ele>868</ele>
        <time>2015-06-21T11:01:14Z</time>
      </trkpt>
      <trkpt lat="44.14627" lon="6.35295">
        <ele>864</ele>
        <time>2015-06-21T11:01:18Z</time>
      </trkpt>
      <trkpt lat="44.14651" lon="6.35286">
        <ele>861</ele>
        <time>2015-06-21T11:01:22Z</time>
      </trkpt>
      <trkpt lat="44.14658" lon="6.35307">
        <ele>862</ele>
        <time>2015-06-21T11:01:25Z</time>
      </trkpt>
      <trkpt lat="44.14668" lon="6.35338">
        <ele>864</ele>
        <time>2015-06-21T11:01:30Z</time>
      </trkpt>
      <trkpt lat="44.14674" lon="6.35309">
        <ele>862</ele>
        <time>2015-06-21T11:01:34Z</time>
      </trkpt>
      <trkpt lat="44.1468" lon="6.35279">
        <ele>858</ele>
        <time>2015-06-21T11:01:37Z</time>
      </trkpt>
      <trkpt lat="44.14692" lon="6.35263">
        <ele>857</ele>
        <time>2015-06-21T11:01:40Z</time>
      </trkpt>
      <trkpt lat="44.14724" lon="6.35257">
        <ele>861</ele>
        <time>2015-06-21T11:01:47Z</time>
      </trkpt>
      <trkpt lat="44.14739" lon="6.35254">
        <ele>863</ele>
        <time>2015-06-21T11:01:52Z</time>
      </trkpt>
      <trkpt lat="44.14741" lon="6.35247">
        <ele>863</ele>
        <time>2015-06-21T11:01:56Z</time>
      </trkpt>
      <trkpt lat="44.14729" lon="6.35238">
        <ele>861</ele>
        <time>2015-06-21T11:02:04Z</time>
      </trkpt>
      <trkpt lat="44.14722" lon="6.35222">
        <ele>863</ele>
        <time>2015-06-21T11:02:11Z</time>
      </trkpt>
      <trkpt lat="44.14723" lon="6.35214">
        <ele>863</ele>
        <time>2015-06-21T11:02:14Z</time>
      </trkpt>
      <trkpt lat="44.14722" lon="6.35197">
        <ele>865</ele>
        <time>2015-06-21T11:02:20Z</time>
      </trkpt>
      <trkpt lat="44.14731" lon="6.35189">
        <ele>865</ele>
        <time>2015-06-21T11:02:25Z</time>
      </trkpt>
      <trkpt lat="44.14746" lon="6.35186">
        <ele>870</ele>
        <time>2015-06-21T11:02:32Z</time>
      </trkpt>
      <trkpt lat="44.14753" lon="6.35177">
        <ele>873</ele>
        <time>2015-06-21T11:02:37Z</time>
      </trkpt>
      <trkpt lat="44.14751" lon="6.35164">
        <ele>873</ele>
        <time>2015-06-21T11:02:43Z</time>
      </trkpt>
      <trkpt lat="44.14748" lon="6.35153">
        <ele>873</ele>
        <time>2015-06-21T11:02:49Z</time>
      </trkpt>
      <trkpt lat="44.14749" lon="6.35143">
        <ele>876</ele>
        <time>2015-06-21T11:02:54Z</time>
      </trkpt>
      <trkpt lat="44.14751" lon="6.35129">
        <ele>876</ele>
        <time>2015-06-21T11:03:01Z</time>
      </trkpt>
      <trkpt lat="44.14743" lon="6.35112">
        <ele>879</ele>
        <time>2015-06-21T11:03:07Z</time>
      </trkpt>
      <trkpt lat="44.14729" lon="6.35099">
        <ele>872</ele>
        <time>2015-06-21T11:03:11Z</time>
      </trkpt>
      <trkpt lat="44.14708" lon="6.35075">
        <ele>871</ele>
        <time>2015-06-21T11:03:16Z</time>
      </trkpt>
      <trkpt lat="44.14708" lon="6.35056">
        <ele>872</ele>
        <time>2015-06-21T11:03:19Z</time>
      </trkpt>
      <trkpt lat="44.14719" lon="6.35028">
        <ele>878</ele>
        <time>2015-06-21T11:03:26Z</time>
      </trkpt>
      <trkpt lat="44.14731" lon="6.35014">
        <ele>878</ele>
        <time>2015-06-21T11:03:30Z</time>
      </trkpt>
      <trkpt lat="44.14744" lon="6.35008">
        <ele>882</ele>
        <time>2015-06-21T11:03:34Z</time>
      </trkpt>
      <trkpt lat="44.14758" lon="6.34994">
        <ele>882</ele>
        <time>2015-06-21T11:03:42Z</time>
      </trkpt>
      <trkpt lat="44.14754" lon="6.34989">
        <ele>882</ele>
        <time>2015-06-21T11:03:46Z</time>
      </trkpt>
      <trkpt lat="44.14735" lon="6.34985">
        <ele>882</ele>
        <time>2015-06-21T11:03:51Z</time>
      </trkpt>
      <trkpt lat="44.1471" lon="6.34989">
        <ele>879</ele>
        <time>2015-06-21T11:03:56Z</time>
      </trkpt>
      <trkpt lat="44.14674" lon="6.35008">
        <ele>874</ele>
        <time>2015-06-21T11:04:03Z</time>
      </trkpt>
      <trkpt lat="44.1466" lon="6.3501">
        <ele>874</ele>
        <time>2015-06-21T11:04:06Z</time>
      </trkpt>
      <trkpt lat="44.14649" lon="6.34994">
        <ele>864</ele>
        <time>2015-06-21T11:04:10Z</time>
      </trkpt>
      <trkpt lat="44.14637" lon="6.3497">
        <ele>868</ele>
        <time>2015-06-21T11:04:16Z</time>
      </trkpt>
      <trkpt lat="44.14624" lon="6.34955">
        <ele>861</ele>
        <time>2015-06-21T11:04:20Z</time>
      </trkpt>
      <trkpt lat="44.14595" lon="6.34917">
        <ele>851</ele>
        <time>2015-06-21T11:04:27Z</time>
      </trkpt>
      <trkpt lat="44.14592" lon="6.34885">
        <ele>854</ele>
        <time>2015-06-21T11:04:32Z</time>
      </trkpt>
      <trkpt lat="44.14606" lon="6.34884">
        <ele>861</ele>
        <time>2015-06-21T11:04:35Z</time>
      </trkpt>
      <trkpt lat="44.14623" lon="6.34864">
        <ele>864</ele>
        <time>2015-06-21T11:04:39Z</time>
      </trkpt>
      <trkpt lat="44.14617" lon="6.34856">
        <ele>864</ele>
        <time>2015-06-21T11:04:43Z</time>
      </trkpt>
      <trkpt lat="44.14603" lon="6.34856">
        <ele>864</ele>
        <time>2015-06-21T11:04:48Z</time>
      </trkpt>
      <trkpt lat="44.14596" lon="6.34842">
        <ele>864</ele>
        <time>2015-06-21T11:04:51Z</time>
      </trkpt>
      <trkpt lat="44.14585" lon="6.34842">
        <ele>864</ele>
        <time>2015-06-21T11:04:54Z</time>
      </trkpt>
      <trkpt lat="44.14564" lon="6.34835">
        <ele>859</ele>
        <time>2015-06-21T11:05:00Z</time>
      </trkpt>
      <trkpt lat="44.14544" lon="6.34821">
        <ele>859</ele>
        <time>2015-06-21T11:05:06Z</time>
      </trkpt>
      <trkpt lat="44.1453" lon="6.34817">
        <ele>859</ele>
        <time>2015-06-21T11:05:09Z</time>
      </trkpt>
      <trkpt lat="44.14514" lon="6.34802">
        <ele>859</ele>
        <time>2015-06-21T11:05:13Z</time>
      </trkpt>
      <trkpt lat="44.14494" lon="6.34801">
        <ele>851</ele>
        <time>2015-06-21T11:05:18Z</time>
      </trkpt>
      <trkpt lat="44.14481" lon="6.34797">
        <ele>846</ele>
        <time>2015-06-21T11:05:21Z</time>
      </trkpt>
      <trkpt lat="44.14464" lon="6.34797">
        <ele>846</ele>
        <time>2015-06-21T11:05:25Z</time>
      </trkpt>
      <trkpt lat="44.14456" lon="6.3479">
        <ele>845</ele>
        <time>2015-06-21T11:05:28Z</time>
      </trkpt>
      <trkpt lat="44.14457" lon="6.34777">
        <ele>845</ele>
        <time>2015-06-21T11:05:34Z</time>
      </trkpt>
      <trkpt lat="44.14447" lon="6.34768">
        <ele>845</ele>
        <time>2015-06-21T11:05:38Z</time>
      </trkpt>
      <trkpt lat="44.14435" lon="6.34758">
        <ele>853</ele>
        <time>2015-06-21T11:05:41Z</time>
      </trkpt>
      <trkpt lat="44.14427" lon="6.34741">
        <ele>844</ele>
        <time>2015-06-21T11:05:44Z</time>
      </trkpt>
      <trkpt lat="44.14413" lon="6.34727">
        <ele>850</ele>
        <time>2015-06-21T11:05:49Z</time>
      </trkpt>
      <trkpt lat="44.14397" lon="6.34717">
        <ele>841</ele>
        <time>2015-06-21T11:05:53Z</time>
      </trkpt>
      <trkpt lat="44.14382" lon="6.34701">
        <ele>845</ele>
        <time>2015-06-21T11:05:57Z</time>
      </trkpt>
      <trkpt lat="44.14365" lon="6.34657">
        <ele>840</ele>
        <time>2015-06-21T11:06:04Z</time>
      </trkpt>
      <trkpt lat="44.14369" lon="6.34626">
        <ele>838</ele>
        <time>2015-06-21T11:06:08Z</time>
      </trkpt>
      <trkpt lat="44.14371" lon="6.34587">
        <ele>832</ele>
        <time>2015-06-21T11:06:14Z</time>
      </trkpt>
      <trkpt lat="44.14375" lon="6.34573">
        <ele>832</ele>
        <time>2015-06-21T11:06:17Z</time>
      </trkpt>
      <trkpt lat="44.14377" lon="6.34562">
        <ele>837</ele>
        <time>2015-06-21T11:06:20Z</time>
      </trkpt>
      <trkpt lat="44.14371" lon="6.34557">
        <ele>833</ele>
        <time>2015-06-21T11:06:24Z</time>
      </trkpt>
      <trkpt lat="44.14363" lon="6.34559">
        <ele>833</ele>
        <time>2015-06-21T11:06:28Z</time>
      </trkpt>
      <trkpt lat="44.14347" lon="6.34553">
        <ele>830</ele>
        <time>2015-06-21T11:06:37Z</time>
      </trkpt>
      <trkpt lat="44.14346" lon="6.34526">
        <ele>836</ele>
        <time>2015-06-21T11:06:43Z</time>
      </trkpt>
      <trkpt lat="44.14348" lon="6.34513">
        <ele>846</ele>
        <time>2015-06-21T11:06:46Z</time>
      </trkpt>
      <trkpt lat="44.14341" lon="6.34513">
        <ele>844</ele>
        <time>2015-06-21T11:06:49Z</time>
      </trkpt>
      <trkpt lat="44.1432" lon="6.34515">
        <ele>836</ele>
        <time>2015-06-21T11:06:56Z</time>
      </trkpt>
      <trkpt lat="44.14311" lon="6.34509">
        <ele>840</ele>
        <time>2015-06-21T11:07:01Z</time>
      </trkpt>
      <trkpt lat="44.14299" lon="6.34495">
        <ele>840</ele>
        <time>2015-06-21T11:07:07Z</time>
      </trkpt>
      <trkpt lat="44.14287" lon="6.3449">
        <ele>831</ele>
        <time>2015-06-21T11:07:11Z</time>
      </trkpt>
      <trkpt lat="44.1428" lon="6.34482">
        <ele>838</ele>
        <time>2015-06-21T11:07:14Z</time>
      </trkpt>
      <trkpt lat="44.14267" lon="6.34475">
        <ele>838</ele>
        <time>2015-06-21T11:07:18Z</time>
      </trkpt>
      <trkpt lat="44.1425" lon="6.34454">
        <ele>833</ele>
        <time>2015-06-21T11:07:22Z</time>
      </trkpt>
      <trkpt lat="44.14236" lon="6.34444">
        <ele>823</ele>
        <time>2015-06-21T11:07:25Z</time>
      </trkpt>
      <trkpt lat="44.14221" lon="6.34433">
        <ele>823</ele>
        <time>2015-06-21T11:07:29Z</time>
      </trkpt>
      <trkpt lat="44.14203" lon="6.34431">
        <ele>820</ele>
        <time>2015-06-21T11:07:35Z</time>
      </trkpt>
      <trkpt lat="44.14192" lon="6.3443">
        <ele>823</ele>
        <time>2015-06-21T11:07:38Z</time>
      </trkpt>
      <trkpt lat="44.14187" lon="6.34413">
        <ele>823</ele>
        <time>2015-06-21T11:07:41Z</time>
      </trkpt>
      <trkpt lat="44.1418" lon="6.34398">
        <ele>826</ele>
        <time>2015-06-21T11:07:44Z</time>
      </trkpt>
      <trkpt lat="44.14172" lon="6.34393">
        <ele>826</ele>
        <time>2015-06-21T11:07:47Z</time>
      </trkpt>
      <trkpt lat="44.14167" lon="6.34402">
        <ele>826</ele>
        <time>2015-06-21T11:07:50Z</time>
      </trkpt>
      <trkpt lat="44.14165" lon="6.34407">
        <ele>821</ele>
        <time>2015-06-21T11:07:53Z</time>
      </trkpt>
      <trkpt lat="44.14166" lon="6.34414">
        <ele>821</ele>
        <time>2015-06-21T11:07:57Z</time>
      </trkpt>
      <trkpt lat="44.14157" lon="6.34424">
        <ele>821</ele>
        <time>2015-06-21T11:08:06Z</time>
      </trkpt>
      <trkpt lat="44.14137" lon="6.34423">
        <ele>818</ele>
        <time>2015-06-21T11:08:12Z</time>
      </trkpt>
      <trkpt lat="44.14124" lon="6.34416">
        <ele>814</ele>
        <time>2015-06-21T11:08:16Z</time>
      </trkpt>
      <trkpt lat="44.14115" lon="6.34406">
        <ele>814</ele>
        <time>2015-06-21T11:08:19Z</time>
      </trkpt>
      <trkpt lat="44.14106" lon="6.34386">
        <ele>817</ele>
        <time>2015-06-21T11:08:23Z</time>
      </trkpt>
      <trkpt lat="44.14094" lon="6.34357">
        <ele>817</ele>
        <time>2015-06-21T11:08:28Z</time>
      </trkpt>
      <trkpt lat="44.14085" lon="6.34342">
        <ele>820</ele>
        <time>2015-06-21T11:08:31Z</time>
      </trkpt>
      <trkpt lat="44.14078" lon="6.34329">
        <ele>820</ele>
        <time>2015-06-21T11:08:35Z</time>
      </trkpt>
      <trkpt lat="44.14062" lon="6.34325">
        <ele>811</ele>
        <time>2015-06-21T11:08:40Z</time>
      </trkpt>
      <trkpt lat="44.14057" lon="6.34303">
        <ele>815</ele>
        <time>2015-06-21T11:08:44Z</time>
      </trkpt>
      <trkpt lat="44.14043" lon="6.34282">
        <ele>819</ele>
        <time>2015-06-21T11:08:50Z</time>
      </trkpt>
      <trkpt lat="44.14041" lon="6.34273">
        <ele>808</ele>
        <time>2015-06-21T11:08:53Z</time>
      </trkpt>
      <trkpt lat="44.14045" lon="6.34264">
        <ele>819</ele>
        <time>2015-06-21T11:08:57Z</time>
      </trkpt>
      <trkpt lat="44.14041" lon="6.3425">
        <ele>809</ele>
        <time>2015-06-21T11:09:04Z</time>
      </trkpt>
      <trkpt lat="44.1404" lon="6.34244">
        <ele>809</ele>
        <time>2015-06-21T11:09:10Z</time>
      </trkpt>
      <trkpt lat="44.14041" lon="6.34235">
        <ele>810</ele>
        <time>2015-06-21T11:09:19Z</time>
      </trkpt>
      <trkpt lat="44.14044" lon="6.34228">
        <ele>822</ele>
        <time>2015-06-21T11:09:27Z</time>
      </trkpt>
      <trkpt lat="44.14047" lon="6.34221">
        <ele>822</ele>
        <time>2015-06-21T11:09:34Z</time>
      </trkpt>
      <trkpt lat="44.1405" lon="6.34218">
        <ele>822</ele>
        <time>2015-06-21T11:09:38Z</time>
      </trkpt>
      <trkpt lat="44.14057" lon="6.34209">
        <ele>822</ele>
        <time>2015-06-21T11:09:48Z</time>
      </trkpt>
      <trkpt lat="44.14061" lon="6.34202">
        <ele>826</ele>
        <time>2015-06-21T11:09:56Z</time>
      </trkpt>
      <trkpt lat="44.14065" lon="6.34195">
        <ele>826</ele>
        <time>2015-06-21T11:10:03Z</time>
      </trkpt>
      <trkpt lat="44.14071" lon="6.34191">
        <ele>836</ele>
        <time>2015-06-21T11:10:09Z</time>
      </trkpt>
      <trkpt lat="44.14076" lon="6.34186">
        <ele>836</ele>
        <time>2015-06-21T11:10:16Z</time>
      </trkpt>
      <trkpt lat="44.14087" lon="6.34183">
        <ele>836</ele>
        <time>2015-06-21T11:10:26Z</time>
      </trkpt>
      <trkpt lat="44.14092" lon="6.34175">
        <ele>838</ele>
        <time>2015-06-21T11:10:34Z</time>
      </trkpt>
      <trkpt lat="44.14097" lon="6.34163">
        <ele>838</ele>
        <time>2015-06-21T11:10:43Z</time>
      </trkpt>
      <trkpt lat="44.14098" lon="6.34154">
        <ele>847</ele>
        <time>2015-06-21T11:10:51Z</time>
      </trkpt>
      <trkpt lat="44.14098" lon="6.34147">
        <ele>849</ele>
        <time>2015-06-21T11:10:57Z</time>
      </trkpt>
      <trkpt lat="44.14098" lon="6.34139">
        <ele>849</ele>
        <time>2015-06-21T11:11:04Z</time>
      </trkpt>
      <trkpt lat="44.14097" lon="6.34132">
        <ele>839</ele>
        <time>2015-06-21T11:11:11Z</time>
      </trkpt>
      <trkpt lat="44.14098" lon="6.34128">
        <ele>849</ele>
        <time>2015-06-21T11:11:15Z</time>
      </trkpt>
      <trkpt lat="44.14099" lon="6.34125">
        <ele>851</ele>
        <time>2015-06-21T11:11:19Z</time>
      </trkpt>
      <trkpt lat="44.14103" lon="6.34115">
        <ele>851</ele>
        <time>2015-06-21T11:11:27Z</time>
      </trkpt>
      <trkpt lat="44.14105" lon="6.34111">
        <ele>851</ele>
        <time>2015-06-21T11:11:31Z</time>
      </trkpt>
      <trkpt lat="44.14103" lon="6.34104">
        <ele>851</ele>
        <time>2015-06-21T11:11:36Z</time>
      </trkpt>
      <trkpt lat="44.14099" lon="6.34101">
        <ele>851</ele>
        <time>2015-06-21T11:11:40Z</time>
      </trkpt>
      <trkpt lat="44.14094" lon="6.34098">
        <ele>841</ele>
        <time>2015-06-21T11:11:43Z</time>
      </trkpt>
      <trkpt lat="44.14086" lon="6.34082">
        <ele>842</ele>
        <time>2015-06-21T11:11:49Z</time>
      </trkpt>
      <trkpt lat="44.14089" lon="6.34067">
        <ele>845</ele>
        <time>2015-06-21T11:11:55Z</time>
      </trkpt>
      <trkpt lat="44.14104" lon="6.34062">
        <ele>854</ele>
        <time>2015-06-21T11:12:00Z</time>
      </trkpt>
      <trkpt lat="44.14106" lon="6.34057">
        <ele>854</ele>
        <time>2015-06-21T11:12:03Z</time>
      </trkpt>
      <trkpt lat="44.141" lon="6.34046">
        <ele>854</ele>
        <time>2015-06-21T11:12:09Z</time>
      </trkpt>
      <trkpt lat="44.14087" lon="6.3404">
        <ele>850</ele>
        <time>2015-06-21T11:12:16Z</time>
      </trkpt>
      <trkpt lat="44.14079" lon="6.34018">
        <ele>850</ele>
        <time>2015-06-21T11:12:24Z</time>
      </trkpt>
      <trkpt lat="44.14073" lon="6.34003">
        <ele>858</ele>
        <time>2015-06-21T11:12:31Z</time>
      </trkpt>
      <trkpt lat="44.14068" lon="6.33995">
        <ele>849</ele>
        <time>2015-06-21T11:12:36Z</time>
      </trkpt>
      <trkpt lat="44.1406" lon="6.33986">
        <ele>857</ele>
        <time>2015-06-21T11:12:42Z</time>
      </trkpt>
      <trkpt lat="44.1405" lon="6.33977">
        <ele>857</ele>
        <time>2015-06-21T11:12:47Z</time>
      </trkpt>
      <trkpt lat="44.14039" lon="6.33964">
        <ele>844</ele>
        <time>2015-06-21T11:12:54Z</time>
      </trkpt>
      <trkpt lat="44.14033" lon="6.33954">
        <ele>850</ele>
        <time>2015-06-21T11:13:00Z</time>
      </trkpt>
      <trkpt lat="44.14029" lon="6.33941">
        <ele>850</ele>
        <time>2015-06-21T11:13:07Z</time>
      </trkpt>
      <trkpt lat="44.14028" lon="6.33934">
        <ele>850</ele>
        <time>2015-06-21T11:13:12Z</time>
      </trkpt>
      <trkpt lat="44.1403" lon="6.3393">
        <ele>853</ele>
        <time>2015-06-21T11:13:16Z</time>
      </trkpt>
      <trkpt lat="44.14032" lon="6.3392">
        <ele>853</ele>
        <time>2015-06-21T11:13:24Z</time>
      </trkpt>
      <trkpt lat="44.14032" lon="6.3391">
        <ele>853</ele>
        <time>2015-06-21T11:13:31Z</time>
      </trkpt>
      <trkpt lat="44.14035" lon="6.33901">
        <ele>857</ele>
        <time>2015-06-21T11:13:37Z</time>
      </trkpt>
      <trkpt lat="44.14041" lon="6.33885">
        <ele>857</ele>
        <time>2015-06-21T11:13:44Z</time>
      </trkpt>
      <trkpt lat="44.14048" lon="6.33877">
        <ele>868</ele>
        <time>2015-06-21T11:13:49Z</time>
      </trkpt>
      <trkpt lat="44.14057" lon="6.33869">
        <ele>871</ele>
        <time>2015-06-21T11:13:57Z</time>
      </trkpt>
      <trkpt lat="44.14065" lon="6.33862">
        <ele>871</ele>
        <time>2015-06-21T11:14:04Z</time>
      </trkpt>
      <trkpt lat="44.14074" lon="6.33855">
        <ele>885</ele>
        <time>2015-06-21T11:14:11Z</time>
      </trkpt>
      <trkpt lat="44.14084" lon="6.33848">
        <ele>885</ele>
        <time>2015-06-21T11:14:20Z</time>
      </trkpt>
      <trkpt lat="44.14087" lon="6.33845">
        <ele>886</ele>
        <time>2015-06-21T11:14:24Z</time>
      </trkpt>
      <trkpt lat="44.14088" lon="6.33829">
        <ele>886</ele>
        <time>2015-06-21T11:14:32Z</time>
      </trkpt>
      <trkpt lat="44.14078" lon="6.33824">
        <ele>886</ele>
        <time>2015-06-21T11:14:39Z</time>
      </trkpt>
      <trkpt lat="44.14069" lon="6.33824">
        <ele>878</ele>
        <time>2015-06-21T11:14:45Z</time>
      </trkpt>
      <trkpt lat="44.14058" lon="6.3382">
        <ele>878</ele>
        <time>2015-06-21T11:14:54Z</time>
      </trkpt>
      <trkpt lat="44.14047" lon="6.33811">
        <ele>888</ele>
        <time>2015-06-21T11:15:03Z</time>
      </trkpt>
      <trkpt lat="44.1404" lon="6.33798">
        <ele>880</ele>
        <time>2015-06-21T11:15:11Z</time>
      </trkpt>
      <trkpt lat="44.14031" lon="6.3379">
        <ele>888</ele>
        <time>2015-06-21T11:15:18Z</time>
      </trkpt>
      <trkpt lat="44.14026" lon="6.33778">
        <ele>888</ele>
        <time>2015-06-21T11:15:24Z</time>
      </trkpt>
      <trkpt lat="44.14023" lon="6.3377">
        <ele>888</ele>
        <time>2015-06-21T11:15:28Z</time>
      </trkpt>
      <trkpt lat="44.14025" lon="6.33758">
        <ele>890</ele>
        <time>2015-06-21T11:15:34Z</time>
      </trkpt>
      <trkpt lat="44.14032" lon="6.33736">
        <ele>893</ele>
        <time>2015-06-21T11:15:44Z</time>
      </trkpt>
      <trkpt lat="44.14032" lon="6.33731">
        <ele>893</ele>
        <time>2015-06-21T11:15:47Z</time>
      </trkpt>
      <trkpt lat="44.1403" lon="6.33726">
        <ele>893</ele>
        <time>2015-06-21T11:15:51Z</time>
      </trkpt>
      <trkpt lat="44.14023" lon="6.33713">
        <ele>893</ele>
        <time>2015-06-21T11:16:00Z</time>
      </trkpt>
      <trkpt lat="44.1402" lon="6.33702">
        <ele>895</ele>
        <time>2015-06-21T11:16:06Z</time>
      </trkpt>
      <trkpt lat="44.14023" lon="6.33693">
        <ele>895</ele>
        <time>2015-06-21T11:16:12Z</time>
      </trkpt>
      <trkpt lat="44.14025" lon="6.33678">
        <ele>898</ele>
        <time>2015-06-21T11:16:19Z</time>
      </trkpt>
      <trkpt lat="44.14027" lon="6.33662">
        <ele>898</ele>
        <time>2015-06-21T11:16:27Z</time>
      </trkpt>
      <trkpt lat="44.1403" lon="6.33648">
        <ele>894</ele>
        <time>2015-06-21T11:16:34Z</time>
      </trkpt>
      <trkpt lat="44.14032" lon="6.33636">
        <ele>894</ele>
        <time>2015-06-21T11:16:40Z</time>
      </trkpt>
      <trkpt lat="44.14048" lon="6.33624">
        <ele>898</ele>
        <time>2015-06-21T11:16:49Z</time>
      </trkpt>
      <trkpt lat="44.1406" lon="6.33611">
        <ele>898</ele>
        <time>2015-06-21T11:16:56Z</time>
      </trkpt>
      <trkpt lat="44.14072" lon="6.33604">
        <ele>905</ele>
        <time>2015-06-21T11:17:03Z</time>
      </trkpt>
      <trkpt lat="44.14083" lon="6.33601">
        <ele>905</ele>
        <time>2015-06-21T11:17:09Z</time>
      </trkpt>
      <trkpt lat="44.14097" lon="6.33599">
        <ele>905</ele>
        <time>2015-06-21T11:17:15Z</time>
      </trkpt>
      <trkpt lat="44.14111" lon="6.33596">
        <ele>913</ele>
        <time>2015-06-21T11:17:20Z</time>
      </trkpt>
      <trkpt lat="44.14118" lon="6.33593">
        <ele>913</ele>
        <time>2015-06-21T11:17:24Z</time>
      </trkpt>
      <trkpt lat="44.14127" lon="6.33598">
        <ele>915</ele>
        <time>2015-06-21T11:17:31Z</time>
      </trkpt>
      <trkpt lat="44.14133" lon="6.33601">
        <ele>915</ele>
        <time>2015-06-21T11:17:36Z</time>
      </trkpt>
      <trkpt lat="44.14133" lon="6.33594">
        <ele>919</ele>
        <time>2015-06-21T11:17:41Z</time>
      </trkpt>
      <trkpt lat="44.14134" lon="6.33591">
        <ele>919</ele>
        <time>2015-06-21T11:17:46Z</time>
      </trkpt>
      <trkpt lat="44.14137" lon="6.33588">
        <ele>919</ele>
        <time>2015-06-21T11:17:54Z</time>
      </trkpt>
      <trkpt lat="44.14135" lon="6.33586">
        <ele>919</ele>
        <time>2015-06-21T11:18:00Z</time>
      </trkpt>
      <trkpt lat="44.14132" lon="6.33584">
        <ele>919</ele>
        <time>2015-06-21T11:18:04Z</time>
      </trkpt>
      <trkpt lat="44.14128" lon="6.33578">
        <ele>919</ele>
        <time>2015-06-21T11:18:13Z</time>
      </trkpt>
      <trkpt lat="44.14125" lon="6.33576">
        <ele>913</ele>
        <time>2015-06-21T11:18:17Z</time>
      </trkpt>
      <trkpt lat="44.14123" lon="6.33574">
        <ele>913</ele>
        <time>2015-06-21T11:18:21Z</time>
      </trkpt>
      <trkpt lat="44.14116" lon="6.33571">
        <ele>913</ele>
        <time>2015-06-21T11:18:29Z</time>
      </trkpt>
      <trkpt lat="44.14107" lon="6.33564">
        <ele>924</ele>
        <time>2015-06-21T11:18:39Z</time>
      </trkpt>
      <trkpt lat="44.14102" lon="6.33558">
        <ele>924</ele>
        <time>2015-06-21T11:18:47Z</time>
      </trkpt>
      <trkpt lat="44.14101" lon="6.3355">
        <ele>924</ele>
        <time>2015-06-21T11:18:53Z</time>
      </trkpt>
      <trkpt lat="44.14098" lon="6.33542">
        <ele>924</ele>
        <time>2015-06-21T11:19:00Z</time>
      </trkpt>
      <trkpt lat="44.14094" lon="6.3354">
        <ele>928</ele>
        <time>2015-06-21T11:19:07Z</time>
      </trkpt>
      <trkpt lat="44.14087" lon="6.33535">
        <ele>928</ele>
        <time>2015-06-21T11:19:14Z</time>
      </trkpt>
      <trkpt lat="44.1408" lon="6.3353">
        <ele>928</ele>
        <time>2015-06-21T11:19:21Z</time>
      </trkpt>
      <trkpt lat="44.14078" lon="6.33523">
        <ele>928</ele>
        <time>2015-06-21T11:19:27Z</time>
      </trkpt>
      <trkpt lat="44.14073" lon="6.33513">
        <ele>939</ele>
        <time>2015-06-21T11:19:34Z</time>
      </trkpt>
      <trkpt lat="44.14068" lon="6.33506">
        <ele>926</ele>
        <time>2015-06-21T11:19:40Z</time>
      </trkpt>
      <trkpt lat="44.14063" lon="6.33499">
        <ele>926</ele>
        <time>2015-06-21T11:19:46Z</time>
      </trkpt>
      <trkpt lat="44.14061" lon="6.33493">
        <ele>926</ele>
        <time>2015-06-21T11:19:51Z</time>
      </trkpt>
      <trkpt lat="44.14058" lon="6.33485">
        <ele>936</ele>
        <time>2015-06-21T11:19:58Z</time>
      </trkpt>
      <trkpt lat="44.14054" lon="6.33476">
        <ele>936</ele>
        <time>2015-06-21T11:20:05Z</time>
      </trkpt>
      <trkpt lat="44.14049" lon="6.33469">
        <ele>936</ele>
        <time>2015-06-21T11:20:12Z</time>
      </trkpt>
      <trkpt lat="44.14039" lon="6.33457">
        <ele>935</ele>
        <time>2015-06-21T11:20:19Z</time>
      </trkpt>
      <trkpt lat="44.14034" lon="6.33444">
        <ele>935</ele>
        <time>2015-06-21T11:20:24Z</time>
      </trkpt>
      <trkpt lat="44.14034" lon="6.33427">
        <ele>940</ele>
        <time>2015-06-21T11:20:31Z</time>
      </trkpt>
      <trkpt lat="44.14034" lon="6.33412">
        <ele>940</ele>
        <time>2015-06-21T11:20:37Z</time>
      </trkpt>
      <trkpt lat="44.14037" lon="6.33397">
        <ele>943</ele>
        <time>2015-06-21T11:20:42Z</time>
      </trkpt>
      <trkpt lat="44.1404" lon="6.33381">
        <ele>943</ele>
        <time>2015-06-21T11:20:47Z</time>
      </trkpt>
      <trkpt lat="44.14039" lon="6.3336">
        <ele>944</ele>
        <time>2015-06-21T11:20:53Z</time>
      </trkpt>
      <trkpt lat="44.14031" lon="6.33342">
        <ele>944</ele>
        <time>2015-06-21T11:20:58Z</time>
      </trkpt>
      <trkpt lat="44.14026" lon="6.33324">
        <ele>944</ele>
        <time>2015-06-21T11:21:02Z</time>
      </trkpt>
      <trkpt lat="44.14031" lon="6.33297">
        <ele>945</ele>
        <time>2015-06-21T11:21:09Z</time>
      </trkpt>
      <trkpt lat="44.14025" lon="6.33279">
        <ele>947</ele>
        <time>2015-06-21T11:21:14Z</time>
      </trkpt>
      <trkpt lat="44.14022" lon="6.33262">
        <ele>949</ele>
        <time>2015-06-21T11:21:19Z</time>
      </trkpt>
      <trkpt lat="44.14016" lon="6.33243">
        <ele>949</ele>
        <time>2015-06-21T11:21:25Z</time>
      </trkpt>
      <trkpt lat="44.14012" lon="6.33217">
        <ele>943</ele>
        <time>2015-06-21T11:21:32Z</time>
      </trkpt>
      <trkpt lat="44.14011" lon="6.33195">
        <ele>944</ele>
        <time>2015-06-21T11:21:37Z</time>
      </trkpt>
      <trkpt lat="44.14007" lon="6.33169">
        <ele>945</ele>
        <time>2015-06-21T11:21:42Z</time>
      </trkpt>
      <trkpt lat="44.1401" lon="6.33147">
        <ele>946</ele>
        <time>2015-06-21T11:21:46Z</time>
      </trkpt>
      <trkpt lat="44.14014" lon="6.33115">
        <ele>950</ele>
        <time>2015-06-21T11:21:52Z</time>
      </trkpt>
      <trkpt lat="44.14014" lon="6.33097">
        <ele>946</ele>
        <time>2015-06-21T11:21:56Z</time>
      </trkpt>
      <trkpt lat="44.14023" lon="6.33084">
        <ele>946</ele>
        <time>2015-06-21T11:22:00Z</time>
      </trkpt>
      <trkpt lat="44.14034" lon="6.3307">
        <ele>946</ele>
        <time>2015-06-21T11:22:05Z</time>
      </trkpt>
      <trkpt lat="44.14034" lon="6.33063">
        <ele>944</ele>
        <time>2015-06-21T11:22:08Z</time>
      </trkpt>
      <trkpt lat="44.14036" lon="6.33053">
        <ele>944</ele>
        <time>2015-06-21T11:22:12Z</time>
      </trkpt>
      <trkpt lat="44.14037" lon="6.33046">
        <ele>944</ele>
        <time>2015-06-21T11:22:15Z</time>
      </trkpt>
      <trkpt lat="44.14035" lon="6.33035">
        <ele>944</ele>
        <time>2015-06-21T11:22:19Z</time>
      </trkpt>
      <trkpt lat="44.14029" lon="6.33024">
        <ele>944</ele>
        <time>2015-06-21T11:22:24Z</time>
      </trkpt>
      <trkpt lat="44.14029" lon="6.3302">
        <ele>944</ele>
        <time>2015-06-21T11:22:29Z</time>
      </trkpt>
      <trkpt lat="44.14028" lon="6.33013">
        <ele>948</ele>
        <time>2015-06-21T11:22:37Z</time>
      </trkpt>
      <trkpt lat="44.14029" lon="6.33007">
        <ele>948</ele>
        <time>2015-06-21T11:22:43Z</time>
      </trkpt>
      <trkpt lat="44.14031" lon="6.32996">
        <ele>948</ele>
        <time>2015-06-21T11:22:53Z</time>
      </trkpt>
      <trkpt lat="44.14032" lon="6.32986">
        <ele>955</ele>
        <time>2015-06-21T11:23:02Z</time>
      </trkpt>
      <trkpt lat="44.14035" lon="6.32975">
        <ele>955</ele>
        <time>2015-06-21T11:23:11Z</time>
      </trkpt>
      <trkpt lat="44.14035" lon="6.32968">
        <ele>955</ele>
        <time>2015-06-21T11:23:17Z</time>
      </trkpt>
      <trkpt lat="44.14034" lon="6.3296">
        <ele>955</ele>
        <time>2015-06-21T11:23:23Z</time>
      </trkpt>
      <trkpt lat="44.14034" lon="6.32952">
        <ele>959</ele>
        <time>2015-06-21T11:23:30Z</time>
      </trkpt>
      <trkpt lat="44.14035" lon="6.32941">
        <ele>959</ele>
        <time>2015-06-21T11:23:39Z</time>
      </trkpt>
      <trkpt lat="44.14036" lon="6.32925">
        <ele>963</ele>
        <time>2015-06-21T11:23:49Z</time>
      </trkpt>
      <trkpt lat="44.14036" lon="6.32916">
        <ele>963</ele>
        <time>2015-06-21T11:23:56Z</time>
      </trkpt>
      <trkpt lat="44.14035" lon="6.32907">
        <ele>963</ele>
        <time>2015-06-21T11:24:04Z</time>
      </trkpt>
      <trkpt lat="44.14036" lon="6.32897">
        <ele>967</ele>
        <time>2015-06-21T11:24:12Z</time>
      </trkpt>
      <trkpt lat="44.14039" lon="6.32889">
        <ele>967</ele>
        <time>2015-06-21T11:24:21Z</time>
      </trkpt>
      <trkpt lat="44.14041" lon="6.32882">
        <ele>967</ele>
        <time>2015-06-21T11:24:29Z</time>
      </trkpt>
      <trkpt lat="44.1404" lon="6.32875">
        <ele>967</ele>
        <time>2015-06-21T11:24:35Z</time>
      </trkpt>
      <trkpt lat="44.14038" lon="6.32863">
        <ele>970</ele>
        <time>2015-06-21T11:24:42Z</time>
      </trkpt>
      <trkpt lat="44.14037" lon="6.32842">
        <ele>972</ele>
        <time>2015-06-21T11:24:51Z</time>
      </trkpt>
      <trkpt lat="44.14039" lon="6.3283">
        <ele>972</ele>
        <time>2015-06-21T11:24:58Z</time>
      </trkpt>
      <trkpt lat="44.14041" lon="6.32825">
        <ele>972</ele>
        <time>2015-06-21T11:25:05Z</time>
      </trkpt>
      <trkpt lat="44.14042" lon="6.32819">
        <ele>979</ele>
        <time>2015-06-21T11:25:10Z</time>
      </trkpt>
      <trkpt lat="44.14049" lon="6.32813">
        <ele>979</ele>
        <time>2015-06-21T11:25:20Z</time>
      </trkpt>
      <trkpt lat="44.14054" lon="6.32809">
        <ele>979</ele>
        <time>2015-06-21T11:25:28Z</time>
      </trkpt>
      <trkpt lat="44.14059" lon="6.32805">
        <ele>979</ele>
        <time>2015-06-21T11:25:36Z</time>
      </trkpt>
      <trkpt lat="44.14063" lon="6.328">
        <ele>979</ele>
        <time>2015-06-21T11:25:43Z</time>
      </trkpt>
      <trkpt lat="44.14067" lon="6.32801">
        <ele>979</ele>
        <time>2015-06-21T11:25:48Z</time>
      </trkpt>
      <trkpt lat="44.1407" lon="6.32792">
        <ele>984</ele>
        <time>2015-06-21T11:25:56Z</time>
      </trkpt>
      <trkpt lat="44.14071" lon="6.32781">
        <ele>978</ele>
        <time>2015-06-21T11:26:04Z</time>
      </trkpt>
      <trkpt lat="44.1408" lon="6.32778">
        <ele>978</ele>
        <time>2015-06-21T11:26:10Z</time>
      </trkpt>
      <trkpt lat="44.14103" lon="6.32774">
        <ele>980</ele>
        <time>2015-06-21T11:26:16Z</time>
      </trkpt>
      <trkpt lat="44.14136" lon="6.32762">
        <ele>967</ele>
        <time>2015-06-21T11:26:23Z</time>
      </trkpt>
      <trkpt lat="44.14151" lon="6.32752">
        <ele>967</ele>
        <time>2015-06-21T11:26:27Z</time>
      </trkpt>
      <trkpt lat="44.14167" lon="6.32749">
        <ele>973</ele>
        <time>2015-06-21T11:26:31Z</time>
      </trkpt>
      <trkpt lat="44.14183" lon="6.3274">
        <ele>978</ele>
        <time>2015-06-21T11:26:34Z</time>
      </trkpt>
      <trkpt lat="44.14222" lon="6.32743">
        <ele>976</ele>
        <time>2015-06-21T11:26:40Z</time>
      </trkpt>
      <trkpt lat="44.14238" lon="6.32738">
        <ele>972</ele>
        <time>2015-06-21T11:26:43Z</time>
      </trkpt>
      <trkpt lat="44.14264" lon="6.32737">
        <ele>969</ele>
        <time>2015-06-21T11:26:49Z</time>
      </trkpt>
      <trkpt lat="44.14285" lon="6.32736">
        <ele>957</ele>
        <time>2015-06-21T11:26:54Z</time>
      </trkpt>
      <trkpt lat="44.14298" lon="6.32736">
        <ele>961</ele>
        <time>2015-06-21T11:26:58Z</time>
      </trkpt>
      <trkpt lat="44.14295" lon="6.32727">
        <ele>961</ele>
        <time>2015-06-21T11:27:01Z</time>
      </trkpt>
      <trkpt lat="44.14289" lon="6.32712">
        <ele>957</ele>
        <time>2015-06-21T11:27:04Z</time>
      </trkpt>
      <trkpt lat="44.14282" lon="6.32683">
        <ele>949</ele>
        <time>2015-06-21T11:27:09Z</time>
      </trkpt>
      <trkpt lat="44.14277" lon="6.32673">
        <ele>941</ele>
        <time>2015-06-21T11:27:12Z</time>
      </trkpt>
      <trkpt lat="44.14268" lon="6.3267">
        <ele>941</ele>
        <time>2015-06-21T11:27:15Z</time>
      </trkpt>
      <trkpt lat="44.14246" lon="6.32664">
        <ele>937</ele>
        <time>2015-06-21T11:27:19Z</time>
      </trkpt>
      <trkpt lat="44.14232" lon="6.32653">
        <ele>935</ele>
        <time>2015-06-21T11:27:22Z</time>
      </trkpt>
      <trkpt lat="44.14216" lon="6.32639">
        <ele>927</ele>
        <time>2015-06-21T11:27:25Z</time>
      </trkpt>
      <trkpt lat="44.14197" lon="6.32621">
        <ele>917</ele>
        <time>2015-06-21T11:27:29Z</time>
      </trkpt>
      <trkpt lat="44.14182" lon="6.32615">
        <ele>917</ele>
        <time>2015-06-21T11:27:32Z</time>
      </trkpt>
      <trkpt lat="44.14172" lon="6.32612">
        <ele>909</ele>
        <time>2015-06-21T11:27:35Z</time>
      </trkpt>
      <trkpt lat="44.1416" lon="6.32598">
        <ele>909</ele>
        <time>2015-06-21T11:27:41Z</time>
      </trkpt>
      <trkpt lat="44.14158" lon="6.32567">
        <ele>893</ele>
        <time>2015-06-21T11:27:46Z</time>
      </trkpt>
      <trkpt lat="44.14153" lon="6.32548">
        <ele>893</ele>
        <time>2015-06-21T11:27:51Z</time>
      </trkpt>
      <trkpt lat="44.14155" lon="6.32543">
        <ele>893</ele>
        <time>2015-06-21T11:27:54Z</time>
      </trkpt>
      <trkpt lat="44.14159" lon="6.32543">
        <ele>893</ele>
        <time>2015-06-21T11:28:01Z</time>
      </trkpt>
      <trkpt lat="44.14161" lon="6.32542">
        <ele>893</ele>
        <time>2015-06-21T11:28:07Z</time>
      </trkpt>
      <trkpt lat="44.14158" lon="6.32534">
        <ele>887</ele>
        <time>2015-06-21T11:28:10Z</time>
      </trkpt>
      <trkpt lat="44.14142" lon="6.32502">
        <ele>882</ele>
        <time>2015-06-21T11:28:16Z</time>
      </trkpt>
      <trkpt lat="44.1413" lon="6.32486">
        <ele>881</ele>
        <time>2015-06-21T11:28:20Z</time>
      </trkpt>
      <trkpt lat="44.14114" lon="6.32465">
        <ele>877</ele>
        <time>2015-06-21T11:28:25Z</time>
      </trkpt>
      <trkpt lat="44.14096" lon="6.32436">
        <ele>865</ele>
        <time>2015-06-21T11:28:32Z</time>
      </trkpt>
      <trkpt lat="44.14089" lon="6.32429">
        <ele>864</ele>
        <time>2015-06-21T11:28:35Z</time>
      </trkpt>
      <trkpt lat="44.14082" lon="6.32414">
        <ele>864</ele>
        <time>2015-06-21T11:28:38Z</time>
      </trkpt>
      <trkpt lat="44.14069" lon="6.32398">
        <ele>854</ele>
        <time>2015-06-21T11:28:42Z</time>
      </trkpt>
      <trkpt lat="44.14061" lon="6.32388">
        <ele>854</ele>
        <time>2015-06-21T11:28:45Z</time>
      </trkpt>
      <trkpt lat="44.14036" lon="6.32356">
        <ele>845</ele>
        <time>2015-06-21T11:28:52Z</time>
      </trkpt>
      <trkpt lat="44.14021" lon="6.32336">
        <ele>846</ele>
        <time>2015-06-21T11:28:55Z</time>
      </trkpt>
      <trkpt lat="44.13998" lon="6.32313">
        <ele>841</ele>
        <time>2015-06-21T11:29:00Z</time>
      </trkpt>
      <trkpt lat="44.13983" lon="6.32295">
        <ele>837</ele>
        <time>2015-06-21T11:29:03Z</time>
      </trkpt>
      <trkpt lat="44.13967" lon="6.32281">
        <ele>838</ele>
        <time>2015-06-21T11:29:06Z</time>
      </trkpt>
      <trkpt lat="44.13932" lon="6.32255">
        <ele>836</ele>
        <time>2015-06-21T11:29:12Z</time>
      </trkpt>
      <trkpt lat="44.13893" lon="6.32243">
        <ele>831</ele>
        <time>2015-06-21T11:29:18Z</time>
      </trkpt>
      <trkpt lat="44.13861" lon="6.32228">
        <ele>828</ele>
        <time>2015-06-21T11:29:23Z</time>
      </trkpt>
      <trkpt lat="44.13845" lon="6.32221">
        <ele>822</ele>
        <time>2015-06-21T11:29:26Z</time>
      </trkpt>
      <trkpt lat="44.13827" lon="6.32214">
        <ele>822</ele>
        <time>2015-06-21T11:29:30Z</time>
      </trkpt>
      <trkpt lat="44.13803" lon="6.32226">
        <ele>809</ele>
        <time>2015-06-21T11:29:36Z</time>
      </trkpt>
      <trkpt lat="44.13793" lon="6.32235">
        <ele>809</ele>
        <time>2015-06-21T11:29:39Z</time>
      </trkpt>
      <trkpt lat="44.13789" lon="6.32248">
        <ele>795</ele>
        <time>2015-06-21T11:29:43Z</time>
      </trkpt>
      <trkpt lat="44.13785" lon="6.32256">
        <ele>795</ele>
        <time>2015-06-21T11:29:46Z</time>
      </trkpt>
      <trkpt lat="44.1378" lon="6.32264">
        <ele>791</ele>
        <time>2015-06-21T11:29:49Z</time>
      </trkpt>
      <trkpt lat="44.13781" lon="6.32279">
        <ele>791</ele>
        <time>2015-06-21T11:29:54Z</time>
      </trkpt>
      <trkpt lat="44.13781" lon="6.32288">
        <ele>791</ele>
        <time>2015-06-21T11:29:58Z</time>
      </trkpt>
      <trkpt lat="44.13782" lon="6.32292">
        <ele>783</ele>
        <time>2015-06-21T11:30:02Z</time>
      </trkpt>
      <trkpt lat="44.13776" lon="6.32297">
        <ele>783</ele>
        <time>2015-06-21T11:30:07Z</time>
      </trkpt>
      <trkpt lat="44.13764" lon="6.32297">
        <ele>783</ele>
        <time>2015-06-21T11:30:11Z</time>
      </trkpt>
      <trkpt lat="44.13747" lon="6.32307">
        <ele>773</ele>
        <time>2015-06-21T11:30:16Z</time>
      </trkpt>
      <trkpt lat="44.13736" lon="6.32318">
        <ele>763</ele>
        <time>2015-06-21T11:30:19Z</time>
      </trkpt>
      <trkpt lat="44.13721" lon="6.32331">
        <ele>764</ele>
        <time>2015-06-21T11:30:23Z</time>
      </trkpt>
      <trkpt lat="44.13706" lon="6.3234">
        <ele>757</ele>
        <time>2015-06-21T11:30:27Z</time>
      </trkpt>
      <trkpt lat="44.13687" lon="6.32339">
        <ele>757</ele>
        <time>2015-06-21T11:30:31Z</time>
      </trkpt>
      <trkpt lat="44.13669" lon="6.32342">
        <ele>752</ele>
        <time>2015-06-21T11:30:35Z</time>
      </trkpt>
      <trkpt lat="44.1366" lon="6.32364">
        <ele>753</ele>
        <time>2015-06-21T11:30:41Z</time>
      </trkpt>
      <trkpt lat="44.13657" lon="6.32375">
        <ele>754</ele>
        <time>2015-06-21T11:30:45Z</time>
      </trkpt>
      <trkpt lat="44.13652" lon="6.32388">
        <ele>750</ele>
        <time>2015-06-21T11:30:51Z</time>
      </trkpt>
      <trkpt lat="44.13636" lon="6.32385">
        <ele>750</ele>
        <time>2015-06-21T11:30:55Z</time>
      </trkpt>
      <trkpt lat="44.13624" lon="6.32389">
        <ele>752</ele>
        <time>2015-06-21T11:31:01Z</time>
      </trkpt>
      <trkpt lat="44.13618" lon="6.3239">
        <ele>752</ele>
        <time>2015-06-21T11:31:05Z</time>
      </trkpt>
      <trkpt lat="44.13611" lon="6.32385">
        <ele>752</ele>
        <time>2015-06-21T11:31:10Z</time>
      </trkpt>
      <trkpt lat="44.13604" lon="6.32388">
        <ele>752</ele>
        <time>2015-06-21T11:31:15Z</time>
      </trkpt>
      <trkpt lat="44.13601" lon="6.32395">
        <ele>752</ele>
        <time>2015-06-21T11:31:18Z</time>
      </trkpt>
      <trkpt lat="44.13597" lon="6.32398">
        <ele>760</ele>
        <time>2015-06-21T11:31:23Z</time>
      </trkpt>
      <trkpt lat="44.13591" lon="6.32392">
        <ele>760</ele>
        <time>2015-06-21T11:31:29Z</time>
      </trkpt>
      <trkpt lat="44.13587" lon="6.32386">
        <ele>760</ele>
        <time>2015-06-21T11:31:34Z</time>
      </trkpt>
      <trkpt lat="44.13584" lon="6.32395">
        <ele>760</ele>
        <time>2015-06-21T11:31:39Z</time>
      </trkpt>
      <trkpt lat="44.13588" lon="6.32413">
        <ele>761</ele>
        <time>2015-06-21T11:31:44Z</time>
      </trkpt>
      <trkpt lat="44.13589" lon="6.32435">
        <ele>761</ele>
        <time>2015-06-21T11:31:49Z</time>
      </trkpt>
      <trkpt lat="44.13594" lon="6.32454">
        <ele>761</ele>
        <time>2015-06-21T11:31:54Z</time>
      </trkpt>
      <trkpt lat="44.13598" lon="6.32475">
        <ele>755</ele>
        <time>2015-06-21T11:31:59Z</time>
      </trkpt>
      <trkpt lat="44.13599" lon="6.32498">
        <ele>756</ele>
        <time>2015-06-21T11:32:04Z</time>
      </trkpt>
      <trkpt lat="44.13592" lon="6.32526">
        <ele>762</ele>
        <time>2015-06-21T11:32:11Z</time>
      </trkpt>
      <trkpt lat="44.1358" lon="6.32553">
        <ele>763</ele>
        <time>2015-06-21T11:32:19Z</time>
      </trkpt>
      <trkpt lat="44.13576" lon="6.32574">
        <ele>764</ele>
        <time>2015-06-21T11:32:25Z</time>
      </trkpt>
      <trkpt lat="44.13579" lon="6.32592">
        <ele>764</ele>
        <time>2015-06-21T11:32:31Z</time>
      </trkpt>
      <trkpt lat="44.13588" lon="6.32608">
        <ele>767</ele>
        <time>2015-06-21T11:32:36Z</time>
      </trkpt>
      <trkpt lat="44.136" lon="6.32631">
        <ele>764</ele>
        <time>2015-06-21T11:32:43Z</time>
      </trkpt>
      <trkpt lat="44.13609" lon="6.32653">
        <ele>769</ele>
        <time>2015-06-21T11:32:49Z</time>
      </trkpt>
      <trkpt lat="44.13608" lon="6.32666">
        <ele>769</ele>
        <time>2015-06-21T11:32:52Z</time>
      </trkpt>
      <trkpt lat="44.136" lon="6.32673">
        <ele>769</ele>
        <time>2015-06-21T11:32:56Z</time>
      </trkpt>
      <trkpt lat="44.13581" lon="6.32665">
        <ele>774</ele>
        <time>2015-06-21T11:33:04Z</time>
      </trkpt>
      <trkpt lat="44.1357" lon="6.3265">
        <ele>770</ele>
        <time>2015-06-21T11:33:11Z</time>
      </trkpt>
      <trkpt lat="44.13559" lon="6.32622">
        <ele>779</ele>
        <time>2015-06-21T11:33:21Z</time>
      </trkpt>
      <trkpt lat="44.13555" lon="6.32607">
        <ele>779</ele>
        <time>2015-06-21T11:33:26Z</time>
      </trkpt>
      <trkpt lat="44.13553" lon="6.32578">
        <ele>777</ele>
        <time>2015-06-21T11:33:35Z</time>
      </trkpt>
      <trkpt lat="44.13555" lon="6.32553">
        <ele>778</ele>
        <time>2015-06-21T11:33:43Z</time>
      </trkpt>
      <trkpt lat="44.1355" lon="6.32525">
        <ele>777</ele>
        <time>2015-06-21T11:33:52Z</time>
      </trkpt>
      <trkpt lat="44.13541" lon="6.32506">
        <ele>790</ele>
        <time>2015-06-21T11:33:59Z</time>
      </trkpt>
      <trkpt lat="44.13532" lon="6.32491">
        <ele>790</ele>
        <time>2015-06-21T11:34:05Z</time>
      </trkpt>
      <trkpt lat="44.13523" lon="6.32473">
        <ele>783</ele>
        <time>2015-06-21T11:34:12Z</time>
      </trkpt>
      <trkpt lat="44.13517" lon="6.32458">
        <ele>779</ele>
        <time>2015-06-21T11:34:17Z</time>
      </trkpt>
      <trkpt lat="44.13509" lon="6.32437">
        <ele>791</ele>
        <time>2015-06-21T11:34:24Z</time>
      </trkpt>
      <trkpt lat="44.13505" lon="6.32407">
        <ele>789</ele>
        <time>2015-06-21T11:34:32Z</time>
      </trkpt>
      <trkpt lat="44.1351" lon="6.32381">
        <ele>790</ele>
        <time>2015-06-21T11:34:39Z</time>
      </trkpt>
      <trkpt lat="44.13512" lon="6.32359">
        <ele>790</ele>
        <time>2015-06-21T11:34:45Z</time>
      </trkpt>
      <trkpt lat="44.13508" lon="6.32351">
        <ele>790</ele>
        <time>2015-06-21T11:34:48Z</time>
      </trkpt>
      <trkpt lat="44.13499" lon="6.32353">
        <ele>790</ele>
        <time>2015-06-21T11:34:52Z</time>
      </trkpt>
      <trkpt lat="44.13492" lon="6.3238">
        <ele>790</ele>
        <time>2015-06-21T11:35:00Z</time>
      </trkpt>
      <trkpt lat="44.13487" lon="6.32406">
        <ele>789</ele>
        <time>2015-06-21T11:35:08Z</time>
      </trkpt>
      <trkpt lat="44.13485" lon="6.3243">
        <ele>802</ele>
        <time>2015-06-21T11:35:15Z</time>
      </trkpt>
      <trkpt lat="44.13482" lon="6.3245">
        <ele>804</ele>
        <time>2015-06-21T11:35:21Z</time>
      </trkpt>
      <trkpt lat="44.13492" lon="6.32472">
        <ele>795</ele>
        <time>2015-06-21T11:35:28Z</time>
      </trkpt>
      <trkpt lat="44.13499" lon="6.3249">
        <ele>802</ele>
        <time>2015-06-21T11:35:34Z</time>
      </trkpt>
      <trkpt lat="44.13507" lon="6.32506">
        <ele>802</ele>
        <time>2015-06-21T11:35:40Z</time>
      </trkpt>
      <trkpt lat="44.13515" lon="6.32528">
        <ele>795</ele>
        <time>2015-06-21T11:35:47Z</time>
      </trkpt>
      <trkpt lat="44.13518" lon="6.32553">
        <ele>797</ele>
        <time>2015-06-21T11:35:55Z</time>
      </trkpt>
      <trkpt lat="44.13516" lon="6.32572">
        <ele>799</ele>
        <time>2015-06-21T11:36:01Z</time>
      </trkpt>
      <trkpt lat="44.13511" lon="6.3257">
        <ele>814</ele>
        <time>2015-06-21T11:36:05Z</time>
      </trkpt>
      <trkpt lat="44.1351" lon="6.32556">
        <ele>811</ele>
        <time>2015-06-21T11:36:09Z</time>
      </trkpt>
      <trkpt lat="44.13503" lon="6.32528">
        <ele>809</ele>
        <time>2015-06-21T11:36:17Z</time>
      </trkpt>
      <trkpt lat="44.13489" lon="6.32511">
        <ele>802</ele>
        <time>2015-06-21T11:36:25Z</time>
      </trkpt>
      <trkpt lat="44.13479" lon="6.32506">
        <ele>814</ele>
        <time>2015-06-21T11:36:32Z</time>
      </trkpt>
      <trkpt lat="44.13463" lon="6.32496">
        <ele>814</ele>
        <time>2015-06-21T11:36:41Z</time>
      </trkpt>
      <trkpt lat="44.13453" lon="6.32482">
        <ele>823</ele>
        <time>2015-06-21T11:36:48Z</time>
      </trkpt>
      <trkpt lat="44.13447" lon="6.32459">
        <ele>823</ele>
        <time>2015-06-21T11:36:58Z</time>
      </trkpt>
      <trkpt lat="44.13445" lon="6.32439">
        <ele>818</ele>
        <time>2015-06-21T11:37:06Z</time>
      </trkpt>
      <trkpt lat="44.13447" lon="6.32421">
        <ele>816</ele>
        <time>2015-06-21T11:37:13Z</time>
      </trkpt>
      <trkpt lat="44.13444" lon="6.32405">
        <ele>816</ele>
        <time>2015-06-21T11:37:20Z</time>
      </trkpt>
      <trkpt lat="44.13436" lon="6.32394">
        <ele>815</ele>
        <time>2015-06-21T11:37:27Z</time>
      </trkpt>
      <trkpt lat="44.13431" lon="6.32382">
        <ele>815</ele>
        <time>2015-06-21T11:37:34Z</time>
      </trkpt>
      <trkpt lat="44.13427" lon="6.32367">
        <ele>836</ele>
        <time>2015-06-21T11:37:41Z</time>
      </trkpt>
      <trkpt lat="44.13425" lon="6.3236">
        <ele>836</ele>
        <time>2015-06-21T11:37:44Z</time>
      </trkpt>
      <trkpt lat="44.13421" lon="6.32342">
        <ele>835</ele>
        <time>2015-06-21T11:37:51Z</time>
      </trkpt>
      <trkpt lat="44.13417" lon="6.32324">
        <ele>835</ele>
        <time>2015-06-21T11:37:59Z</time>
      </trkpt>
      <trkpt lat="44.13414" lon="6.32308">
        <ele>836</ele>
        <time>2015-06-21T11:38:06Z</time>
      </trkpt>
      <trkpt lat="44.13414" lon="6.3229">
        <ele>837</ele>
        <time>2015-06-21T11:38:14Z</time>
      </trkpt>
      <trkpt lat="44.13417" lon="6.3227">
        <ele>837</ele>
        <time>2015-06-21T11:38:22Z</time>
      </trkpt>
      <trkpt lat="44.13413" lon="6.32253">
        <ele>836</ele>
        <time>2015-06-21T11:38:29Z</time>
      </trkpt>
      <trkpt lat="44.13407" lon="6.32234">
        <ele>835</ele>
        <time>2015-06-21T11:38:38Z</time>
      </trkpt>
      <trkpt lat="44.13407" lon="6.32216">
        <ele>835</ele>
        <time>2015-06-21T11:38:46Z</time>
      </trkpt>
      <trkpt lat="44.13408" lon="6.322">
        <ele>838</ele>
        <time>2015-06-21T11:38:53Z</time>
      </trkpt>
      <trkpt lat="44.13403" lon="6.32183">
        <ele>838</ele>
        <time>2015-06-21T11:39:01Z</time>
      </trkpt>
      <trkpt lat="44.13399" lon="6.32168">
        <ele>859</ele>
        <time>2015-06-21T11:39:08Z</time>
      </trkpt>
      <trkpt lat="44.13398" lon="6.32155">
        <ele>859</ele>
        <time>2015-06-21T11:39:14Z</time>
      </trkpt>
      <trkpt lat="44.13398" lon="6.32134">
        <ele>861</ele>
        <time>2015-06-21T11:39:24Z</time>
      </trkpt>
      <trkpt lat="44.134" lon="6.32127">
        <ele>861</ele>
        <time>2015-06-21T11:39:28Z</time>
      </trkpt>
      <trkpt lat="44.13411" lon="6.3211">
        <ele>843</ele>
        <time>2015-06-21T11:39:37Z</time>
      </trkpt>
      <trkpt lat="44.13415" lon="6.32094">
        <ele>843</ele>
        <time>2015-06-21T11:39:44Z</time>
      </trkpt>
      <trkpt lat="44.13407" lon="6.32076">
        <ele>843</ele>
        <time>2015-06-21T11:39:52Z</time>
      </trkpt>
      <trkpt lat="44.134" lon="6.32055">
        <ele>859</ele>
        <time>2015-06-21T11:40:01Z</time>
      </trkpt>
      <trkpt lat="44.13402" lon="6.32036">
        <ele>860</ele>
        <time>2015-06-21T11:40:08Z</time>
      </trkpt>
      <trkpt lat="44.13408" lon="6.32026">
        <ele>849</ele>
        <time>2015-06-21T11:40:14Z</time>
      </trkpt>
      <trkpt lat="44.13418" lon="6.32016">
        <ele>849</ele>
        <time>2015-06-21T11:40:21Z</time>
      </trkpt>
      <trkpt lat="44.1342" lon="6.32002">
        <ele>852</ele>
        <time>2015-06-21T11:40:27Z</time>
      </trkpt>
      <trkpt lat="44.13415" lon="6.31988">
        <ele>852</ele>
        <time>2015-06-21T11:40:34Z</time>
      </trkpt>
      <trkpt lat="44.13408" lon="6.31972">
        <ele>853</ele>
        <time>2015-06-21T11:40:43Z</time>
      </trkpt>
      <trkpt lat="44.13396" lon="6.31955">
        <ele>860</ele>
        <time>2015-06-21T11:40:54Z</time>
      </trkpt>
      <trkpt lat="44.13381" lon="6.31937">
        <ele>860</ele>
        <time>2015-06-21T11:41:06Z</time>
      </trkpt>
      <trkpt lat="44.13378" lon="6.31919">
        <ele>860</ele>
        <time>2015-06-21T11:41:14Z</time>
      </trkpt>
      <trkpt lat="44.13374" lon="6.319">
        <ele>874</ele>
        <time>2015-06-21T11:41:23Z</time>
      </trkpt>
      <trkpt lat="44.13375" lon="6.31878">
        <ele>874</ele>
        <time>2015-06-21T11:41:32Z</time>
      </trkpt>
      <trkpt lat="44.13373" lon="6.31857">
        <ele>876</ele>
        <time>2015-06-21T11:41:41Z</time>
      </trkpt>
      <trkpt lat="44.1337" lon="6.31838">
        <ele>877</ele>
        <time>2015-06-21T11:41:49Z</time>
      </trkpt>
      <trkpt lat="44.13366" lon="6.31817">
        <ele>876</ele>
        <time>2015-06-21T11:41:58Z</time>
      </trkpt>
      <trkpt lat="44.13364" lon="6.31799">
        <ele>876</ele>
        <time>2015-06-21T11:42:06Z</time>
      </trkpt>
      <trkpt lat="44.1336" lon="6.31782">
        <ele>872</ele>
        <time>2015-06-21T11:42:14Z</time>
      </trkpt>
      <trkpt lat="44.13358" lon="6.31776">
        <ele>872</ele>
        <time>2015-06-21T11:42:17Z</time>
      </trkpt>
      <trkpt lat="44.13351" lon="6.31753">
        <ele>870</ele>
        <time>2015-06-21T11:42:28Z</time>
      </trkpt>
      <trkpt lat="44.13345" lon="6.31733">
        <ele>881</ele>
        <time>2015-06-21T11:42:38Z</time>
      </trkpt>
      <trkpt lat="44.13333" lon="6.31717">
        <ele>881</ele>
        <time>2015-06-21T11:42:48Z</time>
      </trkpt>
      <trkpt lat="44.13321" lon="6.31704">
        <ele>878</ele>
        <time>2015-06-21T11:42:57Z</time>
      </trkpt>
      <trkpt lat="44.13308" lon="6.31693">
        <ele>889</ele>
        <time>2015-06-21T11:43:06Z</time>
      </trkpt>
      <trkpt lat="44.13296" lon="6.31679">
        <ele>883</ele>
        <time>2015-06-21T11:43:14Z</time>
      </trkpt>
      <trkpt lat="44.13282" lon="6.31665">
        <ele>895</ele>
        <time>2015-06-21T11:43:23Z</time>
      </trkpt>
      <trkpt lat="44.13265" lon="6.31656">
        <ele>895</ele>
        <time>2015-06-21T11:43:32Z</time>
      </trkpt>
      <trkpt lat="44.13253" lon="6.31643">
        <ele>898</ele>
        <time>2015-06-21T11:43:39Z</time>
      </trkpt>
      <trkpt lat="44.13241" lon="6.31633">
        <ele>898</ele>
        <time>2015-06-21T11:43:45Z</time>
      </trkpt>
      <trkpt lat="44.13222" lon="6.3162">
        <ele>901</ele>
        <time>2015-06-21T11:43:53Z</time>
      </trkpt>
      <trkpt lat="44.13209" lon="6.31601">
        <ele>901</ele>
        <time>2015-06-21T11:44:00Z</time>
      </trkpt>
      <trkpt lat="44.13196" lon="6.31577">
        <ele>905</ele>
        <time>2015-06-21T11:44:08Z</time>
      </trkpt>
      <trkpt lat="44.13189" lon="6.31553">
        <ele>902</ele>
        <time>2015-06-21T11:44:15Z</time>
      </trkpt>
      <trkpt lat="44.13189" lon="6.31524">
        <ele>900</ele>
        <time>2015-06-21T11:44:24Z</time>
      </trkpt>
      <trkpt lat="44.13189" lon="6.31507">
        <ele>898</ele>
        <time>2015-06-21T11:44:30Z</time>
      </trkpt>
      <trkpt lat="44.13186" lon="6.3149">
        <ele>898</ele>
        <time>2015-06-21T11:44:36Z</time>
      </trkpt>
      <trkpt lat="44.13181" lon="6.31461">
        <ele>896</ele>
        <time>2015-06-21T11:44:45Z</time>
      </trkpt>
      <trkpt lat="44.13173" lon="6.31436">
        <ele>905</ele>
        <time>2015-06-21T11:44:53Z</time>
      </trkpt>
      <trkpt lat="44.1316" lon="6.31414">
        <ele>904</ele>
        <time>2015-06-21T11:45:00Z</time>
      </trkpt>
      <trkpt lat="44.13157" lon="6.31386">
        <ele>903</ele>
        <time>2015-06-21T11:45:06Z</time>
      </trkpt>
      <trkpt lat="44.13152" lon="6.31351">
        <ele>916</ele>
        <time>2015-06-21T11:45:12Z</time>
      </trkpt>
      <trkpt lat="44.13146" lon="6.3131">
        <ele>916</ele>
        <time>2015-06-21T11:45:19Z</time>
      </trkpt>
      <trkpt lat="44.13149" lon="6.31289">
        <ele>913</ele>
        <time>2015-06-21T11:45:24Z</time>
      </trkpt>
      <trkpt lat="44.13159" lon="6.31276">
        <ele>905</ele>
        <time>2015-06-21T11:45:29Z</time>
      </trkpt>
      <trkpt lat="44.1317" lon="6.3126">
        <ele>901</ele>
        <time>2015-06-21T11:45:34Z</time>
      </trkpt>
      <trkpt lat="44.13169" lon="6.31229">
        <ele>898</ele>
        <time>2015-06-21T11:45:39Z</time>
      </trkpt>
      <trkpt lat="44.13163" lon="6.31213">
        <ele>898</ele>
        <time>2015-06-21T11:45:42Z</time>
      </trkpt>
      <trkpt lat="44.13158" lon="6.31191">
        <ele>895</ele>
        <time>2015-06-21T11:45:46Z</time>
      </trkpt>
      <trkpt lat="44.13154" lon="6.31169">
        <ele>891</ele>
        <time>2015-06-21T11:45:49Z</time>
      </trkpt>
      <trkpt lat="44.13156" lon="6.31153">
        <ele>891</ele>
        <time>2015-06-21T11:45:52Z</time>
      </trkpt>
      <trkpt lat="44.13171" lon="6.31104">
        <ele>885</ele>
        <time>2015-06-21T11:45:58Z</time>
      </trkpt>
      <trkpt lat="44.1318" lon="6.31084">
        <ele>882</ele>
        <time>2015-06-21T11:46:01Z</time>
      </trkpt>
      <trkpt lat="44.13195" lon="6.3105">
        <ele>886</ele>
        <time>2015-06-21T11:46:07Z</time>
      </trkpt>
      <trkpt lat="44.13207" lon="6.31036">
        <ele>885</ele>
        <time>2015-06-21T11:46:11Z</time>
      </trkpt>
      <trkpt lat="44.13223" lon="6.31025">
        <ele>889</ele>
        <time>2015-06-21T11:46:16Z</time>
      </trkpt>
      <trkpt lat="44.13229" lon="6.31015">
        <ele>889</ele>
        <time>2015-06-21T11:46:19Z</time>
      </trkpt>
      <trkpt lat="44.13227" lon="6.30995">
        <ele>888</ele>
        <time>2015-06-21T11:46:23Z</time>
      </trkpt>
      <trkpt lat="44.13223" lon="6.30974">
        <ele>888</ele>
        <time>2015-06-21T11:46:26Z</time>
      </trkpt>
      <trkpt lat="44.13214" lon="6.30954">
        <ele>888</ele>
        <time>2015-06-21T11:46:29Z</time>
      </trkpt>
      <trkpt lat="44.13207" lon="6.30927">
        <ele>885</ele>
        <time>2015-06-21T11:46:33Z</time>
      </trkpt>
      <trkpt lat="44.13182" lon="6.30909">
        <ele>885</ele>
        <time>2015-06-21T11:46:38Z</time>
      </trkpt>
      <trkpt lat="44.13151" lon="6.30879">
        <ele>875</ele>
        <time>2015-06-21T11:46:44Z</time>
      </trkpt>
      <trkpt lat="44.13149" lon="6.30857">
        <ele>877</ele>
        <time>2015-06-21T11:46:48Z</time>
      </trkpt>
      <trkpt lat="44.13149" lon="6.30837">
        <ele>878</ele>
        <time>2015-06-21T11:46:52Z</time>
      </trkpt>
      <trkpt lat="44.13153" lon="6.30811">
        <ele>881</ele>
        <time>2015-06-21T11:46:57Z</time>
      </trkpt>
      <trkpt lat="44.13179" lon="6.30784">
        <ele>880</ele>
        <time>2015-06-21T11:47:04Z</time>
      </trkpt>
      <trkpt lat="44.13193" lon="6.30778">
        <ele>875</ele>
        <time>2015-06-21T11:47:08Z</time>
      </trkpt>
      <trkpt lat="44.13198" lon="6.30762">
        <ele>871</ele>
        <time>2015-06-21T11:47:11Z</time>
      </trkpt>
      <trkpt lat="44.13201" lon="6.30729">
        <ele>871</ele>
        <time>2015-06-21T11:47:15Z</time>
      </trkpt>
      <trkpt lat="44.13203" lon="6.30697">
        <ele>869</ele>
        <time>2015-06-21T11:47:19Z</time>
      </trkpt>
      <trkpt lat="44.13203" lon="6.30674">
        <ele>867</ele>
        <time>2015-06-21T11:47:23Z</time>
      </trkpt>
      <trkpt lat="44.13207" lon="6.30657">
        <ele>867</ele>
        <time>2015-06-21T11:47:26Z</time>
      </trkpt>
      <trkpt lat="44.13213" lon="6.30642">
        <ele>840</ele>
        <time>2015-06-21T11:47:29Z</time>
      </trkpt>
      <trkpt lat="44.13221" lon="6.30629">
        <ele>840</ele>
        <time>2015-06-21T11:47:32Z</time>
      </trkpt>
      <trkpt lat="44.13237" lon="6.30604">
        <ele>811</ele>
        <time>2015-06-21T11:47:38Z</time>
      </trkpt>
      <trkpt lat="44.13241" lon="6.30594">
        <ele>804</ele>
        <time>2015-06-21T11:47:41Z</time>
      </trkpt>
      <trkpt lat="44.13248" lon="6.30606">
        <ele>811</ele>
        <time>2015-06-21T11:47:45Z</time>
      </trkpt>
      <trkpt lat="44.13248" lon="6.30584">
        <ele>804</ele>
        <time>2015-06-21T11:47:50Z</time>
      </trkpt>
      <trkpt lat="44.1324" lon="6.30573">
        <ele>804</ele>
        <time>2015-06-21T11:47:53Z</time>
      </trkpt>
      <trkpt lat="44.13226" lon="6.30546">
        <ele>821</ele>
        <time>2015-06-21T11:47:58Z</time>
      </trkpt>
      <trkpt lat="44.13214" lon="6.30524">
        <ele>811</ele>
        <time>2015-06-21T11:48:02Z</time>
      </trkpt>
      <trkpt lat="44.13207" lon="6.30496">
        <ele>822</ele>
        <time>2015-06-21T11:48:06Z</time>
      </trkpt>
      <trkpt lat="44.13191" lon="6.30459">
        <ele>810</ele>
        <time>2015-06-21T11:48:11Z</time>
      </trkpt>
      <trkpt lat="44.13179" lon="6.30424">
        <ele>809</ele>
        <time>2015-06-21T11:48:15Z</time>
      </trkpt>
      <trkpt lat="44.13158" lon="6.30383">
        <ele>800</ele>
        <time>2015-06-21T11:48:22Z</time>
      </trkpt>
      <trkpt lat="44.13146" lon="6.30369">
        <ele>807</ele>
        <time>2015-06-21T11:48:26Z</time>
      </trkpt>
      <trkpt lat="44.13143" lon="6.30354">
        <ele>807</ele>
        <time>2015-06-21T11:48:29Z</time>
      </trkpt>
      <trkpt lat="44.13137" lon="6.3032">
        <ele>794</ele>
        <time>2015-06-21T11:48:34Z</time>
      </trkpt>
      <trkpt lat="44.13129" lon="6.30302">
        <ele>784</ele>
        <time>2015-06-21T11:48:37Z</time>
      </trkpt>
      <trkpt lat="44.13123" lon="6.30286">
        <ele>791</ele>
        <time>2015-06-21T11:48:40Z</time>
      </trkpt>
      <trkpt lat="44.13111" lon="6.3027">
        <ele>791</ele>
        <time>2015-06-21T11:48:43Z</time>
      </trkpt>
      <trkpt lat="44.13105" lon="6.30246">
        <ele>783</ele>
        <time>2015-06-21T11:48:47Z</time>
      </trkpt>
      <trkpt lat="44.13098" lon="6.30223">
        <ele>775</ele>
        <time>2015-06-21T11:48:51Z</time>
      </trkpt>
      <trkpt lat="44.13093" lon="6.30201">
        <ele>782</ele>
        <time>2015-06-21T11:48:54Z</time>
      </trkpt>
      <trkpt lat="44.13084" lon="6.3019">
        <ele>782</ele>
        <time>2015-06-21T11:48:57Z</time>
      </trkpt>
      <trkpt lat="44.13076" lon="6.30167">
        <ele>776</ele>
        <time>2015-06-21T11:49:01Z</time>
      </trkpt>
      <trkpt lat="44.13071" lon="6.30151">
        <ele>769</ele>
        <time>2015-06-21T11:49:05Z</time>
      </trkpt>
      <trkpt lat="44.13084" lon="6.30143">
        <ele>769</ele>
        <time>2015-06-21T11:49:09Z</time>
      </trkpt>
      <trkpt lat="44.13099" lon="6.30135">
        <ele>764</ele>
        <time>2015-06-21T11:49:12Z</time>
      </trkpt>
      <trkpt lat="44.13116" lon="6.30133">
        <ele>764</ele>
        <time>2015-06-21T11:49:15Z</time>
      </trkpt>
      <trkpt lat="44.13126" lon="6.30123">
        <ele>755</ele>
        <time>2015-06-21T11:49:18Z</time>
      </trkpt>
      <trkpt lat="44.13137" lon="6.30094">
        <ele>751</ele>
        <time>2015-06-21T11:49:24Z</time>
      </trkpt>
      <trkpt lat="44.13133" lon="6.30072">
        <ele>751</ele>
        <time>2015-06-21T11:49:28Z</time>
      </trkpt>
      <trkpt lat="44.13125" lon="6.30056">
        <ele>744</ele>
        <time>2015-06-21T11:49:31Z</time>
      </trkpt>
      <trkpt lat="44.13105" lon="6.30024">
        <ele>743</ele>
        <time>2015-06-21T11:49:38Z</time>
      </trkpt>
      <trkpt lat="44.13113" lon="6.30009">
        <ele>740</ele>
        <time>2015-06-21T11:49:44Z</time>
      </trkpt>
      <trkpt lat="44.13112" lon="6.29991">
        <ele>740</ele>
        <time>2015-06-21T11:49:48Z</time>
      </trkpt>
      <trkpt lat="44.13108" lon="6.29969">
        <ele>735</ele>
        <time>2015-06-21T11:49:52Z</time>
      </trkpt>
      <trkpt lat="44.13105" lon="6.29947">
        <ele>729</ele>
        <time>2015-06-21T11:49:56Z</time>
      </trkpt>
      <trkpt lat="44.13102" lon="6.29929">
        <ele>724</ele>
        <time>2015-06-21T11:49:59Z</time>
      </trkpt>
      <trkpt lat="44.1309" lon="6.2991">
        <ele>728</ele>
        <time>2015-06-21T11:50:03Z</time>
      </trkpt>
      <trkpt lat="44.13076" lon="6.29905">
        <ele>728</ele>
        <time>2015-06-21T11:50:06Z</time>
      </trkpt>
      <trkpt lat="44.13062" lon="6.29896">
        <ele>725</ele>
        <time>2015-06-21T11:50:09Z</time>
      </trkpt>
      <trkpt lat="44.13036" lon="6.29861">
        <ele>719</ele>
        <time>2015-06-21T11:50:16Z</time>
      </trkpt>
      <trkpt lat="44.13019" lon="6.29857">
        <ele>719</ele>
        <time>2015-06-21T11:50:20Z</time>
      </trkpt>
      <trkpt lat="44.13008" lon="6.29856">
        <ele>718</ele>
        <time>2015-06-21T11:50:23Z</time>
      </trkpt>
      <trkpt lat="44.13008" lon="6.29846">
        <ele>718</ele>
        <time>2015-06-21T11:50:26Z</time>
      </trkpt>
      <trkpt lat="44.13017" lon="6.29829">
        <ele>718</ele>
        <time>2015-06-21T11:50:30Z</time>
      </trkpt>
      <trkpt lat="44.1304" lon="6.2982">
        <ele>718</ele>
        <time>2015-06-21T11:50:35Z</time>
      </trkpt>
      <trkpt lat="44.13063" lon="6.29795">
        <ele>718</ele>
        <time>2015-06-21T11:50:41Z</time>
      </trkpt>
      <trkpt lat="44.13075" lon="6.29771">
        <ele>715</ele>
        <time>2015-06-21T11:50:45Z</time>
      </trkpt>
      <trkpt lat="44.13084" lon="6.29756">
        <ele>714</ele>
        <time>2015-06-21T11:50:48Z</time>
      </trkpt>
      <trkpt lat="44.13091" lon="6.29731">
        <ele>713</ele>
        <time>2015-06-21T11:50:52Z</time>
      </trkpt>
      <trkpt lat="44.13094" lon="6.29701">
        <ele>712</ele>
        <time>2015-06-21T11:50:56Z</time>
      </trkpt>
      <trkpt lat="44.13111" lon="6.29655">
        <ele>711</ele>
        <time>2015-06-21T11:51:03Z</time>
      </trkpt>
      <trkpt lat="44.13129" lon="6.29625">
        <ele>709</ele>
        <time>2015-06-21T11:51:08Z</time>
      </trkpt>
      <trkpt lat="44.13135" lon="6.29594">
        <ele>709</ele>
        <time>2015-06-21T11:51:12Z</time>
      </trkpt>
      <trkpt lat="44.13141" lon="6.29533">
        <ele>708</ele>
        <time>2015-06-21T11:51:19Z</time>
      </trkpt>
      <trkpt lat="44.1316" lon="6.29477">
        <ele>706</ele>
        <time>2015-06-21T11:51:26Z</time>
      </trkpt>
      <trkpt lat="44.13175" lon="6.2943">
        <ele>704</ele>
        <time>2015-06-21T11:51:32Z</time>
      </trkpt>
      <trkpt lat="44.13174" lon="6.29394">
        <ele>703</ele>
        <time>2015-06-21T11:51:36Z</time>
      </trkpt>
      <trkpt lat="44.13154" lon="6.29316">
        <ele>702</ele>
        <time>2015-06-21T11:51:45Z</time>
      </trkpt>
      <trkpt lat="44.13136" lon="6.29226">
        <ele>698</ele>
        <time>2015-06-21T11:51:55Z</time>
      </trkpt>
      <trkpt lat="44.1312" lon="6.29153">
        <ele>696</ele>
        <time>2015-06-21T11:52:03Z</time>
      </trkpt>
      <trkpt lat="44.13101" lon="6.29083">
        <ele>697</ele>
        <time>2015-06-21T11:52:11Z</time>
      </trkpt>
      <trkpt lat="44.13082" lon="6.29063">
        <ele>697</ele>
        <time>2015-06-21T11:52:15Z</time>
      </trkpt>
      <trkpt lat="44.13019" lon="6.29119">
        <ele>698</ele>
        <time>2015-06-21T11:52:27Z</time>
      </trkpt>
      <trkpt lat="44.12999" lon="6.29134">
        <ele>699</ele>
        <time>2015-06-21T11:52:31Z</time>
      </trkpt>
      <trkpt lat="44.12987" lon="6.29126">
        <ele>699</ele>
        <time>2015-06-21T11:52:34Z</time>
      </trkpt>
      <trkpt lat="44.12963" lon="6.29078">
        <ele>694</ele>
        <time>2015-06-21T11:52:42Z</time>
      </trkpt>
      <trkpt lat="44.12934" lon="6.29019">
        <ele>693</ele>
        <time>2015-06-21T11:52:50Z</time>
      </trkpt>
      <trkpt lat="44.12898" lon="6.28948">
        <ele>690</ele>
        <time>2015-06-21T11:52:59Z</time>
      </trkpt>
      <trkpt lat="44.12866" lon="6.28877">
        <ele>691</ele>
        <time>2015-06-21T11:53:08Z</time>
      </trkpt>
      <trkpt lat="44.12857" lon="6.28836">
        <ele>691</ele>
        <time>2015-06-21T11:53:13Z</time>
      </trkpt>
      <trkpt lat="44.12848" lon="6.28814">
        <ele>690</ele>
        <time>2015-06-21T11:53:16Z</time>
      </trkpt>
      <trkpt lat="44.12837" lon="6.28784">
        <ele>688</ele>
        <time>2015-06-21T11:53:20Z</time>
      </trkpt>
      <trkpt lat="44.12842" lon="6.28754">
        <ele>688</ele>
        <time>2015-06-21T11:53:24Z</time>
      </trkpt>
      <trkpt lat="44.1288" lon="6.28697">
        <ele>690</ele>
        <time>2015-06-21T11:53:33Z</time>
      </trkpt>
      <trkpt lat="44.12883" lon="6.28668">
        <ele>689</ele>
        <time>2015-06-21T11:53:37Z</time>
      </trkpt>
      <trkpt lat="44.12837" lon="6.28592">
        <ele>686</ele>
        <time>2015-06-21T11:53:49Z</time>
      </trkpt>
      <trkpt lat="44.12789" lon="6.2852">
        <ele>684</ele>
        <time>2015-06-21T11:54:01Z</time>
      </trkpt>
      <trkpt lat="44.12745" lon="6.28461">
        <ele>684</ele>
        <time>2015-06-21T11:54:11Z</time>
      </trkpt>
      <trkpt lat="44.12695" lon="6.28394">
        <ele>681</ele>
        <time>2015-06-21T11:54:23Z</time>
      </trkpt>
      <trkpt lat="44.12666" lon="6.28358">
        <ele>682</ele>
        <time>2015-06-21T11:54:30Z</time>
      </trkpt>
      <trkpt lat="44.12635" lon="6.28341">
        <ele>683</ele>
        <time>2015-06-21T11:54:36Z</time>
      </trkpt>
      <trkpt lat="44.12594" lon="6.28326">
        <ele>682</ele>
        <time>2015-06-21T11:54:43Z</time>
      </trkpt>
      <trkpt lat="44.12537" lon="6.28306">
        <ele>685</ele>
        <time>2015-06-21T11:54:53Z</time>
      </trkpt>
      <trkpt lat="44.12493" lon="6.28291">
        <ele>684</ele>
        <time>2015-06-21T11:55:01Z</time>
      </trkpt>
      <trkpt lat="44.12438" lon="6.28272">
        <ele>681</ele>
        <time>2015-06-21T11:55:11Z</time>
      </trkpt>
      <trkpt lat="44.12401" lon="6.28254">
        <ele>679</ele>
        <time>2015-06-21T11:55:18Z</time>
      </trkpt>
      <trkpt lat="44.12345" lon="6.28222">
        <ele>678</ele>
        <time>2015-06-21T11:55:29Z</time>
      </trkpt>
      <trkpt lat="44.12289" lon="6.28181">
        <ele>678</ele>
        <time>2015-06-21T11:55:40Z</time>
      </trkpt>
      <trkpt lat="44.12231" lon="6.2814">
        <ele>675</ele>
        <time>2015-06-21T11:55:52Z</time>
      </trkpt>
      <trkpt lat="44.12185" lon="6.28108">
        <ele>676</ele>
        <time>2015-06-21T11:56:02Z</time>
      </trkpt>
      <trkpt lat="44.12167" lon="6.28112">
        <ele>677</ele>
        <time>2015-06-21T11:56:07Z</time>
      </trkpt>
      <trkpt lat="44.12152" lon="6.28156">
        <ele>677</ele>
        <time>2015-06-21T11:56:16Z</time>
      </trkpt>
      <trkpt lat="44.12147" lon="6.28177">
        <ele>677</ele>
        <time>2015-06-21T11:56:21Z</time>
      </trkpt>
      <trkpt lat="44.12141" lon="6.28201">
        <ele>678</ele>
        <time>2015-06-21T11:56:27Z</time>
      </trkpt>
      <trkpt lat="44.12135" lon="6.28228">
        <ele>678</ele>
        <time>2015-06-21T11:56:34Z</time>
      </trkpt>
      <trkpt lat="44.12129" lon="6.28253">
        <ele>678</ele>
        <time>2015-06-21T11:56:41Z</time>
      </trkpt>
      <trkpt lat="44.12123" lon="6.28282">
        <ele>679</ele>
        <time>2015-06-21T11:56:48Z</time>
      </trkpt>
      <trkpt lat="44.12121" lon="6.28304">
        <ele>681</ele>
        <time>2015-06-21T11:56:54Z</time>
      </trkpt>
      <trkpt lat="44.12117" lon="6.28324">
        <ele>682</ele>
        <time>2015-06-21T11:56:59Z</time>
      </trkpt>
      <trkpt lat="44.12107" lon="6.2835">
        <ele>684</ele>
        <time>2015-06-21T11:57:06Z</time>
      </trkpt>
      <trkpt lat="44.12096" lon="6.2837">
        <ele>684</ele>
        <time>2015-06-21T11:57:13Z</time>
      </trkpt>
      <trkpt lat="44.12086" lon="6.28381">
        <ele>686</ele>
        <time>2015-06-21T11:57:20Z</time>
      </trkpt>
      <trkpt lat="44.12075" lon="6.28398">
        <ele>686</ele>
        <time>2015-06-21T11:57:26Z</time>
      </trkpt>
      <trkpt lat="44.12069" lon="6.28408">
        <ele>687</ele>
        <time>2015-06-21T11:57:29Z</time>
      </trkpt>
      <trkpt lat="44.12056" lon="6.28409">
        <ele>687</ele>
        <time>2015-06-21T11:57:32Z</time>
      </trkpt>
      <trkpt lat="44.12035" lon="6.28397">
        <ele>687</ele>
        <time>2015-06-21T11:57:37Z</time>
      </trkpt>
      <trkpt lat="44.12015" lon="6.28358">
        <ele>684</ele>
        <time>2015-06-21T11:57:43Z</time>
      </trkpt>
      <trkpt lat="44.12002" lon="6.28335">
        <ele>682</ele>
        <time>2015-06-21T11:57:47Z</time>
      </trkpt>
      <trkpt lat="44.11979" lon="6.28329">
        <ele>683</ele>
        <time>2015-06-21T11:57:53Z</time>
      </trkpt>
      <trkpt lat="44.11965" lon="6.2833">
        <ele>683</ele>
        <time>2015-06-21T11:57:57Z</time>
      </trkpt>
      <trkpt lat="44.11944" lon="6.28356">
        <ele>685</ele>
        <time>2015-06-21T11:58:06Z</time>
      </trkpt>
      <trkpt lat="44.11944" lon="6.28364">
        <ele>685</ele>
        <time>2015-06-21T11:58:10Z</time>
      </trkpt>
      <trkpt lat="44.11945" lon="6.28372">
        <ele>685</ele>
        <time>2015-06-21T11:58:15Z</time>
      </trkpt>
      <trkpt lat="44.11945" lon="6.28383">
        <ele>687</ele>
        <time>2015-06-21T11:58:21Z</time>
      </trkpt>
      <trkpt lat="44.11936" lon="6.28393">
        <ele>687</ele>
        <time>2015-06-21T11:58:25Z</time>
      </trkpt>
      <trkpt lat="44.1192" lon="6.28403">
        <ele>688</ele>
        <time>2015-06-21T11:58:30Z</time>
      </trkpt>
      <trkpt lat="44.11905" lon="6.28401">
        <ele>684</ele>
        <time>2015-06-21T11:58:34Z</time>
      </trkpt>
      <trkpt lat="44.11893" lon="6.28399">
        <ele>683</ele>
        <time>2015-06-21T11:58:38Z</time>
      </trkpt>
      <trkpt lat="44.11879" lon="6.28392">
        <ele>683</ele>
        <time>2015-06-21T11:58:42Z</time>
      </trkpt>
      <trkpt lat="44.11869" lon="6.28382">
        <ele>686</ele>
        <time>2015-06-21T11:58:46Z</time>
      </trkpt>
      <trkpt lat="44.11845" lon="6.28369">
        <ele>690</ele>
        <time>2015-06-21T11:58:54Z</time>
      </trkpt>
      <trkpt lat="44.11834" lon="6.28364">
        <ele>690</ele>
        <time>2015-06-21T11:58:59Z</time>
      </trkpt>
      <trkpt lat="44.11825" lon="6.28347">
        <ele>686</ele>
        <time>2015-06-21T11:59:04Z</time>
      </trkpt>
      <trkpt lat="44.11801" lon="6.28305">
        <ele>684</ele>
        <time>2015-06-21T11:59:11Z</time>
      </trkpt>
      <trkpt lat="44.11783" lon="6.28271">
        <ele>684</ele>
        <time>2015-06-21T11:59:16Z</time>
      </trkpt>
      <trkpt lat="44.11758" lon="6.28248">
        <ele>684</ele>
        <time>2015-06-21T11:59:21Z</time>
      </trkpt>
      <trkpt lat="44.11742" lon="6.28242">
        <ele>684</ele>
        <time>2015-06-21T11:59:24Z</time>
      </trkpt>
      <trkpt lat="44.11714" lon="6.28226">
        <ele>683</ele>
        <time>2015-06-21T11:59:31Z</time>
      </trkpt>
      <trkpt lat="44.11692" lon="6.28216">
        <ele>685</ele>
        <time>2015-06-21T11:59:37Z</time>
      </trkpt>
      <trkpt lat="44.11677" lon="6.28208">
        <ele>688</ele>
        <time>2015-06-21T11:59:42Z</time>
      </trkpt>
      <trkpt lat="44.11662" lon="6.28192">
        <ele>688</ele>
        <time>2015-06-21T11:59:48Z</time>
      </trkpt>
      <trkpt lat="44.11643" lon="6.28157">
        <ele>689</ele>
        <time>2015-06-21T11:59:54Z</time>
      </trkpt>
      <trkpt lat="44.11631" lon="6.28131">
        <ele>682</ele>
        <time>2015-06-21T11:59:59Z</time>
      </trkpt>
      <trkpt lat="44.11615" lon="6.28111">
        <ele>678</ele>
        <time>2015-06-21T12:00:03Z</time>
      </trkpt>
      <trkpt lat="44.11596" lon="6.28107">
        <ele>679</ele>
        <time>2015-06-21T12:00:08Z</time>
      </trkpt>
      <trkpt lat="44.11577" lon="6.28105">
        <ele>679</ele>
        <time>2015-06-21T12:00:14Z</time>
      </trkpt>
      <trkpt lat="44.11564" lon="6.28105">
        <ele>682</ele>
        <time>2015-06-21T12:00:19Z</time>
      </trkpt>
      <trkpt lat="44.11546" lon="6.28104">
        <ele>682</ele>
        <time>2015-06-21T12:00:25Z</time>
      </trkpt>
      <trkpt lat="44.11541" lon="6.28087">
        <ele>686</ele>
        <time>2015-06-21T12:00:29Z</time>
      </trkpt>
      <trkpt lat="44.11545" lon="6.28071">
        <ele>680</ele>
        <time>2015-06-21T12:00:32Z</time>
      </trkpt>
      <trkpt lat="44.11554" lon="6.2805">
        <ele>681</ele>
        <time>2015-06-21T12:00:36Z</time>
      </trkpt>
      <trkpt lat="44.11552" lon="6.28018">
        <ele>680</ele>
        <time>2015-06-21T12:00:41Z</time>
      </trkpt>
      <trkpt lat="44.1156" lon="6.27985">
        <ele>674</ele>
        <time>2015-06-21T12:00:46Z</time>
      </trkpt>
      <trkpt lat="44.11561" lon="6.27967">
        <ele>674</ele>
        <time>2015-06-21T12:00:49Z</time>
      </trkpt>
      <trkpt lat="44.11563" lon="6.27955">
        <ele>671</ele>
        <time>2015-06-21T12:00:52Z</time>
      </trkpt>
      <trkpt lat="44.11563" lon="6.27949">
        <ele>671</ele>
        <time>2015-06-21T12:00:56Z</time>
      </trkpt>
      <trkpt lat="44.1156" lon="6.27928">
        <ele>671</ele>
        <time>2015-06-21T12:01:03Z</time>
      </trkpt>
      <trkpt lat="44.11553" lon="6.27904">
        <ele>671</ele>
        <time>2015-06-21T12:01:07Z</time>
      </trkpt>
      <trkpt lat="44.11547" lon="6.27886">
        <ele>671</ele>
        <time>2015-06-21T12:01:10Z</time>
      </trkpt>
      <trkpt lat="44.11534" lon="6.27848">
        <ele>675</ele>
        <time>2015-06-21T12:01:16Z</time>
      </trkpt>
      <trkpt lat="44.11523" lon="6.27824">
        <ele>674</ele>
        <time>2015-06-21T12:01:20Z</time>
      </trkpt>
      <trkpt lat="44.11508" lon="6.27787">
        <ele>678</ele>
        <time>2015-06-21T12:01:26Z</time>
      </trkpt>
      <trkpt lat="44.11487" lon="6.27745">
        <ele>675</ele>
        <time>2015-06-21T12:01:33Z</time>
      </trkpt>
      <trkpt lat="44.11471" lon="6.27708">
        <ele>672</ele>
        <time>2015-06-21T12:01:39Z</time>
      </trkpt>
      <trkpt lat="44.11454" lon="6.27679">
        <ele>673</ele>
        <time>2015-06-21T12:01:45Z</time>
      </trkpt>
      <trkpt lat="44.11443" lon="6.27679">
        <ele>673</ele>
        <time>2015-06-21T12:01:53Z</time>
      </trkpt>
      <trkpt lat="44.11434" lon="6.27675">
        <ele>673</ele>
        <time>2015-06-21T12:01:59Z</time>
      </trkpt>
      <trkpt lat="44.11426" lon="6.27668">
        <ele>689</ele>
        <time>2015-06-21T12:02:07Z</time>
      </trkpt>
      <trkpt lat="44.11426" lon="6.27662">
        <ele>689</ele>
        <time>2015-06-21T12:02:13Z</time>
      </trkpt>
      <trkpt lat="44.11424" lon="6.27659">
        <ele>689</ele>
        <time>2015-06-21T12:02:19Z</time>
      </trkpt>
      <trkpt lat="44.1142" lon="6.27652">
        <ele>680</ele>
        <time>2015-06-21T12:02:25Z</time>
      </trkpt>
      <trkpt lat="44.11418" lon="6.27642">
        <ele>680</ele>
        <time>2015-06-21T12:02:32Z</time>
      </trkpt>
      <trkpt lat="44.11417" lon="6.27634">
        <ele>680</ele>
        <time>2015-06-21T12:02:37Z</time>
      </trkpt>
      <trkpt lat="44.11415" lon="6.2762">
        <ele>678</ele>
        <time>2015-06-21T12:02:47Z</time>
      </trkpt>
      <trkpt lat="44.11412" lon="6.27611">
        <ele>678</ele>
        <time>2015-06-21T12:02:55Z</time>
      </trkpt>
      <trkpt lat="44.1141" lon="6.27602">
        <ele>678</ele>
        <time>2015-06-21T12:03:02Z</time>
      </trkpt>
      <trkpt lat="44.11406" lon="6.27591">
        <ele>675</ele>
        <time>2015-06-21T12:03:10Z</time>
      </trkpt>
      <trkpt lat="44.11404" lon="6.27581">
        <ele>675</ele>
        <time>2015-06-21T12:03:17Z</time>
      </trkpt>
      <trkpt lat="44.114" lon="6.27572">
        <ele>694</ele>
        <time>2015-06-21T12:03:24Z</time>
      </trkpt>
      <trkpt lat="44.11395" lon="6.27562">
        <ele>691</ele>
        <time>2015-06-21T12:03:33Z</time>
      </trkpt>
      <trkpt lat="44.11394" lon="6.2756">
        <ele>691</ele>
        <time>2015-06-21T12:03:36Z</time>
      </trkpt>
      <trkpt lat="44.11389" lon="6.27553">
        <ele>691</ele>
        <time>2015-06-21T12:03:43Z</time>
      </trkpt>
      <trkpt lat="44.11385" lon="6.27546">
        <ele>691</ele>
        <time>2015-06-21T12:03:50Z</time>
      </trkpt>
      <trkpt lat="44.11383" lon="6.27541">
        <ele>689</ele>
        <time>2015-06-21T12:03:56Z</time>
      </trkpt>
      <trkpt lat="44.11379" lon="6.27538">
        <ele>689</ele>
        <time>2015-06-21T12:04:02Z</time>
      </trkpt>
      <trkpt lat="44.11376" lon="6.27535">
        <ele>689</ele>
        <time>2015-06-21T12:04:06Z</time>
      </trkpt>
      <trkpt lat="44.11373" lon="6.27525">
        <ele>712</ele>
        <time>2015-06-21T12:04:13Z</time>
      </trkpt>
      <trkpt lat="44.11369" lon="6.27519">
        <ele>712</ele>
        <time>2015-06-21T12:04:19Z</time>
      </trkpt>
      <trkpt lat="44.11364" lon="6.27514">
        <ele>712</ele>
        <time>2015-06-21T12:04:25Z</time>
      </trkpt>
      <trkpt lat="44.11358" lon="6.27511">
        <ele>706</ele>
        <time>2015-06-21T12:04:34Z</time>
      </trkpt>
      <trkpt lat="44.11356" lon="6.2751">
        <ele>706</ele>
        <time>2015-06-21T12:04:42Z</time>
      </trkpt>
      <trkpt lat="44.11356" lon="6.27507">
        <ele>706</ele>
        <time>2015-06-21T12:04:46Z</time>
      </trkpt>
      <trkpt lat="44.11355" lon="6.27505">
        <ele>706</ele>
        <time>2015-06-21T12:04:51Z</time>
      </trkpt>
      <trkpt lat="44.11352" lon="6.27505">
        <ele>706</ele>
        <time>2015-06-21T12:05:00Z</time>
      </trkpt>
      <trkpt lat="44.11345" lon="6.27506">
        <ele>730</ele>
        <time>2015-06-21T12:05:06Z</time>
      </trkpt>
      <trkpt lat="44.11337" lon="6.27505">
        <ele>730</ele>
        <time>2015-06-21T12:05:14Z</time>
      </trkpt>
      <trkpt lat="44.1133" lon="6.27504">
        <ele>730</ele>
        <time>2015-06-21T12:05:21Z</time>
      </trkpt>
      <trkpt lat="44.11325" lon="6.27503">
        <ele>730</ele>
        <time>2015-06-21T12:05:28Z</time>
      </trkpt>
      <trkpt lat="44.11321" lon="6.27501">
        <ele>730</ele>
        <time>2015-06-21T12:05:32Z</time>
      </trkpt>
      <trkpt lat="44.11316" lon="6.27496">
        <ele>747</ele>
        <time>2015-06-21T12:05:39Z</time>
      </trkpt>
      <trkpt lat="44.11312" lon="6.27491">
        <ele>747</ele>
        <time>2015-06-21T12:05:46Z</time>
      </trkpt>
      <trkpt lat="44.11308" lon="6.27488">
        <ele>747</ele>
        <time>2015-06-21T12:05:53Z</time>
      </trkpt>
      <trkpt lat="44.11306" lon="6.27481">
        <ele>740</ele>
        <time>2015-06-21T12:05:59Z</time>
      </trkpt>
      <trkpt lat="44.11306" lon="6.27471">
        <ele>740</ele>
        <time>2015-06-21T12:06:06Z</time>
      </trkpt>
      <trkpt lat="44.11304" lon="6.27464">
        <ele>740</ele>
        <time>2015-06-21T12:06:12Z</time>
      </trkpt>
      <trkpt lat="44.11303" lon="6.27457">
        <ele>723</ele>
        <time>2015-06-21T12:06:19Z</time>
      </trkpt>
      <trkpt lat="44.11302" lon="6.27455">
        <ele>723</ele>
        <time>2015-06-21T12:06:24Z</time>
      </trkpt>
      <trkpt lat="44.113" lon="6.27449">
        <ele>723</ele>
        <time>2015-06-21T12:06:31Z</time>
      </trkpt>
      <trkpt lat="44.11299" lon="6.27442">
        <ele>723</ele>
        <time>2015-06-21T12:06:39Z</time>
      </trkpt>
      <trkpt lat="44.11296" lon="6.27438">
        <ele>723</ele>
        <time>2015-06-21T12:06:46Z</time>
      </trkpt>
      <trkpt lat="44.11295" lon="6.27438">
        <ele>723</ele>
        <time>2015-06-21T12:06:52Z</time>
      </trkpt>
      <trkpt lat="44.11295" lon="6.27441">
        <ele>723</ele>
        <time>2015-06-21T12:07:00Z</time>
      </trkpt>
      <trkpt lat="44.11292" lon="6.2744">
        <ele>723</ele>
        <time>2015-06-21T12:07:07Z</time>
      </trkpt>
      <trkpt lat="44.11291" lon="6.27441">
        <ele>732</ele>
        <time>2015-06-21T12:07:14Z</time>
      </trkpt>
      <trkpt lat="44.11292" lon="6.27443">
        <ele>723</ele>
        <time>2015-06-21T12:07:19Z</time>
      </trkpt>
      <trkpt lat="44.11292" lon="6.27445">
        <ele>723</ele>
        <time>2015-06-21T12:07:23Z</time>
      </trkpt>
      <trkpt lat="44.11289" lon="6.27449">
        <ele>732</ele>
        <time>2015-06-21T12:07:30Z</time>
      </trkpt>
      <trkpt lat="44.11281" lon="6.27457">
        <ele>732</ele>
        <time>2015-06-21T12:07:39Z</time>
      </trkpt>
      <trkpt lat="44.11278" lon="6.27456">
        <ele>732</ele>
        <time>2015-06-21T12:07:44Z</time>
      </trkpt>
      <trkpt lat="44.11273" lon="6.27452">
        <ele>732</ele>
        <time>2015-06-21T12:07:52Z</time>
      </trkpt>
      <trkpt lat="44.11269" lon="6.27451">
        <ele>732</ele>
        <time>2015-06-21T12:07:56Z</time>
      </trkpt>
      <trkpt lat="44.1126" lon="6.2745">
        <ele>735</ele>
        <time>2015-06-21T12:08:05Z</time>
      </trkpt>
      <trkpt lat="44.11258" lon="6.27451">
        <ele>735</ele>
        <time>2015-06-21T12:08:10Z</time>
      </trkpt>
      <trkpt lat="44.11256" lon="6.27453">
        <ele>735</ele>
        <time>2015-06-21T12:08:17Z</time>
      </trkpt>
      <trkpt lat="44.11253" lon="6.27455">
        <ele>735</ele>
        <time>2015-06-21T12:08:24Z</time>
      </trkpt>
      <trkpt lat="44.11251" lon="6.27457">
        <ele>735</ele>
        <time>2015-06-21T12:08:29Z</time>
      </trkpt>
      <trkpt lat="44.11245" lon="6.27458">
        <ele>735</ele>
        <time>2015-06-21T12:08:35Z</time>
      </trkpt>
      <trkpt lat="44.11241" lon="6.27461">
        <ele>750</ele>
        <time>2015-06-21T12:08:41Z</time>
      </trkpt>
      <trkpt lat="44.11236" lon="6.27465">
        <ele>755</ele>
        <time>2015-06-21T12:08:49Z</time>
      </trkpt>
      <trkpt lat="44.11229" lon="6.27472">
        <ele>755</ele>
        <time>2015-06-21T12:08:56Z</time>
      </trkpt>
      <trkpt lat="44.11225" lon="6.27478">
        <ele>755</ele>
        <time>2015-06-21T12:09:03Z</time>
      </trkpt>
      <trkpt lat="44.1122" lon="6.27482">
        <ele>755</ele>
        <time>2015-06-21T12:09:09Z</time>
      </trkpt>
      <trkpt lat="44.11214" lon="6.27488">
        <ele>764</ele>
        <time>2015-06-21T12:09:18Z</time>
      </trkpt>
      <trkpt lat="44.11208" lon="6.27495">
        <ele>765</ele>
        <time>2015-06-21T12:09:25Z</time>
      </trkpt>
      <trkpt lat="44.11206" lon="6.27502">
        <ele>765</ele>
        <time>2015-06-21T12:09:32Z</time>
      </trkpt>
      <trkpt lat="44.11201" lon="6.27505">
        <ele>765</ele>
        <time>2015-06-21T12:09:37Z</time>
      </trkpt>
      <trkpt lat="44.11198" lon="6.27511">
        <ele>765</ele>
        <time>2015-06-21T12:09:45Z</time>
      </trkpt>
      <trkpt lat="44.11194" lon="6.27518">
        <ele>772</ele>
        <time>2015-06-21T12:09:52Z</time>
      </trkpt>
      <trkpt lat="44.11189" lon="6.27523">
        <ele>772</ele>
        <time>2015-06-21T12:09:57Z</time>
      </trkpt>
      <trkpt lat="44.11187" lon="6.27527">
        <ele>772</ele>
        <time>2015-06-21T12:10:02Z</time>
      </trkpt>
      <trkpt lat="44.11175" lon="6.27539">
        <ele>766</ele>
        <time>2015-06-21T12:10:11Z</time>
      </trkpt>
      <trkpt lat="44.11165" lon="6.27553">
        <ele>772</ele>
        <time>2015-06-21T12:10:17Z</time>
      </trkpt>
      <trkpt lat="44.11155" lon="6.27575">
        <ele>778</ele>
        <time>2015-06-21T12:10:23Z</time>
      </trkpt>
      <trkpt lat="44.11146" lon="6.27595">
        <ele>769</ele>
        <time>2015-06-21T12:10:29Z</time>
      </trkpt>
      <trkpt lat="44.11131" lon="6.27618">
        <ele>774</ele>
        <time>2015-06-21T12:10:36Z</time>
      </trkpt>
      <trkpt lat="44.11123" lon="6.27631">
        <ele>781</ele>
        <time>2015-06-21T12:10:41Z</time>
      </trkpt>
      <trkpt lat="44.11114" lon="6.27626">
        <ele>781</ele>
        <time>2015-06-21T12:10:46Z</time>
      </trkpt>
      <trkpt lat="44.11109" lon="6.27613">
        <ele>773</ele>
        <time>2015-06-21T12:10:51Z</time>
      </trkpt>
      <trkpt lat="44.11104" lon="6.27603">
        <ele>773</ele>
        <time>2015-06-21T12:10:57Z</time>
      </trkpt>
      <trkpt lat="44.11097" lon="6.27591">
        <ele>776</ele>
        <time>2015-06-21T12:11:04Z</time>
      </trkpt>
      <trkpt lat="44.11091" lon="6.27583">
        <ele>776</ele>
        <time>2015-06-21T12:11:10Z</time>
      </trkpt>
      <trkpt lat="44.11078" lon="6.27578">
        <ele>776</ele>
        <time>2015-06-21T12:11:17Z</time>
      </trkpt>
      <trkpt lat="44.11068" lon="6.27581">
        <ele>781</ele>
        <time>2015-06-21T12:11:22Z</time>
      </trkpt>
      <trkpt lat="44.11062" lon="6.27586">
        <ele>781</ele>
        <time>2015-06-21T12:11:28Z</time>
      </trkpt>
      <trkpt lat="44.11055" lon="6.27584">
        <ele>781</ele>
        <time>2015-06-21T12:11:33Z</time>
      </trkpt>
      <trkpt lat="44.11047" lon="6.27571">
        <ele>781</ele>
        <time>2015-06-21T12:11:42Z</time>
      </trkpt>
      <trkpt lat="44.11043" lon="6.27564">
        <ele>780</ele>
        <time>2015-06-21T12:11:47Z</time>
      </trkpt>
      <trkpt lat="44.11034" lon="6.27554">
        <ele>785</ele>
        <time>2015-06-21T12:11:57Z</time>
      </trkpt>
      <trkpt lat="44.11032" lon="6.27559">
        <ele>785</ele>
        <time>2015-06-21T12:12:02Z</time>
      </trkpt>
      <trkpt lat="44.11033" lon="6.27574">
        <ele>783</ele>
        <time>2015-06-21T12:12:11Z</time>
      </trkpt>
      <trkpt lat="44.11032" lon="6.27589">
        <ele>783</ele>
        <time>2015-06-21T12:12:19Z</time>
      </trkpt>
      <trkpt lat="44.11033" lon="6.27606">
        <ele>784</ele>
        <time>2015-06-21T12:12:27Z</time>
      </trkpt>
      <trkpt lat="44.11042" lon="6.27611">
        <ele>786</ele>
        <time>2015-06-21T12:12:36Z</time>
      </trkpt>
      <trkpt lat="44.11047" lon="6.27616">
        <ele>786</ele>
        <time>2015-06-21T12:12:43Z</time>
      </trkpt>
      <trkpt lat="44.1105" lon="6.27621">
        <ele>786</ele>
        <time>2015-06-21T12:12:50Z</time>
      </trkpt>
      <trkpt lat="44.11057" lon="6.27631">
        <ele>792</ele>
        <time>2015-06-21T12:13:01Z</time>
      </trkpt>
      <trkpt lat="44.11059" lon="6.27645">
        <ele>792</ele>
        <time>2015-06-21T12:13:11Z</time>
      </trkpt>
      <trkpt lat="44.11058" lon="6.27667">
        <ele>796</ele>
        <time>2015-06-21T12:13:21Z</time>
      </trkpt>
      <trkpt lat="44.11055" lon="6.27691">
        <ele>798</ele>
        <time>2015-06-21T12:13:31Z</time>
      </trkpt>
      <trkpt lat="44.11056" lon="6.27706">
        <ele>798</ele>
        <time>2015-06-21T12:13:38Z</time>
      </trkpt>
      <trkpt lat="44.11058" lon="6.27724">
        <ele>799</ele>
        <time>2015-06-21T12:13:45Z</time>
      </trkpt>
      <trkpt lat="44.1106" lon="6.27742">
        <ele>800</ele>
        <time>2015-06-21T12:13:52Z</time>
      </trkpt>
      <trkpt lat="44.11062" lon="6.27761">
        <ele>800</ele>
        <time>2015-06-21T12:14:00Z</time>
      </trkpt>
      <trkpt lat="44.11062" lon="6.27781">
        <ele>802</ele>
        <time>2015-06-21T12:14:09Z</time>
      </trkpt>
      <trkpt lat="44.11067" lon="6.27798">
        <ele>802</ele>
        <time>2015-06-21T12:14:18Z</time>
      </trkpt>
      <trkpt lat="44.11077" lon="6.27819">
        <ele>808</ele>
        <time>2015-06-21T12:14:26Z</time>
      </trkpt>
      <trkpt lat="44.11089" lon="6.27828">
        <ele>808</ele>
        <time>2015-06-21T12:14:33Z</time>
      </trkpt>
      <trkpt lat="44.11097" lon="6.27835">
        <ele>808</ele>
        <time>2015-06-21T12:14:39Z</time>
      </trkpt>
      <trkpt lat="44.11107" lon="6.27845">
        <ele>813</ele>
        <time>2015-06-21T12:14:47Z</time>
      </trkpt>
      <trkpt lat="44.11117" lon="6.27853">
        <ele>813</ele>
        <time>2015-06-21T12:14:56Z</time>
      </trkpt>
      <trkpt lat="44.11124" lon="6.2786">
        <ele>813</ele>
        <time>2015-06-21T12:15:05Z</time>
      </trkpt>
      <trkpt lat="44.11129" lon="6.27866">
        <ele>822</ele>
        <time>2015-06-21T12:15:13Z</time>
      </trkpt>
      <trkpt lat="44.11134" lon="6.2787">
        <ele>822</ele>
        <time>2015-06-21T12:15:21Z</time>
      </trkpt>
      <trkpt lat="44.11139" lon="6.27877">
        <ele>821</ele>
        <time>2015-06-21T12:15:29Z</time>
      </trkpt>
      <trkpt lat="44.11142" lon="6.27883">
        <ele>821</ele>
        <time>2015-06-21T12:15:37Z</time>
      </trkpt>
      <trkpt lat="44.11146" lon="6.27892">
        <ele>821</ele>
        <time>2015-06-21T12:15:46Z</time>
      </trkpt>
      <trkpt lat="44.11148" lon="6.27905">
        <ele>819</ele>
        <time>2015-06-21T12:15:53Z</time>
      </trkpt>
      <trkpt lat="44.11147" lon="6.2793">
        <ele>819</ele>
        <time>2015-06-21T12:16:00Z</time>
      </trkpt>
      <trkpt lat="44.11139" lon="6.27952">
        <ele>817</ele>
        <time>2015-06-21T12:16:06Z</time>
      </trkpt>
      <trkpt lat="44.11128" lon="6.27975">
        <ele>817</ele>
        <time>2015-06-21T12:16:12Z</time>
      </trkpt>
      <trkpt lat="44.11111" lon="6.28005">
        <ele>815</ele>
        <time>2015-06-21T12:16:18Z</time>
      </trkpt>
      <trkpt lat="44.11095" lon="6.28039">
        <ele>814</ele>
        <time>2015-06-21T12:16:24Z</time>
      </trkpt>
      <trkpt lat="44.1109" lon="6.28059">
        <ele>817</ele>
        <time>2015-06-21T12:16:27Z</time>
      </trkpt>
      <trkpt lat="44.11093" lon="6.28079">
        <ele>822</ele>
        <time>2015-06-21T12:16:31Z</time>
      </trkpt>
      <trkpt lat="44.11105" lon="6.28095">
        <ele>821</ele>
        <time>2015-06-21T12:16:37Z</time>
      </trkpt>
      <trkpt lat="44.11111" lon="6.28104">
        <ele>825</ele>
        <time>2015-06-21T12:16:42Z</time>
      </trkpt>
      <trkpt lat="44.11122" lon="6.28118">
        <ele>825</ele>
        <time>2015-06-21T12:16:49Z</time>
      </trkpt>
      <trkpt lat="44.11131" lon="6.2814">
        <ele>823</ele>
        <time>2015-06-21T12:16:57Z</time>
      </trkpt>
      <trkpt lat="44.1113" lon="6.28148">
        <ele>823</ele>
        <time>2015-06-21T12:17:00Z</time>
      </trkpt>
      <trkpt lat="44.11122" lon="6.28164">
        <ele>829</ele>
        <time>2015-06-21T12:17:04Z</time>
      </trkpt>
      <trkpt lat="44.11089" lon="6.28195">
        <ele>828</ele>
        <time>2015-06-21T12:17:10Z</time>
      </trkpt>
      <trkpt lat="44.11071" lon="6.28221">
        <ele>825</ele>
        <time>2015-06-21T12:17:14Z</time>
      </trkpt>
      <trkpt lat="44.11074" lon="6.28243">
        <ele>825</ele>
        <time>2015-06-21T12:17:19Z</time>
      </trkpt>
      <trkpt lat="44.11083" lon="6.28254">
        <ele>825</ele>
        <time>2015-06-21T12:17:23Z</time>
      </trkpt>
      <trkpt lat="44.11096" lon="6.28277">
        <ele>828</ele>
        <time>2015-06-21T12:17:31Z</time>
      </trkpt>
      <trkpt lat="44.11103" lon="6.28296">
        <ele>824</ele>
        <time>2015-06-21T12:17:36Z</time>
      </trkpt>
      <trkpt lat="44.11113" lon="6.28309">
        <ele>824</ele>
        <time>2015-06-21T12:17:40Z</time>
      </trkpt>
      <trkpt lat="44.11126" lon="6.28328">
        <ele>821</ele>
        <time>2015-06-21T12:17:46Z</time>
      </trkpt>
      <trkpt lat="44.11122" lon="6.28341">
        <ele>824</ele>
        <time>2015-06-21T12:17:51Z</time>
      </trkpt>
      <trkpt lat="44.11114" lon="6.28339">
        <ele>824</ele>
        <time>2015-06-21T12:17:57Z</time>
      </trkpt>
      <trkpt lat="44.11105" lon="6.2834">
        <ele>824</ele>
        <time>2015-06-21T12:18:04Z</time>
      </trkpt>
      <trkpt lat="44.111" lon="6.28343">
        <ele>824</ele>
        <time>2015-06-21T12:18:10Z</time>
      </trkpt>
      <trkpt lat="44.11093" lon="6.28347">
        <ele>830</ele>
        <time>2015-06-21T12:18:18Z</time>
      </trkpt>
      <trkpt lat="44.11088" lon="6.2835">
        <ele>827</ele>
        <time>2015-06-21T12:18:25Z</time>
      </trkpt>
      <trkpt lat="44.11084" lon="6.28355">
        <ele>827</ele>
        <time>2015-06-21T12:18:33Z</time>
      </trkpt>
      <trkpt lat="44.11079" lon="6.28354">
        <ele>827</ele>
        <time>2015-06-21T12:18:38Z</time>
      </trkpt>
      <trkpt lat="44.11072" lon="6.28343">
        <ele>830</ele>
        <time>2015-06-21T12:18:45Z</time>
      </trkpt>
      <trkpt lat="44.11065" lon="6.28334">
        <ele>830</ele>
        <time>2015-06-21T12:18:51Z</time>
      </trkpt>
      <trkpt lat="44.11056" lon="6.28329">
        <ele>830</ele>
        <time>2015-06-21T12:18:57Z</time>
      </trkpt>
      <trkpt lat="44.11049" lon="6.28322">
        <ele>830</ele>
        <time>2015-06-21T12:19:03Z</time>
      </trkpt>
      <trkpt lat="44.11038" lon="6.28306">
        <ele>826</ele>
        <time>2015-06-21T12:19:10Z</time>
      </trkpt>
      <trkpt lat="44.11025" lon="6.28291">
        <ele>828</ele>
        <time>2015-06-21T12:19:15Z</time>
      </trkpt>
      <trkpt lat="44.11022" lon="6.28272">
        <ele>828</ele>
        <time>2015-06-21T12:19:20Z</time>
      </trkpt>
      <trkpt lat="44.11019" lon="6.2826">
        <ele>826</ele>
        <time>2015-06-21T12:19:23Z</time>
      </trkpt>
      <trkpt lat="44.11004" lon="6.28252">
        <ele>822</ele>
        <time>2015-06-21T12:19:27Z</time>
      </trkpt>
      <trkpt lat="44.10977" lon="6.28239">
        <ele>819</ele>
        <time>2015-06-21T12:19:34Z</time>
      </trkpt>
      <trkpt lat="44.10958" lon="6.28242">
        <ele>812</ele>
        <time>2015-06-21T12:19:38Z</time>
      </trkpt>
      <trkpt lat="44.10946" lon="6.28248">
        <ele>812</ele>
        <time>2015-06-21T12:19:43Z</time>
      </trkpt>
      <trkpt lat="44.10931" lon="6.28252">
        <ele>812</ele>
        <time>2015-06-21T12:19:46Z</time>
      </trkpt>
      <trkpt lat="44.10905" lon="6.28237">
        <ele>803</ele>
        <time>2015-06-21T12:19:51Z</time>
      </trkpt>
      <trkpt lat="44.10873" lon="6.28216">
        <ele>793</ele>
        <time>2015-06-21T12:19:56Z</time>
      </trkpt>
      <trkpt lat="44.10854" lon="6.28214">
        <ele>793</ele>
        <time>2015-06-21T12:19:59Z</time>
      </trkpt>
      <trkpt lat="44.10838" lon="6.28205">
        <ele>786</ele>
        <time>2015-06-21T12:20:03Z</time>
      </trkpt>
      <trkpt lat="44.10833" lon="6.28188">
        <ele>786</ele>
        <time>2015-06-21T12:20:07Z</time>
      </trkpt>
      <trkpt lat="44.10805" lon="6.28144">
        <ele>774</ele>
        <time>2015-06-21T12:20:13Z</time>
      </trkpt>
      <trkpt lat="44.10783" lon="6.28122">
        <ele>768</ele>
        <time>2015-06-21T12:20:16Z</time>
      </trkpt>
      <trkpt lat="44.10746" lon="6.28099">
        <ele>763</ele>
        <time>2015-06-21T12:20:20Z</time>
      </trkpt>
      <trkpt lat="44.10725" lon="6.28093">
        <ele>766</ele>
        <time>2015-06-21T12:20:24Z</time>
      </trkpt>
      <trkpt lat="44.10719" lon="6.28079">
        <ele>766</ele>
        <time>2015-06-21T12:20:28Z</time>
      </trkpt>
      <trkpt lat="44.10703" lon="6.28047">
        <ele>766</ele>
        <time>2015-06-21T12:20:33Z</time>
      </trkpt>
      <trkpt lat="44.10678" lon="6.28025">
        <ele>759</ele>
        <time>2015-06-21T12:20:38Z</time>
      </trkpt>
      <trkpt lat="44.10663" lon="6.28016">
        <ele>759</ele>
        <time>2015-06-21T12:20:41Z</time>
      </trkpt>
      <trkpt lat="44.10634" lon="6.2802">
        <ele>758</ele>
        <time>2015-06-21T12:20:46Z</time>
      </trkpt>
      <trkpt lat="44.10615" lon="6.28021">
        <ele>753</ele>
        <time>2015-06-21T12:20:50Z</time>
      </trkpt>
      <trkpt lat="44.1059" lon="6.28013">
        <ele>747</ele>
        <time>2015-06-21T12:20:55Z</time>
      </trkpt>
      <trkpt lat="44.10569" lon="6.28004">
        <ele>744</ele>
        <time>2015-06-21T12:20:59Z</time>
      </trkpt>
      <trkpt lat="44.10558" lon="6.27984">
        <ele>741</ele>
        <time>2015-06-21T12:21:03Z</time>
      </trkpt>
      <trkpt lat="44.10548" lon="6.27969">
        <ele>741</ele>
        <time>2015-06-21T12:21:06Z</time>
      </trkpt>
      <trkpt lat="44.10524" lon="6.27961">
        <ele>741</ele>
        <time>2015-06-21T12:21:11Z</time>
      </trkpt>
      <trkpt lat="44.10513" lon="6.27956">
        <ele>738</ele>
        <time>2015-06-21T12:21:14Z</time>
      </trkpt>
      <trkpt lat="44.10478" lon="6.27948">
        <ele>737</ele>
        <time>2015-06-21T12:21:21Z</time>
      </trkpt>
      <trkpt lat="44.10463" lon="6.27945">
        <ele>737</ele>
        <time>2015-06-21T12:21:24Z</time>
      </trkpt>
      <trkpt lat="44.10448" lon="6.27938">
        <ele>735</ele>
        <time>2015-06-21T12:21:28Z</time>
      </trkpt>
      <trkpt lat="44.10433" lon="6.27937">
        <ele>735</ele>
        <time>2015-06-21T12:21:31Z</time>
      </trkpt>
      <trkpt lat="44.10414" lon="6.27929">
        <ele>728</ele>
        <time>2015-06-21T12:21:35Z</time>
      </trkpt>
      <trkpt lat="44.10383" lon="6.27938">
        <ele>729</ele>
        <time>2015-06-21T12:21:41Z</time>
      </trkpt>
      <trkpt lat="44.10367" lon="6.27946">
        <ele>723</ele>
        <time>2015-06-21T12:21:44Z</time>
      </trkpt>
      <trkpt lat="44.1035" lon="6.2795">
        <ele>723</ele>
        <time>2015-06-21T12:21:48Z</time>
      </trkpt>
      <trkpt lat="44.10327" lon="6.2796">
        <ele>721</ele>
        <time>2015-06-21T12:21:53Z</time>
      </trkpt>
      <trkpt lat="44.10311" lon="6.27959">
        <ele>712</ele>
        <time>2015-06-21T12:21:56Z</time>
      </trkpt>
      <trkpt lat="44.10294" lon="6.27958">
        <ele>709</ele>
        <time>2015-06-21T12:22:00Z</time>
      </trkpt>
      <trkpt lat="44.10273" lon="6.27938">
        <ele>706</ele>
        <time>2015-06-21T12:22:06Z</time>
      </trkpt>
      <trkpt lat="44.10257" lon="6.27927">
        <ele>700</ele>
        <time>2015-06-21T12:22:12Z</time>
      </trkpt>
      <trkpt lat="44.10244" lon="6.27918">
        <ele>700</ele>
        <time>2015-06-21T12:22:16Z</time>
      </trkpt>
      <trkpt lat="44.10235" lon="6.2791">
        <ele>694</ele>
        <time>2015-06-21T12:22:19Z</time>
      </trkpt>
      <trkpt lat="44.1022" lon="6.27905">
        <ele>694</ele>
        <time>2015-06-21T12:22:23Z</time>
      </trkpt>
      <trkpt lat="44.1021" lon="6.279">
        <ele>694</ele>
        <time>2015-06-21T12:22:27Z</time>
      </trkpt>
      <trkpt lat="44.102" lon="6.27897">
        <ele>690</ele>
        <time>2015-06-21T12:22:30Z</time>
      </trkpt>
      <trkpt lat="44.10194" lon="6.27894">
        <ele>690</ele>
        <time>2015-06-21T12:22:33Z</time>
      </trkpt>
      <trkpt lat="44.10182" lon="6.27889">
        <ele>690</ele>
        <time>2015-06-21T12:22:38Z</time>
      </trkpt>
      <trkpt lat="44.10169" lon="6.27888">
        <ele>689</ele>
        <time>2015-06-21T12:22:43Z</time>
      </trkpt>
      <trkpt lat="44.10158" lon="6.27889">
        <ele>689</ele>
        <time>2015-06-21T12:22:47Z</time>
      </trkpt>
      <trkpt lat="44.10135" lon="6.27877">
        <ele>687</ele>
        <time>2015-06-21T12:22:54Z</time>
      </trkpt>
      <trkpt lat="44.1012" lon="6.2786">
        <ele>689</ele>
        <time>2015-06-21T12:22:59Z</time>
      </trkpt>
      <trkpt lat="44.1011" lon="6.27857">
        <ele>689</ele>
        <time>2015-06-21T12:23:03Z</time>
      </trkpt>
      <trkpt lat="44.10107" lon="6.27849">
        <ele>689</ele>
        <time>2015-06-21T12:23:07Z</time>
      </trkpt>
      <trkpt lat="44.10105" lon="6.2784">
        <ele>687</ele>
        <time>2015-06-21T12:23:10Z</time>
      </trkpt>
      <trkpt lat="44.10104" lon="6.27828">
        <ele>687</ele>
        <time>2015-06-21T12:23:13Z</time>
      </trkpt>
      <trkpt lat="44.10097" lon="6.27814">
        <ele>687</ele>
        <time>2015-06-21T12:23:17Z</time>
      </trkpt>
      <trkpt lat="44.10085" lon="6.2781">
        <ele>687</ele>
        <time>2015-06-21T12:23:24Z</time>
      </trkpt>
      <trkpt lat="44.10074" lon="6.27803">
        <ele>687</ele>
        <time>2015-06-21T12:23:29Z</time>
      </trkpt>
      <trkpt lat="44.10061" lon="6.27789">
        <ele>685</ele>
        <time>2015-06-21T12:23:35Z</time>
      </trkpt>
      <trkpt lat="44.10044" lon="6.27782">
        <ele>685</ele>
        <time>2015-06-21T12:23:39Z</time>
      </trkpt>
      <trkpt lat="44.10012" lon="6.27764">
        <ele>686</ele>
        <time>2015-06-21T12:23:45Z</time>
      </trkpt>
      <trkpt lat="44.10005" lon="6.27751">
        <ele>683</ele>
        <time>2015-06-21T12:23:48Z</time>
      </trkpt>
      <trkpt lat="44.09991" lon="6.27734">
        <ele>684</ele>
        <time>2015-06-21T12:23:57Z</time>
      </trkpt>
      <trkpt lat="44.09986" lon="6.27724">
        <ele>686</ele>
        <time>2015-06-21T12:24:01Z</time>
      </trkpt>
      <trkpt lat="44.09978" lon="6.27699">
        <ele>684</ele>
        <time>2015-06-21T12:24:07Z</time>
      </trkpt>
      <trkpt lat="44.0997" lon="6.27671">
        <ele>685</ele>
        <time>2015-06-21T12:24:12Z</time>
      </trkpt>
      <trkpt lat="44.0994" lon="6.27654">
        <ele>682</ele>
        <time>2015-06-21T12:24:21Z</time>
      </trkpt>
      <trkpt lat="44.09927" lon="6.27649">
        <ele>681</ele>
        <time>2015-06-21T12:24:28Z</time>
      </trkpt>
      <trkpt lat="44.09916" lon="6.27641">
        <ele>681</ele>
        <time>2015-06-21T12:24:33Z</time>
      </trkpt>
      <trkpt lat="44.0989" lon="6.27622">
        <ele>680</ele>
        <time>2015-06-21T12:24:41Z</time>
      </trkpt>
      <trkpt lat="44.09875" lon="6.27613">
        <ele>680</ele>
        <time>2015-06-21T12:24:45Z</time>
      </trkpt>
      <trkpt lat="44.09863" lon="6.27611">
        <ele>677</ele>
        <time>2015-06-21T12:24:48Z</time>
      </trkpt>
      <trkpt lat="44.09844" lon="6.2761">
        <ele>678</ele>
        <time>2015-06-21T12:24:53Z</time>
      </trkpt>
      <trkpt lat="44.09837" lon="6.27617">
        <ele>678</ele>
        <time>2015-06-21T12:24:58Z</time>
      </trkpt>
      <trkpt lat="44.09826" lon="6.2761">
        <ele>678</ele>
        <time>2015-06-21T12:25:02Z</time>
      </trkpt>
      <trkpt lat="44.09805" lon="6.27599">
        <ele>679</ele>
        <time>2015-06-21T12:25:07Z</time>
      </trkpt>
      <trkpt lat="44.09783" lon="6.27579">
        <ele>674</ele>
        <time>2015-06-21T12:25:13Z</time>
      </trkpt>
      <trkpt lat="44.09768" lon="6.27563">
        <ele>674</ele>
        <time>2015-06-21T12:25:18Z</time>
      </trkpt>
      <trkpt lat="44.09756" lon="6.27551">
        <ele>676</ele>
        <time>2015-06-21T12:25:22Z</time>
      </trkpt>
      <trkpt lat="44.0974" lon="6.27537">
        <ele>677</ele>
        <time>2015-06-21T12:25:26Z</time>
      </trkpt>
      <trkpt lat="44.0972" lon="6.27512">
        <ele>673</ele>
        <time>2015-06-21T12:25:32Z</time>
      </trkpt>
      <trkpt lat="44.09705" lon="6.27493">
        <ele>674</ele>
        <time>2015-06-21T12:25:37Z</time>
      </trkpt>
      <trkpt lat="44.09693" lon="6.27478">
        <ele>674</ele>
        <time>2015-06-21T12:25:40Z</time>
      </trkpt>
      <trkpt lat="44.09668" lon="6.27486">
        <ele>671</ele>
        <time>2015-06-21T12:25:45Z</time>
      </trkpt>
      <trkpt lat="44.09627" lon="6.27506">
        <ele>673</ele>
        <time>2015-06-21T12:25:51Z</time>
      </trkpt>
      <trkpt lat="44.09596" lon="6.27491">
        <ele>678</ele>
        <time>2015-06-21T12:25:56Z</time>
      </trkpt>
      <trkpt lat="44.09583" lon="6.27483">
        <ele>670</ele>
        <time>2015-06-21T12:25:59Z</time>
      </trkpt>
      <trkpt lat="44.09569" lon="6.2747">
        <ele>673</ele>
        <time>2015-06-21T12:26:04Z</time>
      </trkpt>
      <trkpt lat="44.09536" lon="6.27451">
        <ele>665</ele>
        <time>2015-06-21T12:26:11Z</time>
      </trkpt>
      <trkpt lat="44.09507" lon="6.27442">
        <ele>666</ele>
        <time>2015-06-21T12:26:16Z</time>
      </trkpt>
      <trkpt lat="44.09482" lon="6.27445">
        <ele>668</ele>
        <time>2015-06-21T12:26:21Z</time>
      </trkpt>
      <trkpt lat="44.09456" lon="6.27436">
        <ele>670</ele>
        <time>2015-06-21T12:26:27Z</time>
      </trkpt>
      <trkpt lat="44.09448" lon="6.27416">
        <ele>665</ele>
        <time>2015-06-21T12:26:31Z</time>
      </trkpt>
      <trkpt lat="44.09451" lon="6.27391">
        <ele>661</ele>
        <time>2015-06-21T12:26:34Z</time>
      </trkpt>
      <trkpt lat="44.09449" lon="6.27361">
        <ele>658</ele>
        <time>2015-06-21T12:26:37Z</time>
      </trkpt>
      <trkpt lat="44.09433" lon="6.27351">
        <ele>658</ele>
        <time>2015-06-21T12:26:40Z</time>
      </trkpt>
      <trkpt lat="44.09417" lon="6.27342">
        <ele>654</ele>
        <time>2015-06-21T12:26:43Z</time>
      </trkpt>
      <trkpt lat="44.09402" lon="6.27328">
        <ele>654</ele>
        <time>2015-06-21T12:26:46Z</time>
      </trkpt>
      <trkpt lat="44.0937" lon="6.27316">
        <ele>652</ele>
        <time>2015-06-21T12:26:51Z</time>
      </trkpt>
      <trkpt lat="44.09346" lon="6.27304">
        <ele>649</ele>
        <time>2015-06-21T12:26:55Z</time>
      </trkpt>
      <trkpt lat="44.09327" lon="6.27294">
        <ele>649</ele>
        <time>2015-06-21T12:26:58Z</time>
      </trkpt>
      <trkpt lat="44.09305" lon="6.27293">
        <ele>649</ele>
        <time>2015-06-21T12:27:02Z</time>
      </trkpt>
      <trkpt lat="44.09295" lon="6.27293">
        <ele>649</ele>
        <time>2015-06-21T12:27:05Z</time>
      </trkpt>
      <trkpt lat="44.09256" lon="6.27292">
        <ele>649</ele>
        <time>2015-06-21T12:27:13Z</time>
      </trkpt>
      <trkpt lat="44.09209" lon="6.27301">
        <ele>649</ele>
        <time>2015-06-21T12:27:21Z</time>
      </trkpt>
      <trkpt lat="44.09173" lon="6.27314">
        <ele>649</ele>
        <time>2015-06-21T12:27:27Z</time>
      </trkpt>
      <trkpt lat="44.0915" lon="6.27313">
        <ele>649</ele>
        <time>2015-06-21T12:27:32Z</time>
      </trkpt>
      <trkpt lat="44.0914" lon="6.2731">
        <ele>649</ele>
        <time>2015-06-21T12:27:39Z</time>
      </trkpt>
      <trkpt lat="44.09134" lon="6.27309">
        <ele>649</ele>
        <time>2015-06-21T12:27:46Z</time>
      </trkpt>
      <trkpt lat="44.09133" lon="6.27316">
        <ele>649</ele>
        <time>2015-06-21T12:27:53Z</time>
      </trkpt>
      <trkpt lat="44.09134" lon="6.2732">
        <ele>649</ele>
        <time>2015-06-21T12:29:10Z</time>
      </trkpt>
      <trkpt lat="44.09134" lon="6.27319">
        <ele>649</ele>
        <time>2015-06-21T12:30:20Z</time>
      </trkpt>
      <trkpt lat="44.09133" lon="6.27319">
        <ele>649</ele>
        <time>2015-06-21T12:30:23Z</time>
      </trkpt>
      <trkpt lat="44.09131" lon="6.27306">
        <ele>649</ele>
        <time>2015-06-21T12:30:28Z</time>
      </trkpt>
      <trkpt lat="44.09119" lon="6.27286">
        <ele>648</ele>
        <time>2015-06-21T12:30:32Z</time>
      </trkpt>
      <trkpt lat="44.09088" lon="6.27261">
        <ele>646</ele>
        <time>2015-06-21T12:30:38Z</time>
      </trkpt>
      <trkpt lat="44.09064" lon="6.27226">
        <ele>646</ele>
        <time>2015-06-21T12:30:43Z</time>
      </trkpt>
      <trkpt lat="44.09043" lon="6.27201">
        <ele>646</ele>
        <time>2015-06-21T12:30:47Z</time>
      </trkpt>
      <trkpt lat="44.09027" lon="6.27196">
        <ele>644</ele>
        <time>2015-06-21T12:30:50Z</time>
      </trkpt>
      <trkpt lat="44.08999" lon="6.27276">
        <ele>644</ele>
        <time>2015-06-21T12:31:01Z</time>
      </trkpt>
      <trkpt lat="44.08978" lon="6.27342">
        <ele>645</ele>
        <time>2015-06-21T12:31:10Z</time>
      </trkpt>
      <trkpt lat="44.08964" lon="6.27388">
        <ele>643</ele>
        <time>2015-06-21T12:31:17Z</time>
      </trkpt>
      <trkpt lat="44.08954" lon="6.27394">
        <ele>644</ele>
        <time>2015-06-21T12:31:22Z</time>
      </trkpt>
      <trkpt lat="44.08945" lon="6.27389">
        <ele>644</ele>
        <time>2015-06-21T12:31:25Z</time>
      </trkpt>
      <trkpt lat="44.08937" lon="6.27374">
        <ele>645</ele>
        <time>2015-06-21T12:31:30Z</time>
      </trkpt>
      <trkpt lat="44.08926" lon="6.27372">
        <ele>649</ele>
        <time>2015-06-21T12:31:37Z</time>
      </trkpt>
      <trkpt lat="44.08917" lon="6.2737">
        <ele>649</ele>
        <time>2015-06-21T12:31:45Z</time>
      </trkpt>
      <trkpt lat="44.08914" lon="6.27369">
        <ele>649</ele>
        <time>2015-06-21T12:31:49Z</time>
      </trkpt>
      <trkpt lat="44.08906" lon="6.27366">
        <ele>649</ele>
        <time>2015-06-21T12:31:57Z</time>
      </trkpt>
      <trkpt lat="44.08903" lon="6.27366">
        <ele>649</ele>
        <time>2015-06-21T12:32:00Z</time>
      </trkpt>
      <trkpt lat="44.08892" lon="6.27363">
        <ele>655</ele>
        <time>2015-06-21T12:32:09Z</time>
      </trkpt>
      <trkpt lat="44.08884" lon="6.2736">
        <ele>655</ele>
        <time>2015-06-21T12:32:17Z</time>
      </trkpt>
      <trkpt lat="44.0888" lon="6.27358">
        <ele>655</ele>
        <time>2015-06-21T12:32:24Z</time>
      </trkpt>
      <trkpt lat="44.08874" lon="6.27355">
        <ele>661</ele>
        <time>2015-06-21T12:32:34Z</time>
      </trkpt>
      <trkpt lat="44.08867" lon="6.27353">
        <ele>661</ele>
        <time>2015-06-21T12:32:43Z</time>
      </trkpt>
      <trkpt lat="44.0886" lon="6.27352">
        <ele>661</ele>
        <time>2015-06-21T12:32:51Z</time>
      </trkpt>
      <trkpt lat="44.08851" lon="6.27353">
        <ele>661</ele>
        <time>2015-06-21T12:32:59Z</time>
      </trkpt>
      <trkpt lat="44.08846" lon="6.2736">
        <ele>664</ele>
        <time>2015-06-21T12:33:06Z</time>
      </trkpt>
      <trkpt lat="44.08838" lon="6.27361">
        <ele>664</ele>
        <time>2015-06-21T12:33:13Z</time>
      </trkpt>
      <trkpt lat="44.08828" lon="6.27364">
        <ele>664</ele>
        <time>2015-06-21T12:33:19Z</time>
      </trkpt>
      <trkpt lat="44.08814" lon="6.27365">
        <ele>670</ele>
        <time>2015-06-21T12:33:27Z</time>
      </trkpt>
      <trkpt lat="44.088" lon="6.27356">
        <ele>670</ele>
        <time>2015-06-21T12:33:36Z</time>
      </trkpt>
      <trkpt lat="44.08791" lon="6.27342">
        <ele>675</ele>
        <time>2015-06-21T12:33:42Z</time>
      </trkpt>
      <trkpt lat="44.08776" lon="6.27328">
        <ele>675</ele>
        <time>2015-06-21T12:33:49Z</time>
      </trkpt>
      <trkpt lat="44.08764" lon="6.27323">
        <ele>675</ele>
        <time>2015-06-21T12:33:55Z</time>
      </trkpt>
      <trkpt lat="44.08757" lon="6.27313">
        <ele>676</ele>
        <time>2015-06-21T12:33:59Z</time>
      </trkpt>
      <trkpt lat="44.08744" lon="6.27299">
        <ele>676</ele>
        <time>2015-06-21T12:34:03Z</time>
      </trkpt>
      <trkpt lat="44.08736" lon="6.27301">
        <ele>678</ele>
        <time>2015-06-21T12:34:07Z</time>
      </trkpt>
      <trkpt lat="44.08723" lon="6.27301">
        <ele>678</ele>
        <time>2015-06-21T12:34:16Z</time>
      </trkpt>
      <trkpt lat="44.08715" lon="6.27299">
        <ele>678</ele>
        <time>2015-06-21T12:34:22Z</time>
      </trkpt>
      <trkpt lat="44.08704" lon="6.27305">
        <ele>680</ele>
        <time>2015-06-21T12:34:29Z</time>
      </trkpt>
      <trkpt lat="44.08695" lon="6.27302">
        <ele>680</ele>
        <time>2015-06-21T12:34:36Z</time>
      </trkpt>
      <trkpt lat="44.08684" lon="6.27297">
        <ele>680</ele>
        <time>2015-06-21T12:34:44Z</time>
      </trkpt>
      <trkpt lat="44.08675" lon="6.2729">
        <ele>684</ele>
        <time>2015-06-21T12:34:52Z</time>
      </trkpt>
      <trkpt lat="44.08667" lon="6.27287">
        <ele>684</ele>
        <time>2015-06-21T12:34:57Z</time>
      </trkpt>
      <trkpt lat="44.08658" lon="6.27279">
        <ele>684</ele>
        <time>2015-06-21T12:35:04Z</time>
      </trkpt>
      <trkpt lat="44.08651" lon="6.27265">
        <ele>687</ele>
        <time>2015-06-21T12:35:13Z</time>
      </trkpt>
      <trkpt lat="44.08639" lon="6.27263">
        <ele>687</ele>
        <time>2015-06-21T12:35:20Z</time>
      </trkpt>
      <trkpt lat="44.08622" lon="6.27265">
        <ele>688</ele>
        <time>2015-06-21T12:35:28Z</time>
      </trkpt>
      <trkpt lat="44.08616" lon="6.27278">
        <ele>688</ele>
        <time>2015-06-21T12:35:32Z</time>
      </trkpt>
      <trkpt lat="44.08615" lon="6.27305">
        <ele>689</ele>
        <time>2015-06-21T12:35:37Z</time>
      </trkpt>
      <trkpt lat="44.0861" lon="6.27336">
        <ele>690</ele>
        <time>2015-06-21T12:35:43Z</time>
      </trkpt>
      <trkpt lat="44.08598" lon="6.2735">
        <ele>692</ele>
        <time>2015-06-21T12:35:48Z</time>
      </trkpt>
      <trkpt lat="44.08582" lon="6.27367">
        <ele>691</ele>
        <time>2015-06-21T12:35:55Z</time>
      </trkpt>
      <trkpt lat="44.08566" lon="6.27372">
        <ele>690</ele>
        <time>2015-06-21T12:36:01Z</time>
      </trkpt>
      <trkpt lat="44.0855" lon="6.27377">
        <ele>694</ele>
        <time>2015-06-21T12:36:06Z</time>
      </trkpt>
      <trkpt lat="44.08532" lon="6.27387">
        <ele>696</ele>
        <time>2015-06-21T12:36:12Z</time>
      </trkpt>
      <trkpt lat="44.08521" lon="6.27394">
        <ele>696</ele>
        <time>2015-06-21T12:36:20Z</time>
      </trkpt>
      <trkpt lat="44.08511" lon="6.27398">
        <ele>696</ele>
        <time>2015-06-21T12:36:27Z</time>
      </trkpt>
      <trkpt lat="44.08501" lon="6.27402">
        <ele>696</ele>
        <time>2015-06-21T12:36:31Z</time>
      </trkpt>
      <trkpt lat="44.08491" lon="6.27401">
        <ele>696</ele>
        <time>2015-06-21T12:36:35Z</time>
      </trkpt>
      <trkpt lat="44.08478" lon="6.27403">
        <ele>699</ele>
        <time>2015-06-21T12:36:42Z</time>
      </trkpt>
      <trkpt lat="44.08466" lon="6.27414">
        <ele>699</ele>
        <time>2015-06-21T12:36:48Z</time>
      </trkpt>
      <trkpt lat="44.08453" lon="6.27425">
        <ele>699</ele>
        <time>2015-06-21T12:36:54Z</time>
      </trkpt>
      <trkpt lat="44.08436" lon="6.27432">
        <ele>702</ele>
        <time>2015-06-21T12:37:01Z</time>
      </trkpt>
      <trkpt lat="44.08421" lon="6.27439">
        <ele>702</ele>
        <time>2015-06-21T12:37:07Z</time>
      </trkpt>
      <trkpt lat="44.08415" lon="6.27451">
        <ele>702</ele>
        <time>2015-06-21T12:37:12Z</time>
      </trkpt>
      <trkpt lat="44.08405" lon="6.27458">
        <ele>702</ele>
        <time>2015-06-21T12:37:17Z</time>
      </trkpt>
      <trkpt lat="44.08398" lon="6.27453">
        <ele>702</ele>
        <time>2015-06-21T12:37:20Z</time>
      </trkpt>
      <trkpt lat="44.08386" lon="6.27444">
        <ele>702</ele>
        <time>2015-06-21T12:37:26Z</time>
      </trkpt>
      <trkpt lat="44.08372" lon="6.27436">
        <ele>700</ele>
        <time>2015-06-21T12:37:31Z</time>
      </trkpt>
      <trkpt lat="44.08362" lon="6.27435">
        <ele>700</ele>
        <time>2015-06-21T12:37:34Z</time>
      </trkpt>
      <trkpt lat="44.08354" lon="6.27452">
        <ele>700</ele>
        <time>2015-06-21T12:37:38Z</time>
      </trkpt>
      <trkpt lat="44.08342" lon="6.2748">
        <ele>703</ele>
        <time>2015-06-21T12:37:42Z</time>
      </trkpt>
      <trkpt lat="44.08335" lon="6.27485">
        <ele>703</ele>
        <time>2015-06-21T12:37:45Z</time>
      </trkpt>
      <trkpt lat="44.08332" lon="6.27475">
        <ele>703</ele>
        <time>2015-06-21T12:37:50Z</time>
      </trkpt>
      <trkpt lat="44.08329" lon="6.27468">
        <ele>703</ele>
        <time>2015-06-21T12:37:54Z</time>
      </trkpt>
      <trkpt lat="44.08318" lon="6.2746">
        <ele>706</ele>
        <time>2015-06-21T12:38:03Z</time>
      </trkpt>
      <trkpt lat="44.08314" lon="6.27464">
        <ele>706</ele>
        <time>2015-06-21T12:38:07Z</time>
      </trkpt>
      <trkpt lat="44.08309" lon="6.27476">
        <ele>706</ele>
        <time>2015-06-21T12:38:14Z</time>
      </trkpt>
      <trkpt lat="44.08297" lon="6.27483">
        <ele>706</ele>
        <time>2015-06-21T12:38:22Z</time>
      </trkpt>
      <trkpt lat="44.08286" lon="6.27486">
        <ele>711</ele>
        <time>2015-06-21T12:38:29Z</time>
      </trkpt>
      <trkpt lat="44.0828" lon="6.2748">
        <ele>711</ele>
        <time>2015-06-21T12:38:34Z</time>
      </trkpt>
      <trkpt lat="44.08269" lon="6.27475">
        <ele>711</ele>
        <time>2015-06-21T12:38:44Z</time>
      </trkpt>
      <trkpt lat="44.0826" lon="6.27474">
        <ele>714</ele>
        <time>2015-06-21T12:38:52Z</time>
      </trkpt>
      <trkpt lat="44.08253" lon="6.27484">
        <ele>714</ele>
        <time>2015-06-21T12:39:01Z</time>
      </trkpt>
      <trkpt lat="44.08246" lon="6.27488">
        <ele>718</ele>
        <time>2015-06-21T12:39:08Z</time>
      </trkpt>
      <trkpt lat="44.08241" lon="6.27489">
        <ele>718</ele>
        <time>2015-06-21T12:39:13Z</time>
      </trkpt>
      <trkpt lat="44.08234" lon="6.27497">
        <ele>720</ele>
        <time>2015-06-21T12:39:21Z</time>
      </trkpt>
      <trkpt lat="44.08226" lon="6.27504">
        <ele>720</ele>
        <time>2015-06-21T12:39:29Z</time>
      </trkpt>
      <trkpt lat="44.08219" lon="6.2751">
        <ele>720</ele>
        <time>2015-06-21T12:39:37Z</time>
      </trkpt>
      <trkpt lat="44.08211" lon="6.27515">
        <ele>726</ele>
        <time>2015-06-21T12:39:45Z</time>
      </trkpt>
      <trkpt lat="44.08202" lon="6.27516">
        <ele>728</ele>
        <time>2015-06-21T12:39:53Z</time>
      </trkpt>
      <trkpt lat="44.08191" lon="6.2752">
        <ele>728</ele>
        <time>2015-06-21T12:40:01Z</time>
      </trkpt>
      <trkpt lat="44.08182" lon="6.27526">
        <ele>728</ele>
        <time>2015-06-21T12:40:08Z</time>
      </trkpt>
      <trkpt lat="44.08168" lon="6.27534">
        <ele>726</ele>
        <time>2015-06-21T12:40:16Z</time>
      </trkpt>
      <trkpt lat="44.08157" lon="6.27549">
        <ele>731</ele>
        <time>2015-06-21T12:40:22Z</time>
      </trkpt>
      <trkpt lat="44.08148" lon="6.27564">
        <ele>730</ele>
        <time>2015-06-21T12:40:26Z</time>
      </trkpt>
      <trkpt lat="44.08136" lon="6.27563">
        <ele>730</ele>
        <time>2015-06-21T12:40:33Z</time>
      </trkpt>
      <trkpt lat="44.08127" lon="6.27557">
        <ele>730</ele>
        <time>2015-06-21T12:40:41Z</time>
      </trkpt>
      <trkpt lat="44.08122" lon="6.27558">
        <ele>736</ele>
        <time>2015-06-21T12:40:45Z</time>
      </trkpt>
      <trkpt lat="44.08117" lon="6.27557">
        <ele>736</ele>
        <time>2015-06-21T12:40:49Z</time>
      </trkpt>
      <trkpt lat="44.08109" lon="6.27559">
        <ele>736</ele>
        <time>2015-06-21T12:40:56Z</time>
      </trkpt>
      <trkpt lat="44.08099" lon="6.27564">
        <ele>736</ele>
        <time>2015-06-21T12:41:03Z</time>
      </trkpt>
      <trkpt lat="44.08089" lon="6.27561">
        <ele>743</ele>
        <time>2015-06-21T12:41:11Z</time>
      </trkpt>
      <trkpt lat="44.08086" lon="6.27556">
        <ele>743</ele>
        <time>2015-06-21T12:41:14Z</time>
      </trkpt>
      <trkpt lat="44.08085" lon="6.27542">
        <ele>743</ele>
        <time>2015-06-21T12:41:22Z</time>
      </trkpt>
      <trkpt lat="44.08086" lon="6.27527">
        <ele>743</ele>
        <time>2015-06-21T12:41:31Z</time>
      </trkpt>
      <trkpt lat="44.08092" lon="6.27518">
        <ele>743</ele>
        <time>2015-06-21T12:41:38Z</time>
      </trkpt>
      <trkpt lat="44.08092" lon="6.27515">
        <ele>743</ele>
        <time>2015-06-21T12:41:43Z</time>
      </trkpt>
      <trkpt lat="44.08091" lon="6.27514">
        <ele>743</ele>
        <time>2015-06-21T12:41:47Z</time>
      </trkpt>
      <trkpt lat="44.08088" lon="6.27512">
        <ele>746</ele>
        <time>2015-06-21T12:41:52Z</time>
      </trkpt>
      <trkpt lat="44.08085" lon="6.2751">
        <ele>746</ele>
        <time>2015-06-21T12:41:58Z</time>
      </trkpt>
      <trkpt lat="44.08079" lon="6.2751">
        <ele>746</ele>
        <time>2015-06-21T12:42:07Z</time>
      </trkpt>
      <trkpt lat="44.08076" lon="6.27513">
        <ele>746</ele>
        <time>2015-06-21T12:42:12Z</time>
      </trkpt>
      <trkpt lat="44.0807" lon="6.27519">
        <ele>743</ele>
        <time>2015-06-21T12:42:21Z</time>
      </trkpt>
      <trkpt lat="44.08067" lon="6.27513">
        <ele>759</ele>
        <time>2015-06-21T12:42:27Z</time>
      </trkpt>
      <trkpt lat="44.08069" lon="6.27504">
        <ele>759</ele>
        <time>2015-06-21T12:42:35Z</time>
      </trkpt>
      <trkpt lat="44.08068" lon="6.27493">
        <ele>759</ele>
        <time>2015-06-21T12:42:42Z</time>
      </trkpt>
      <trkpt lat="44.08067" lon="6.27481">
        <ele>762</ele>
        <time>2015-06-21T12:42:49Z</time>
      </trkpt>
      <trkpt lat="44.08063" lon="6.27476">
        <ele>762</ele>
        <time>2015-06-21T12:42:55Z</time>
      </trkpt>
      <trkpt lat="44.08062" lon="6.27482">
        <ele>762</ele>
        <time>2015-06-21T12:43:03Z</time>
      </trkpt>
      <trkpt lat="44.08063" lon="6.27487">
        <ele>759</ele>
        <time>2015-06-21T12:43:08Z</time>
      </trkpt>
      <trkpt lat="44.08062" lon="6.27493">
        <ele>759</ele>
        <time>2015-06-21T12:43:14Z</time>
      </trkpt>
      <trkpt lat="44.08059" lon="6.275">
        <ele>759</ele>
        <time>2015-06-21T12:43:21Z</time>
      </trkpt>
      <trkpt lat="44.08056" lon="6.27504">
        <ele>759</ele>
        <time>2015-06-21T12:43:26Z</time>
      </trkpt>
      <trkpt lat="44.08052" lon="6.27506">
        <ele>759</ele>
        <time>2015-06-21T12:43:32Z</time>
      </trkpt>
      <trkpt lat="44.08043" lon="6.27513">
        <ele>759</ele>
        <time>2015-06-21T12:43:40Z</time>
      </trkpt>
      <trkpt lat="44.0803" lon="6.27518">
        <ele>765</ele>
        <time>2015-06-21T12:43:48Z</time>
      </trkpt>
      <trkpt lat="44.08019" lon="6.27517">
        <ele>765</ele>
        <time>2015-06-21T12:43:54Z</time>
      </trkpt>
      <trkpt lat="44.08007" lon="6.27516">
        <ele>767</ele>
        <time>2015-06-21T12:43:59Z</time>
      </trkpt>
      <trkpt lat="44.07998" lon="6.27501">
        <ele>769</ele>
        <time>2015-06-21T12:44:03Z</time>
      </trkpt>
      <trkpt lat="44.07991" lon="6.27475">
        <ele>769</ele>
        <time>2015-06-21T12:44:08Z</time>
      </trkpt>
      <trkpt lat="44.07978" lon="6.27424">
        <ele>767</ele>
        <time>2015-06-21T12:44:16Z</time>
      </trkpt>
      <trkpt lat="44.07973" lon="6.27403">
        <ele>767</ele>
        <time>2015-06-21T12:44:19Z</time>
      </trkpt>
      <trkpt lat="44.07974" lon="6.27368">
        <ele>764</ele>
        <time>2015-06-21T12:44:23Z</time>
      </trkpt>
      <trkpt lat="44.07972" lon="6.27325">
        <ele>762</ele>
        <time>2015-06-21T12:44:27Z</time>
      </trkpt>
      <trkpt lat="44.07971" lon="6.27302">
        <ele>759</ele>
        <time>2015-06-21T12:44:30Z</time>
      </trkpt>
      <trkpt lat="44.07961" lon="6.27301">
        <ele>759</ele>
        <time>2015-06-21T12:44:33Z</time>
      </trkpt>
      <trkpt lat="44.07944" lon="6.27304">
        <ele>756</ele>
        <time>2015-06-21T12:44:37Z</time>
      </trkpt>
      <trkpt lat="44.07931" lon="6.273">
        <ele>756</ele>
        <time>2015-06-21T12:44:40Z</time>
      </trkpt>
      <trkpt lat="44.07917" lon="6.27291">
        <ele>752</ele>
        <time>2015-06-21T12:44:44Z</time>
      </trkpt>
      <trkpt lat="44.0789" lon="6.273">
        <ele>751</ele>
        <time>2015-06-21T12:44:50Z</time>
      </trkpt>
      <trkpt lat="44.07869" lon="6.27321">
        <ele>753</ele>
        <time>2015-06-21T12:44:56Z</time>
      </trkpt>
      <trkpt lat="44.07854" lon="6.27334">
        <ele>753</ele>
        <time>2015-06-21T12:45:00Z</time>
      </trkpt>
      <trkpt lat="44.07834" lon="6.27338">
        <ele>747</ele>
        <time>2015-06-21T12:45:06Z</time>
      </trkpt>
      <trkpt lat="44.07818" lon="6.27345">
        <ele>740</ele>
        <time>2015-06-21T12:45:12Z</time>
      </trkpt>
      <trkpt lat="44.07803" lon="6.27367">
        <ele>742</ele>
        <time>2015-06-21T12:45:17Z</time>
      </trkpt>
      <trkpt lat="44.07796" lon="6.27385">
        <ele>744</ele>
        <time>2015-06-21T12:45:20Z</time>
      </trkpt>
      <trkpt lat="44.07786" lon="6.27383">
        <ele>737</ele>
        <time>2015-06-21T12:45:24Z</time>
      </trkpt>
      <trkpt lat="44.07775" lon="6.27379">
        <ele>737</ele>
        <time>2015-06-21T12:45:27Z</time>
      </trkpt>
      <trkpt lat="44.07765" lon="6.27379">
        <ele>737</ele>
        <time>2015-06-21T12:45:30Z</time>
      </trkpt>
      <trkpt lat="44.07748" lon="6.27377">
        <ele>734</ele>
        <time>2015-06-21T12:45:36Z</time>
      </trkpt>
      <trkpt lat="44.07747" lon="6.27377">
        <ele>734</ele>
        <time>2015-06-21T12:45:39Z</time>
      </trkpt>
      <trkpt lat="44.07743" lon="6.27385">
        <ele>734</ele>
        <time>2015-06-21T12:45:44Z</time>
      </trkpt>
      <trkpt lat="44.07733" lon="6.27382">
        <ele>733</ele>
        <time>2015-06-21T12:45:50Z</time>
      </trkpt>
      <trkpt lat="44.07722" lon="6.27389">
        <ele>733</ele>
        <time>2015-06-21T12:45:54Z</time>
      </trkpt>
      <trkpt lat="44.07713" lon="6.27396">
        <ele>733</ele>
        <time>2015-06-21T12:45:58Z</time>
      </trkpt>
      <trkpt lat="44.07699" lon="6.27397">
        <ele>729</ele>
        <time>2015-06-21T12:46:02Z</time>
      </trkpt>
      <trkpt lat="44.07681" lon="6.27391">
        <ele>729</ele>
        <time>2015-06-21T12:46:08Z</time>
      </trkpt>
      <trkpt lat="44.07662" lon="6.27387">
        <ele>723</ele>
        <time>2015-06-21T12:46:12Z</time>
      </trkpt>
      <trkpt lat="44.0765" lon="6.27386">
        <ele>719</ele>
        <time>2015-06-21T12:46:15Z</time>
      </trkpt>
      <trkpt lat="44.07632" lon="6.27384">
        <ele>719</ele>
        <time>2015-06-21T12:46:19Z</time>
      </trkpt>
      <trkpt lat="44.07614" lon="6.27385">
        <ele>719</ele>
        <time>2015-06-21T12:46:24Z</time>
      </trkpt>
      <trkpt lat="44.07599" lon="6.27383">
        <ele>719</ele>
        <time>2015-06-21T12:46:29Z</time>
      </trkpt>
      <trkpt lat="44.07592" lon="6.27375">
        <ele>720</ele>
        <time>2015-06-21T12:46:34Z</time>
      </trkpt>
      <trkpt lat="44.07587" lon="6.27367">
        <ele>720</ele>
        <time>2015-06-21T12:46:41Z</time>
      </trkpt>
      <trkpt lat="44.07582" lon="6.27359">
        <ele>720</ele>
        <time>2015-06-21T12:46:49Z</time>
      </trkpt>
      <trkpt lat="44.07577" lon="6.2735">
        <ele>720</ele>
        <time>2015-06-21T12:46:58Z</time>
      </trkpt>
      <trkpt lat="44.07571" lon="6.27347">
        <ele>719</ele>
        <time>2015-06-21T12:47:05Z</time>
      </trkpt>
      <trkpt lat="44.07564" lon="6.27342">
        <ele>722</ele>
        <time>2015-06-21T12:47:14Z</time>
      </trkpt>
      <trkpt lat="44.07555" lon="6.2734">
        <ele>722</ele>
        <time>2015-06-21T12:47:23Z</time>
      </trkpt>
      <trkpt lat="44.07546" lon="6.27342">
        <ele>722</ele>
        <time>2015-06-21T12:47:32Z</time>
      </trkpt>
      <trkpt lat="44.07544" lon="6.27341">
        <ele>722</ele>
        <time>2015-06-21T12:47:35Z</time>
      </trkpt>
      <trkpt lat="44.0754" lon="6.27337">
        <ele>730</ele>
        <time>2015-06-21T12:47:40Z</time>
      </trkpt>
      <trkpt lat="44.07531" lon="6.27319">
        <ele>727</ele>
        <time>2015-06-21T12:47:46Z</time>
      </trkpt>
      <trkpt lat="44.07512" lon="6.27287">
        <ele>729</ele>
        <time>2015-06-21T12:47:51Z</time>
      </trkpt>
      <trkpt lat="44.07493" lon="6.27253">
        <ele>720</ele>
        <time>2015-06-21T12:47:56Z</time>
      </trkpt>
      <trkpt lat="44.07504" lon="6.27267">
        <ele>729</ele>
        <time>2015-06-21T12:48:00Z</time>
      </trkpt>
      <trkpt lat="44.07524" lon="6.27278">
        <ele>719</ele>
        <time>2015-06-21T12:48:03Z</time>
      </trkpt>
      <trkpt lat="44.07546" lon="6.27299">
        <ele>719</ele>
        <time>2015-06-21T12:48:07Z</time>
      </trkpt>
      <trkpt lat="44.07563" lon="6.27315">
        <ele>719</ele>
        <time>2015-06-21T12:48:10Z</time>
      </trkpt>
      <trkpt lat="44.07592" lon="6.27342">
        <ele>719</ele>
        <time>2015-06-21T12:48:16Z</time>
      </trkpt>
      <trkpt lat="44.07578" lon="6.27326">
        <ele>719</ele>
        <time>2015-06-21T12:48:22Z</time>
      </trkpt>
      <trkpt lat="44.07561" lon="6.27308">
        <ele>719</ele>
        <time>2015-06-21T12:48:27Z</time>
      </trkpt>
      <trkpt lat="44.07554" lon="6.27262">
        <ele>714</ele>
        <time>2015-06-21T12:48:34Z</time>
      </trkpt>
      <trkpt lat="44.07549" lon="6.2723">
        <ele>709</ele>
        <time>2015-06-21T12:48:38Z</time>
      </trkpt>
      <trkpt lat="44.07546" lon="6.27194">
        <ele>708</ele>
        <time>2015-06-21T12:48:42Z</time>
      </trkpt>
      <trkpt lat="44.0755" lon="6.27163">
        <ele>708</ele>
        <time>2015-06-21T12:48:46Z</time>
      </trkpt>
      <trkpt lat="44.07556" lon="6.27115">
        <ele>706</ele>
        <time>2015-06-21T12:48:53Z</time>
      </trkpt>
      <trkpt lat="44.0756" lon="6.27085">
        <ele>704</ele>
        <time>2015-06-21T12:48:58Z</time>
      </trkpt>
      <trkpt lat="44.07567" lon="6.2706">
        <ele>702</ele>
        <time>2015-06-21T12:49:03Z</time>
      </trkpt>
      <trkpt lat="44.07575" lon="6.2704">
        <ele>712</ele>
        <time>2015-06-21T12:49:08Z</time>
      </trkpt>
      <trkpt lat="44.07573" lon="6.27038">
        <ele>712</ele>
        <time>2015-06-21T12:49:14Z</time>
      </trkpt>
      <trkpt lat="44.07564" lon="6.27054">
        <ele>702</ele>
        <time>2015-06-21T12:49:20Z</time>
      </trkpt>
      <trkpt lat="44.07557" lon="6.27064">
        <ele>702</ele>
        <time>2015-06-21T12:49:23Z</time>
      </trkpt>
      <trkpt lat="44.07551" lon="6.27072">
        <ele>704</ele>
        <time>2015-06-21T12:49:26Z</time>
      </trkpt>
      <trkpt lat="44.07542" lon="6.27082">
        <ele>704</ele>
        <time>2015-06-21T12:49:30Z</time>
      </trkpt>
      <trkpt lat="44.07537" lon="6.27096">
        <ele>689</ele>
        <time>2015-06-21T12:49:33Z</time>
      </trkpt>
      <trkpt lat="44.07513" lon="6.27115">
        <ele>683</ele>
        <time>2015-06-21T12:49:37Z</time>
      </trkpt>
      <trkpt lat="44.07498" lon="6.27117">
        <ele>683</ele>
        <time>2015-06-21T12:49:40Z</time>
      </trkpt>
      <trkpt lat="44.07482" lon="6.27111">
        <ele>687</ele>
        <time>2015-06-21T12:49:44Z</time>
      </trkpt>
      <trkpt lat="44.07482" lon="6.27089">
        <ele>682</ele>
        <time>2015-06-21T12:49:49Z</time>
      </trkpt>
      <trkpt lat="44.07474" lon="6.2707">
        <ele>682</ele>
        <time>2015-06-21T12:49:54Z</time>
      </trkpt>
      <trkpt lat="44.07462" lon="6.27055">
        <ele>681</ele>
        <time>2015-06-21T12:49:58Z</time>
      </trkpt>
      <trkpt lat="44.07447" lon="6.27054">
        <ele>684</ele>
        <time>2015-06-21T12:50:02Z</time>
      </trkpt>
      <trkpt lat="44.07435" lon="6.27067">
        <ele>684</ele>
        <time>2015-06-21T12:50:06Z</time>
      </trkpt>
      <trkpt lat="44.07421" lon="6.27063">
        <ele>684</ele>
        <time>2015-06-21T12:50:10Z</time>
      </trkpt>
      <trkpt lat="44.0741" lon="6.27063">
        <ele>684</ele>
        <time>2015-06-21T12:50:14Z</time>
      </trkpt>
      <trkpt lat="44.074" lon="6.2708">
        <ele>685</ele>
        <time>2015-06-21T12:50:20Z</time>
      </trkpt>
      <trkpt lat="44.07376" lon="6.27096">
        <ele>685</ele>
        <time>2015-06-21T12:50:28Z</time>
      </trkpt>
      <trkpt lat="44.07361" lon="6.27101">
        <ele>690</ele>
        <time>2015-06-21T12:50:32Z</time>
      </trkpt>
      <trkpt lat="44.07333" lon="6.27103">
        <ele>688</ele>
        <time>2015-06-21T12:50:41Z</time>
      </trkpt>
      <trkpt lat="44.07316" lon="6.27097">
        <ele>686</ele>
        <time>2015-06-21T12:50:46Z</time>
      </trkpt>
      <trkpt lat="44.07302" lon="6.27082">
        <ele>686</ele>
        <time>2015-06-21T12:50:51Z</time>
      </trkpt>
      <trkpt lat="44.0728" lon="6.27079">
        <ele>686</ele>
        <time>2015-06-21T12:50:58Z</time>
      </trkpt>
      <trkpt lat="44.07268" lon="6.27084">
        <ele>686</ele>
        <time>2015-06-21T12:51:02Z</time>
      </trkpt>
      <trkpt lat="44.07265" lon="6.271">
        <ele>691</ele>
        <time>2015-06-21T12:51:06Z</time>
      </trkpt>
      <trkpt lat="44.07262" lon="6.27107">
        <ele>687</ele>
        <time>2015-06-21T12:51:09Z</time>
      </trkpt>
      <trkpt lat="44.07253" lon="6.27106">
        <ele>687</ele>
        <time>2015-06-21T12:51:13Z</time>
      </trkpt>
      <trkpt lat="44.0724" lon="6.27118">
        <ele>687</ele>
        <time>2015-06-21T12:51:20Z</time>
      </trkpt>
      <trkpt lat="44.07231" lon="6.27121">
        <ele>685</ele>
        <time>2015-06-21T12:51:23Z</time>
      </trkpt>
      <trkpt lat="44.07223" lon="6.27134">
        <ele>690</ele>
        <time>2015-06-21T12:51:27Z</time>
      </trkpt>
      <trkpt lat="44.07218" lon="6.27148">
        <ele>690</ele>
        <time>2015-06-21T12:51:31Z</time>
      </trkpt>
      <trkpt lat="44.07215" lon="6.27157">
        <ele>700</ele>
        <time>2015-06-21T12:51:35Z</time>
      </trkpt>
      <trkpt lat="44.07196" lon="6.27166">
        <ele>694</ele>
        <time>2015-06-21T12:51:43Z</time>
      </trkpt>
      <trkpt lat="44.07166" lon="6.27176">
        <ele>690</ele>
        <time>2015-06-21T12:51:52Z</time>
      </trkpt>
      <trkpt lat="44.0715" lon="6.27174">
        <ele>689</ele>
        <time>2015-06-21T12:51:59Z</time>
      </trkpt>
      <trkpt lat="44.07136" lon="6.27176">
        <ele>689</ele>
        <time>2015-06-21T12:52:05Z</time>
      </trkpt>
      <trkpt lat="44.07123" lon="6.27178">
        <ele>689</ele>
        <time>2015-06-21T12:52:10Z</time>
      </trkpt>
      <trkpt lat="44.07109" lon="6.27181">
        <ele>693</ele>
        <time>2015-06-21T12:52:16Z</time>
      </trkpt>
      <trkpt lat="44.07093" lon="6.27176">
        <ele>692</ele>
        <time>2015-06-21T12:52:23Z</time>
      </trkpt>
      <trkpt lat="44.07077" lon="6.27173">
        <ele>692</ele>
        <time>2015-06-21T12:52:29Z</time>
      </trkpt>
      <trkpt lat="44.07067" lon="6.27154">
        <ele>696</ele>
        <time>2015-06-21T12:52:36Z</time>
      </trkpt>
      <trkpt lat="44.07077" lon="6.27139">
        <ele>695</ele>
        <time>2015-06-21T12:52:44Z</time>
      </trkpt>
      <trkpt lat="44.07092" lon="6.27129">
        <ele>695</ele>
        <time>2015-06-21T12:52:51Z</time>
      </trkpt>
      <trkpt lat="44.07104" lon="6.27117">
        <ele>700</ele>
        <time>2015-06-21T12:52:58Z</time>
      </trkpt>
      <trkpt lat="44.07112" lon="6.27103">
        <ele>700</ele>
        <time>2015-06-21T12:53:05Z</time>
      </trkpt>
      <trkpt lat="44.0712" lon="6.27084">
        <ele>708</ele>
        <time>2015-06-21T12:53:13Z</time>
      </trkpt>
      <trkpt lat="44.07129" lon="6.27065">
        <ele>705</ele>
        <time>2015-06-21T12:53:22Z</time>
      </trkpt>
      <trkpt lat="44.0714" lon="6.27046">
        <ele>705</ele>
        <time>2015-06-21T12:53:31Z</time>
      </trkpt>
      <trkpt lat="44.07153" lon="6.27031">
        <ele>704</ele>
        <time>2015-06-21T12:53:39Z</time>
      </trkpt>
      <trkpt lat="44.07163" lon="6.27016">
        <ele>704</ele>
        <time>2015-06-21T12:53:47Z</time>
      </trkpt>
      <trkpt lat="44.07175" lon="6.27003">
        <ele>714</ele>
        <time>2015-06-21T12:53:55Z</time>
      </trkpt>
      <trkpt lat="44.07191" lon="6.26993">
        <ele>708</ele>
        <time>2015-06-21T12:54:04Z</time>
      </trkpt>
      <trkpt lat="44.07205" lon="6.26986">
        <ele>721</ele>
        <time>2015-06-21T12:54:13Z</time>
      </trkpt>
      <trkpt lat="44.07217" lon="6.26982">
        <ele>714</ele>
        <time>2015-06-21T12:54:20Z</time>
      </trkpt>
      <trkpt lat="44.07228" lon="6.26976">
        <ele>714</ele>
        <time>2015-06-21T12:54:27Z</time>
      </trkpt>
      <trkpt lat="44.07243" lon="6.26968">
        <ele>712</ele>
        <time>2015-06-21T12:54:37Z</time>
      </trkpt>
      <trkpt lat="44.07256" lon="6.26963">
        <ele>712</ele>
        <time>2015-06-21T12:54:46Z</time>
      </trkpt>
      <trkpt lat="44.0727" lon="6.26957">
        <ele>719</ele>
        <time>2015-06-21T12:54:55Z</time>
      </trkpt>
      <trkpt lat="44.07278" lon="6.26949">
        <ele>719</ele>
        <time>2015-06-21T12:55:01Z</time>
      </trkpt>
      <trkpt lat="44.07278" lon="6.26928">
        <ele>731</ele>
        <time>2015-06-21T12:55:11Z</time>
      </trkpt>
      <trkpt lat="44.07279" lon="6.26914">
        <ele>731</ele>
        <time>2015-06-21T12:55:18Z</time>
      </trkpt>
      <trkpt lat="44.07288" lon="6.26911">
        <ele>731</ele>
        <time>2015-06-21T12:55:26Z</time>
      </trkpt>
      <trkpt lat="44.07297" lon="6.26917">
        <ele>729</ele>
        <time>2015-06-21T12:55:33Z</time>
      </trkpt>
      <trkpt lat="44.07313" lon="6.26921">
        <ele>729</ele>
        <time>2015-06-21T12:55:44Z</time>
      </trkpt>
      <trkpt lat="44.07327" lon="6.26914">
        <ele>726</ele>
        <time>2015-06-21T12:55:52Z</time>
      </trkpt>
      <trkpt lat="44.07338" lon="6.26908">
        <ele>726</ele>
        <time>2015-06-21T12:56:00Z</time>
      </trkpt>
      <trkpt lat="44.07353" lon="6.269">
        <ele>736</ele>
        <time>2015-06-21T12:56:10Z</time>
      </trkpt>
      <trkpt lat="44.07366" lon="6.26893">
        <ele>736</ele>
        <time>2015-06-21T12:56:19Z</time>
      </trkpt>
      <trkpt lat="44.07383" lon="6.26882">
        <ele>731</ele>
        <time>2015-06-21T12:56:30Z</time>
      </trkpt>
      <trkpt lat="44.07398" lon="6.26872">
        <ele>740</ele>
        <time>2015-06-21T12:56:40Z</time>
      </trkpt>
      <trkpt lat="44.07413" lon="6.26861">
        <ele>736</ele>
        <time>2015-06-21T12:56:49Z</time>
      </trkpt>
      <trkpt lat="44.07429" lon="6.26848">
        <ele>736</ele>
        <time>2015-06-21T12:56:59Z</time>
      </trkpt>
      <trkpt lat="44.0744" lon="6.26837">
        <ele>734</ele>
        <time>2015-06-21T12:57:07Z</time>
      </trkpt>
      <trkpt lat="44.07451" lon="6.26826">
        <ele>734</ele>
        <time>2015-06-21T12:57:15Z</time>
      </trkpt>
      <trkpt lat="44.07456" lon="6.26809">
        <ele>742</ele>
        <time>2015-06-21T12:57:23Z</time>
      </trkpt>
      <trkpt lat="44.07457" lon="6.26795">
        <ele>742</ele>
        <time>2015-06-21T12:57:30Z</time>
      </trkpt>
      <trkpt lat="44.07457" lon="6.26777">
        <ele>750</ele>
        <time>2015-06-21T12:57:38Z</time>
      </trkpt>
      <trkpt lat="44.07452" lon="6.26757">
        <ele>756</ele>
        <time>2015-06-21T12:57:47Z</time>
      </trkpt>
      <trkpt lat="44.07446" lon="6.26735">
        <ele>758</ele>
        <time>2015-06-21T12:57:57Z</time>
      </trkpt>
      <trkpt lat="44.0744" lon="6.26716">
        <ele>758</ele>
        <time>2015-06-21T12:58:06Z</time>
      </trkpt>
      <trkpt lat="44.07435" lon="6.267">
        <ele>761</ele>
        <time>2015-06-21T12:58:13Z</time>
      </trkpt>
      <trkpt lat="44.07442" lon="6.26694">
        <ele>761</ele>
        <time>2015-06-21T12:58:21Z</time>
      </trkpt>
      <trkpt lat="44.07448" lon="6.26702">
        <ele>761</ele>
        <time>2015-06-21T12:58:26Z</time>
      </trkpt>
      <trkpt lat="44.07458" lon="6.26711">
        <ele>758</ele>
        <time>2015-06-21T12:58:34Z</time>
      </trkpt>
      <trkpt lat="44.07472" lon="6.26713">
        <ele>754</ele>
        <time>2015-06-21T12:58:41Z</time>
      </trkpt>
      <trkpt lat="44.07487" lon="6.26707">
        <ele>760</ele>
        <time>2015-06-21T12:58:49Z</time>
      </trkpt>
      <trkpt lat="44.07498" lon="6.26696">
        <ele>760</ele>
        <time>2015-06-21T12:58:57Z</time>
      </trkpt>
      <trkpt lat="44.07512" lon="6.26683">
        <ele>760</ele>
        <time>2015-06-21T12:59:06Z</time>
      </trkpt>
      <trkpt lat="44.07523" lon="6.26675">
        <ele>772</ele>
        <time>2015-06-21T12:59:15Z</time>
      </trkpt>
      <trkpt lat="44.07536" lon="6.2667">
        <ele>772</ele>
        <time>2015-06-21T12:59:24Z</time>
      </trkpt>
      <trkpt lat="44.0755" lon="6.26664">
        <ele>764</ele>
        <time>2015-06-21T12:59:33Z</time>
      </trkpt>
      <trkpt lat="44.07557" lon="6.26658">
        <ele>764</ele>
        <time>2015-06-21T12:59:39Z</time>
      </trkpt>
      <trkpt lat="44.07558" lon="6.26652">
        <ele>766</ele>
        <time>2015-06-21T12:59:42Z</time>
      </trkpt>
      <trkpt lat="44.0755" lon="6.26645">
        <ele>766</ele>
        <time>2015-06-21T12:59:48Z</time>
      </trkpt>
      <trkpt lat="44.07542" lon="6.26649">
        <ele>766</ele>
        <time>2015-06-21T12:59:54Z</time>
      </trkpt>
      <trkpt lat="44.07529" lon="6.26656">
        <ele>772</ele>
        <time>2015-06-21T13:00:04Z</time>
      </trkpt>
      <trkpt lat="44.07519" lon="6.26658">
        <ele>772</ele>
        <time>2015-06-21T13:00:11Z</time>
      </trkpt>
      <trkpt lat="44.07503" lon="6.26661">
        <ele>774</ele>
        <time>2015-06-21T13:00:21Z</time>
      </trkpt>
      <trkpt lat="44.0749" lon="6.26664">
        <ele>774</ele>
        <time>2015-06-21T13:00:30Z</time>
      </trkpt>
      <trkpt lat="44.07483" lon="6.26656">
        <ele>770</ele>
        <time>2015-06-21T13:00:36Z</time>
      </trkpt>
      <trkpt lat="44.07485" lon="6.26644">
        <ele>784</ele>
        <time>2015-06-21T13:00:43Z</time>
      </trkpt>
      <trkpt lat="44.07495" lon="6.26638">
        <ele>785</ele>
        <time>2015-06-21T13:00:50Z</time>
      </trkpt>
      <trkpt lat="44.07513" lon="6.26634">
        <ele>785</ele>
        <time>2015-06-21T13:00:59Z</time>
      </trkpt>
      <trkpt lat="44.07523" lon="6.26618">
        <ele>782</ele>
        <time>2015-06-21T13:01:06Z</time>
      </trkpt>
      <trkpt lat="44.07528" lon="6.26591">
        <ele>778</ele>
        <time>2015-06-21T13:01:14Z</time>
      </trkpt>
      <trkpt lat="44.07527" lon="6.26568">
        <ele>769</ele>
        <time>2015-06-21T13:01:20Z</time>
      </trkpt>
      <trkpt lat="44.07511" lon="6.26552">
        <ele>782</ele>
        <time>2015-06-21T13:01:25Z</time>
      </trkpt>
      <trkpt lat="44.07493" lon="6.26527">
        <ele>774</ele>
        <time>2015-06-21T13:01:29Z</time>
      </trkpt>
      <trkpt lat="44.07471" lon="6.26494">
        <ele>784</ele>
        <time>2015-06-21T13:01:34Z</time>
      </trkpt>
      <trkpt lat="44.07446" lon="6.26454">
        <ele>776</ele>
        <time>2015-06-21T13:01:42Z</time>
      </trkpt>
      <trkpt lat="44.07432" lon="6.26435">
        <ele>776</ele>
        <time>2015-06-21T13:01:48Z</time>
      </trkpt>
      <trkpt lat="44.07416" lon="6.26411">
        <ele>785</ele>
        <time>2015-06-21T13:01:58Z</time>
      </trkpt>
      <trkpt lat="44.07406" lon="6.26395">
        <ele>775</ele>
        <time>2015-06-21T13:02:05Z</time>
      </trkpt>
      <trkpt lat="44.07398" lon="6.26382">
        <ele>800</ele>
        <time>2015-06-21T13:02:11Z</time>
      </trkpt>
      <trkpt lat="44.07388" lon="6.26367">
        <ele>790</ele>
        <time>2015-06-21T13:02:21Z</time>
      </trkpt>
      <trkpt lat="44.07379" lon="6.2635">
        <ele>790</ele>
        <time>2015-06-21T13:02:31Z</time>
      </trkpt>
      <trkpt lat="44.07366" lon="6.26327">
        <ele>807</ele>
        <time>2015-06-21T13:02:44Z</time>
      </trkpt>
      <trkpt lat="44.07355" lon="6.26304">
        <ele>794</ele>
        <time>2015-06-21T13:02:56Z</time>
      </trkpt>
      <trkpt lat="44.07345" lon="6.2629">
        <ele>804</ele>
        <time>2015-06-21T13:03:05Z</time>
      </trkpt>
      <trkpt lat="44.07337" lon="6.26276">
        <ele>804</ele>
        <time>2015-06-21T13:03:13Z</time>
      </trkpt>
      <trkpt lat="44.07326" lon="6.26258">
        <ele>797</ele>
        <time>2015-06-21T13:03:24Z</time>
      </trkpt>
      <trkpt lat="44.07319" lon="6.2624">
        <ele>811</ele>
        <time>2015-06-21T13:03:34Z</time>
      </trkpt>
      <trkpt lat="44.0731" lon="6.26221">
        <ele>805</ele>
        <time>2015-06-21T13:03:44Z</time>
      </trkpt>
      <trkpt lat="44.07299" lon="6.26206">
        <ele>801</ele>
        <time>2015-06-21T13:03:53Z</time>
      </trkpt>
      <trkpt lat="44.07285" lon="6.26184">
        <ele>821</ele>
        <time>2015-06-21T13:04:04Z</time>
      </trkpt>
      <trkpt lat="44.07274" lon="6.26164">
        <ele>812</ele>
        <time>2015-06-21T13:04:14Z</time>
      </trkpt>
      <trkpt lat="44.07265" lon="6.26143">
        <ele>808</ele>
        <time>2015-06-21T13:04:24Z</time>
      </trkpt>
      <trkpt lat="44.07255" lon="6.26122">
        <ele>824</ele>
        <time>2015-06-21T13:04:34Z</time>
      </trkpt>
      <trkpt lat="44.07249" lon="6.26107">
        <ele>824</ele>
        <time>2015-06-21T13:04:42Z</time>
      </trkpt>
      <trkpt lat="44.07242" lon="6.2609">
        <ele>816</ele>
        <time>2015-06-21T13:04:50Z</time>
      </trkpt>
      <trkpt lat="44.07239" lon="6.26076">
        <ele>816</ele>
        <time>2015-06-21T13:04:56Z</time>
      </trkpt>
      <trkpt lat="44.07235" lon="6.26062">
        <ele>833</ele>
        <time>2015-06-21T13:05:03Z</time>
      </trkpt>
      <trkpt lat="44.07229" lon="6.26049">
        <ele>833</ele>
        <time>2015-06-21T13:05:10Z</time>
      </trkpt>
      <trkpt lat="44.07228" lon="6.26038">
        <ele>827</ele>
        <time>2015-06-21T13:05:16Z</time>
      </trkpt>
      <trkpt lat="44.07228" lon="6.26019">
        <ele>827</ele>
        <time>2015-06-21T13:05:24Z</time>
      </trkpt>
      <trkpt lat="44.07228" lon="6.26004">
        <ele>826</ele>
        <time>2015-06-21T13:05:31Z</time>
      </trkpt>
      <trkpt lat="44.07221" lon="6.25983">
        <ele>827</ele>
        <time>2015-06-21T13:05:41Z</time>
      </trkpt>
      <trkpt lat="44.07215" lon="6.25975">
        <ele>827</ele>
        <time>2015-06-21T13:05:45Z</time>
      </trkpt>
      <trkpt lat="44.07206" lon="6.25956">
        <ele>844</ele>
        <time>2015-06-21T13:05:55Z</time>
      </trkpt>
      <trkpt lat="44.072" lon="6.25938">
        <ele>844</ele>
        <time>2015-06-21T13:06:03Z</time>
      </trkpt>
      <trkpt lat="44.07194" lon="6.25918">
        <ele>842</ele>
        <time>2015-06-21T13:06:12Z</time>
      </trkpt>
      <trkpt lat="44.07189" lon="6.25908">
        <ele>842</ele>
        <time>2015-06-21T13:06:17Z</time>
      </trkpt>
      <trkpt lat="44.07183" lon="6.25894">
        <ele>837</ele>
        <time>2015-06-21T13:06:24Z</time>
      </trkpt>
      <trkpt lat="44.07177" lon="6.25881">
        <ele>854</ele>
        <time>2015-06-21T13:06:30Z</time>
      </trkpt>
      <trkpt lat="44.07172" lon="6.25866">
        <ele>847</ele>
        <time>2015-06-21T13:06:36Z</time>
      </trkpt>
      <trkpt lat="44.07161" lon="6.25846">
        <ele>838</ele>
        <time>2015-06-21T13:06:44Z</time>
      </trkpt>
      <trkpt lat="44.07146" lon="6.25827">
        <ele>850</ele>
        <time>2015-06-21T13:06:52Z</time>
      </trkpt>
      <trkpt lat="44.0713" lon="6.25803">
        <ele>843</ele>
        <time>2015-06-21T13:07:01Z</time>
      </trkpt>
      <trkpt lat="44.07119" lon="6.25776">
        <ele>859</ele>
        <time>2015-06-21T13:07:09Z</time>
      </trkpt>
      <trkpt lat="44.07114" lon="6.25754">
        <ele>852</ele>
        <time>2015-06-21T13:07:16Z</time>
      </trkpt>
      <trkpt lat="44.07111" lon="6.2572">
        <ele>852</ele>
        <time>2015-06-21T13:07:26Z</time>
      </trkpt>
      <trkpt lat="44.07107" lon="6.25699">
        <ele>851</ele>
        <time>2015-06-21T13:07:33Z</time>
      </trkpt>
      <trkpt lat="44.07102" lon="6.25681">
        <ele>851</ele>
        <time>2015-06-21T13:07:41Z</time>
      </trkpt>
      <trkpt lat="44.07098" lon="6.25656">
        <ele>854</ele>
        <time>2015-06-21T13:07:51Z</time>
      </trkpt>
      <trkpt lat="44.071" lon="6.25652">
        <ele>856</ele>
        <time>2015-06-21T13:07:58Z</time>
      </trkpt>
      <trkpt lat="44.07101" lon="6.25662">
        <ele>854</ele>
        <time>2015-06-21T13:08:03Z</time>
      </trkpt>
      <trkpt lat="44.07108" lon="6.25675">
        <ele>854</ele>
        <time>2015-06-21T13:08:07Z</time>
      </trkpt>
      <trkpt lat="44.07119" lon="6.25684">
        <ele>851</ele>
        <time>2015-06-21T13:08:11Z</time>
      </trkpt>
      <trkpt lat="44.07128" lon="6.25721">
        <ele>847</ele>
        <time>2015-06-21T13:08:17Z</time>
      </trkpt>
      <trkpt lat="44.07144" lon="6.25738">
        <ele>842</ele>
        <time>2015-06-21T13:08:23Z</time>
      </trkpt>
      <trkpt lat="44.07155" lon="6.25743">
        <ele>843</ele>
        <time>2015-06-21T13:08:30Z</time>
      </trkpt>
      <trkpt lat="44.07166" lon="6.25742">
        <ele>843</ele>
        <time>2015-06-21T13:08:37Z</time>
      </trkpt>
      <trkpt lat="44.07174" lon="6.25747">
        <ele>843</ele>
        <time>2015-06-21T13:08:43Z</time>
      </trkpt>
      <trkpt lat="44.07183" lon="6.25753">
        <ele>855</ele>
        <time>2015-06-21T13:08:49Z</time>
      </trkpt>
      <trkpt lat="44.07198" lon="6.25762">
        <ele>855</ele>
        <time>2015-06-21T13:08:57Z</time>
      </trkpt>
      <trkpt lat="44.0721" lon="6.25771">
        <ele>857</ele>
        <time>2015-06-21T13:09:04Z</time>
      </trkpt>
      <trkpt lat="44.07223" lon="6.25782">
        <ele>857</ele>
        <time>2015-06-21T13:09:12Z</time>
      </trkpt>
      <trkpt lat="44.07233" lon="6.25791">
        <ele>857</ele>
        <time>2015-06-21T13:09:20Z</time>
      </trkpt>
      <trkpt lat="44.07243" lon="6.25794">
        <ele>860</ele>
        <time>2015-06-21T13:09:28Z</time>
      </trkpt>
      <trkpt lat="44.0725" lon="6.25798">
        <ele>860</ele>
        <time>2015-06-21T13:09:34Z</time>
      </trkpt>
      <trkpt lat="44.07253" lon="6.25804">
        <ele>860</ele>
        <time>2015-06-21T13:09:38Z</time>
      </trkpt>
      <trkpt lat="44.07262" lon="6.2581">
        <ele>860</ele>
        <time>2015-06-21T13:09:46Z</time>
      </trkpt>
      <trkpt lat="44.07272" lon="6.25818">
        <ele>871</ele>
        <time>2015-06-21T13:09:52Z</time>
      </trkpt>
      <trkpt lat="44.07278" lon="6.25826">
        <ele>860</ele>
        <time>2015-06-21T13:09:55Z</time>
      </trkpt>
      <trkpt lat="44.07285" lon="6.25838">
        <ele>860</ele>
        <time>2015-06-21T13:10:02Z</time>
      </trkpt>
      <trkpt lat="44.07286" lon="6.25843">
        <ele>860</ele>
        <time>2015-06-21T13:10:07Z</time>
      </trkpt>
      <trkpt lat="44.07283" lon="6.25844">
        <ele>860</ele>
        <time>2015-06-21T13:10:14Z</time>
      </trkpt>
      <trkpt lat="44.07284" lon="6.25839">
        <ele>860</ele>
        <time>2015-06-21T13:10:19Z</time>
      </trkpt>
      <trkpt lat="44.07284" lon="6.25834">
        <ele>860</ele>
        <time>2015-06-21T13:10:23Z</time>
      </trkpt>
      <trkpt lat="44.0728" lon="6.25819">
        <ele>871</ele>
        <time>2015-06-21T13:10:30Z</time>
      </trkpt>
      <trkpt lat="44.07275" lon="6.25805">
        <ele>871</ele>
        <time>2015-06-21T13:10:37Z</time>
      </trkpt>
      <trkpt lat="44.07264" lon="6.25797">
        <ele>871</ele>
        <time>2015-06-21T13:10:43Z</time>
      </trkpt>
      <trkpt lat="44.07259" lon="6.25786">
        <ele>868</ele>
        <time>2015-06-21T13:10:48Z</time>
      </trkpt>
      <trkpt lat="44.07253" lon="6.25772">
        <ele>868</ele>
        <time>2015-06-21T13:10:55Z</time>
      </trkpt>
      <trkpt lat="44.07248" lon="6.25769">
        <ele>868</ele>
        <time>2015-06-21T13:10:59Z</time>
      </trkpt>
      <trkpt lat="44.07238" lon="6.25757">
        <ele>874</ele>
        <time>2015-06-21T13:11:05Z</time>
      </trkpt>
      <trkpt lat="44.07233" lon="6.2575">
        <ele>865</ele>
        <time>2015-06-21T13:11:09Z</time>
      </trkpt>
      <trkpt lat="44.07233" lon="6.25737">
        <ele>865</ele>
        <time>2015-06-21T13:11:14Z</time>
      </trkpt>
      <trkpt lat="44.0723" lon="6.25727">
        <ele>872</ele>
        <time>2015-06-21T13:11:19Z</time>
      </trkpt>
      <trkpt lat="44.07227" lon="6.25718">
        <ele>872</ele>
        <time>2015-06-21T13:11:26Z</time>
      </trkpt>
      <trkpt lat="44.0722" lon="6.2571">
        <ele>872</ele>
        <time>2015-06-21T13:11:31Z</time>
      </trkpt>
      <trkpt lat="44.07213" lon="6.2569">
        <ele>879</ele>
        <time>2015-06-21T13:11:39Z</time>
      </trkpt>
      <trkpt lat="44.07203" lon="6.25676">
        <ele>877</ele>
        <time>2015-06-21T13:11:47Z</time>
      </trkpt>
      <trkpt lat="44.07197" lon="6.25667">
        <ele>877</ele>
        <time>2015-06-21T13:11:53Z</time>
      </trkpt>
      <trkpt lat="44.07191" lon="6.25653">
        <ele>877</ele>
        <time>2015-06-21T13:12:00Z</time>
      </trkpt>
      <trkpt lat="44.07189" lon="6.25646">
        <ele>890</ele>
        <time>2015-06-21T13:12:03Z</time>
      </trkpt>
      <trkpt lat="44.07186" lon="6.25639">
        <ele>890</ele>
        <time>2015-06-21T13:12:07Z</time>
      </trkpt>
      <trkpt lat="44.07185" lon="6.25631">
        <ele>890</ele>
        <time>2015-06-21T13:12:11Z</time>
      </trkpt>
      <trkpt lat="44.0718" lon="6.25626">
        <ele>878</ele>
        <time>2015-06-21T13:12:15Z</time>
      </trkpt>
      <trkpt lat="44.07174" lon="6.25622">
        <ele>886</ele>
        <time>2015-06-21T13:12:18Z</time>
      </trkpt>
      <trkpt lat="44.07165" lon="6.25602">
        <ele>886</ele>
        <time>2015-06-21T13:12:27Z</time>
      </trkpt>
      <trkpt lat="44.07163" lon="6.2559">
        <ele>893</ele>
        <time>2015-06-21T13:12:33Z</time>
      </trkpt>
      <trkpt lat="44.07154" lon="6.25579">
        <ele>893</ele>
        <time>2015-06-21T13:12:41Z</time>
      </trkpt>
      <trkpt lat="44.07151" lon="6.25573">
        <ele>879</ele>
        <time>2015-06-21T13:12:44Z</time>
      </trkpt>
      <trkpt lat="44.07146" lon="6.25566">
        <ele>884</ele>
        <time>2015-06-21T13:12:48Z</time>
      </trkpt>
      <trkpt lat="44.07149" lon="6.25559">
        <ele>884</ele>
        <time>2015-06-21T13:12:52Z</time>
      </trkpt>
      <trkpt lat="44.07152" lon="6.2555">
        <ele>884</ele>
        <time>2015-06-21T13:12:58Z</time>
      </trkpt>
      <trkpt lat="44.0715" lon="6.25535">
        <ele>888</ele>
        <time>2015-06-21T13:13:05Z</time>
      </trkpt>
      <trkpt lat="44.07148" lon="6.25526">
        <ele>888</ele>
        <time>2015-06-21T13:13:10Z</time>
      </trkpt>
      <trkpt lat="44.07143" lon="6.25516">
        <ele>888</ele>
        <time>2015-06-21T13:13:15Z</time>
      </trkpt>
      <trkpt lat="44.07146" lon="6.25507">
        <ele>892</ele>
        <time>2015-06-21T13:13:18Z</time>
      </trkpt>
      <trkpt lat="44.07142" lon="6.25498">
        <ele>892</ele>
        <time>2015-06-21T13:13:23Z</time>
      </trkpt>
      <trkpt lat="44.07138" lon="6.25487">
        <ele>892</ele>
        <time>2015-06-21T13:13:30Z</time>
      </trkpt>
      <trkpt lat="44.07137" lon="6.2548">
        <ele>895</ele>
        <time>2015-06-21T13:13:35Z</time>
      </trkpt>
      <trkpt lat="44.07136" lon="6.2547">
        <ele>895</ele>
        <time>2015-06-21T13:13:40Z</time>
      </trkpt>
      <trkpt lat="44.07126" lon="6.25455">
        <ele>899</ele>
        <time>2015-06-21T13:13:48Z</time>
      </trkpt>
      <trkpt lat="44.07117" lon="6.25449">
        <ele>887</ele>
        <time>2015-06-21T13:13:53Z</time>
      </trkpt>
      <trkpt lat="44.07118" lon="6.2543">
        <ele>890</ele>
        <time>2015-06-21T13:14:00Z</time>
      </trkpt>
      <trkpt lat="44.07118" lon="6.25413">
        <ele>890</ele>
        <time>2015-06-21T13:14:08Z</time>
      </trkpt>
      <trkpt lat="44.07116" lon="6.254">
        <ele>896</ele>
        <time>2015-06-21T13:14:14Z</time>
      </trkpt>
      <trkpt lat="44.07113" lon="6.2539">
        <ele>896</ele>
        <time>2015-06-21T13:14:19Z</time>
      </trkpt>
      <trkpt lat="44.07112" lon="6.25383">
        <ele>896</ele>
        <time>2015-06-21T13:14:23Z</time>
      </trkpt>
      <trkpt lat="44.07109" lon="6.2537">
        <ele>902</ele>
        <time>2015-06-21T13:14:29Z</time>
      </trkpt>
      <trkpt lat="44.07104" lon="6.2536">
        <ele>902</ele>
        <time>2015-06-21T13:14:35Z</time>
      </trkpt>
      <trkpt lat="44.07095" lon="6.25349">
        <ele>893</ele>
        <time>2015-06-21T13:14:42Z</time>
      </trkpt>
      <trkpt lat="44.07093" lon="6.25338">
        <ele>900</ele>
        <time>2015-06-21T13:14:50Z</time>
      </trkpt>
      <trkpt lat="44.07085" lon="6.25331">
        <ele>900</ele>
        <time>2015-06-21T13:14:55Z</time>
      </trkpt>
      <trkpt lat="44.07085" lon="6.25312">
        <ele>906</ele>
        <time>2015-06-21T13:15:03Z</time>
      </trkpt>
      <trkpt lat="44.07079" lon="6.25301">
        <ele>906</ele>
        <time>2015-06-21T13:15:09Z</time>
      </trkpt>
      <trkpt lat="44.07071" lon="6.2529">
        <ele>911</ele>
        <time>2015-06-21T13:15:16Z</time>
      </trkpt>
      <trkpt lat="44.07069" lon="6.25279">
        <ele>904</ele>
        <time>2015-06-21T13:15:21Z</time>
      </trkpt>
      <trkpt lat="44.07074" lon="6.25269">
        <ele>911</ele>
        <time>2015-06-21T13:15:27Z</time>
      </trkpt>
      <trkpt lat="44.07081" lon="6.25257">
        <ele>916</ele>
        <time>2015-06-21T13:15:33Z</time>
      </trkpt>
      <trkpt lat="44.07086" lon="6.25239">
        <ele>916</ele>
        <time>2015-06-21T13:15:41Z</time>
      </trkpt>
      <trkpt lat="44.0708" lon="6.25229">
        <ele>923</ele>
        <time>2015-06-21T13:15:46Z</time>
      </trkpt>
      <trkpt lat="44.07071" lon="6.2522">
        <ele>923</ele>
        <time>2015-06-21T13:15:51Z</time>
      </trkpt>
      <trkpt lat="44.07065" lon="6.25208">
        <ele>922</ele>
        <time>2015-06-21T13:15:58Z</time>
      </trkpt>
      <trkpt lat="44.0706" lon="6.25207">
        <ele>922</ele>
        <time>2015-06-21T13:16:04Z</time>
      </trkpt>
      <trkpt lat="44.07052" lon="6.25214">
        <ele>917</ele>
        <time>2015-06-21T13:16:10Z</time>
      </trkpt>
      <trkpt lat="44.07048" lon="6.2522">
        <ele>917</ele>
        <time>2015-06-21T13:16:14Z</time>
      </trkpt>
      <trkpt lat="44.07037" lon="6.25207">
        <ele>917</ele>
        <time>2015-06-21T13:16:22Z</time>
      </trkpt>
      <trkpt lat="44.07032" lon="6.25196">
        <ele>917</ele>
        <time>2015-06-21T13:16:29Z</time>
      </trkpt>
      <trkpt lat="44.07033" lon="6.2519">
        <ele>917</ele>
        <time>2015-06-21T13:16:32Z</time>
      </trkpt>
      <trkpt lat="44.07032" lon="6.25178">
        <ele>922</ele>
        <time>2015-06-21T13:16:38Z</time>
      </trkpt>
      <trkpt lat="44.07027" lon="6.25166">
        <ele>922</ele>
        <time>2015-06-21T13:16:44Z</time>
      </trkpt>
      <trkpt lat="44.07023" lon="6.25162">
        <ele>922</ele>
        <time>2015-06-21T13:16:47Z</time>
      </trkpt>
      <trkpt lat="44.07019" lon="6.25156">
        <ele>922</ele>
        <time>2015-06-21T13:16:50Z</time>
      </trkpt>
      <trkpt lat="44.07015" lon="6.25147">
        <ele>928</ele>
        <time>2015-06-21T13:16:54Z</time>
      </trkpt>
      <trkpt lat="44.07012" lon="6.25136">
        <ele>923</ele>
        <time>2015-06-21T13:16:59Z</time>
      </trkpt>
      <trkpt lat="44.07009" lon="6.2513">
        <ele>923</ele>
        <time>2015-06-21T13:17:04Z</time>
      </trkpt>
      <trkpt lat="44.07005" lon="6.25126">
        <ele>923</ele>
        <time>2015-06-21T13:17:09Z</time>
      </trkpt>
      <trkpt lat="44.06995" lon="6.25117">
        <ele>930</ele>
        <time>2015-06-21T13:17:14Z</time>
      </trkpt>
      <trkpt lat="44.06989" lon="6.2511">
        <ele>930</ele>
        <time>2015-06-21T13:17:21Z</time>
      </trkpt>
      <trkpt lat="44.06986" lon="6.25105">
        <ele>924</ele>
        <time>2015-06-21T13:17:25Z</time>
      </trkpt>
      <trkpt lat="44.06981" lon="6.25098">
        <ele>924</ele>
        <time>2015-06-21T13:17:30Z</time>
      </trkpt>
      <trkpt lat="44.0697" lon="6.25087">
        <ele>935</ele>
        <time>2015-06-21T13:17:36Z</time>
      </trkpt>
      <trkpt lat="44.06966" lon="6.25081">
        <ele>935</ele>
        <time>2015-06-21T13:17:41Z</time>
      </trkpt>
      <trkpt lat="44.0696" lon="6.25073">
        <ele>935</ele>
        <time>2015-06-21T13:17:47Z</time>
      </trkpt>
      <trkpt lat="44.06949" lon="6.25064">
        <ele>945</ele>
        <time>2015-06-21T13:17:57Z</time>
      </trkpt>
      <trkpt lat="44.06938" lon="6.25062">
        <ele>945</ele>
        <time>2015-06-21T13:18:04Z</time>
      </trkpt>
      <trkpt lat="44.0693" lon="6.2506">
        <ele>946</ele>
        <time>2015-06-21T13:18:10Z</time>
      </trkpt>
      <trkpt lat="44.06922" lon="6.25054">
        <ele>946</ele>
        <time>2015-06-21T13:18:17Z</time>
      </trkpt>
      <trkpt lat="44.06913" lon="6.25049">
        <ele>946</ele>
        <time>2015-06-21T13:18:24Z</time>
      </trkpt>
      <trkpt lat="44.06906" lon="6.25046">
        <ele>946</ele>
        <time>2015-06-21T13:18:29Z</time>
      </trkpt>
      <trkpt lat="44.06893" lon="6.25044">
        <ele>948</ele>
        <time>2015-06-21T13:18:38Z</time>
      </trkpt>
      <trkpt lat="44.06891" lon="6.25043">
        <ele>948</ele>
        <time>2015-06-21T13:18:47Z</time>
      </trkpt>
      <trkpt lat="44.06895" lon="6.25043">
        <ele>948</ele>
        <time>2015-06-21T13:18:53Z</time>
      </trkpt>
      <trkpt lat="44.06899" lon="6.25041">
        <ele>959</ele>
        <time>2015-06-21T13:18:58Z</time>
      </trkpt>
      <trkpt lat="44.06909" lon="6.25039">
        <ele>956</ele>
        <time>2015-06-21T13:19:04Z</time>
      </trkpt>
      <trkpt lat="44.0692" lon="6.2504">
        <ele>956</ele>
        <time>2015-06-21T13:19:11Z</time>
      </trkpt>
      <trkpt lat="44.06926" lon="6.2504">
        <ele>956</ele>
        <time>2015-06-21T13:19:15Z</time>
      </trkpt>
      <trkpt lat="44.06934" lon="6.25042">
        <ele>945</ele>
        <time>2015-06-21T13:19:21Z</time>
      </trkpt>
      <trkpt lat="44.06946" lon="6.25041">
        <ele>957</ele>
        <time>2015-06-21T13:19:30Z</time>
      </trkpt>
      <trkpt lat="44.06948" lon="6.25042">
        <ele>945</ele>
        <time>2015-06-21T13:19:34Z</time>
      </trkpt>
      <trkpt lat="44.06944" lon="6.25035">
        <ele>957</ele>
        <time>2015-06-21T13:19:44Z</time>
      </trkpt>
      <trkpt lat="44.06943" lon="6.25035">
        <ele>957</ele>
        <time>2015-06-21T13:19:47Z</time>
      </trkpt>
      <trkpt lat="44.06932" lon="6.25028">
        <ele>957</ele>
        <time>2015-06-21T13:19:55Z</time>
      </trkpt>
      <trkpt lat="44.06922" lon="6.25023">
        <ele>956</ele>
        <time>2015-06-21T13:20:01Z</time>
      </trkpt>
      <trkpt lat="44.06907" lon="6.25018">
        <ele>956</ele>
        <time>2015-06-21T13:20:10Z</time>
      </trkpt>
      <trkpt lat="44.06897" lon="6.25017">
        <ele>959</ele>
        <time>2015-06-21T13:20:17Z</time>
      </trkpt>
      <trkpt lat="44.06887" lon="6.25012">
        <ele>971</ele>
        <time>2015-06-21T13:20:23Z</time>
      </trkpt>
      <trkpt lat="44.06877" lon="6.25013">
        <ele>971</ele>
        <time>2015-06-21T13:20:30Z</time>
      </trkpt>
      <trkpt lat="44.0687" lon="6.25011">
        <ele>977</ele>
        <time>2015-06-21T13:20:35Z</time>
      </trkpt>
      <trkpt lat="44.06864" lon="6.25009">
        <ele>977</ele>
        <time>2015-06-21T13:20:39Z</time>
      </trkpt>
      <trkpt lat="44.06858" lon="6.25015">
        <ele>964</ele>
        <time>2015-06-21T13:20:44Z</time>
      </trkpt>
      <trkpt lat="44.06851" lon="6.25021">
        <ele>964</ele>
        <time>2015-06-21T13:20:48Z</time>
      </trkpt>
      <trkpt lat="44.06845" lon="6.25024">
        <ele>964</ele>
        <time>2015-06-21T13:20:52Z</time>
      </trkpt>
      <trkpt lat="44.06838" lon="6.25025">
        <ele>964</ele>
        <time>2015-06-21T13:20:58Z</time>
      </trkpt>
      <trkpt lat="44.0683" lon="6.25021">
        <ele>964</ele>
        <time>2015-06-21T13:21:03Z</time>
      </trkpt>
      <trkpt lat="44.06822" lon="6.2502">
        <ele>964</ele>
        <time>2015-06-21T13:21:07Z</time>
      </trkpt>
      <trkpt lat="44.06814" lon="6.25026">
        <ele>957</ele>
        <time>2015-06-21T13:21:13Z</time>
      </trkpt>
      <trkpt lat="44.06808" lon="6.25025">
        <ele>957</ele>
        <time>2015-06-21T13:21:18Z</time>
      </trkpt>
      <trkpt lat="44.06806" lon="6.2502">
        <ele>957</ele>
        <time>2015-06-21T13:21:21Z</time>
      </trkpt>
      <trkpt lat="44.06795" lon="6.25008">
        <ele>967</ele>
        <time>2015-06-21T13:21:28Z</time>
      </trkpt>
      <trkpt lat="44.06795" lon="6.24995">
        <ele>967</ele>
        <time>2015-06-21T13:21:34Z</time>
      </trkpt>
      <trkpt lat="44.06794" lon="6.24989">
        <ele>967</ele>
        <time>2015-06-21T13:21:38Z</time>
      </trkpt>
      <trkpt lat="44.06795" lon="6.24967">
        <ele>974</ele>
        <time>2015-06-21T13:21:46Z</time>
      </trkpt>
      <trkpt lat="44.06795" lon="6.24954">
        <ele>985</ele>
        <time>2015-06-21T13:21:52Z</time>
      </trkpt>
      <trkpt lat="44.06791" lon="6.24941">
        <ele>969</ele>
        <time>2015-06-21T13:21:58Z</time>
      </trkpt>
      <trkpt lat="44.0679" lon="6.24934">
        <ele>969</ele>
        <time>2015-06-21T13:22:01Z</time>
      </trkpt>
      <trkpt lat="44.06786" lon="6.2492">
        <ele>977</ele>
        <time>2015-06-21T13:22:07Z</time>
      </trkpt>
      <trkpt lat="44.0678" lon="6.24919">
        <ele>977</ele>
        <time>2015-06-21T13:22:11Z</time>
      </trkpt>
      <trkpt lat="44.06774" lon="6.24919">
        <ele>977</ele>
        <time>2015-06-21T13:22:14Z</time>
      </trkpt>
      <trkpt lat="44.06763" lon="6.24901">
        <ele>974</ele>
        <time>2015-06-21T13:22:23Z</time>
      </trkpt>
      <trkpt lat="44.06756" lon="6.24889">
        <ele>974</ele>
        <time>2015-06-21T13:22:27Z</time>
      </trkpt>
      <trkpt lat="44.06747" lon="6.24879">
        <ele>974</ele>
        <time>2015-06-21T13:22:32Z</time>
      </trkpt>
      <trkpt lat="44.06741" lon="6.24871">
        <ele>984</ele>
        <time>2015-06-21T13:22:35Z</time>
      </trkpt>
      <trkpt lat="44.06747" lon="6.24852">
        <ele>984</ele>
        <time>2015-06-21T13:22:43Z</time>
      </trkpt>
      <trkpt lat="44.06751" lon="6.24833">
        <ele>999</ele>
        <time>2015-06-21T13:22:50Z</time>
      </trkpt>
      <trkpt lat="44.06743" lon="6.24815">
        <ele>1012</ele>
        <time>2015-06-21T13:22:56Z</time>
      </trkpt>
      <trkpt lat="44.06742" lon="6.24799">
        <ele>1012</ele>
        <time>2015-06-21T13:23:03Z</time>
      </trkpt>
      <trkpt lat="44.06731" lon="6.24791">
        <ele>1009</ele>
        <time>2015-06-21T13:23:09Z</time>
      </trkpt>
      <trkpt lat="44.0673" lon="6.24798">
        <ele>1001</ele>
        <time>2015-06-21T13:23:16Z</time>
      </trkpt>
      <trkpt lat="44.06727" lon="6.24805">
        <ele>1001</ele>
        <time>2015-06-21T13:23:20Z</time>
      </trkpt>
      <trkpt lat="44.06722" lon="6.24807">
        <ele>1001</ele>
        <time>2015-06-21T13:23:25Z</time>
      </trkpt>
      <trkpt lat="44.06718" lon="6.2481">
        <ele>1001</ele>
        <time>2015-06-21T13:23:29Z</time>
      </trkpt>
      <trkpt lat="44.06704" lon="6.24818">
        <ele>995</ele>
        <time>2015-06-21T13:23:38Z</time>
      </trkpt>
      <trkpt lat="44.06694" lon="6.24816">
        <ele>995</ele>
        <time>2015-06-21T13:23:42Z</time>
      </trkpt>
      <trkpt lat="44.06681" lon="6.24803">
        <ele>995</ele>
        <time>2015-06-21T13:23:48Z</time>
      </trkpt>
      <trkpt lat="44.06673" lon="6.24789">
        <ele>993</ele>
        <time>2015-06-21T13:23:54Z</time>
      </trkpt>
      <trkpt lat="44.06671" lon="6.24785">
        <ele>993</ele>
        <time>2015-06-21T13:23:57Z</time>
      </trkpt>
      <trkpt lat="44.06665" lon="6.24776">
        <ele>993</ele>
        <time>2015-06-21T13:24:03Z</time>
      </trkpt>
      <trkpt lat="44.06658" lon="6.24764">
        <ele>993</ele>
        <time>2015-06-21T13:24:09Z</time>
      </trkpt>
      <trkpt lat="44.06653" lon="6.24758">
        <ele>1003</ele>
        <time>2015-06-21T13:24:14Z</time>
      </trkpt>
      <trkpt lat="44.06647" lon="6.24756">
        <ele>994</ele>
        <time>2015-06-21T13:24:20Z</time>
      </trkpt>
      <trkpt lat="44.06651" lon="6.24754">
        <ele>994</ele>
        <time>2015-06-21T13:24:28Z</time>
      </trkpt>
      <trkpt lat="44.0666" lon="6.2475">
        <ele>1003</ele>
        <time>2015-06-21T13:24:36Z</time>
      </trkpt>
      <trkpt lat="44.0667" lon="6.24757">
        <ele>1003</ele>
        <time>2015-06-21T13:24:43Z</time>
      </trkpt>
      <trkpt lat="44.06681" lon="6.24765">
        <ele>1002</ele>
        <time>2015-06-21T13:24:50Z</time>
      </trkpt>
      <trkpt lat="44.0669" lon="6.24769">
        <ele>1002</ele>
        <time>2015-06-21T13:24:56Z</time>
      </trkpt>
      <trkpt lat="44.06692" lon="6.2477">
        <ele>1002</ele>
        <time>2015-06-21T13:25:00Z</time>
      </trkpt>
      <trkpt lat="44.06695" lon="6.2477">
        <ele>1002</ele>
        <time>2015-06-21T13:25:05Z</time>
      </trkpt>
      <trkpt lat="44.06708" lon="6.24766">
        <ele>1002</ele>
        <time>2015-06-21T13:25:12Z</time>
      </trkpt>
      <trkpt lat="44.06715" lon="6.24764">
        <ele>1009</ele>
        <time>2015-06-21T13:25:16Z</time>
      </trkpt>
      <trkpt lat="44.06719" lon="6.2477">
        <ele>1009</ele>
        <time>2015-06-21T13:25:22Z</time>
      </trkpt>
      <trkpt lat="44.06718" lon="6.24767">
        <ele>1009</ele>
        <time>2015-06-21T13:25:27Z</time>
      </trkpt>
      <trkpt lat="44.06713" lon="6.24762">
        <ele>1018</ele>
        <time>2015-06-21T13:25:34Z</time>
      </trkpt>
      <trkpt lat="44.06705" lon="6.24757">
        <ele>1013</ele>
        <time>2015-06-21T13:25:41Z</time>
      </trkpt>
      <trkpt lat="44.06697" lon="6.24751">
        <ele>1013</ele>
        <time>2015-06-21T13:25:47Z</time>
      </trkpt>
      <trkpt lat="44.06693" lon="6.24741">
        <ele>1013</ele>
        <time>2015-06-21T13:25:54Z</time>
      </trkpt>
      <trkpt lat="44.06687" lon="6.24737">
        <ele>1013</ele>
        <time>2015-06-21T13:25:58Z</time>
      </trkpt>
      <trkpt lat="44.06681" lon="6.24733">
        <ele>1024</ele>
        <time>2015-06-21T13:26:01Z</time>
      </trkpt>
      <trkpt lat="44.06674" lon="6.24723">
        <ele>1015</ele>
        <time>2015-06-21T13:26:07Z</time>
      </trkpt>
      <trkpt lat="44.06674" lon="6.2471">
        <ele>1015</ele>
        <time>2015-06-21T13:26:18Z</time>
      </trkpt>
      <trkpt lat="44.06673" lon="6.24708">
        <ele>1026</ele>
        <time>2015-06-21T13:26:22Z</time>
      </trkpt>
      <trkpt lat="44.06668" lon="6.24699">
        <ele>1026</ele>
        <time>2015-06-21T13:26:38Z</time>
      </trkpt>
      <trkpt lat="44.0668" lon="6.24698">
        <ele>1026</ele>
        <time>2015-06-21T13:26:53Z</time>
      </trkpt>
      <trkpt lat="44.06688" lon="6.24695">
        <ele>1033</ele>
        <time>2015-06-21T13:27:07Z</time>
      </trkpt>
      <trkpt lat="44.0669" lon="6.24694">
        <ele>1033</ele>
        <time>2015-06-21T13:27:20Z</time>
      </trkpt>
      <trkpt lat="44.06688" lon="6.24689">
        <ele>1033</ele>
        <time>2015-06-21T13:27:26Z</time>
      </trkpt>
      <trkpt lat="44.06682" lon="6.24683">
        <ele>1033</ele>
        <time>2015-06-21T13:27:32Z</time>
      </trkpt>
      <trkpt lat="44.06673" lon="6.24678">
        <ele>1034</ele>
        <time>2015-06-21T13:27:38Z</time>
      </trkpt>
      <trkpt lat="44.06666" lon="6.24674">
        <ele>1034</ele>
        <time>2015-06-21T13:27:43Z</time>
      </trkpt>
      <trkpt lat="44.06661" lon="6.24668">
        <ele>1034</ele>
        <time>2015-06-21T13:27:48Z</time>
      </trkpt>
      <trkpt lat="44.06654" lon="6.24653">
        <ele>1034</ele>
        <time>2015-06-21T13:27:55Z</time>
      </trkpt>
      <trkpt lat="44.06645" lon="6.24643">
        <ele>1042</ele>
        <time>2015-06-21T13:28:00Z</time>
      </trkpt>
      <trkpt lat="44.06639" lon="6.24637">
        <ele>1042</ele>
        <time>2015-06-21T13:28:07Z</time>
      </trkpt>
      <trkpt lat="44.0663" lon="6.24642">
        <ele>1042</ele>
        <time>2015-06-21T13:28:13Z</time>
      </trkpt>
      <trkpt lat="44.0662" lon="6.24629">
        <ele>1035</ele>
        <time>2015-06-21T13:28:21Z</time>
      </trkpt>
      <trkpt lat="44.06612" lon="6.24622">
        <ele>1048</ele>
        <time>2015-06-21T13:28:27Z</time>
      </trkpt>
      <trkpt lat="44.06607" lon="6.24617">
        <ele>1048</ele>
        <time>2015-06-21T13:28:32Z</time>
      </trkpt>
      <trkpt lat="44.06594" lon="6.24604">
        <ele>1039</ele>
        <time>2015-06-21T13:28:37Z</time>
      </trkpt>
      <trkpt lat="44.0659" lon="6.24595">
        <ele>1049</ele>
        <time>2015-06-21T13:28:41Z</time>
      </trkpt>
      <trkpt lat="44.06583" lon="6.24593">
        <ele>1049</ele>
        <time>2015-06-21T13:28:46Z</time>
      </trkpt>
      <trkpt lat="44.06572" lon="6.24593">
        <ele>1049</ele>
        <time>2015-06-21T13:28:55Z</time>
      </trkpt>
      <trkpt lat="44.06565" lon="6.24591">
        <ele>1038</ele>
        <time>2015-06-21T13:29:00Z</time>
      </trkpt>
      <trkpt lat="44.06563" lon="6.24592">
        <ele>1038</ele>
        <time>2015-06-21T13:29:07Z</time>
      </trkpt>
      <trkpt lat="44.06565" lon="6.24593">
        <ele>1038</ele>
        <time>2015-06-21T13:29:11Z</time>
      </trkpt>
      <trkpt lat="44.06575" lon="6.2459">
        <ele>1049</ele>
        <time>2015-06-21T13:29:19Z</time>
      </trkpt>
      <trkpt lat="44.06583" lon="6.24584">
        <ele>1049</ele>
        <time>2015-06-21T13:29:24Z</time>
      </trkpt>
      <trkpt lat="44.06589" lon="6.24578">
        <ele>1049</ele>
        <time>2015-06-21T13:29:28Z</time>
      </trkpt>
      <trkpt lat="44.06593" lon="6.24579">
        <ele>1049</ele>
        <time>2015-06-21T13:29:32Z</time>
      </trkpt>
      <trkpt lat="44.06602" lon="6.24589">
        <ele>1055</ele>
        <time>2015-06-21T13:29:40Z</time>
      </trkpt>
      <trkpt lat="44.0661" lon="6.24591">
        <ele>1055</ele>
        <time>2015-06-21T13:29:46Z</time>
      </trkpt>
      <trkpt lat="44.06615" lon="6.24592">
        <ele>1055</ele>
        <time>2015-06-21T13:29:51Z</time>
      </trkpt>
      <trkpt lat="44.06629" lon="6.24597">
        <ele>1060</ele>
        <time>2015-06-21T13:29:58Z</time>
      </trkpt>
      <trkpt lat="44.06644" lon="6.24599">
        <ele>1054</ele>
        <time>2015-06-21T13:30:05Z</time>
      </trkpt>
      <trkpt lat="44.06652" lon="6.24597">
        <ele>1060</ele>
        <time>2015-06-21T13:30:10Z</time>
      </trkpt>
      <trkpt lat="44.06669" lon="6.24605">
        <ele>1057</ele>
        <time>2015-06-21T13:30:20Z</time>
      </trkpt>
      <trkpt lat="44.06673" lon="6.24607">
        <ele>1057</ele>
        <time>2015-06-21T13:30:24Z</time>
      </trkpt>
      <trkpt lat="44.06685" lon="6.24612">
        <ele>1064</ele>
        <time>2015-06-21T13:30:30Z</time>
      </trkpt>
      <trkpt lat="44.06701" lon="6.24617">
        <ele>1064</ele>
        <time>2015-06-21T13:30:38Z</time>
      </trkpt>
      <trkpt lat="44.06718" lon="6.24626">
        <ele>1060</ele>
        <time>2015-06-21T13:30:45Z</time>
      </trkpt>
      <trkpt lat="44.06726" lon="6.24634">
        <ele>1060</ele>
        <time>2015-06-21T13:30:52Z</time>
      </trkpt>
      <trkpt lat="44.06731" lon="6.24639">
        <ele>1060</ele>
        <time>2015-06-21T13:30:56Z</time>
      </trkpt>
      <trkpt lat="44.0674" lon="6.24642">
        <ele>1063</ele>
        <time>2015-06-21T13:31:05Z</time>
      </trkpt>
      <trkpt lat="44.06745" lon="6.24642">
        <ele>1063</ele>
        <time>2015-06-21T13:31:10Z</time>
      </trkpt>
      <trkpt lat="44.06746" lon="6.24641">
        <ele>1063</ele>
        <time>2015-06-21T13:31:17Z</time>
      </trkpt>
      <trkpt lat="44.06746" lon="6.2464">
        <ele>1063</ele>
        <time>2015-06-21T13:31:23Z</time>
      </trkpt>
      <trkpt lat="44.06753" lon="6.24637">
        <ele>1063</ele>
        <time>2015-06-21T13:31:31Z</time>
      </trkpt>
      <trkpt lat="44.06758" lon="6.24637">
        <ele>1063</ele>
        <time>2015-06-21T13:31:38Z</time>
      </trkpt>
      <trkpt lat="44.06762" lon="6.24637">
        <ele>1063</ele>
        <time>2015-06-21T13:31:45Z</time>
      </trkpt>
      <trkpt lat="44.06761" lon="6.24638">
        <ele>1063</ele>
        <time>2015-06-21T13:31:54Z</time>
      </trkpt>
      <trkpt lat="44.06758" lon="6.24638">
        <ele>1063</ele>
        <time>2015-06-21T13:31:57Z</time>
      </trkpt>
      <trkpt lat="44.06756" lon="6.24634">
        <ele>1063</ele>
        <time>2015-06-21T13:32:05Z</time>
      </trkpt>
      <trkpt lat="44.06756" lon="6.24632">
        <ele>1063</ele>
        <time>2015-06-21T13:32:08Z</time>
      </trkpt>
      <trkpt lat="44.06756" lon="6.24624">
        <ele>1073</ele>
        <time>2015-06-21T13:32:14Z</time>
      </trkpt>
      <trkpt lat="44.06754" lon="6.24617">
        <ele>1073</ele>
        <time>2015-06-21T13:32:18Z</time>
      </trkpt>
      <trkpt lat="44.06757" lon="6.24611">
        <ele>1073</ele>
        <time>2015-06-21T13:32:22Z</time>
      </trkpt>
      <trkpt lat="44.06761" lon="6.24609">
        <ele>1073</ele>
        <time>2015-06-21T13:32:26Z</time>
      </trkpt>
      <trkpt lat="44.06767" lon="6.246">
        <ele>1078</ele>
        <time>2015-06-21T13:32:34Z</time>
      </trkpt>
      <trkpt lat="44.06773" lon="6.24597">
        <ele>1083</ele>
        <time>2015-06-21T13:32:38Z</time>
      </trkpt>
      <trkpt lat="44.06775" lon="6.24593">
        <ele>1083</ele>
        <time>2015-06-21T13:32:42Z</time>
      </trkpt>
      <trkpt lat="44.06774" lon="6.2459">
        <ele>1083</ele>
        <time>2015-06-21T13:32:48Z</time>
      </trkpt>
      <trkpt lat="44.06773" lon="6.24585">
        <ele>1083</ele>
        <time>2015-06-21T13:32:57Z</time>
      </trkpt>
      <trkpt lat="44.06772" lon="6.2458">
        <ele>1083</ele>
        <time>2015-06-21T13:33:03Z</time>
      </trkpt>
      <trkpt lat="44.06772" lon="6.24578">
        <ele>1083</ele>
        <time>2015-06-21T13:33:09Z</time>
      </trkpt>
      <trkpt lat="44.06772" lon="6.24577">
        <ele>1083</ele>
        <time>2015-06-21T13:33:15Z</time>
      </trkpt>
      <trkpt lat="44.06778" lon="6.24567">
        <ele>1085</ele>
        <time>2015-06-21T13:33:22Z</time>
      </trkpt>
      <trkpt lat="44.06783" lon="6.24562">
        <ele>1085</ele>
        <time>2015-06-21T13:33:26Z</time>
      </trkpt>
      <trkpt lat="44.06785" lon="6.24557">
        <ele>1085</ele>
        <time>2015-06-21T13:33:30Z</time>
      </trkpt>
      <trkpt lat="44.06789" lon="6.24545">
        <ele>1085</ele>
        <time>2015-06-21T13:33:40Z</time>
      </trkpt>
      <trkpt lat="44.068" lon="6.24538">
        <ele>1088</ele>
        <time>2015-06-21T13:33:49Z</time>
      </trkpt>
      <trkpt lat="44.06813" lon="6.24528">
        <ele>1088</ele>
        <time>2015-06-21T13:33:54Z</time>
      </trkpt>
      <trkpt lat="44.06824" lon="6.24507">
        <ele>1085</ele>
        <time>2015-06-21T13:34:00Z</time>
      </trkpt>
      <trkpt lat="44.06827" lon="6.24488">
        <ele>1085</ele>
        <time>2015-06-21T13:34:03Z</time>
      </trkpt>
      <trkpt lat="44.06826" lon="6.24463">
        <ele>1082</ele>
        <time>2015-06-21T13:34:06Z</time>
      </trkpt>
      <trkpt lat="44.06826" lon="6.24436">
        <ele>1082</ele>
        <time>2015-06-21T13:34:09Z</time>
      </trkpt>
      <trkpt lat="44.06825" lon="6.24379">
        <ele>1083</ele>
        <time>2015-06-21T13:34:14Z</time>
      </trkpt>
      <trkpt lat="44.06839" lon="6.24351">
        <ele>1084</ele>
        <time>2015-06-21T13:34:18Z</time>
      </trkpt>
      <trkpt lat="44.06846" lon="6.24337">
        <ele>1080</ele>
        <time>2015-06-21T13:34:21Z</time>
      </trkpt>
      <trkpt lat="44.0684" lon="6.24315">
        <ele>1075</ele>
        <time>2015-06-21T13:34:25Z</time>
      </trkpt>
      <trkpt lat="44.06857" lon="6.24315">
        <ele>1070</ele>
        <time>2015-06-21T13:34:32Z</time>
      </trkpt>
      <trkpt lat="44.06877" lon="6.24313">
        <ele>1064</ele>
        <time>2015-06-21T13:34:36Z</time>
      </trkpt>
      <trkpt lat="44.06879" lon="6.24307">
        <ele>1064</ele>
        <time>2015-06-21T13:34:39Z</time>
      </trkpt>
      <trkpt lat="44.06899" lon="6.24285">
        <ele>1058</ele>
        <time>2015-06-21T13:34:43Z</time>
      </trkpt>
      <trkpt lat="44.06912" lon="6.24266">
        <ele>1055</ele>
        <time>2015-06-21T13:34:46Z</time>
      </trkpt>
      <trkpt lat="44.06929" lon="6.24245">
        <ele>1050</ele>
        <time>2015-06-21T13:34:51Z</time>
      </trkpt>
      <trkpt lat="44.06944" lon="6.2424">
        <ele>1048</ele>
        <time>2015-06-21T13:34:54Z</time>
      </trkpt>
      <trkpt lat="44.06964" lon="6.24228">
        <ele>1044</ele>
        <time>2015-06-21T13:34:57Z</time>
      </trkpt>
      <trkpt lat="44.06978" lon="6.24226">
        <ele>1044</ele>
        <time>2015-06-21T13:35:00Z</time>
      </trkpt>
      <trkpt lat="44.06992" lon="6.24215">
        <ele>1042</ele>
        <time>2015-06-21T13:35:05Z</time>
      </trkpt>
      <trkpt lat="44.07008" lon="6.24212">
        <ele>1042</ele>
        <time>2015-06-21T13:35:08Z</time>
      </trkpt>
      <trkpt lat="44.07038" lon="6.24221">
        <ele>1034</ele>
        <time>2015-06-21T13:35:13Z</time>
      </trkpt>
      <trkpt lat="44.07066" lon="6.24227">
        <ele>1025</ele>
        <time>2015-06-21T13:35:20Z</time>
      </trkpt>
      <trkpt lat="44.07076" lon="6.24218">
        <ele>1018</ele>
        <time>2015-06-21T13:35:23Z</time>
      </trkpt>
      <trkpt lat="44.07094" lon="6.24202">
        <ele>1015</ele>
        <time>2015-06-21T13:35:27Z</time>
      </trkpt>
      <trkpt lat="44.07116" lon="6.24206">
        <ele>1014</ele>
        <time>2015-06-21T13:35:31Z</time>
      </trkpt>
      <trkpt lat="44.07146" lon="6.24228">
        <ele>1014</ele>
        <time>2015-06-21T13:35:36Z</time>
      </trkpt>
      <trkpt lat="44.07182" lon="6.24246">
        <ele>1009</ele>
        <time>2015-06-21T13:35:43Z</time>
      </trkpt>
      <trkpt lat="44.07198" lon="6.24254">
        <ele>1009</ele>
        <time>2015-06-21T13:35:46Z</time>
      </trkpt>
      <trkpt lat="44.07217" lon="6.24272">
        <ele>1001</ele>
        <time>2015-06-21T13:35:50Z</time>
      </trkpt>
      <trkpt lat="44.07238" lon="6.2428">
        <ele>996</ele>
        <time>2015-06-21T13:35:54Z</time>
      </trkpt>
      <trkpt lat="44.0726" lon="6.24295">
        <ele>990</ele>
        <time>2015-06-21T13:35:58Z</time>
      </trkpt>
      <trkpt lat="44.07283" lon="6.24304">
        <ele>991</ele>
        <time>2015-06-21T13:36:02Z</time>
      </trkpt>
      <trkpt lat="44.07305" lon="6.24315">
        <ele>990</ele>
        <time>2015-06-21T13:36:07Z</time>
      </trkpt>
      <trkpt lat="44.07319" lon="6.24319">
        <ele>990</ele>
        <time>2015-06-21T13:36:10Z</time>
      </trkpt>
      <trkpt lat="44.07341" lon="6.24329">
        <ele>987</ele>
        <time>2015-06-21T13:36:14Z</time>
      </trkpt>
      <trkpt lat="44.0736" lon="6.24331">
        <ele>985</ele>
        <time>2015-06-21T13:36:18Z</time>
      </trkpt>
      <trkpt lat="44.07375" lon="6.24332">
        <ele>985</ele>
        <time>2015-06-21T13:36:22Z</time>
      </trkpt>
      <trkpt lat="44.07393" lon="6.24341">
        <ele>983</ele>
        <time>2015-06-21T13:36:27Z</time>
      </trkpt>
      <trkpt lat="44.07415" lon="6.24327">
        <ele>986</ele>
        <time>2015-06-21T13:36:32Z</time>
      </trkpt>
      <trkpt lat="44.07429" lon="6.24302">
        <ele>982</ele>
        <time>2015-06-21T13:36:36Z</time>
      </trkpt>
      <trkpt lat="44.07452" lon="6.24276">
        <ele>981</ele>
        <time>2015-06-21T13:36:41Z</time>
      </trkpt>
      <trkpt lat="44.07488" lon="6.24241">
        <ele>989</ele>
        <time>2015-06-21T13:36:47Z</time>
      </trkpt>
      <trkpt lat="44.07511" lon="6.24184">
        <ele>979</ele>
        <time>2015-06-21T13:36:53Z</time>
      </trkpt>
      <trkpt lat="44.07539" lon="6.24132">
        <ele>980</ele>
        <time>2015-06-21T13:36:59Z</time>
      </trkpt>
      <trkpt lat="44.07563" lon="6.24092">
        <ele>969</ele>
        <time>2015-06-21T13:37:04Z</time>
      </trkpt>
      <trkpt lat="44.076" lon="6.24059">
        <ele>973</ele>
        <time>2015-06-21T13:37:10Z</time>
      </trkpt>
      <trkpt lat="44.07639" lon="6.24009">
        <ele>956</ele>
        <time>2015-06-21T13:37:16Z</time>
      </trkpt>
      <trkpt lat="44.07668" lon="6.23992">
        <ele>961</ele>
        <time>2015-06-21T13:37:20Z</time>
      </trkpt>
      <trkpt lat="44.07708" lon="6.23969">
        <ele>953</ele>
        <time>2015-06-21T13:37:25Z</time>
      </trkpt>
      <trkpt lat="44.07728" lon="6.23958">
        <ele>947</ele>
        <time>2015-06-21T13:37:28Z</time>
      </trkpt>
      <trkpt lat="44.07756" lon="6.23954">
        <ele>948</ele>
        <time>2015-06-21T13:37:32Z</time>
      </trkpt>
      <trkpt lat="44.07776" lon="6.23969">
        <ele>950</ele>
        <time>2015-06-21T13:37:35Z</time>
      </trkpt>
      <trkpt lat="44.07786" lon="6.23971">
        <ele>950</ele>
        <time>2015-06-21T13:37:39Z</time>
      </trkpt>
      <trkpt lat="44.07785" lon="6.23969">
        <ele>950</ele>
        <time>2015-06-21T13:37:42Z</time>
      </trkpt>
      <trkpt lat="44.07789" lon="6.23964">
        <ele>950</ele>
        <time>2015-06-21T13:37:47Z</time>
      </trkpt>
      <trkpt lat="44.07792" lon="6.23965">
        <ele>942</ele>
        <time>2015-06-21T13:37:51Z</time>
      </trkpt>
      <trkpt lat="44.07802" lon="6.23963">
        <ele>942</ele>
        <time>2015-06-21T13:37:55Z</time>
      </trkpt>
      <trkpt lat="44.07816" lon="6.2397">
        <ele>942</ele>
        <time>2015-06-21T13:37:59Z</time>
      </trkpt>
      <trkpt lat="44.07825" lon="6.23973">
        <ele>933</ele>
        <time>2015-06-21T13:38:02Z</time>
      </trkpt>
      <trkpt lat="44.07835" lon="6.23978">
        <ele>933</ele>
        <time>2015-06-21T13:38:05Z</time>
      </trkpt>
      <trkpt lat="44.07863" lon="6.23977">
        <ele>925</ele>
        <time>2015-06-21T13:38:10Z</time>
      </trkpt>
      <trkpt lat="44.07883" lon="6.23971">
        <ele>920</ele>
        <time>2015-06-21T13:38:15Z</time>
      </trkpt>
      <trkpt lat="44.07906" lon="6.23952">
        <ele>915</ele>
        <time>2015-06-21T13:38:19Z</time>
      </trkpt>
      <trkpt lat="44.0794" lon="6.23903">
        <ele>910</ele>
        <time>2015-06-21T13:38:25Z</time>
      </trkpt>
      <trkpt lat="44.07961" lon="6.23881">
        <ele>903</ele>
        <time>2015-06-21T13:38:30Z</time>
      </trkpt>
      <trkpt lat="44.07973" lon="6.23885">
        <ele>903</ele>
        <time>2015-06-21T13:38:33Z</time>
      </trkpt>
      <trkpt lat="44.07988" lon="6.23912">
        <ele>894</ele>
        <time>2015-06-21T13:38:38Z</time>
      </trkpt>
      <trkpt lat="44.07992" lon="6.23916">
        <ele>894</ele>
        <time>2015-06-21T13:38:41Z</time>
      </trkpt>
      <trkpt lat="44.07997" lon="6.23921">
        <ele>894</ele>
        <time>2015-06-21T13:38:44Z</time>
      </trkpt>
      <trkpt lat="44.08012" lon="6.23941">
        <ele>894</ele>
        <time>2015-06-21T13:38:48Z</time>
      </trkpt>
      <trkpt lat="44.08045" lon="6.23959">
        <ele>893</ele>
        <time>2015-06-21T13:38:53Z</time>
      </trkpt>
      <trkpt lat="44.0807" lon="6.23962">
        <ele>892</ele>
        <time>2015-06-21T13:38:58Z</time>
      </trkpt>
      <trkpt lat="44.08099" lon="6.23937">
        <ele>887</ele>
        <time>2015-06-21T13:39:04Z</time>
      </trkpt>
      <trkpt lat="44.08131" lon="6.23886">
        <ele>879</ele>
        <time>2015-06-21T13:39:10Z</time>
      </trkpt>
      <trkpt lat="44.08157" lon="6.23858">
        <ele>880</ele>
        <time>2015-06-21T13:39:17Z</time>
      </trkpt>
      <trkpt lat="44.08163" lon="6.23841">
        <ele>876</ele>
        <time>2015-06-21T13:39:20Z</time>
      </trkpt>
      <trkpt lat="44.08158" lon="6.23807">
        <ele>870</ele>
        <time>2015-06-21T13:39:25Z</time>
      </trkpt>
      <trkpt lat="44.08173" lon="6.23776">
        <ele>865</ele>
        <time>2015-06-21T13:39:30Z</time>
      </trkpt>
      <trkpt lat="44.08187" lon="6.23746">
        <ele>870</ele>
        <time>2015-06-21T13:39:34Z</time>
      </trkpt>
      <trkpt lat="44.08196" lon="6.23706">
        <ele>861</ele>
        <time>2015-06-21T13:39:39Z</time>
      </trkpt>
      <trkpt lat="44.08211" lon="6.23666">
        <ele>862</ele>
        <time>2015-06-21T13:39:44Z</time>
      </trkpt>
      <trkpt lat="44.08227" lon="6.23639">
        <ele>851</ele>
        <time>2015-06-21T13:39:49Z</time>
      </trkpt>
      <trkpt lat="44.08236" lon="6.23628">
        <ele>851</ele>
        <time>2015-06-21T13:39:53Z</time>
      </trkpt>
      <trkpt lat="44.08256" lon="6.23599">
        <ele>845</ele>
        <time>2015-06-21T13:39:59Z</time>
      </trkpt>
      <trkpt lat="44.08266" lon="6.23589">
        <ele>840</ele>
        <time>2015-06-21T13:40:02Z</time>
      </trkpt>
      <trkpt lat="44.08279" lon="6.23575">
        <ele>840</ele>
        <time>2015-06-21T13:40:05Z</time>
      </trkpt>
      <trkpt lat="44.08294" lon="6.2356">
        <ele>836</ele>
        <time>2015-06-21T13:40:11Z</time>
      </trkpt>
      <trkpt lat="44.083" lon="6.2355">
        <ele>836</ele>
        <time>2015-06-21T13:40:16Z</time>
      </trkpt>
      <trkpt lat="44.08297" lon="6.23546">
        <ele>836</ele>
        <time>2015-06-21T13:40:20Z</time>
      </trkpt>
      <trkpt lat="44.083" lon="6.2354">
        <ele>824</ele>
        <time>2015-06-21T13:40:23Z</time>
      </trkpt>
      <trkpt lat="44.08304" lon="6.23526">
        <ele>824</ele>
        <time>2015-06-21T13:40:27Z</time>
      </trkpt>
      <trkpt lat="44.0831" lon="6.23506">
        <ele>813</ele>
        <time>2015-06-21T13:40:31Z</time>
      </trkpt>
      <trkpt lat="44.08319" lon="6.23495">
        <ele>813</ele>
        <time>2015-06-21T13:40:34Z</time>
      </trkpt>
      <trkpt lat="44.0833" lon="6.2348">
        <ele>806</ele>
        <time>2015-06-21T13:40:38Z</time>
      </trkpt>
      <trkpt lat="44.08349" lon="6.23459">
        <ele>806</ele>
        <time>2015-06-21T13:40:44Z</time>
      </trkpt>
      <trkpt lat="44.08365" lon="6.23441">
        <ele>795</ele>
        <time>2015-06-21T13:40:49Z</time>
      </trkpt>
      <trkpt lat="44.08374" lon="6.2343">
        <ele>785</ele>
        <time>2015-06-21T13:40:53Z</time>
      </trkpt>
      <trkpt lat="44.08378" lon="6.23423">
        <ele>780</ele>
        <time>2015-06-21T13:40:56Z</time>
      </trkpt>
      <trkpt lat="44.08376" lon="6.2341">
        <ele>780</ele>
        <time>2015-06-21T13:41:00Z</time>
      </trkpt>
      <trkpt lat="44.08375" lon="6.23402">
        <ele>775</ele>
        <time>2015-06-21T13:41:04Z</time>
      </trkpt>
      <trkpt lat="44.08384" lon="6.23396">
        <ele>775</ele>
        <time>2015-06-21T13:41:08Z</time>
      </trkpt>
      <trkpt lat="44.0836" lon="6.23395">
        <ele>774</ele>
        <time>2015-06-21T13:41:14Z</time>
      </trkpt>
      <trkpt lat="44.08338" lon="6.23396">
        <ele>765</ele>
        <time>2015-06-21T13:41:19Z</time>
      </trkpt>
      <trkpt lat="44.08324" lon="6.23393">
        <ele>765</ele>
        <time>2015-06-21T13:41:22Z</time>
      </trkpt>
      <trkpt lat="44.08325" lon="6.23384">
        <ele>765</ele>
        <time>2015-06-21T13:41:25Z</time>
      </trkpt>
      <trkpt lat="44.08342" lon="6.23375">
        <ele>753</ele>
        <time>2015-06-21T13:41:28Z</time>
      </trkpt>
      <trkpt lat="44.08379" lon="6.23345">
        <ele>759</ele>
        <time>2015-06-21T13:41:34Z</time>
      </trkpt>
      <trkpt lat="44.08399" lon="6.23318">
        <ele>749</ele>
        <time>2015-06-21T13:41:39Z</time>
      </trkpt>
      <trkpt lat="44.08409" lon="6.23293">
        <ele>752</ele>
        <time>2015-06-21T13:41:43Z</time>
      </trkpt>
      <trkpt lat="44.08423" lon="6.23282">
        <ele>739</ele>
        <time>2015-06-21T13:41:47Z</time>
      </trkpt>
      <trkpt lat="44.08423" lon="6.23277">
        <ele>739</ele>
        <time>2015-06-21T13:41:51Z</time>
      </trkpt>
      <trkpt lat="44.08413" lon="6.23267">
        <ele>739</ele>
        <time>2015-06-21T13:41:57Z</time>
      </trkpt>
      <trkpt lat="44.08418" lon="6.23262">
        <ele>730</ele>
        <time>2015-06-21T13:42:00Z</time>
      </trkpt>
      <trkpt lat="44.08412" lon="6.23252">
        <ele>730</ele>
        <time>2015-06-21T13:42:07Z</time>
      </trkpt>
      <trkpt lat="44.08415" lon="6.23246">
        <ele>730</ele>
        <time>2015-06-21T13:42:12Z</time>
      </trkpt>
      <trkpt lat="44.08415" lon="6.23235">
        <ele>721</ele>
        <time>2015-06-21T13:42:15Z</time>
      </trkpt>
      <trkpt lat="44.0841" lon="6.23227">
        <ele>721</ele>
        <time>2015-06-21T13:42:18Z</time>
      </trkpt>
      <trkpt lat="44.08408" lon="6.23228">
        <ele>721</ele>
        <time>2015-06-21T13:42:21Z</time>
      </trkpt>
      <trkpt lat="44.0841" lon="6.23221">
        <ele>721</ele>
        <time>2015-06-21T13:42:25Z</time>
      </trkpt>
      <trkpt lat="44.08406" lon="6.23199">
        <ele>715</ele>
        <time>2015-06-21T13:42:29Z</time>
      </trkpt>
      <trkpt lat="44.08407" lon="6.23192">
        <ele>715</ele>
        <time>2015-06-21T13:42:32Z</time>
      </trkpt>
      <trkpt lat="44.08413" lon="6.23205">
        <ele>715</ele>
        <time>2015-06-21T13:42:36Z</time>
      </trkpt>
      <trkpt lat="44.08429" lon="6.23212">
        <ele>721</ele>
        <time>2015-06-21T13:42:39Z</time>
      </trkpt>
      <trkpt lat="44.08465" lon="6.23228">
        <ele>701</ele>
        <time>2015-06-21T13:42:44Z</time>
      </trkpt>
      <trkpt lat="44.08494" lon="6.23239">
        <ele>694</ele>
        <time>2015-06-21T13:42:47Z</time>
      </trkpt>
      <trkpt lat="44.08541" lon="6.23257">
        <ele>685</ele>
        <time>2015-06-21T13:42:53Z</time>
      </trkpt>
      <trkpt lat="44.08548" lon="6.23302">
        <ele>688</ele>
        <time>2015-06-21T13:43:00Z</time>
      </trkpt>
      <trkpt lat="44.08542" lon="6.23316">
        <ele>688</ele>
        <time>2015-06-21T13:43:03Z</time>
      </trkpt>
      <trkpt lat="44.08568" lon="6.23299">
        <ele>688</ele>
        <time>2015-06-21T13:43:09Z</time>
      </trkpt>
      <trkpt lat="44.08608" lon="6.23293">
        <ele>672</ele>
        <time>2015-06-21T13:43:16Z</time>
      </trkpt>
      <trkpt lat="44.08622" lon="6.23291">
        <ele>664</ele>
        <time>2015-06-21T13:43:19Z</time>
      </trkpt>
      <trkpt lat="44.08646" lon="6.23291">
        <ele>654</ele>
        <time>2015-06-21T13:43:24Z</time>
      </trkpt>
      <trkpt lat="44.08655" lon="6.23284">
        <ele>643</ele>
        <time>2015-06-21T13:43:30Z</time>
      </trkpt>
      <trkpt lat="44.0865" lon="6.23282">
        <ele>654</ele>
        <time>2015-06-21T13:43:34Z</time>
      </trkpt>
      <trkpt lat="44.08654" lon="6.23284">
        <ele>643</ele>
        <time>2015-06-21T13:43:37Z</time>
      </trkpt>
      <trkpt lat="44.08656" lon="6.23278">
        <ele>643</ele>
        <time>2015-06-21T13:43:42Z</time>
      </trkpt>
      <trkpt lat="44.0866" lon="6.23275">
        <ele>643</ele>
        <time>2015-06-21T13:43:48Z</time>
      </trkpt>
      <trkpt lat="44.08669" lon="6.23269">
        <ele>643</ele>
        <time>2015-06-21T13:43:51Z</time>
      </trkpt>
      <trkpt lat="44.0868" lon="6.23259">
        <ele>638</ele>
        <time>2015-06-21T13:43:58Z</time>
      </trkpt>
      <trkpt lat="44.0869" lon="6.23249">
        <ele>632</ele>
        <time>2015-06-21T13:44:01Z</time>
      </trkpt>
      <trkpt lat="44.08703" lon="6.23237">
        <ele>632</ele>
        <time>2015-06-21T13:44:04Z</time>
      </trkpt>
      <trkpt lat="44.08711" lon="6.23231">
        <ele>617</ele>
        <time>2015-06-21T13:44:07Z</time>
      </trkpt>
      <trkpt lat="44.08718" lon="6.23223">
        <ele>617</ele>
        <time>2015-06-21T13:44:10Z</time>
      </trkpt>
      <trkpt lat="44.08729" lon="6.23227">
        <ele>617</ele>
        <time>2015-06-21T13:44:13Z</time>
      </trkpt>
      <trkpt lat="44.08743" lon="6.23235">
        <ele>612</ele>
        <time>2015-06-21T13:44:16Z</time>
      </trkpt>
      <trkpt lat="44.08771" lon="6.23226">
        <ele>607</ele>
        <time>2015-06-21T13:44:20Z</time>
      </trkpt>
      <trkpt lat="44.08794" lon="6.23224">
        <ele>601</ele>
        <time>2015-06-21T13:44:23Z</time>
      </trkpt>
      <trkpt lat="44.08813" lon="6.23207">
        <ele>598</ele>
        <time>2015-06-21T13:44:26Z</time>
      </trkpt>
      <trkpt lat="44.08833" lon="6.23182">
        <ele>596</ele>
        <time>2015-06-21T13:44:29Z</time>
      </trkpt>
      <trkpt lat="44.08842" lon="6.23173">
        <ele>595</ele>
        <time>2015-06-21T13:44:32Z</time>
      </trkpt>
      <trkpt lat="44.08855" lon="6.2317">
        <ele>595</ele>
        <time>2015-06-21T13:44:36Z</time>
      </trkpt>
      <trkpt lat="44.0886" lon="6.23151">
        <ele>595</ele>
        <time>2015-06-21T13:44:41Z</time>
      </trkpt>
      <trkpt lat="44.08878" lon="6.23114">
        <ele>594</ele>
        <time>2015-06-21T13:44:45Z</time>
      </trkpt>
      <trkpt lat="44.0889" lon="6.23077">
        <ele>593</ele>
        <time>2015-06-21T13:44:49Z</time>
      </trkpt>
      <trkpt lat="44.08895" lon="6.23038">
        <ele>593</ele>
        <time>2015-06-21T13:44:53Z</time>
      </trkpt>
      <trkpt lat="44.08916" lon="6.22996">
        <ele>593</ele>
        <time>2015-06-21T13:44:58Z</time>
      </trkpt>
      <trkpt lat="44.08931" lon="6.22962">
        <ele>590</ele>
        <time>2015-06-21T13:45:02Z</time>
      </trkpt>
      <trkpt lat="44.08925" lon="6.22929">
        <ele>588</ele>
        <time>2015-06-21T13:45:06Z</time>
      </trkpt>
      <trkpt lat="44.08873" lon="6.22883">
        <ele>586</ele>
        <time>2015-06-21T13:45:15Z</time>
      </trkpt>
      <trkpt lat="44.08825" lon="6.22842">
        <ele>586</ele>
        <time>2015-06-21T13:45:22Z</time>
      </trkpt>
      <trkpt lat="44.08796" lon="6.22818">
        <ele>585</ele>
        <time>2015-06-21T13:45:26Z</time>
      </trkpt>
      <trkpt lat="44.08737" lon="6.22767">
        <ele>587</ele>
        <time>2015-06-21T13:45:35Z</time>
      </trkpt>
      <trkpt lat="44.08692" lon="6.22728">
        <ele>585</ele>
        <time>2015-06-21T13:45:42Z</time>
      </trkpt>
      <trkpt lat="44.08663" lon="6.22702">
        <ele>583</ele>
        <time>2015-06-21T13:45:47Z</time>
      </trkpt>
      <trkpt lat="44.08625" lon="6.2267">
        <ele>585</ele>
        <time>2015-06-21T13:45:53Z</time>
      </trkpt>
      <trkpt lat="44.08583" lon="6.22635">
        <ele>586</ele>
        <time>2015-06-21T13:46:00Z</time>
      </trkpt>
      <trkpt lat="44.08561" lon="6.22616">
        <ele>586</ele>
        <time>2015-06-21T13:46:04Z</time>
      </trkpt>
      <trkpt lat="44.08538" lon="6.22617">
        <ele>585</ele>
        <time>2015-06-21T13:46:08Z</time>
      </trkpt>
      <trkpt lat="44.08528" lon="6.22634">
        <ele>587</ele>
        <time>2015-06-21T13:46:11Z</time>
      </trkpt>
      <trkpt lat="44.08519" lon="6.22688">
        <ele>592</ele>
        <time>2015-06-21T13:46:19Z</time>
      </trkpt>
      <trkpt lat="44.08503" lon="6.22685">
        <ele>594</ele>
        <time>2015-06-21T13:46:22Z</time>
      </trkpt>
      <trkpt lat="44.08486" lon="6.22667">
        <ele>592</ele>
        <time>2015-06-21T13:46:25Z</time>
      </trkpt>
      <trkpt lat="44.08465" lon="6.22652">
        <ele>589</ele>
        <time>2015-06-21T13:46:28Z</time>
      </trkpt>
      <trkpt lat="44.08435" lon="6.22642">
        <ele>590</ele>
        <time>2015-06-21T13:46:32Z</time>
      </trkpt>
      <trkpt lat="44.08384" lon="6.22636">
        <ele>588</ele>
        <time>2015-06-21T13:46:39Z</time>
      </trkpt>
      <trkpt lat="44.08349" lon="6.22625">
        <ele>591</ele>
        <time>2015-06-21T13:46:45Z</time>
      </trkpt>
      <trkpt lat="44.08326" lon="6.22601">
        <ele>590</ele>
        <time>2015-06-21T13:46:51Z</time>
      </trkpt>
      <trkpt lat="44.08318" lon="6.2258">
        <ele>593</ele>
        <time>2015-06-21T13:46:54Z</time>
      </trkpt>
      <trkpt lat="44.08289" lon="6.22531">
        <ele>588</ele>
        <time>2015-06-21T13:47:02Z</time>
      </trkpt>
      <trkpt lat="44.08292" lon="6.22507">
        <ele>584</ele>
        <time>2015-06-21T13:47:07Z</time>
      </trkpt>
      <trkpt lat="44.08297" lon="6.22472">
        <ele>583</ele>
        <time>2015-06-21T13:47:12Z</time>
      </trkpt>
      <trkpt lat="44.08304" lon="6.22444">
        <ele>583</ele>
        <time>2015-06-21T13:47:16Z</time>
      </trkpt>
      <trkpt lat="44.08323" lon="6.22426">
        <ele>583</ele>
        <time>2015-06-21T13:47:22Z</time>
      </trkpt>
      <trkpt lat="44.0833" lon="6.22425">
        <ele>583</ele>
        <time>2015-06-21T13:47:25Z</time>
      </trkpt>
    </trkseg>
  </trk>
</gpx>